<?xml version='1.0' encoding='UTF-8'?><gpx version="1.1" creator="JPX - https://github.com/jenetics/jpx" xmlns="http://www.topografix.com/GPX/1/1"><trk><trkseg><trkpt lat="38.043760350962096" lon="13.30400902083799"><ele>505.00000000000006</ele><time>2026-04-26T08:02:13Z</time></trkpt><trkpt lat="38.043693866322464" lon="13.303979069191657"><ele>505.0</ele><time>2026-04-26T08:02:14Z</time></trkpt><trkpt lat="38.04362556287608" lon="13.303928540788936"><ele>505.0</ele><time>2026-04-26T08:02:15Z</time></trkpt><trkpt lat="38.04353475489113" lon="13.303903300077383"><ele>505.0</ele><time>2026-04-26T08:02:16Z</time></trkpt><trkpt lat="38.043450163312855" lon="13.303881732766028"><ele>505.00000000000006</ele><time>2026-04-26T08:02:17Z</time></trkpt><trkpt lat="38.04335000993339" lon="13.303856759838764"><ele>505.0</ele><time>2026-04-26T08:02:18Z</time></trkpt><trkpt lat="38.043252606478404" lon="13.303824579562253"><ele>504.0</ele><time>2026-04-26T08:02:19Z</time></trkpt><trkpt lat="38.043176874077" lon="13.303768861428424"><ele>503.0</ele><time>2026-04-26T08:02:20Z</time></trkpt><trkpt lat="38.04312411849471" lon="13.303679017161564"><ele>502.0</ele><time>2026-04-26T08:02:21Z</time></trkpt><trkpt lat="38.04305840507737" lon="13.303577449573382"><ele>501.0</ele><time>2026-04-26T08:02:22Z</time></trkpt><trkpt lat="38.04296936242545" lon="13.30344249513049"><ele>500.0</ele><time>2026-04-26T08:02:23Z</time></trkpt><trkpt lat="38.04286741448816" lon="13.303312429435135"><ele>500.0</ele><time>2026-04-26T08:02:24Z</time></trkpt><trkpt lat="38.042785294539335" lon="13.303165999094894"><ele>500.0</ele><time>2026-04-26T08:02:25Z</time></trkpt><trkpt lat="38.04270114833094" lon="13.30300332881499"><ele>500.0</ele><time>2026-04-26T08:02:26Z</time></trkpt><trkpt lat="38.04263505807705" lon="13.302852169455344"><ele>500.0</ele><time>2026-04-26T08:02:27Z</time></trkpt><trkpt lat="38.04257516055375" lon="13.302719708939524"><ele>502.25</ele><time>2026-04-26T08:02:28Z</time></trkpt><trkpt lat="38.04250935621213" lon="13.302589185533167"><ele>504.5</ele><time>2026-04-26T08:02:29Z</time></trkpt><trkpt lat="38.04246048978749" lon="13.302456821682544"><ele>506.75</ele><time>2026-04-26T08:02:30Z</time></trkpt><trkpt lat="38.04237842974604" lon="13.302357285011613"><ele>509.0</ele><time>2026-04-26T08:02:31Z</time></trkpt><trkpt lat="38.04231015918623" lon="13.302250047368478"><ele>502.4</ele><time>2026-04-26T08:02:32Z</time></trkpt><trkpt lat="38.042238791251876" lon="13.302138767710728"><ele>495.79999999999995</ele><time>2026-04-26T08:02:33Z</time></trkpt><trkpt lat="38.04216791103744" lon="13.302025766900858"><ele>489.20000000000005</ele><time>2026-04-26T08:02:34Z</time></trkpt><trkpt lat="38.042102477705996" lon="13.30191140920057"><ele>482.6</ele><time>2026-04-26T08:02:35Z</time></trkpt><trkpt lat="38.042042705624986" lon="13.301803302230924"><ele>476.0</ele><time>2026-04-26T08:02:36Z</time></trkpt><trkpt lat="38.04199624174956" lon="13.301741240010877"><ele>476.0</ele><time>2026-04-26T08:02:37Z</time></trkpt><trkpt lat="38.041938433441224" lon="13.301657960942839"><ele>476.0</ele><time>2026-04-26T08:02:38Z</time></trkpt><trkpt lat="38.04186160354048" lon="13.301605491124922"><ele>476.0</ele><time>2026-04-26T08:02:39Z</time></trkpt><trkpt lat="38.04177711852051" lon="13.301590504683768"><ele>476.0</ele><time>2026-04-26T08:02:40Z</time></trkpt><trkpt lat="38.04167474318869" lon="13.301599731865107"><ele>476.0</ele><time>2026-04-26T08:02:41Z</time></trkpt><trkpt lat="38.0415709996113" lon="13.301614923719493"><ele>477.20000000000005</ele><time>2026-04-26T08:02:42Z</time></trkpt><trkpt lat="38.041480368855126" lon="13.301599118435245"><ele>478.40000000000003</ele><time>2026-04-26T08:02:43Z</time></trkpt><trkpt lat="38.0413998719826" lon="13.301586618188365"><ele>479.6</ele><time>2026-04-26T08:02:44Z</time></trkpt><trkpt lat="38.04132419716632" lon="13.3015418582637"><ele>480.8</ele><time>2026-04-26T08:02:45Z</time></trkpt><trkpt lat="38.04126870827218" lon="13.301456027708454"><ele>482.0</ele><time>2026-04-26T08:02:46Z</time></trkpt><trkpt lat="38.04122201248089" lon="13.301325941708095"><ele>482.0</ele><time>2026-04-26T08:02:47Z</time></trkpt><trkpt lat="38.041164383423485" lon="13.30117792355457"><ele>482.00000000000006</ele><time>2026-04-26T08:02:48Z</time></trkpt><trkpt lat="38.04112223295503" lon="13.30105840978194"><ele>482.00000000000006</ele><time>2026-04-26T08:02:49Z</time></trkpt><trkpt lat="38.04108632777338" lon="13.300947128583726"><ele>482.0</ele><time>2026-04-26T08:02:50Z</time></trkpt><trkpt lat="38.04105265188416" lon="13.300835874143631"><ele>482.0</ele><time>2026-04-26T08:02:51Z</time></trkpt><trkpt lat="38.04100518610946" lon="13.300731248798336"><ele>481.99999999999994</ele><time>2026-04-26T08:02:52Z</time></trkpt><trkpt lat="38.04099498010116" lon="13.300622562790165"><ele>482.0</ele><time>2026-04-26T08:02:53Z</time></trkpt><trkpt lat="38.04098781326179" lon="13.300523677477932"><ele>482.0</ele><time>2026-04-26T08:02:54Z</time></trkpt><trkpt lat="38.041013232897946" lon="13.300428930258754"><ele>482.0</ele><time>2026-04-26T08:02:55Z</time></trkpt><trkpt lat="38.0410630011784" lon="13.300336259757717"><ele>481.99999999999994</ele><time>2026-04-26T08:02:56Z</time></trkpt><trkpt lat="38.041151483161244" lon="13.30026158598627"><ele>482.0</ele><time>2026-04-26T08:02:57Z</time></trkpt><trkpt lat="38.04123593044768" lon="13.300178664568325"><ele>482.16666666666663</ele><time>2026-04-26T08:02:58Z</time></trkpt><trkpt lat="38.041306172470435" lon="13.300101293661237"><ele>482.3333333333333</ele><time>2026-04-26T08:02:59Z</time></trkpt><trkpt lat="38.04134830684409" lon="13.300029420850699"><ele>482.5</ele><time>2026-04-26T08:03:00Z</time></trkpt><trkpt lat="38.041395166228114" lon="13.29996505289368"><ele>482.66666666666663</ele><time>2026-04-26T08:03:01Z</time></trkpt><trkpt lat="38.04141631358231" lon="13.299868635542564"><ele>482.8333333333333</ele><time>2026-04-26T08:03:02Z</time></trkpt><trkpt lat="38.04142460102008" lon="13.299761281647317"><ele>483.0</ele><time>2026-04-26T08:03:03Z</time></trkpt><trkpt lat="38.041418297863125" lon="13.299666902611461"><ele>483.79999999999995</ele><time>2026-04-26T08:03:04Z</time></trkpt><trkpt lat="38.04139894855917" lon="13.299546807415263"><ele>484.59999999999997</ele><time>2026-04-26T08:03:05Z</time></trkpt><trkpt lat="38.04138372421295" lon="13.299406470197754"><ele>485.40000000000003</ele><time>2026-04-26T08:03:06Z</time></trkpt><trkpt lat="38.04135696719233" lon="13.29926583382373"><ele>486.20000000000005</ele><time>2026-04-26T08:03:07Z</time></trkpt><trkpt lat="38.04133309997721" lon="13.299151787931834"><ele>487.0</ele><time>2026-04-26T08:03:08Z</time></trkpt><trkpt lat="38.04130030552361" lon="13.29903826941811"><ele>487.0</ele><time>2026-04-26T08:03:09Z</time></trkpt><trkpt lat="38.04126145059062" lon="13.29892898467954"><ele>487.00000000000006</ele><time>2026-04-26T08:03:10Z</time></trkpt><trkpt lat="38.04121870810823" lon="13.298832788606624"><ele>487.00000000000006</ele><time>2026-04-26T08:03:11Z</time></trkpt><trkpt lat="38.04118484051915" lon="13.2987327108071"><ele>487.0</ele><time>2026-04-26T08:03:12Z</time></trkpt><trkpt lat="38.04122574280947" lon="13.29862982458024"><ele>487.0</ele><time>2026-04-26T08:03:13Z</time></trkpt><trkpt lat="38.0412368937427" lon="13.298495828323613"><ele>486.0</ele><time>2026-04-26T08:03:14Z</time></trkpt><trkpt lat="38.04127439986066" lon="13.29836050148056"><ele>485.00000000000006</ele><time>2026-04-26T08:03:15Z</time></trkpt><trkpt lat="38.041305544287724" lon="13.298218657314154"><ele>484.00000000000006</ele><time>2026-04-26T08:03:16Z</time></trkpt><trkpt lat="38.04132704662786" lon="13.298091381289714"><ele>483.0</ele><time>2026-04-26T08:03:17Z</time></trkpt><trkpt lat="38.041327384067486" lon="13.297950728614074"><ele>482.0</ele><time>2026-04-26T08:03:17.999Z</time></trkpt><trkpt lat="38.04133560899503" lon="13.297814860075377"><ele>481.0</ele><time>2026-04-26T08:03:18.999Z</time></trkpt><trkpt lat="38.041337443063505" lon="13.297680821770966"><ele>480.00000000000006</ele><time>2026-04-26T08:03:19.999Z</time></trkpt><trkpt lat="38.04132842742869" lon="13.297565548442927"><ele>479.00000000000006</ele><time>2026-04-26T08:03:20.999Z</time></trkpt><trkpt lat="38.04132204061075" lon="13.297454962382579"><ele>478.0</ele><time>2026-04-26T08:03:21.999Z</time></trkpt><trkpt lat="38.04131054083266" lon="13.297337133090833"><ele>477.0</ele><time>2026-04-26T08:03:22.999Z</time></trkpt><trkpt lat="38.04129789732998" lon="13.297201746924108"><ele>475.0</ele><time>2026-04-26T08:03:23.999Z</time></trkpt><trkpt lat="38.041283795407765" lon="13.297058373727895"><ele>473.00000000000006</ele><time>2026-04-26T08:03:24.999Z</time></trkpt><trkpt lat="38.04127509500453" lon="13.296927920628363"><ele>471.00000000000006</ele><time>2026-04-26T08:03:25.999Z</time></trkpt><trkpt lat="38.04126129216575" lon="13.296805792242766"><ele>469.0</ele><time>2026-04-26T08:03:26.999Z</time></trkpt><trkpt lat="38.041246591940435" lon="13.296679428575892"><ele>467.0</ele><time>2026-04-26T08:03:27.999Z</time></trkpt><trkpt lat="38.0412261734258" lon="13.296558754677289"><ele>466.99999999999994</ele><time>2026-04-26T08:03:28.999Z</time></trkpt><trkpt lat="38.041191582589285" lon="13.296441700567822"><ele>467.0</ele><time>2026-04-26T08:03:29.999Z</time></trkpt><trkpt lat="38.04115948675919" lon="13.296335757003027"><ele>467.0</ele><time>2026-04-26T08:03:30.999Z</time></trkpt><trkpt lat="38.041134637953775" lon="13.296249723916702"><ele>467.0</ele><time>2026-04-26T08:03:31.999Z</time></trkpt><trkpt lat="38.041106016861086" lon="13.296105230867532"><ele>466.99999999999994</ele><time>2026-04-26T08:03:33.999Z</time></trkpt><trkpt lat="38.04109994955163" lon="13.296022838563045"><ele>467.0</ele><time>2026-04-26T08:03:35.999Z</time></trkpt><trkpt lat="38.04113968683887" lon="13.29594118158712"><ele>467.0</ele><time>2026-04-26T08:03:38.999Z</time></trkpt><trkpt lat="38.041068655254534" lon="13.295952610109016"><ele>467.00000000000006</ele><time>2026-04-26T08:04:09.999Z</time></trkpt><trkpt lat="38.041104376605404" lon="13.296123813104584"><ele>467.00000000000006</ele><time>2026-04-26T08:04:11.999Z</time></trkpt><trkpt lat="38.041135011230345" lon="13.296223342851544"><ele>467.0</ele><time>2026-04-26T08:04:12.999Z</time></trkpt><trkpt lat="38.041129297877895" lon="13.296308598830702"><ele>467.0</ele><time>2026-04-26T08:04:13.999Z</time></trkpt><trkpt lat="38.041179609649674" lon="13.296452384449582"><ele>467.0</ele><time>2026-04-26T08:04:16Z</time></trkpt><trkpt lat="38.041199210538636" lon="13.296537751967538"><ele>467.00000000000006</ele><time>2026-04-26T08:04:17Z</time></trkpt><trkpt lat="38.04135215864367" lon="13.296577129706996"><ele>467.00000000000006</ele><time>2026-04-26T08:04:18Z</time></trkpt><trkpt lat="38.041382379131676" lon="13.296681121316842"><ele>467.0</ele><time>2026-04-26T08:04:19Z</time></trkpt><trkpt lat="38.04140325211648" lon="13.296802553322706"><ele>467.0</ele><time>2026-04-26T08:04:20Z</time></trkpt><trkpt lat="38.041421209930704" lon="13.296932965746525"><ele>467.0</ele><time>2026-04-26T08:04:21Z</time></trkpt><trkpt lat="38.041433114978915" lon="13.297063098580667"><ele>467.00000000000006</ele><time>2026-04-26T08:04:22Z</time></trkpt><trkpt lat="38.04144598168522" lon="13.297201127146396"><ele>467.00000000000006</ele><time>2026-04-26T08:04:23Z</time></trkpt><trkpt lat="38.0414583481389" lon="13.297341828927241"><ele>467.0</ele><time>2026-04-26T08:04:24Z</time></trkpt><trkpt lat="38.04147368526634" lon="13.297472781854168"><ele>467.0</ele><time>2026-04-26T08:04:25Z</time></trkpt><trkpt lat="38.041488488078635" lon="13.297617643596618"><ele>469.0</ele><time>2026-04-26T08:04:26Z</time></trkpt><trkpt lat="38.041483905471935" lon="13.297764916643535"><ele>471.00000000000006</ele><time>2026-04-26T08:04:27Z</time></trkpt><trkpt lat="38.041497106560726" lon="13.297915581418048"><ele>473.00000000000006</ele><time>2026-04-26T08:04:28Z</time></trkpt><trkpt lat="38.041510041259045" lon="13.298060164553151"><ele>475.0</ele><time>2026-04-26T08:04:29Z</time></trkpt><trkpt lat="38.04152118276232" lon="13.29818470345592"><ele>477.0</ele><time>2026-04-26T08:04:30Z</time></trkpt><trkpt lat="38.04153197682157" lon="13.29830535869013"><ele>478.0</ele><time>2026-04-26T08:04:31Z</time></trkpt><trkpt lat="38.041555751826955" lon="13.29843807616627"><ele>479.00000000000006</ele><time>2026-04-26T08:04:32Z</time></trkpt><trkpt lat="38.041566924597156" lon="13.29856355403281"><ele>480.00000000000006</ele><time>2026-04-26T08:04:33Z</time></trkpt><trkpt lat="38.04158009237228" lon="13.298689524347814"><ele>481.0</ele><time>2026-04-26T08:04:34Z</time></trkpt><trkpt lat="38.04157761023601" lon="13.298808028361549"><ele>482.0</ele><time>2026-04-26T08:04:35Z</time></trkpt><trkpt lat="38.041597514085154" lon="13.298939348180228"><ele>483.0</ele><time>2026-04-26T08:04:36Z</time></trkpt><trkpt lat="38.041614765550015" lon="13.299083621984296"><ele>484.00000000000006</ele><time>2026-04-26T08:04:37Z</time></trkpt><trkpt lat="38.041632019611384" lon="13.299229692110087"><ele>485.00000000000006</ele><time>2026-04-26T08:04:38Z</time></trkpt><trkpt lat="38.041655378045675" lon="13.299365095551895"><ele>486.0</ele><time>2026-04-26T08:04:39Z</time></trkpt><trkpt lat="38.04166917658708" lon="13.299481459530517"><ele>487.0</ele><time>2026-04-26T08:04:40Z</time></trkpt><trkpt lat="38.041685902261975" lon="13.299609724549226"><ele>478.8</ele><time>2026-04-26T08:04:41Z</time></trkpt><trkpt lat="38.041683965564715" lon="13.299716916602728"><ele>470.6</ele><time>2026-04-26T08:04:42Z</time></trkpt><trkpt lat="38.041709021891144" lon="13.299826306813358"><ele>462.40000000000003</ele><time>2026-04-26T08:04:43Z</time></trkpt><trkpt lat="38.0417222088649" lon="13.299935221576888"><ele>454.20000000000005</ele><time>2026-04-26T08:04:44Z</time></trkpt><trkpt lat="38.04173254833399" lon="13.300062691174915"><ele>446.0</ele><time>2026-04-26T08:04:45Z</time></trkpt><trkpt lat="38.04174440979168" lon="13.300185600638303"><ele>445.99999999999994</ele><time>2026-04-26T08:04:46Z</time></trkpt><trkpt lat="38.041740872797774" lon="13.300301316287035"><ele>446.0</ele><time>2026-04-26T08:04:47Z</time></trkpt><trkpt lat="38.04176035077429" lon="13.300419585032966"><ele>446.0</ele><time>2026-04-26T08:04:48Z</time></trkpt><trkpt lat="38.04178486121157" lon="13.300523034400053"><ele>446.0</ele><time>2026-04-26T08:04:49Z</time></trkpt><trkpt lat="38.04179262967999" lon="13.300629531332758"><ele>445.99999999999994</ele><time>2026-04-26T08:04:50Z</time></trkpt><trkpt lat="38.0418209091033" lon="13.300741415530167"><ele>446.0</ele><time>2026-04-26T08:04:51Z</time></trkpt><trkpt lat="38.04184553032246" lon="13.300838762920572"><ele>446.6</ele><time>2026-04-26T08:04:52Z</time></trkpt><trkpt lat="38.041888647832266" lon="13.30093201440257"><ele>447.20000000000005</ele><time>2026-04-26T08:04:53Z</time></trkpt><trkpt lat="38.041938337447306" lon="13.301022677251437"><ele>447.79999999999995</ele><time>2026-04-26T08:04:54Z</time></trkpt><trkpt lat="38.041997584454684" lon="13.301122488446145"><ele>448.4</ele><time>2026-04-26T08:04:55Z</time></trkpt><trkpt lat="38.042057985657614" lon="13.301220749870371"><ele>449.0</ele><time>2026-04-26T08:04:56Z</time></trkpt><trkpt lat="38.0421354514292" lon="13.301328224493409"><ele>452.25</ele><time>2026-04-26T08:04:57Z</time></trkpt><trkpt lat="38.04221789754337" lon="13.301433839047279"><ele>455.5</ele><time>2026-04-26T08:04:58Z</time></trkpt><trkpt lat="38.04230266245987" lon="13.301537001340817"><ele>458.75</ele><time>2026-04-26T08:04:59Z</time></trkpt><trkpt lat="38.042397789086785" lon="13.301616691384613"><ele>462.0</ele><time>2026-04-26T08:05:00Z</time></trkpt><trkpt lat="38.04249569569766" lon="13.30167829717913"><ele>462.0</ele><time>2026-04-26T08:05:01Z</time></trkpt><trkpt lat="38.042588215004805" lon="13.30172651609249"><ele>462.0</ele><time>2026-04-26T08:05:02Z</time></trkpt><trkpt lat="38.04267235173771" lon="13.301759498292036"><ele>462.0</ele><time>2026-04-26T08:05:03Z</time></trkpt><trkpt lat="38.042887199152176" lon="13.301834640514096"><ele>462.0</ele><time>2026-04-26T08:05:05Z</time></trkpt><trkpt lat="38.043053609089625" lon="13.301886318174295"><ele>462.0</ele><time>2026-04-26T08:05:06Z</time></trkpt><trkpt lat="38.0432251063606" lon="13.301931734687635"><ele>462.0</ele><time>2026-04-26T08:05:07Z</time></trkpt><trkpt lat="38.043379171545" lon="13.30192587178722"><ele>462.0</ele><time>2026-04-26T08:05:08Z</time></trkpt><trkpt lat="38.04349485994421" lon="13.301938414140741"><ele>462.0</ele><time>2026-04-26T08:05:09Z</time></trkpt><trkpt lat="38.04360985611134" lon="13.301971121946693"><ele>461.5</ele><time>2026-04-26T08:05:10Z</time></trkpt><trkpt lat="38.04371481476253" lon="13.302002103420557"><ele>461.0</ele><time>2026-04-26T08:05:11Z</time></trkpt><trkpt lat="38.043827290532285" lon="13.302035293942534"><ele>460.5</ele><time>2026-04-26T08:05:12Z</time></trkpt><trkpt lat="38.04393976632887" lon="13.302068484523387"><ele>460.0</ele><time>2026-04-26T08:05:13Z</time></trkpt><trkpt lat="38.044140536732854" lon="13.302111040508525"><ele>460.0</ele><time>2026-04-26T08:05:14Z</time></trkpt><trkpt lat="38.04427920654036" lon="13.302144020037472"><ele>460.0</ele><time>2026-04-26T08:05:15.068Z</time></trkpt><trkpt lat="38.04484127698397" lon="13.302445745394694"><ele>459.0</ele><time>2026-04-26T08:05:19.764Z</time></trkpt><trkpt lat="38.04507286486948" lon="13.302744444652616"><ele>458.0</ele><time>2026-04-26T08:05:23.999Z</time></trkpt><trkpt lat="38.04512663301635" lon="13.302851609434848"><ele>457.0</ele><time>2026-04-26T08:05:24.999Z</time></trkpt><trkpt lat="38.045195973313554" lon="13.302999293289744"><ele>462.0</ele><time>2026-04-26T08:05:25.999Z</time></trkpt><trkpt lat="38.045284350965005" lon="13.303123210276791"><ele>467.0</ele><time>2026-04-26T08:05:26.999Z</time></trkpt><trkpt lat="38.045330236481874" lon="13.30326284411918"><ele>472.0</ele><time>2026-04-26T08:05:27.999Z</time></trkpt><trkpt lat="38.04536881014587" lon="13.303408037789705"><ele>477.0</ele><time>2026-04-26T08:05:28.999Z</time></trkpt><trkpt lat="38.04539840770236" lon="13.303597820587825"><ele>477.0</ele><time>2026-04-26T08:05:29.999Z</time></trkpt><trkpt lat="38.045411465925405" lon="13.30378024003849"><ele>477.0</ele><time>2026-04-26T08:05:30.999Z</time></trkpt><trkpt lat="38.04541226437964" lon="13.30397268619362"><ele>477.0</ele><time>2026-04-26T08:05:31.999Z</time></trkpt><trkpt lat="38.04540778895238" lon="13.30415829929255"><ele>477.0</ele><time>2026-04-26T08:05:32.999Z</time></trkpt><trkpt lat="38.04539844824251" lon="13.304335595884968"><ele>477.25</ele><time>2026-04-26T08:05:33.999Z</time></trkpt><trkpt lat="38.04538808800022" lon="13.304514256027733"><ele>477.5</ele><time>2026-04-26T08:05:34.999Z</time></trkpt><trkpt lat="38.04537826909032" lon="13.304698104872614"><ele>477.75</ele><time>2026-04-26T08:05:35.999Z</time></trkpt><trkpt lat="38.045364155641195" lon="13.304900729138533"><ele>478.0</ele><time>2026-04-26T08:05:36.999Z</time></trkpt><trkpt lat="38.04534603001853" lon="13.305114994772818"><ele>478.0</ele><time>2026-04-26T08:05:37.999Z</time></trkpt><trkpt lat="38.04532814761899" lon="13.305308563926783"><ele>478.0</ele><time>2026-04-26T08:05:38.999Z</time></trkpt><trkpt lat="38.04531446430179" lon="13.305481447422562"><ele>478.0</ele><time>2026-04-26T08:05:39.999Z</time></trkpt><trkpt lat="38.04530722743049" lon="13.305642729930316"><ele>478.0</ele><time>2026-04-26T08:05:40.999Z</time></trkpt><trkpt lat="38.04531930658916" lon="13.305817294412993"><ele>479.0</ele><time>2026-04-26T08:05:41.999Z</time></trkpt><trkpt lat="38.045357991384286" lon="13.306006658227933"><ele>480.0</ele><time>2026-04-26T08:05:42.999Z</time></trkpt><trkpt lat="38.045416227476544" lon="13.306211864517952"><ele>481.0</ele><time>2026-04-26T08:05:43.999Z</time></trkpt><trkpt lat="38.045483308503094" lon="13.306425758616435"><ele>484.6666666666667</ele><time>2026-04-26T08:05:44.999Z</time></trkpt><trkpt lat="38.045550746562775" lon="13.306636258459848"><ele>488.33333333333337</ele><time>2026-04-26T08:05:45.999Z</time></trkpt><trkpt lat="38.04562058682912" lon="13.30685425650918"><ele>492.0</ele><time>2026-04-26T08:05:46.999Z</time></trkpt><trkpt lat="38.04566521684457" lon="13.307000150723796"><ele>492.0</ele><time>2026-04-26T08:05:47.999Z</time></trkpt><trkpt lat="38.045715053545614" lon="13.307169654095286"><ele>492.0</ele><time>2026-04-26T08:05:48.999Z</time></trkpt><trkpt lat="38.04575156699787" lon="13.30733291736533"><ele>492.0</ele><time>2026-04-26T08:05:49.999Z</time></trkpt><trkpt lat="38.04577322669873" lon="13.307499548196661"><ele>492.0</ele><time>2026-04-26T08:05:50.999Z</time></trkpt><trkpt lat="38.04577922184512" lon="13.30764579435366"><ele>495.5</ele><time>2026-04-26T08:05:51.999Z</time></trkpt><trkpt lat="38.04577400899504" lon="13.307763158452014"><ele>499.0</ele><time>2026-04-26T08:05:52.999Z</time></trkpt><trkpt lat="38.04576501205009" lon="13.307892542558468"><ele>502.5</ele><time>2026-04-26T08:05:53.999Z</time></trkpt><trkpt lat="38.04573852943619" lon="13.308051971993525"><ele>506.0</ele><time>2026-04-26T08:05:54.999Z</time></trkpt><trkpt lat="38.04569952508269" lon="13.308225883423468"><ele>506.0</ele><time>2026-04-26T08:05:55.999Z</time></trkpt><trkpt lat="38.04564736992196" lon="13.308373007526972"><ele>506.0</ele><time>2026-04-26T08:05:56.999Z</time></trkpt><trkpt lat="38.045577430026036" lon="13.308548797065516"><ele>506.0</ele><time>2026-04-26T08:05:57.999Z</time></trkpt><trkpt lat="38.04549264134949" lon="13.308757055452972"><ele>499.0</ele><time>2026-04-26T08:05:58.999Z</time></trkpt><trkpt lat="38.04539694226216" lon="13.308983463324289"><ele>492.0</ele><time>2026-04-26T08:05:59.999Z</time></trkpt><trkpt lat="38.04529733065084" lon="13.30921605849796"><ele>485.0</ele><time>2026-04-26T08:06:00.999Z</time></trkpt><trkpt lat="38.04519901464112" lon="13.309444500967693"><ele>485.0</ele><time>2026-04-26T08:06:01.999Z</time></trkpt><trkpt lat="38.04509328968207" lon="13.309689379630386"><ele>485.0</ele><time>2026-04-26T08:06:02.999Z</time></trkpt><trkpt lat="38.04498251715051" lon="13.309945949429755"><ele>503.5</ele><time>2026-04-26T08:06:03.999Z</time></trkpt><trkpt lat="38.04486816381803" lon="13.310209562327577"><ele>522.0</ele><time>2026-04-26T08:06:04.999Z</time></trkpt><trkpt lat="38.04474808872519" lon="13.310485932682187"><ele>513.6666666666666</ele><time>2026-04-26T08:06:05.999Z</time></trkpt><trkpt lat="38.04463871178623" lon="13.31074171833386"><ele>505.3333333333333</ele><time>2026-04-26T08:06:06.999Z</time></trkpt><trkpt lat="38.044542541893364" lon="13.310968428885571"><ele>497.0</ele><time>2026-04-26T08:06:07.999Z</time></trkpt><trkpt lat="38.04446072529418" lon="13.311158295444942"><ele>497.0</ele><time>2026-04-26T08:06:08.999Z</time></trkpt><trkpt lat="38.044388553167835" lon="13.311321647995321"><ele>497.0</ele><time>2026-04-26T08:06:09.999Z</time></trkpt><trkpt lat="38.04430904700378" lon="13.311488356067"><ele>497.0</ele><time>2026-04-26T08:06:10.999Z</time></trkpt><trkpt lat="38.044222356567836" lon="13.311646406050707"><ele>499.75</ele><time>2026-04-26T08:06:11.999Z</time></trkpt><trkpt lat="38.04411873451503" lon="13.3117882632558"><ele>502.5</ele><time>2026-04-26T08:06:12.999Z</time></trkpt><trkpt lat="38.04400113792901" lon="13.311898859879843"><ele>505.25</ele><time>2026-04-26T08:06:13.999Z</time></trkpt><trkpt lat="38.043885362494166" lon="13.31198444378878"><ele>508.0</ele><time>2026-04-26T08:06:14.999Z</time></trkpt><trkpt lat="38.04378450170033" lon="13.312055195343339"><ele>508.0</ele><time>2026-04-26T08:06:15.999Z</time></trkpt><trkpt lat="38.043687980491185" lon="13.312105037279151"><ele>507.99999999999994</ele><time>2026-04-26T08:06:16.999Z</time></trkpt><trkpt lat="38.04355672147962" lon="13.312151661049057"><ele>507.99999999999994</ele><time>2026-04-26T08:06:18.999Z</time></trkpt><trkpt lat="38.04347898410498" lon="13.312167960432443"><ele>508.0</ele><time>2026-04-26T08:06:19.999Z</time></trkpt><trkpt lat="38.043399089470036" lon="13.312185086784982"><ele>508.0</ele><time>2026-04-26T08:06:20.999Z</time></trkpt><trkpt lat="38.043272823536746" lon="13.312220510382366"><ele>504.0</ele><time>2026-04-26T08:06:23.069Z</time></trkpt><trkpt lat="38.0430073430943" lon="13.312281677660822"><ele>500.0</ele><time>2026-04-26T08:06:26.76Z</time></trkpt><trkpt lat="38.04293273628492" lon="13.31227433802428"><ele>496.0</ele><time>2026-04-26T08:06:27.759Z</time></trkpt><trkpt lat="38.04286284928682" lon="13.312308716948452"><ele>492.0</ele><time>2026-04-26T08:06:28.76Z</time></trkpt><trkpt lat="38.04279049934454" lon="13.31232171993347"><ele>492.0</ele><time>2026-04-26T08:06:29.761Z</time></trkpt><trkpt lat="38.042715912626434" lon="13.312313839333738"><ele>492.0</ele><time>2026-04-26T08:06:30.76Z</time></trkpt><trkpt lat="38.04189694696506" lon="13.312586092313905"><ele>494.0</ele><time>2026-04-26T08:06:32Z</time></trkpt><trkpt lat="38.04179389300988" lon="13.31265148914021"><ele>496.0</ele><time>2026-04-26T08:06:33Z</time></trkpt><trkpt lat="38.04168167705111" lon="13.312764912311126"><ele>498.0</ele><time>2026-04-26T08:06:34Z</time></trkpt><trkpt lat="38.04163167888663" lon="13.312863555765013"><ele>500.0</ele><time>2026-04-26T08:06:35Z</time></trkpt><trkpt lat="38.041556620600936" lon="13.312960478371163"><ele>498.0</ele><time>2026-04-26T08:06:36Z</time></trkpt><trkpt lat="38.04150321856363" lon="13.313103804876311"><ele>496.0</ele><time>2026-04-26T08:06:37Z</time></trkpt><trkpt lat="38.0414430241867" lon="13.31321840873207"><ele>494.0</ele><time>2026-04-26T08:06:38Z</time></trkpt><trkpt lat="38.04140679088373" lon="13.313368824896557"><ele>492.0</ele><time>2026-04-26T08:06:39Z</time></trkpt><trkpt lat="38.04134970788954" lon="13.313533206983323"><ele>492.0</ele><time>2026-04-26T08:06:40Z</time></trkpt><trkpt lat="38.04130475346286" lon="13.313708298843654"><ele>492.0</ele><time>2026-04-26T08:06:41Z</time></trkpt><trkpt lat="38.04126707994493" lon="13.31384690989137"><ele>492.0</ele><time>2026-04-26T08:06:42Z</time></trkpt><trkpt lat="38.041223075049274" lon="13.31400406544948"><ele>492.0</ele><time>2026-04-26T08:06:43Z</time></trkpt><trkpt lat="38.041179632092096" lon="13.314169787673263"><ele>490.25</ele><time>2026-04-26T08:06:44Z</time></trkpt><trkpt lat="38.041135269516396" lon="13.314349105489336"><ele>488.5</ele><time>2026-04-26T08:06:45Z</time></trkpt><trkpt lat="38.041106644016686" lon="13.314506316498031"><ele>486.75</ele><time>2026-04-26T08:06:46Z</time></trkpt><trkpt lat="38.0410599935174" lon="13.314645200203673"><ele>485.0</ele><time>2026-04-26T08:06:47Z</time></trkpt><trkpt lat="38.04102601643031" lon="13.31478511208191"><ele>484.6</ele><time>2026-04-26T08:06:48Z</time></trkpt><trkpt lat="38.04100705579495" lon="13.31493778986244"><ele>484.2</ele><time>2026-04-26T08:06:49Z</time></trkpt><trkpt lat="38.04097798601578" lon="13.315079040648474"><ele>483.79999999999995</ele><time>2026-04-26T08:06:50Z</time></trkpt><trkpt lat="38.04094567160572" lon="13.315200342045982"><ele>483.4</ele><time>2026-04-26T08:06:51Z</time></trkpt><trkpt lat="38.04091783843269" lon="13.31531634435734"><ele>483.0</ele><time>2026-04-26T08:06:52Z</time></trkpt><trkpt lat="38.04090016228584" lon="13.31541506704634"><ele>483.0</ele><time>2026-04-26T08:06:53Z</time></trkpt><trkpt lat="38.04086082116833" lon="13.315545855860268"><ele>483.0</ele><time>2026-04-26T08:06:55Z</time></trkpt><trkpt lat="38.04083745907034" lon="13.315626211225874"><ele>483.0</ele><time>2026-04-26T08:06:57Z</time></trkpt><trkpt lat="38.04080713892246" lon="13.315698853523275"><ele>483.0</ele><time>2026-04-26T08:06:59Z</time></trkpt><trkpt lat="38.04079152886963" lon="13.315786899522415"><ele>483.0</ele><time>2026-04-26T08:07:00Z</time></trkpt><trkpt lat="38.04073309692361" lon="13.315868020195138"><ele>483.0</ele><time>2026-04-26T08:07:01Z</time></trkpt><trkpt lat="38.04069038497174" lon="13.315942510531988"><ele>485.4</ele><time>2026-04-26T08:07:02Z</time></trkpt><trkpt lat="38.040615329886144" lon="13.316088593942592"><ele>487.79999999999995</ele><time>2026-04-26T08:07:04Z</time></trkpt><trkpt lat="38.04055620865658" lon="13.31615772935637"><ele>490.2</ele><time>2026-04-26T08:07:05Z</time></trkpt><trkpt lat="38.04049169040698" lon="13.316226236215266"><ele>492.6</ele><time>2026-04-26T08:07:06Z</time></trkpt><trkpt lat="38.040428172717995" lon="13.316284921416035"><ele>495.0</ele><time>2026-04-26T08:07:07Z</time></trkpt><trkpt lat="38.040365522553" lon="13.31634133848016"><ele>494.6</ele><time>2026-04-26T08:07:08Z</time></trkpt><trkpt lat="38.040296404555015" lon="13.316404816679226"><ele>494.2</ele><time>2026-04-26T08:07:09Z</time></trkpt><trkpt lat="38.04021335527355" lon="13.316468798438255"><ele>493.79999999999995</ele><time>2026-04-26T08:07:10Z</time></trkpt><trkpt lat="38.04012682327953" lon="13.31653293744922"><ele>493.4</ele><time>2026-04-26T08:07:11Z</time></trkpt><trkpt lat="38.04002785296966" lon="13.316597066881274"><ele>493.0</ele><time>2026-04-26T08:07:12Z</time></trkpt><trkpt lat="38.03993475534605" lon="13.316695344963602"><ele>493.0</ele><time>2026-04-26T08:07:13Z</time></trkpt><trkpt lat="38.03981531398187" lon="13.316768936891055"><ele>493.0</ele><time>2026-04-26T08:07:14Z</time></trkpt><trkpt lat="38.03970671155289" lon="13.316881835706667"><ele>493.0</ele><time>2026-04-26T08:07:15Z</time></trkpt><trkpt lat="38.03957240995941" lon="13.316971383203585"><ele>493.0</ele><time>2026-04-26T08:07:16Z</time></trkpt><trkpt lat="38.039434986780165" lon="13.317111542656798"><ele>493.0</ele><time>2026-04-26T08:07:17Z</time></trkpt><trkpt lat="38.03927533724823" lon="13.317219986359804"><ele>493.0</ele><time>2026-04-26T08:07:18Z</time></trkpt><trkpt lat="38.0391337473357" lon="13.317338256670302"><ele>493.0</ele><time>2026-04-26T08:07:19Z</time></trkpt><trkpt lat="38.039001001509995" lon="13.31745125001752"><ele>494.0</ele><time>2026-04-26T08:07:20Z</time></trkpt><trkpt lat="38.03887697582069" lon="13.317580812568975"><ele>495.0</ele><time>2026-04-26T08:07:21Z</time></trkpt><trkpt lat="38.03872059332268" lon="13.31769987248858"><ele>496.0</ele><time>2026-04-26T08:07:22Z</time></trkpt><trkpt lat="38.03857579713135" lon="13.317850338571994"><ele>496.0</ele><time>2026-04-26T08:07:23Z</time></trkpt><trkpt lat="38.03843991143478" lon="13.318028513284215"><ele>496.0</ele><time>2026-04-26T08:07:24Z</time></trkpt><trkpt lat="38.03831863480722" lon="13.318212956241513"><ele>496.0</ele><time>2026-04-26T08:07:25Z</time></trkpt><trkpt lat="38.03820925559821" lon="13.318370414040183"><ele>499.0</ele><time>2026-04-26T08:07:25.999Z</time></trkpt><trkpt lat="38.03810595591328" lon="13.318529001566265"><ele>502.0</ele><time>2026-04-26T08:07:26.999Z</time></trkpt><trkpt lat="38.03801068727472" lon="13.318680358537737"><ele>505.0</ele><time>2026-04-26T08:07:27.999Z</time></trkpt><trkpt lat="38.03792332398446" lon="13.318832667293293"><ele>502.33333333333337</ele><time>2026-04-26T08:07:28.999Z</time></trkpt><trkpt lat="38.03783798688156" lon="13.318995849568099"><ele>499.66666666666663</ele><time>2026-04-26T08:07:29.999Z</time></trkpt><trkpt lat="38.037752632712944" lon="13.31916355195255"><ele>497.0</ele><time>2026-04-26T08:07:30.999Z</time></trkpt><trkpt lat="38.03767683943021" lon="13.319319414737555"><ele>497.0</ele><time>2026-04-26T08:07:31.999Z</time></trkpt><trkpt lat="38.0376142385167" lon="13.319457575299241"><ele>497.0</ele><time>2026-04-26T08:07:32.999Z</time></trkpt><trkpt lat="38.0375544885973" lon="13.31957715057867"><ele>497.0</ele><time>2026-04-26T08:07:33.999Z</time></trkpt><trkpt lat="38.03749926680156" lon="13.3196982492853"><ele>497.0</ele><time>2026-04-26T08:07:34.999Z</time></trkpt><trkpt lat="38.03744686339687" lon="13.319819722406939"><ele>498.8</ele><time>2026-04-26T08:07:35.999Z</time></trkpt><trkpt lat="38.037394851772895" lon="13.319928945394096"><ele>500.6</ele><time>2026-04-26T08:07:36.999Z</time></trkpt><trkpt lat="38.037333883154304" lon="13.320024487805307"><ele>502.40000000000003</ele><time>2026-04-26T08:07:37.999Z</time></trkpt><trkpt lat="38.03729113008782" lon="13.320140130955037"><ele>504.20000000000005</ele><time>2026-04-26T08:07:38.999Z</time></trkpt><trkpt lat="38.0372389002398" lon="13.320256871615122"><ele>506.0</ele><time>2026-04-26T08:07:39.999Z</time></trkpt><trkpt lat="38.03718284030007" lon="13.320365113192985"><ele>506.0</ele><time>2026-04-26T08:07:40.999Z</time></trkpt><trkpt lat="38.03713489880173" lon="13.320477297495486"><ele>506.0</ele><time>2026-04-26T08:07:41.999Z</time></trkpt><trkpt lat="38.03707707846789" lon="13.320594842252563"><ele>506.0</ele><time>2026-04-26T08:07:42.999Z</time></trkpt><trkpt lat="38.037018604319265" lon="13.320725361791974"><ele>506.0</ele><time>2026-04-26T08:07:43.999Z</time></trkpt><trkpt lat="38.03695817768883" lon="13.320864995180287"><ele>504.4</ele><time>2026-04-26T08:07:44.999Z</time></trkpt><trkpt lat="38.036894259205276" lon="13.32100016211993"><ele>502.8</ele><time>2026-04-26T08:07:45.999Z</time></trkpt><trkpt lat="38.03684631844078" lon="13.321124310047011"><ele>501.19999999999993</ele><time>2026-04-26T08:07:46.999Z</time></trkpt><trkpt lat="38.036802729759266" lon="13.321244628194126"><ele>499.59999999999997</ele><time>2026-04-26T08:07:47.999Z</time></trkpt><trkpt lat="38.036766239280446" lon="13.321351591928991"><ele>498.0</ele><time>2026-04-26T08:07:48.999Z</time></trkpt><trkpt lat="38.03672724978983" lon="13.321450966345669"><ele>497.59999999999997</ele><time>2026-04-26T08:07:49.999Z</time></trkpt><trkpt lat="38.03669228760999" lon="13.321559750297935"><ele>497.19999999999993</ele><time>2026-04-26T08:07:50.999Z</time></trkpt><trkpt lat="38.03666176089277" lon="13.321676133523745"><ele>496.8</ele><time>2026-04-26T08:07:51.999Z</time></trkpt><trkpt lat="38.03663481162754" lon="13.321794243366345"><ele>496.4</ele><time>2026-04-26T08:07:52.999Z</time></trkpt><trkpt lat="38.03660954060635" lon="13.321923793833687"><ele>496.0</ele><time>2026-04-26T08:07:53.999Z</time></trkpt><trkpt lat="38.036586313387694" lon="13.322057990353601"><ele>496.00000000000006</ele><time>2026-04-26T08:07:54.999Z</time></trkpt><trkpt lat="38.03656949169448" lon="13.32218287933485"><ele>496.0</ele><time>2026-04-26T08:07:55.999Z</time></trkpt><trkpt lat="38.03655724287746" lon="13.322270281731326"><ele>496.0</ele><time>2026-04-26T08:07:56.999Z</time></trkpt><trkpt lat="38.03655036956371" lon="13.322354536619297"><ele>496.0</ele><time>2026-04-26T08:07:58.999Z</time></trkpt><trkpt lat="38.03664810556346" lon="13.322349523770297"><ele>496.00000000000006</ele><time>2026-04-26T08:08:02.999Z</time></trkpt><trkpt lat="38.036706864968934" lon="13.322270685460914"><ele>496.0</ele><time>2026-04-26T08:08:03.999Z</time></trkpt><trkpt lat="38.036782398162735" lon="13.322196359764469"><ele>496.00000000000006</ele><time>2026-04-26T08:08:04.999Z</time></trkpt><trkpt lat="38.03684629135334" lon="13.322116814275667"><ele>496.0</ele><time>2026-04-26T08:08:05.999Z</time></trkpt><trkpt lat="38.03691166084219" lon="13.32203413241449"><ele>496.0</ele><time>2026-04-26T08:08:06.999Z</time></trkpt><trkpt lat="38.036967397307585" lon="13.321969123970423"><ele>496.0</ele><time>2026-04-26T08:08:07.999Z</time></trkpt><trkpt lat="38.037035655817725" lon="13.321928886332007"><ele>496.00000000000006</ele><time>2026-04-26T08:08:08.999Z</time></trkpt><trkpt lat="38.03712115185235" lon="13.321916567036249"><ele>496.0</ele><time>2026-04-26T08:08:09.999Z</time></trkpt><trkpt lat="38.037215784860315" lon="13.321889596377956"><ele>496.0</ele><time>2026-04-26T08:08:10.999Z</time></trkpt><trkpt lat="38.03731488903765" lon="13.321894758113897"><ele>496.0</ele><time>2026-04-26T08:08:11.999Z</time></trkpt><trkpt lat="38.037411286365426" lon="13.321881239791702"><ele>496.0</ele><time>2026-04-26T08:08:12.999Z</time></trkpt><trkpt lat="38.037507323318614" lon="13.32187208629643"><ele>496.0</ele><time>2026-04-26T08:08:13.999Z</time></trkpt><trkpt lat="38.03760424710241" lon="13.321858829864"><ele>496.0</ele><time>2026-04-26T08:08:14.999Z</time></trkpt><trkpt lat="38.03773697737387" lon="13.321855515900495"><ele>492.6</ele><time>2026-04-26T08:08:15.999Z</time></trkpt><trkpt lat="38.03787038215023" lon="13.32184186165832"><ele>489.20000000000005</ele><time>2026-04-26T08:08:16.999Z</time></trkpt><trkpt lat="38.03797901103929" lon="13.321812017864765"><ele>485.79999999999995</ele><time>2026-04-26T08:08:18.999Z</time></trkpt><trkpt lat="38.03806828080272" lon="13.321810302039168"><ele>482.4</ele><time>2026-04-26T08:08:19.999Z</time></trkpt><trkpt lat="38.038149519403966" lon="13.321810483674572"><ele>479.0</ele><time>2026-04-26T08:08:20.999Z</time></trkpt><trkpt lat="38.038234666406076" lon="13.321813353950958"><ele>476.49999999999994</ele><time>2026-04-26T08:08:21.999Z</time></trkpt><trkpt lat="38.03832070550063" lon="13.321810981557329"><ele>474.0</ele><time>2026-04-26T08:08:22.999Z</time></trkpt><trkpt lat="38.03840209836297" lon="13.321801870854598"><ele>471.5</ele><time>2026-04-26T08:08:23.999Z</time></trkpt><trkpt lat="38.03848558299696" lon="13.321787363599169"><ele>469.0</ele><time>2026-04-26T08:08:24.999Z</time></trkpt><trkpt lat="38.038567991288424" lon="13.321759057132219"><ele>466.49999999999994</ele><time>2026-04-26T08:08:25.999Z</time></trkpt><trkpt lat="38.03865064289843" lon="13.321718516714757"><ele>464.0</ele><time>2026-04-26T08:08:26.999Z</time></trkpt><trkpt lat="38.038725611047546" lon="13.321672704569036"><ele>463.99999999999994</ele><time>2026-04-26T08:08:28Z</time></trkpt><trkpt lat="38.038801376275465" lon="13.321633383083816"><ele>464.0</ele><time>2026-04-26T08:08:29Z</time></trkpt><trkpt lat="38.03887430628632" lon="13.321582484189577"><ele>464.0</ele><time>2026-04-26T08:08:30Z</time></trkpt><trkpt lat="38.03894901460935" lon="13.321537427732313"><ele>464.0</ele><time>2026-04-26T08:08:31Z</time></trkpt><trkpt lat="38.03902077745401" lon="13.321488428926605"><ele>463.99999999999994</ele><time>2026-04-26T08:08:32Z</time></trkpt><trkpt lat="38.03909600615307" lon="13.321434740527874"><ele>464.0</ele><time>2026-04-26T08:08:33Z</time></trkpt><trkpt lat="38.03918327329601" lon="13.321383574897078"><ele>463.99999999999994</ele><time>2026-04-26T08:08:34Z</time></trkpt><trkpt lat="38.039273596439735" lon="13.321334155886673"><ele>464.0</ele><time>2026-04-26T08:08:35Z</time></trkpt><trkpt lat="38.03935107139534" lon="13.321279256969587"><ele>464.0</ele><time>2026-04-26T08:08:36Z</time></trkpt><trkpt lat="38.03941814955455" lon="13.321230126483174"><ele>464.0</ele><time>2026-04-26T08:08:37Z</time></trkpt><trkpt lat="38.039478478054285" lon="13.321184644950186"><ele>463.99999999999994</ele><time>2026-04-26T08:08:38Z</time></trkpt><trkpt lat="38.03953830489476" lon="13.321143526864363"><ele>464.0</ele><time>2026-04-26T08:08:39Z</time></trkpt><trkpt lat="38.039603530822724" lon="13.321094641465367"><ele>463.99999999999994</ele><time>2026-04-26T08:08:40Z</time></trkpt><trkpt lat="38.03968478184978" lon="13.321029376542374"><ele>464.0</ele><time>2026-04-26T08:08:41Z</time></trkpt><trkpt lat="38.03975856542754" lon="13.320964211284998"><ele>464.0</ele><time>2026-04-26T08:08:42Z</time></trkpt><trkpt lat="38.039827593073376" lon="13.320914316386892"><ele>464.0</ele><time>2026-04-26T08:08:43Z</time></trkpt><trkpt lat="38.039886912255994" lon="13.320871541241441"><ele>463.99999999999994</ele><time>2026-04-26T08:08:44Z</time></trkpt><trkpt lat="38.03996909349584" lon="13.32080394658652"><ele>464.0</ele><time>2026-04-26T08:08:46Z</time></trkpt><trkpt lat="38.04003728848138" lon="13.320742485122363"><ele>462.3333333333333</ele><time>2026-04-26T08:08:48Z</time></trkpt><trkpt lat="38.040107163713365" lon="13.320683449930009"><ele>460.66666666666663</ele><time>2026-04-26T08:08:50Z</time></trkpt><trkpt lat="38.04016504589855" lon="13.32065071974677"><ele>459.0</ele><time>2026-04-26T08:08:51Z</time></trkpt><trkpt lat="38.040244782643214" lon="13.320615599781926"><ele>457.33333333333337</ele><time>2026-04-26T08:08:52Z</time></trkpt><trkpt lat="38.04033079346397" lon="13.320569477853143"><ele>455.6666666666667</ele><time>2026-04-26T08:08:53Z</time></trkpt><trkpt lat="38.040420685088314" lon="13.320515498221308"><ele>454.0</ele><time>2026-04-26T08:08:54Z</time></trkpt><trkpt lat="38.04050917133402" lon="13.32047632552088"><ele>454.0</ele><time>2026-04-26T08:08:55Z</time></trkpt><trkpt lat="38.040596100443466" lon="13.320437615273002"><ele>454.0</ele><time>2026-04-26T08:08:56Z</time></trkpt><trkpt lat="38.04067964450945" lon="13.320381396837877"><ele>454.0</ele><time>2026-04-26T08:08:57Z</time></trkpt><trkpt lat="38.040770337921764" lon="13.320300999883463"><ele>454.0</ele><time>2026-04-26T08:08:58Z</time></trkpt><trkpt lat="38.04086260454844" lon="13.320188595674075"><ele>454.0</ele><time>2026-04-26T08:08:59Z</time></trkpt><trkpt lat="38.040950815004905" lon="13.320045704609491"><ele>451.0</ele><time>2026-04-26T08:09:00Z</time></trkpt><trkpt lat="38.04103661797895" lon="13.319896164421952"><ele>448.0</ele><time>2026-04-26T08:09:01Z</time></trkpt><trkpt lat="38.04113987832832" lon="13.319749722971508"><ele>445.0</ele><time>2026-04-26T08:09:02Z</time></trkpt><trkpt lat="38.04123777227435" lon="13.319600253962637"><ele>445.0</ele><time>2026-04-26T08:09:03Z</time></trkpt><trkpt lat="38.04132461549408" lon="13.319450416271504"><ele>445.0</ele><time>2026-04-26T08:09:04Z</time></trkpt><trkpt lat="38.04141452720752" lon="13.319321462185405"><ele>445.0</ele><time>2026-04-26T08:09:05Z</time></trkpt><trkpt lat="38.04152804056588" lon="13.319212723447281"><ele>445.0</ele><time>2026-04-26T08:09:06Z</time></trkpt><trkpt lat="38.041659696515495" lon="13.319117074108666"><ele>443.75</ele><time>2026-04-26T08:09:07Z</time></trkpt><trkpt lat="38.04178752318488" lon="13.319037977551115"><ele>442.5</ele><time>2026-04-26T08:09:08Z</time></trkpt><trkpt lat="38.04190299809742" lon="13.31895867727457"><ele>441.25</ele><time>2026-04-26T08:09:09Z</time></trkpt><trkpt lat="38.042008295871106" lon="13.318845208296061"><ele>440.0</ele><time>2026-04-26T08:09:10Z</time></trkpt><trkpt lat="38.04211304331089" lon="13.318682571743192"><ele>440.0</ele><time>2026-04-26T08:09:11Z</time></trkpt><trkpt lat="38.04221679973764" lon="13.318503763148534"><ele>440.0</ele><time>2026-04-26T08:09:12Z</time></trkpt><trkpt lat="38.042312933163174" lon="13.318310088726658"><ele>440.0</ele><time>2026-04-26T08:09:13Z</time></trkpt><trkpt lat="38.042395710746305" lon="13.318101512379771"><ele>432.66666666666663</ele><time>2026-04-26T08:09:14Z</time></trkpt><trkpt lat="38.04247188379729" lon="13.317880344790257"><ele>425.33333333333337</ele><time>2026-04-26T08:09:15Z</time></trkpt><trkpt lat="38.04254693114357" lon="13.317663386966093"><ele>418.0</ele><time>2026-04-26T08:09:16Z</time></trkpt><trkpt lat="38.042627163070804" lon="13.317460845216956"><ele>418.0</ele><time>2026-04-26T08:09:17Z</time></trkpt><trkpt lat="38.04271590011301" lon="13.317256100170455"><ele>418.0</ele><time>2026-04-26T08:09:18Z</time></trkpt><trkpt lat="38.042806533249944" lon="13.317066870484982"><ele>418.0</ele><time>2026-04-26T08:09:19Z</time></trkpt><trkpt lat="38.042896752999944" lon="13.316890408459336"><ele>422.0</ele><time>2026-04-26T08:09:20Z</time></trkpt><trkpt lat="38.04298322147819" lon="13.316720182650455"><ele>426.0</ele><time>2026-04-26T08:09:21Z</time></trkpt><trkpt lat="38.04306546148301" lon="13.31655267144366"><ele>430.0</ele><time>2026-04-26T08:09:22Z</time></trkpt><trkpt lat="38.04314454103946" lon="13.316401006281449"><ele>433.33333333333337</ele><time>2026-04-26T08:09:23Z</time></trkpt><trkpt lat="38.04321086767758" lon="13.316245252550457"><ele>436.66666666666663</ele><time>2026-04-26T08:09:24Z</time></trkpt><trkpt lat="38.043261063520205" lon="13.316053430471847"><ele>440.0</ele><time>2026-04-26T08:09:25Z</time></trkpt><trkpt lat="38.0433003462142" lon="13.315822937450488"><ele>426.0</ele><time>2026-04-26T08:09:26Z</time></trkpt><trkpt lat="38.043356604320095" lon="13.31560739691195"><ele>412.0</ele><time>2026-04-26T08:09:27Z</time></trkpt><trkpt lat="38.043401685356415" lon="13.315404710138823"><ele>398.0</ele><time>2026-04-26T08:09:28Z</time></trkpt><trkpt lat="38.043431008318336" lon="13.315206878904412"><ele>398.0</ele><time>2026-04-26T08:09:29Z</time></trkpt><trkpt lat="38.043471113842834" lon="13.315029134868396"><ele>398.0</ele><time>2026-04-26T08:09:30Z</time></trkpt><trkpt lat="38.043522019613604" lon="13.314882276053632"><ele>398.0</ele><time>2026-04-26T08:09:31Z</time></trkpt><trkpt lat="38.04356254438733" lon="13.314742457968213"><ele>398.0</ele><time>2026-04-26T08:09:32Z</time></trkpt><trkpt lat="38.04361619931434" lon="13.314612244536042"><ele>404.3333333333333</ele><time>2026-04-26T08:09:33Z</time></trkpt><trkpt lat="38.043717325860314" lon="13.314490896206252"><ele>410.66666666666663</ele><time>2026-04-26T08:09:34Z</time></trkpt><trkpt lat="38.04385045858126" lon="13.314367562769641"><ele>417.0</ele><time>2026-04-26T08:09:35Z</time></trkpt><trkpt lat="38.043985235912714" lon="13.31423716906932"><ele>417.0</ele><time>2026-04-26T08:09:36Z</time></trkpt><trkpt lat="38.0441050376696" lon="13.314117545925722"><ele>417.0</ele><time>2026-04-26T08:09:37Z</time></trkpt><trkpt lat="38.04421803100203" lon="13.31399750154131"><ele>417.0</ele><time>2026-04-26T08:09:38Z</time></trkpt><trkpt lat="38.04432904315749" lon="13.313879005024516"><ele>417.0</ele><time>2026-04-26T08:09:39Z</time></trkpt><trkpt lat="38.04443069159541" lon="13.313772385131447"><ele>415.0</ele><time>2026-04-26T08:09:40Z</time></trkpt><trkpt lat="38.044512710180484" lon="13.313690698578704"><ele>413.0</ele><time>2026-04-26T08:09:41Z</time></trkpt><trkpt lat="38.0445889690201" lon="13.313609552419383"><ele>411.0</ele><time>2026-04-26T08:09:42Z</time></trkpt><trkpt lat="38.04466663192504" lon="13.313515247987254"><ele>409.0</ele><time>2026-04-26T08:09:43Z</time></trkpt><trkpt lat="38.044746267182134" lon="13.313413466580208"><ele>407.0</ele><time>2026-04-26T08:09:44Z</time></trkpt><trkpt lat="38.04483673709555" lon="13.31329946622908"><ele>407.0</ele><time>2026-04-26T08:09:45Z</time></trkpt><trkpt lat="38.04491981483343" lon="13.313183237667904"><ele>407.0</ele><time>2026-04-26T08:09:46Z</time></trkpt><trkpt lat="38.04499762467785" lon="13.3130678476238"><ele>407.0</ele><time>2026-04-26T08:09:47Z</time></trkpt><trkpt lat="38.045077227018304" lon="13.312958752612545"><ele>407.0</ele><time>2026-04-26T08:09:48Z</time></trkpt><trkpt lat="38.04514524817966" lon="13.312849571648748"><ele>404.8333333333333</ele><time>2026-04-26T08:09:49Z</time></trkpt><trkpt lat="38.04521514976114" lon="13.312768229425718"><ele>402.66666666666663</ele><time>2026-04-26T08:09:50Z</time></trkpt><trkpt lat="38.04527797015097" lon="13.312707570481098"><ele>400.5</ele><time>2026-04-26T08:09:51Z</time></trkpt><trkpt lat="38.04535129892202" lon="13.312648932952879"><ele>398.33333333333337</ele><time>2026-04-26T08:09:52Z</time></trkpt><trkpt lat="38.04543746735346" lon="13.312636376456688"><ele>396.1666666666667</ele><time>2026-04-26T08:09:53Z</time></trkpt><trkpt lat="38.045519635868736" lon="13.312661416071984"><ele>394.0</ele><time>2026-04-26T08:09:54Z</time></trkpt><trkpt lat="38.04559756040584" lon="13.312710189976647"><ele>394.00000000000006</ele><time>2026-04-26T08:09:54.999Z</time></trkpt><trkpt lat="38.04566813722056" lon="13.312793317164468"><ele>394.0</ele><time>2026-04-26T08:09:55.999Z</time></trkpt><trkpt lat="38.045716153637535" lon="13.312887285408395"><ele>394.0</ele><time>2026-04-26T08:09:56.999Z</time></trkpt><trkpt lat="38.04572997402362" lon="13.312989850498907"><ele>394.0</ele><time>2026-04-26T08:09:57.999Z</time></trkpt><trkpt lat="38.04571940170158" lon="13.313093281141784"><ele>394.00000000000006</ele><time>2026-04-26T08:09:58.999Z</time></trkpt><trkpt lat="38.04567218548153" lon="13.313198300482915"><ele>394.0</ele><time>2026-04-26T08:09:59.999Z</time></trkpt><trkpt lat="38.045628402178004" lon="13.31332019636326"><ele>388.25</ele><time>2026-04-26T08:10:00.999Z</time></trkpt><trkpt lat="38.04555655944432" lon="13.31344591438142"><ele>382.5</ele><time>2026-04-26T08:10:01.999Z</time></trkpt><trkpt lat="38.04547680187138" lon="13.313585706765025"><ele>376.75</ele><time>2026-04-26T08:10:02.999Z</time></trkpt><trkpt lat="38.045401896234026" lon="13.313709374108404"><ele>371.0</ele><time>2026-04-26T08:10:03.999Z</time></trkpt><trkpt lat="38.04533256630105" lon="13.313819381641009"><ele>369.4</ele><time>2026-04-26T08:10:04.999Z</time></trkpt><trkpt lat="38.045284235519404" lon="13.313924907592991"><ele>367.8</ele><time>2026-04-26T08:10:05.999Z</time></trkpt><trkpt lat="38.045262447757814" lon="13.314038137917972"><ele>366.2</ele><time>2026-04-26T08:10:06.999Z</time></trkpt><trkpt lat="38.045304123633485" lon="13.314160204596627"><ele>364.59999999999997</ele><time>2026-04-26T08:10:07.999Z</time></trkpt><trkpt lat="38.04535228632774" lon="13.314286789554734"><ele>363.0</ele><time>2026-04-26T08:10:08.999Z</time></trkpt><trkpt lat="38.04543309507535" lon="13.314342165452226"><ele>363.0</ele><time>2026-04-26T08:10:09.999Z</time></trkpt><trkpt lat="38.04551508617447" lon="13.314405249568528"><ele>363.0</ele><time>2026-04-26T08:10:10.999Z</time></trkpt><trkpt lat="38.04560424550615" lon="13.314447062168083"><ele>363.0</ele><time>2026-04-26T08:10:11.999Z</time></trkpt><trkpt lat="38.04571891079763" lon="13.314500449184864"><ele>363.0</ele><time>2026-04-26T08:10:12.999Z</time></trkpt><trkpt lat="38.045833251045515" lon="13.314561599750471"><ele>363.0</ele><time>2026-04-26T08:10:13.999Z</time></trkpt><trkpt lat="38.045935411657204" lon="13.31461872924495"><ele>360.4</ele><time>2026-04-26T08:10:14.999Z</time></trkpt><trkpt lat="38.04602573191695" lon="13.314667827577637"><ele>357.79999999999995</ele><time>2026-04-26T08:10:15.999Z</time></trkpt><trkpt lat="38.04611035523351" lon="13.314713829578427"><ele>355.2</ele><time>2026-04-26T08:10:16.999Z</time></trkpt><trkpt lat="38.04618296612112" lon="13.314755778143281"><ele>352.6</ele><time>2026-04-26T08:10:17.999Z</time></trkpt><trkpt lat="38.046267113995015" lon="13.314799756068544"><ele>350.0</ele><time>2026-04-26T08:10:19.999Z</time></trkpt><trkpt lat="38.04623771756928" lon="13.314945171579051"><ele>349.6</ele><time>2026-04-26T08:10:22.999Z</time></trkpt><trkpt lat="38.04618964143801" lon="13.315015444520606"><ele>349.2</ele><time>2026-04-26T08:10:23.999Z</time></trkpt><trkpt lat="38.046128731317914" lon="13.31510312140527"><ele>348.79999999999995</ele><time>2026-04-26T08:10:24.999Z</time></trkpt><trkpt lat="38.04605636564106" lon="13.315183852844608"><ele>348.4</ele><time>2026-04-26T08:10:25.999Z</time></trkpt><trkpt lat="38.04597207697008" lon="13.315260910587513"><ele>348.0</ele><time>2026-04-26T08:10:26.999Z</time></trkpt><trkpt lat="38.04589257740892" lon="13.315328183734838"><ele>348.0</ele><time>2026-04-26T08:10:27.999Z</time></trkpt><trkpt lat="38.04582303531554" lon="13.315384378901435"><ele>348.0</ele><time>2026-04-26T08:10:28.999Z</time></trkpt><trkpt lat="38.0457655371911" lon="13.315428473739605"><ele>348.0</ele><time>2026-04-26T08:10:29.999Z</time></trkpt><trkpt lat="38.045703790403415" lon="13.315466985675476"><ele>348.0</ele><time>2026-04-26T08:10:30.999Z</time></trkpt><trkpt lat="38.04562367026235" lon="13.31549257657987"><ele>348.0</ele><time>2026-04-26T08:10:31.999Z</time></trkpt><trkpt lat="38.045545554368026" lon="13.315537263437887"><ele>348.0</ele><time>2026-04-26T08:10:33Z</time></trkpt><trkpt lat="38.045453168654106" lon="13.31557451969158"><ele>349.0</ele><time>2026-04-26T08:10:34Z</time></trkpt><trkpt lat="38.04536050482747" lon="13.31564954818186"><ele>350.0</ele><time>2026-04-26T08:10:35Z</time></trkpt><trkpt lat="38.04528843129549" lon="13.315718062096716"><ele>351.0</ele><time>2026-04-26T08:10:36Z</time></trkpt><trkpt lat="38.045227568394694" lon="13.315763457927952"><ele>352.0</ele><time>2026-04-26T08:10:37Z</time></trkpt><trkpt lat="38.04517459945228" lon="13.315822533926431"><ele>353.0</ele><time>2026-04-26T08:10:38Z</time></trkpt><trkpt lat="38.045103345250745" lon="13.315910737319497"><ele>354.0</ele><time>2026-04-26T08:10:40Z</time></trkpt><trkpt lat="38.04499986024973" lon="13.315935330400421"><ele>357.1666666666667</ele><time>2026-04-26T08:10:44Z</time></trkpt><trkpt lat="38.04489869479589" lon="13.31593868320051"><ele>360.3333333333333</ele><time>2026-04-26T08:10:46Z</time></trkpt><trkpt lat="38.04482929081228" lon="13.315933292390362"><ele>363.5</ele><time>2026-04-26T08:10:47Z</time></trkpt><trkpt lat="38.04471831456775" lon="13.315984749599805"><ele>366.66666666666663</ele><time>2026-04-26T08:10:49Z</time></trkpt><trkpt lat="38.044645572577906" lon="13.316020980348107"><ele>369.8333333333333</ele><time>2026-04-26T08:10:51Z</time></trkpt><trkpt lat="38.044582172925146" lon="13.316042882603387"><ele>373.0</ele><time>2026-04-26T08:10:55Z</time></trkpt><trkpt lat="38.04464370449501" lon="13.316009036531343"><ele>373.0</ele><time>2026-04-26T08:11:10Z</time></trkpt><trkpt lat="38.044702470881546" lon="13.315979284271055"><ele>373.0</ele><time>2026-04-26T08:11:12Z</time></trkpt><trkpt lat="38.04480064400519" lon="13.315931896041517"><ele>373.0</ele><time>2026-04-26T08:11:15Z</time></trkpt><trkpt lat="38.04487357125547" lon="13.315904907663654"><ele>373.0</ele><time>2026-04-26T08:11:17Z</time></trkpt><trkpt lat="38.04495275590212" lon="13.315876984759262"><ele>373.0</ele><time>2026-04-26T08:11:19Z</time></trkpt><trkpt lat="38.045051350264494" lon="13.31585455347638"><ele>373.0</ele><time>2026-04-26T08:11:22Z</time></trkpt><trkpt lat="38.045098744637066" lon="13.316004519062933"><ele>371.59999999999997</ele><time>2026-04-26T08:11:23Z</time></trkpt><trkpt lat="38.045084772730675" lon="13.316179423756088"><ele>370.2</ele><time>2026-04-26T08:11:25Z</time></trkpt><trkpt lat="38.04505645468067" lon="13.316278710671652"><ele>368.8</ele><time>2026-04-26T08:11:26Z</time></trkpt><trkpt lat="38.0450080064629" lon="13.316386319282332"><ele>367.4</ele><time>2026-04-26T08:11:27Z</time></trkpt><trkpt lat="38.04494340761277" lon="13.316505803254856"><ele>366.0</ele><time>2026-04-26T08:11:28Z</time></trkpt><trkpt lat="38.04489127939159" lon="13.316596168623903"><ele>366.0</ele><time>2026-04-26T08:11:29Z</time></trkpt><trkpt lat="38.04485340057799" lon="13.316690945036889"><ele>366.0</ele><time>2026-04-26T08:11:30Z</time></trkpt><trkpt lat="38.04484227402122" lon="13.31679963405717"><ele>366.0</ele><time>2026-04-26T08:11:31Z</time></trkpt><trkpt lat="38.044848072500024" lon="13.316913881635552"><ele>366.0</ele><time>2026-04-26T08:11:32Z</time></trkpt><trkpt lat="38.044863088631544" lon="13.31703817877006"><ele>366.0</ele><time>2026-04-26T08:11:33Z</time></trkpt><trkpt lat="38.04485470876509" lon="13.317160382896686"><ele>365.8333333333333</ele><time>2026-04-26T08:11:34Z</time></trkpt><trkpt lat="38.04483383386807" lon="13.317276852427044"><ele>365.6666666666667</ele><time>2026-04-26T08:11:35Z</time></trkpt><trkpt lat="38.04483519879778" lon="13.317379762894609"><ele>365.5</ele><time>2026-04-26T08:11:36Z</time></trkpt><trkpt lat="38.04484221990105" lon="13.31747149876736"><ele>365.33333333333337</ele><time>2026-04-26T08:11:37Z</time></trkpt><trkpt lat="38.04482058494641" lon="13.317551001974193"><ele>365.1666666666667</ele><time>2026-04-26T08:11:38Z</time></trkpt><trkpt lat="38.04476526820432" lon="13.317609577860516"><ele>365.0</ele><time>2026-04-26T08:11:39Z</time></trkpt><trkpt lat="38.044693959645194" lon="13.31771606149501"><ele>365.0</ele><time>2026-04-26T08:11:40Z</time></trkpt><trkpt lat="38.04468168350073" lon="13.31783922792536"><ele>365.0</ele><time>2026-04-26T08:11:41Z</time></trkpt><trkpt lat="38.04462358498142" lon="13.317988692563443"><ele>365.0</ele><time>2026-04-26T08:11:42Z</time></trkpt><trkpt lat="38.04457992659624" lon="13.318103432480946"><ele>365.0</ele><time>2026-04-26T08:11:43Z</time></trkpt><trkpt lat="38.044540327809315" lon="13.318214705481038"><ele>365.0</ele><time>2026-04-26T08:11:44Z</time></trkpt><trkpt lat="38.04451065995908" lon="13.31831619678818"><ele>364.8</ele><time>2026-04-26T08:11:45Z</time></trkpt><trkpt lat="38.04447321875897" lon="13.318431965256055"><ele>364.6</ele><time>2026-04-26T08:11:46Z</time></trkpt><trkpt lat="38.04441581889253" lon="13.318556095372044"><ele>364.4</ele><time>2026-04-26T08:11:47Z</time></trkpt><trkpt lat="38.0443419912148" lon="13.31867897351165"><ele>364.2</ele><time>2026-04-26T08:11:48Z</time></trkpt><trkpt lat="38.044264250327295" lon="13.318780024399485"><ele>364.0</ele><time>2026-04-26T08:11:49Z</time></trkpt><trkpt lat="38.04418343795406" lon="13.318865844900284"><ele>365.6</ele><time>2026-04-26T08:11:50Z</time></trkpt><trkpt lat="38.044110320299744" lon="13.318950278731826"><ele>367.2</ele><time>2026-04-26T08:11:51Z</time></trkpt><trkpt lat="38.04405906295584" lon="13.319012679590363"><ele>368.8</ele><time>2026-04-26T08:11:52Z</time></trkpt><trkpt lat="38.04397530873007" lon="13.319145706963347"><ele>370.40000000000003</ele><time>2026-04-26T08:11:54Z</time></trkpt><trkpt lat="38.04390458868158" lon="13.31920885646268"><ele>372.0</ele><time>2026-04-26T08:11:55Z</time></trkpt><trkpt lat="38.043848545145956" lon="13.31928358100243"><ele>372.0</ele><time>2026-04-26T08:11:56Z</time></trkpt><trkpt lat="38.04380299171143" lon="13.319390582195137"><ele>372.0</ele><time>2026-04-26T08:11:57Z</time></trkpt><trkpt lat="38.0437849314517" lon="13.319531482567237"><ele>372.0</ele><time>2026-04-26T08:11:58Z</time></trkpt><trkpt lat="38.043737511593534" lon="13.319676023866636"><ele>372.0</ele><time>2026-04-26T08:11:59Z</time></trkpt><trkpt lat="38.04369746248812" lon="13.31982896911767"><ele>372.6</ele><time>2026-04-26T08:12:00Z</time></trkpt><trkpt lat="38.04363480270836" lon="13.319974959484185"><ele>373.20000000000005</ele><time>2026-04-26T08:12:01Z</time></trkpt><trkpt lat="38.04360093108771" lon="13.320114878574328"><ele>373.8</ele><time>2026-04-26T08:12:02Z</time></trkpt><trkpt lat="38.04358294277123" lon="13.320211911142795"><ele>374.4</ele><time>2026-04-26T08:12:03Z</time></trkpt><trkpt lat="38.04356587980316" lon="13.32029009323894"><ele>375.0</ele><time>2026-04-26T08:12:04Z</time></trkpt><trkpt lat="38.043548437405114" lon="13.32048287154243"><ele>376.0</ele><time>2026-04-26T08:12:06Z</time></trkpt><trkpt lat="38.043501286641025" lon="13.320611676617732"><ele>377.0</ele><time>2026-04-26T08:12:07Z</time></trkpt><trkpt lat="38.04344966229852" lon="13.320760676701099"><ele>378.0</ele><time>2026-04-26T08:12:08Z</time></trkpt><trkpt lat="38.043397456074736" lon="13.320912427225867"><ele>379.0</ele><time>2026-04-26T08:12:09Z</time></trkpt><trkpt lat="38.04333439562304" lon="13.321072003230258"><ele>379.75</ele><time>2026-04-26T08:12:10Z</time></trkpt><trkpt lat="38.043251041704714" lon="13.321219109364366"><ele>380.5</ele><time>2026-04-26T08:12:10.999Z</time></trkpt><trkpt lat="38.04319086250964" lon="13.321352149861402"><ele>381.25</ele><time>2026-04-26T08:12:11.999Z</time></trkpt><trkpt lat="38.04312225674401" lon="13.321522155224612"><ele>382.0</ele><time>2026-04-26T08:12:12.999Z</time></trkpt><trkpt lat="38.04307047908673" lon="13.321669761591009"><ele>382.0</ele><time>2026-04-26T08:12:13.999Z</time></trkpt><trkpt lat="38.04301349232303" lon="13.321812446826392"><ele>382.0</ele><time>2026-04-26T08:12:14.999Z</time></trkpt><trkpt lat="38.04295292109701" lon="13.321973910866351"><ele>382.0</ele><time>2026-04-26T08:12:15.999Z</time></trkpt><trkpt lat="38.0429164744486" lon="13.32214738315081"><ele>382.0</ele><time>2026-04-26T08:12:16.999Z</time></trkpt><trkpt lat="38.04288261772572" lon="13.32232594309046"><ele>382.75</ele><time>2026-04-26T08:12:17.999Z</time></trkpt><trkpt lat="38.04283978361142" lon="13.322487597416517"><ele>383.5</ele><time>2026-04-26T08:12:18.999Z</time></trkpt><trkpt lat="38.04279361084521" lon="13.322625143703185"><ele>384.25</ele><time>2026-04-26T08:12:19.999Z</time></trkpt><trkpt lat="38.04274675454959" lon="13.322774541397274"><ele>385.0</ele><time>2026-04-26T08:12:20.999Z</time></trkpt><trkpt lat="38.042704834128905" lon="13.32292447300493"><ele>386.0</ele><time>2026-04-26T08:12:21.999Z</time></trkpt><trkpt lat="38.042659679555676" lon="13.323076148666628"><ele>387.0</ele><time>2026-04-26T08:12:22.999Z</time></trkpt><trkpt lat="38.04259092105116" lon="13.323235101907624"><ele>388.0</ele><time>2026-04-26T08:12:23.999Z</time></trkpt><trkpt lat="38.04252628503971" lon="13.323413576923198"><ele>389.0</ele><time>2026-04-26T08:12:24.999Z</time></trkpt><trkpt lat="38.042474987218384" lon="13.323603003026934"><ele>389.66666666666663</ele><time>2026-04-26T08:12:25.999Z</time></trkpt><trkpt lat="38.04239156193026" lon="13.323779358767506"><ele>390.33333333333337</ele><time>2026-04-26T08:12:26.999Z</time></trkpt><trkpt lat="38.04232135251308" lon="13.323946908199753"><ele>391.0</ele><time>2026-04-26T08:12:27.999Z</time></trkpt><trkpt lat="38.04225154658832" lon="13.324106754198784"><ele>391.0</ele><time>2026-04-26T08:12:28.999Z</time></trkpt><trkpt lat="38.04218675062015" lon="13.324267238519859"><ele>391.0</ele><time>2026-04-26T08:12:29.999Z</time></trkpt><trkpt lat="38.04212809510585" lon="13.324439062221463"><ele>391.0</ele><time>2026-04-26T08:12:30.999Z</time></trkpt><trkpt lat="38.04208446567377" lon="13.324620551369941"><ele>391.0</ele><time>2026-04-26T08:12:31.999Z</time></trkpt><trkpt lat="38.04202521527306" lon="13.324798887723"><ele>391.75</ele><time>2026-04-26T08:12:32.999Z</time></trkpt><trkpt lat="38.04195719961456" lon="13.324939035781805"><ele>392.5</ele><time>2026-04-26T08:12:33.999Z</time></trkpt><trkpt lat="38.04190873523887" lon="13.325049496837792"><ele>393.25</ele><time>2026-04-26T08:12:34.999Z</time></trkpt><trkpt lat="38.04185992601608" lon="13.325181117517456"><ele>394.0</ele><time>2026-04-26T08:12:35.999Z</time></trkpt><trkpt lat="38.04181787163332" lon="13.325324380947423"><ele>394.0</ele><time>2026-04-26T08:12:36.999Z</time></trkpt><trkpt lat="38.04175900710694" lon="13.325478995893322"><ele>394.0</ele><time>2026-04-26T08:12:37.999Z</time></trkpt><trkpt lat="38.041710684621854" lon="13.325594162411992"><ele>394.0</ele><time>2026-04-26T08:12:39Z</time></trkpt><trkpt lat="38.04167452761229" lon="13.325671751312575"><ele>394.0</ele><time>2026-04-26T08:12:40Z</time></trkpt><trkpt lat="38.041626785558435" lon="13.32575149943956"><ele>394.0</ele><time>2026-04-26T08:12:41Z</time></trkpt><trkpt lat="38.04157242292144" lon="13.325851121968322"><ele>394.33333333333337</ele><time>2026-04-26T08:12:42Z</time></trkpt><trkpt lat="38.041538294071316" lon="13.325924647773618"><ele>394.6666666666667</ele><time>2026-04-26T08:12:43Z</time></trkpt><trkpt lat="38.04148869847496" lon="13.326011639177981"><ele>395.0</ele><time>2026-04-26T08:12:57Z</time></trkpt><trkpt lat="38.041462471450444" lon="13.32612246815352"><ele>395.33333333333337</ele><time>2026-04-26T08:12:58Z</time></trkpt><trkpt lat="38.041413472045726" lon="13.326234131467587"><ele>395.6666666666667</ele><time>2026-04-26T08:12:59Z</time></trkpt><trkpt lat="38.0413871692112" lon="13.32632795049319"><ele>396.0</ele><time>2026-04-26T08:13:00Z</time></trkpt><trkpt lat="38.04136760021316" lon="13.326435169656202"><ele>396.8333333333333</ele><time>2026-04-26T08:13:01Z</time></trkpt><trkpt lat="38.04136310553174" lon="13.32654577177483"><ele>397.66666666666663</ele><time>2026-04-26T08:13:02Z</time></trkpt><trkpt lat="38.04136373681456" lon="13.326630051711371"><ele>398.5</ele><time>2026-04-26T08:13:03Z</time></trkpt><trkpt lat="38.04133799493363" lon="13.32675608458592"><ele>399.3333333333333</ele><time>2026-04-26T08:13:05Z</time></trkpt><trkpt lat="38.04129371075033" lon="13.326813348451315"><ele>400.16666666666663</ele><time>2026-04-26T08:13:07Z</time></trkpt><trkpt lat="38.04126444879506" lon="13.326884901143247"><ele>401.0</ele><time>2026-04-26T08:13:14Z</time></trkpt><trkpt lat="38.04132835596982" lon="13.326992333228043"><ele>400.99999999999994</ele><time>2026-04-26T08:13:15Z</time></trkpt><trkpt lat="38.041295298795895" lon="13.327153065439138"><ele>401.0</ele><time>2026-04-26T08:13:17Z</time></trkpt><trkpt lat="38.04126674264809" lon="13.327229050483737"><ele>401.0</ele><time>2026-04-26T08:13:18Z</time></trkpt><trkpt lat="38.04122900587381" lon="13.327310956002963"><ele>401.0</ele><time>2026-04-26T08:13:19Z</time></trkpt><trkpt lat="38.041190417959136" lon="13.327397460439858"><ele>400.99999999999994</ele><time>2026-04-26T08:13:20Z</time></trkpt><trkpt lat="38.04116275267389" lon="13.327480666192686"><ele>401.0</ele><time>2026-04-26T08:13:21Z</time></trkpt><trkpt lat="38.04112894440742" lon="13.327550314988487"><ele>401.66666666666663</ele><time>2026-04-26T08:13:22Z</time></trkpt><trkpt lat="38.04113103000792" lon="13.327635658490374"><ele>402.3333333333333</ele><time>2026-04-26T08:13:23Z</time></trkpt><trkpt lat="38.041162234175" lon="13.327736907784926"><ele>403.0</ele><time>2026-04-26T08:13:24Z</time></trkpt><trkpt lat="38.04118880627586" lon="13.32785132543323"><ele>403.66666666666663</ele><time>2026-04-26T08:13:25Z</time></trkpt><trkpt lat="38.04121662045753" lon="13.327964150060893"><ele>404.3333333333333</ele><time>2026-04-26T08:13:26Z</time></trkpt><trkpt lat="38.04125423714418" lon="13.32808143398022"><ele>405.0</ele><time>2026-04-26T08:13:27Z</time></trkpt><trkpt lat="38.041275172978246" lon="13.328157503032013"><ele>405.4</ele><time>2026-04-26T08:13:28Z</time></trkpt><trkpt lat="38.041290571164765" lon="13.328281852941128"><ele>405.8</ele><time>2026-04-26T08:13:30Z</time></trkpt><trkpt lat="38.041296942177745" lon="13.328451465546069"><ele>406.20000000000005</ele><time>2026-04-26T08:13:32Z</time></trkpt><trkpt lat="38.04131096141987" lon="13.328537953570589"><ele>406.6</ele><time>2026-04-26T08:13:33Z</time></trkpt><trkpt lat="38.04136291742185" lon="13.328671009461925"><ele>407.0</ele><time>2026-04-26T08:13:35Z</time></trkpt><trkpt lat="38.0414194223367" lon="13.328779649449302"><ele>407.6</ele><time>2026-04-26T08:13:37Z</time></trkpt><trkpt lat="38.041514974492465" lon="13.32890977937352"><ele>408.20000000000005</ele><time>2026-04-26T08:13:39Z</time></trkpt><trkpt lat="38.04158249488141" lon="13.328977969676464"><ele>408.8</ele><time>2026-04-26T08:13:40Z</time></trkpt><trkpt lat="38.041665597311315" lon="13.329045483626308"><ele>409.4</ele><time>2026-04-26T08:13:41Z</time></trkpt><trkpt lat="38.04175113718391" lon="13.329107473973599"><ele>410.0</ele><time>2026-04-26T08:13:42Z</time></trkpt><trkpt lat="38.041829384907" lon="13.329160569614285"><ele>410.0</ele><time>2026-04-26T08:13:43Z</time></trkpt><trkpt lat="38.04192117892425" lon="13.32922157473172"><ele>410.0</ele><time>2026-04-26T08:13:44Z</time></trkpt><trkpt lat="38.04200905724849" lon="13.329279977536164"><ele>410.0</ele><time>2026-04-26T08:13:45Z</time></trkpt><trkpt lat="38.04207916456384" lon="13.329327761518899"><ele>410.0</ele><time>2026-04-26T08:13:46Z</time></trkpt><trkpt lat="38.042150439942915" lon="13.329378778456102"><ele>410.0</ele><time>2026-04-26T08:13:47Z</time></trkpt><trkpt lat="38.04223234728153" lon="13.329416982081828"><ele>410.0</ele><time>2026-04-26T08:13:48Z</time></trkpt><trkpt lat="38.04230183711575" lon="13.329493796243035"><ele>410.0</ele><time>2026-04-26T08:13:49Z</time></trkpt><trkpt lat="38.042400966723356" lon="13.329540490443527"><ele>410.0</ele><time>2026-04-26T08:13:50Z</time></trkpt><trkpt lat="38.04249130568313" lon="13.32958878518289"><ele>410.0</ele><time>2026-04-26T08:13:51Z</time></trkpt><trkpt lat="38.042595816002226" lon="13.329621797257873"><ele>410.0</ele><time>2026-04-26T08:13:52Z</time></trkpt><trkpt lat="38.04269486474616" lon="13.329675814172088"><ele>411.4</ele><time>2026-04-26T08:13:53Z</time></trkpt><trkpt lat="38.04277940890479" lon="13.329707997474191"><ele>412.8</ele><time>2026-04-26T08:13:54Z</time></trkpt><trkpt lat="38.04287052451635" lon="13.329749253241326"><ele>414.20000000000005</ele><time>2026-04-26T08:13:55Z</time></trkpt><trkpt lat="38.04295854353763" lon="13.329812658187373"><ele>415.6</ele><time>2026-04-26T08:13:56Z</time></trkpt><trkpt lat="38.04306121185016" lon="13.32987310294378"><ele>417.0</ele><time>2026-04-26T08:13:57Z</time></trkpt><trkpt lat="38.04316037086294" lon="13.329915183240594"><ele>417.0</ele><time>2026-04-26T08:13:58Z</time></trkpt><trkpt lat="38.043266504003974" lon="13.329957152764546"><ele>417.0</ele><time>2026-04-26T08:13:59Z</time></trkpt><trkpt lat="38.04337368932189" lon="13.329997114918815"><ele>417.0</ele><time>2026-04-26T08:14:00Z</time></trkpt><trkpt lat="38.04347345483054" lon="13.3300343108426"><ele>417.0</ele><time>2026-04-26T08:14:01Z</time></trkpt><trkpt lat="38.04355906773874" lon="13.3300644646513"><ele>417.0</ele><time>2026-04-26T08:14:02Z</time></trkpt><trkpt lat="38.043638883313115" lon="13.330090771321231"><ele>418.40000000000003</ele><time>2026-04-26T08:14:03Z</time></trkpt><trkpt lat="38.04373933985637" lon="13.330121240632636"><ele>419.8</ele><time>2026-04-26T08:14:04Z</time></trkpt><trkpt lat="38.043832149187736" lon="13.330186161348573"><ele>421.2</ele><time>2026-04-26T08:14:05Z</time></trkpt><trkpt lat="38.04391371598656" lon="13.330259796579643"><ele>422.6</ele><time>2026-04-26T08:14:06Z</time></trkpt><trkpt lat="38.04397853082562" lon="13.330360899049685"><ele>424.0</ele><time>2026-04-26T08:14:07Z</time></trkpt><trkpt lat="38.04404011145957" lon="13.330440145514338"><ele>424.0</ele><time>2026-04-26T08:14:08Z</time></trkpt><trkpt lat="38.044103026487704" lon="13.330530845929607"><ele>424.0</ele><time>2026-04-26T08:14:09Z</time></trkpt><trkpt lat="38.04417176243611" lon="13.330629174164425"><ele>424.0</ele><time>2026-04-26T08:14:10Z</time></trkpt><trkpt lat="38.04423765889454" lon="13.330722444675992"><ele>424.0</ele><time>2026-04-26T08:14:11Z</time></trkpt><trkpt lat="38.04430168493246" lon="13.330790592528615"><ele>424.0</ele><time>2026-04-26T08:14:12Z</time></trkpt><trkpt lat="38.044346002353834" lon="13.330863524381781"><ele>425.2</ele><time>2026-04-26T08:14:13Z</time></trkpt><trkpt lat="38.04439322473878" lon="13.330943562346587"><ele>426.4</ele><time>2026-04-26T08:14:14Z</time></trkpt><trkpt lat="38.04442761268338" lon="13.331032418033006"><ele>427.6</ele><time>2026-04-26T08:14:15Z</time></trkpt><trkpt lat="38.04442714656592" lon="13.331140852991929"><ele>428.8</ele><time>2026-04-26T08:14:16Z</time></trkpt><trkpt lat="38.04444536989351" lon="13.331274443211994"><ele>430.0</ele><time>2026-04-26T08:14:17Z</time></trkpt><trkpt lat="38.04445761096059" lon="13.33141965775146"><ele>431.6</ele><time>2026-04-26T08:14:18Z</time></trkpt><trkpt lat="38.0444570222236" lon="13.331557691703484"><ele>433.2</ele><time>2026-04-26T08:14:19Z</time></trkpt><trkpt lat="38.04443561228639" lon="13.331675982307782"><ele>434.79999999999995</ele><time>2026-04-26T08:14:20Z</time></trkpt><trkpt lat="38.04439574026448" lon="13.331786319346836"><ele>436.4</ele><time>2026-04-26T08:14:21Z</time></trkpt><trkpt lat="38.044343793390574" lon="13.331889934686311"><ele>438.0</ele><time>2026-04-26T08:14:22Z</time></trkpt><trkpt lat="38.04430334341048" lon="13.331961790890116"><ele>438.0</ele><time>2026-04-26T08:14:23Z</time></trkpt><trkpt lat="38.044249783745045" lon="13.332081973775338"><ele>438.0</ele><time>2026-04-26T08:14:25Z</time></trkpt><trkpt lat="38.04420340911677" lon="13.332162935231391"><ele>438.0</ele><time>2026-04-26T08:14:27Z</time></trkpt><trkpt lat="38.04416226370867" lon="13.33223119826033"><ele>438.0</ele><time>2026-04-26T08:14:28Z</time></trkpt><trkpt lat="38.04411241901434" lon="13.332292738576538"><ele>438.0</ele><time>2026-04-26T08:14:28.999Z</time></trkpt><trkpt lat="38.04402366360297" lon="13.332350455362107"><ele>438.0</ele><time>2026-04-26T08:14:29.999Z</time></trkpt><trkpt lat="38.04394806659306" lon="13.332412286603166"><ele>440.4</ele><time>2026-04-26T08:14:30.999Z</time></trkpt><trkpt lat="38.0438674724093" lon="13.33246986142604"><ele>442.79999999999995</ele><time>2026-04-26T08:14:31.999Z</time></trkpt><trkpt lat="38.043788870648974" lon="13.33254325087709"><ele>445.2</ele><time>2026-04-26T08:14:32.999Z</time></trkpt><trkpt lat="38.04372511101849" lon="13.332646441033285"><ele>447.6</ele><time>2026-04-26T08:14:33.999Z</time></trkpt><trkpt lat="38.043658924037615" lon="13.332747205820388"><ele>450.0</ele><time>2026-04-26T08:14:34.999Z</time></trkpt><trkpt lat="38.04358892040275" lon="13.332856360019752"><ele>450.0</ele><time>2026-04-26T08:14:35.999Z</time></trkpt><trkpt lat="38.04349233192083" lon="13.33294510181421"><ele>450.0</ele><time>2026-04-26T08:14:36.999Z</time></trkpt><trkpt lat="38.043433409867895" lon="13.333072857037484"><ele>450.0</ele><time>2026-04-26T08:14:37.999Z</time></trkpt><trkpt lat="38.04337009524027" lon="13.333188448924556"><ele>450.0</ele><time>2026-04-26T08:14:38.999Z</time></trkpt><trkpt lat="38.0433200612743" lon="13.33329518581032"><ele>450.0</ele><time>2026-04-26T08:14:39.999Z</time></trkpt><trkpt lat="38.04328611497452" lon="13.333384968938962"><ele>453.2</ele><time>2026-04-26T08:14:40.999Z</time></trkpt><trkpt lat="38.04325036666061" lon="13.333502032284981"><ele>456.4</ele><time>2026-04-26T08:14:41.999Z</time></trkpt><trkpt lat="38.04322546166469" lon="13.333606595488384"><ele>459.6</ele><time>2026-04-26T08:14:42.999Z</time></trkpt><trkpt lat="38.04320578684849" lon="13.33371889022419"><ele>462.8</ele><time>2026-04-26T08:14:43.999Z</time></trkpt><trkpt lat="38.04320018509475" lon="13.333833690900935"><ele>466.0</ele><time>2026-04-26T08:14:45Z</time></trkpt><trkpt lat="38.04320738142876" lon="13.333972730411322"><ele>466.0</ele><time>2026-04-26T08:14:46Z</time></trkpt><trkpt lat="38.04322820605822" lon="13.334089340939535"><ele>466.0</ele><time>2026-04-26T08:14:47Z</time></trkpt><trkpt lat="38.04324934372944" lon="13.334220329686147"><ele>466.0</ele><time>2026-04-26T08:14:48Z</time></trkpt><trkpt lat="38.04328949055536" lon="13.334358232992452"><ele>466.0</ele><time>2026-04-26T08:14:49Z</time></trkpt><trkpt lat="38.043324294615815" lon="13.334485854558249"><ele>466.0</ele><time>2026-04-26T08:14:50Z</time></trkpt><trkpt lat="38.04335514833924" lon="13.334615691788683"><ele>462.00000000000006</ele><time>2026-04-26T08:14:51Z</time></trkpt><trkpt lat="38.043376535623366" lon="13.334733200181349"><ele>458.0</ele><time>2026-04-26T08:14:52Z</time></trkpt><trkpt lat="38.04339873574429" lon="13.334834390055029"><ele>454.0</ele><time>2026-04-26T08:14:53Z</time></trkpt><trkpt lat="38.04341337336431" lon="13.334913313189977"><ele>450.0</ele><time>2026-04-26T08:14:54Z</time></trkpt><trkpt lat="38.04341010616983" lon="13.335004815935505"><ele>446.00000000000006</ele><time>2026-04-26T08:14:55Z</time></trkpt><trkpt lat="38.043430648749585" lon="13.335082455080885"><ele>442.0</ele><time>2026-04-26T08:14:56Z</time></trkpt><trkpt lat="38.04344568694015" lon="13.335224793495364"><ele>442.0</ele><time>2026-04-26T08:14:58Z</time></trkpt><trkpt lat="38.043487896096984" lon="13.335326125631548"><ele>442.00000000000006</ele><time>2026-04-26T08:15:00Z</time></trkpt><trkpt lat="38.04353743777192" lon="13.335473531422675"><ele>442.00000000000006</ele><time>2026-04-26T08:15:02Z</time></trkpt><trkpt lat="38.043570151159315" lon="13.335569769437203"><ele>442.0</ele><time>2026-04-26T08:15:03Z</time></trkpt><trkpt lat="38.0436117296407" lon="13.335657368495617"><ele>442.0</ele><time>2026-04-26T08:15:04Z</time></trkpt><trkpt lat="38.043654710924" lon="13.335743209317"><ele>442.1666666666667</ele><time>2026-04-26T08:15:05Z</time></trkpt><trkpt lat="38.043698594011616" lon="13.335823343282884"><ele>442.33333333333337</ele><time>2026-04-26T08:15:06Z</time></trkpt><trkpt lat="38.04372901685083" lon="13.335914494696594"><ele>442.5</ele><time>2026-04-26T08:15:07Z</time></trkpt><trkpt lat="38.043709580909635" lon="13.336019096776145"><ele>442.66666666666663</ele><time>2026-04-26T08:15:08Z</time></trkpt><trkpt lat="38.04370576843362" lon="13.336133294155397"><ele>442.8333333333333</ele><time>2026-04-26T08:15:09Z</time></trkpt><trkpt lat="38.043711506794146" lon="13.336234671472607"><ele>443.0</ele><time>2026-04-26T08:15:10Z</time></trkpt><trkpt lat="38.043733856318426" lon="13.33633119492183"><ele>444.99999999999994</ele><time>2026-04-26T08:15:11Z</time></trkpt><trkpt lat="38.04375236739828" lon="13.336429199551539"><ele>447.0</ele><time>2026-04-26T08:15:12Z</time></trkpt><trkpt lat="38.043779851839744" lon="13.336520340561588"><ele>449.0</ele><time>2026-04-26T08:15:13Z</time></trkpt><trkpt lat="38.04380921234463" lon="13.336591625564719"><ele>451.0</ele><time>2026-04-26T08:15:14Z</time></trkpt><trkpt lat="38.043882164094555" lon="13.336687911118409"><ele>452.99999999999994</ele><time>2026-04-26T08:15:16Z</time></trkpt><trkpt lat="38.043937534297086" lon="13.336750954461568"><ele>455.0</ele><time>2026-04-26T08:15:17Z</time></trkpt><trkpt lat="38.04398847611828" lon="13.33681517234919"><ele>454.99999999999994</ele><time>2026-04-26T08:15:18Z</time></trkpt><trkpt lat="38.04401083882491" lon="13.33691935267515"><ele>455.0</ele><time>2026-04-26T08:15:19Z</time></trkpt><trkpt lat="38.044036680083806" lon="13.337020622354682"><ele>455.0</ele><time>2026-04-26T08:15:20Z</time></trkpt><trkpt lat="38.0440568570783" lon="13.337125813948596"><ele>455.0</ele><time>2026-04-26T08:15:21Z</time></trkpt><trkpt lat="38.044071883338965" lon="13.337244043127978"><ele>454.99999999999994</ele><time>2026-04-26T08:15:22Z</time></trkpt><trkpt lat="38.044064242435155" lon="13.337368963689665"><ele>455.0</ele><time>2026-04-26T08:15:23Z</time></trkpt><trkpt lat="38.04404389877816" lon="13.337462093032793"><ele>456.49999999999994</ele><time>2026-04-26T08:15:24Z</time></trkpt><trkpt lat="38.044009792241376" lon="13.33757556037616"><ele>458.0</ele><time>2026-04-26T08:15:25Z</time></trkpt><trkpt lat="38.04397970802604" lon="13.337688044015444"><ele>459.5</ele><time>2026-04-26T08:15:26Z</time></trkpt><trkpt lat="38.04398381976551" lon="13.337795096430924"><ele>461.0</ele><time>2026-04-26T08:15:27Z</time></trkpt><trkpt lat="38.04399239000754" lon="13.33790131273489"><ele>462.49999999999994</ele><time>2026-04-26T08:15:28Z</time></trkpt><trkpt lat="38.04400946687271" lon="13.338012676398554"><ele>464.0</ele><time>2026-04-26T08:15:29Z</time></trkpt><trkpt lat="38.04402350020847" lon="13.338134184073162"><ele>463.8333333333333</ele><time>2026-04-26T08:15:30Z</time></trkpt><trkpt lat="38.044022568077764" lon="13.338237582630713"><ele>463.66666666666663</ele><time>2026-04-26T08:15:31Z</time></trkpt><trkpt lat="38.044029604929314" lon="13.33835491471328"><ele>463.5</ele><time>2026-04-26T08:15:32Z</time></trkpt><trkpt lat="38.04403901949975" lon="13.338458096240347"><ele>463.33333333333337</ele><time>2026-04-26T08:15:33Z</time></trkpt><trkpt lat="38.04406369223043" lon="13.33856467052203"><ele>463.1666666666667</ele><time>2026-04-26T08:15:34Z</time></trkpt><trkpt lat="38.04409746042113" lon="13.338672542968585"><ele>463.0</ele><time>2026-04-26T08:15:35Z</time></trkpt><trkpt lat="38.044137478630695" lon="13.338774424707116"><ele>462.59999999999997</ele><time>2026-04-26T08:15:36Z</time></trkpt><trkpt lat="38.04418427057873" lon="13.33888477694135"><ele>462.19999999999993</ele><time>2026-04-26T08:15:37Z</time></trkpt><trkpt lat="38.04422470380186" lon="13.339001376044997"><ele>461.8</ele><time>2026-04-26T08:15:38Z</time></trkpt><trkpt lat="38.0442824361523" lon="13.339077268544523"><ele>461.4</ele><time>2026-04-26T08:15:39Z</time></trkpt><trkpt lat="38.04431179474828" lon="13.339163506223205"><ele>461.0</ele><time>2026-04-26T08:15:40Z</time></trkpt><trkpt lat="38.044392386635295" lon="13.339277728556947"><ele>460.99999999999994</ele><time>2026-04-26T08:15:42Z</time></trkpt><trkpt lat="38.044429164294435" lon="13.339349698164598"><ele>461.0</ele><time>2026-04-26T08:15:43Z</time></trkpt><trkpt lat="38.04447517247974" lon="13.339493641368671"><ele>461.0</ele><time>2026-04-26T08:15:45Z</time></trkpt><trkpt lat="38.04449365615506" lon="13.339584477017151"><ele>461.0</ele><time>2026-04-26T08:15:46Z</time></trkpt><trkpt lat="38.04451812277375" lon="13.339670019199824"><ele>460.99999999999994</ele><time>2026-04-26T08:15:47Z</time></trkpt><trkpt lat="38.044551997274084" lon="13.339769709831812"><ele>461.0</ele><time>2026-04-26T08:15:48Z</time></trkpt><trkpt lat="38.044589539286996" lon="13.33988517029158"><ele>461.3333333333333</ele><time>2026-04-26T08:15:49Z</time></trkpt><trkpt lat="38.04460123389674" lon="13.340004530932589"><ele>461.66666666666663</ele><time>2026-04-26T08:15:50Z</time></trkpt><trkpt lat="38.04463289094051" lon="13.34011543516642"><ele>462.0</ele><time>2026-04-26T08:15:51Z</time></trkpt><trkpt lat="38.04466929476419" lon="13.340215415118191"><ele>462.33333333333337</ele><time>2026-04-26T08:15:52Z</time></trkpt><trkpt lat="38.04470892007513" lon="13.340306152899617"><ele>462.6666666666667</ele><time>2026-04-26T08:15:53Z</time></trkpt><trkpt lat="38.04474008786541" lon="13.340407819452505"><ele>463.0</ele><time>2026-04-26T08:15:54Z</time></trkpt><trkpt lat="38.04477546623785" lon="13.340489277980229"><ele>462.6666666666667</ele><time>2026-04-26T08:15:55Z</time></trkpt><trkpt lat="38.04479231048167" lon="13.340591544146186"><ele>462.33333333333337</ele><time>2026-04-26T08:15:56Z</time></trkpt><trkpt lat="38.04482684433826" lon="13.340695402459652"><ele>462.0</ele><time>2026-04-26T08:15:57Z</time></trkpt><trkpt lat="38.04490839510485" lon="13.34076423207915"><ele>461.66666666666663</ele><time>2026-04-26T08:15:58Z</time></trkpt><trkpt lat="38.04496101382026" lon="13.340852393522544"><ele>461.3333333333333</ele><time>2026-04-26T08:15:59Z</time></trkpt><trkpt lat="38.0450164394547" lon="13.340946425997403"><ele>461.0</ele><time>2026-04-26T08:16:00Z</time></trkpt><trkpt lat="38.04506386703201" lon="13.341044220337277"><ele>460.99999999999994</ele><time>2026-04-26T08:16:01Z</time></trkpt><trkpt lat="38.04512038357348" lon="13.34113016738764"><ele>461.0</ele><time>2026-04-26T08:16:02Z</time></trkpt><trkpt lat="38.04516422724236" lon="13.341206760660688"><ele>461.0</ele><time>2026-04-26T08:16:03Z</time></trkpt><trkpt lat="38.045204445084686" lon="13.341293109778295"><ele>461.0</ele><time>2026-04-26T08:16:04Z</time></trkpt><trkpt lat="38.045248686781356" lon="13.341379656626037"><ele>460.99999999999994</ele><time>2026-04-26T08:16:05Z</time></trkpt><trkpt lat="38.0452937997695" lon="13.341451663148876"><ele>461.0</ele><time>2026-04-26T08:16:06Z</time></trkpt><trkpt lat="38.04534811970444" lon="13.341528123464977"><ele>462.3333333333333</ele><time>2026-04-26T08:16:07Z</time></trkpt><trkpt lat="38.045404750916994" lon="13.341600331943988"><ele>463.66666666666663</ele><time>2026-04-26T08:16:08Z</time></trkpt><trkpt lat="38.04545072932005" lon="13.34169377005179"><ele>465.0</ele><time>2026-04-26T08:16:09Z</time></trkpt><trkpt lat="38.045468955477126" lon="13.341805527958915"><ele>466.33333333333337</ele><time>2026-04-26T08:16:10Z</time></trkpt><trkpt lat="38.04549463878235" lon="13.341908645421196"><ele>467.6666666666667</ele><time>2026-04-26T08:16:11Z</time></trkpt><trkpt lat="38.04552967599068" lon="13.34200952704173"><ele>469.0</ele><time>2026-04-26T08:16:12Z</time></trkpt><trkpt lat="38.04559220367107" lon="13.342061402648994"><ele>469.0</ele><time>2026-04-26T08:16:13Z</time></trkpt><trkpt lat="38.045645896597314" lon="13.34216449018903"><ele>469.0</ele><time>2026-04-26T08:16:15Z</time></trkpt><trkpt lat="38.04571460387719" lon="13.34225896172167"><ele>469.0</ele><time>2026-04-26T08:16:17Z</time></trkpt><trkpt lat="38.045760407553274" lon="13.342321941098954"><ele>469.0</ele><time>2026-04-26T08:16:18Z</time></trkpt><trkpt lat="38.045776695847366" lon="13.342402438952723"><ele>469.0</ele><time>2026-04-26T08:16:19Z</time></trkpt><trkpt lat="38.04595208032522" lon="13.342368949088005"><ele>468.83333333333337</ele><time>2026-04-26T08:16:20Z</time></trkpt><trkpt lat="38.046025763385146" lon="13.342442759795121"><ele>468.6666666666667</ele><time>2026-04-26T08:16:21Z</time></trkpt><trkpt lat="38.046102032183654" lon="13.34252316367736"><ele>468.5</ele><time>2026-04-26T08:16:22Z</time></trkpt><trkpt lat="38.04617379389683" lon="13.34259988028939"><ele>468.33333333333337</ele><time>2026-04-26T08:16:23Z</time></trkpt><trkpt lat="38.046231945535666" lon="13.342669164148917"><ele>468.1666666666667</ele><time>2026-04-26T08:16:24Z</time></trkpt><trkpt lat="38.04628139529935" lon="13.342724549814779"><ele>468.0</ele><time>2026-04-26T08:16:25Z</time></trkpt><trkpt lat="38.04636064764196" lon="13.342809615024377"><ele>468.0</ele><time>2026-04-26T08:16:27Z</time></trkpt><trkpt lat="38.04641503675294" lon="13.342858516368478"><ele>468.0</ele><time>2026-04-26T08:16:29Z</time></trkpt><trkpt lat="38.04648220765235" lon="13.342890663519261"><ele>468.0</ele><time>2026-04-26T08:16:52Z</time></trkpt><trkpt lat="38.04659104626321" lon="13.342938926625935"><ele>468.0</ele><time>2026-04-26T08:16:54Z</time></trkpt><trkpt lat="38.04665396749677" lon="13.342963206389564"><ele>468.0</ele><time>2026-04-26T08:16:55Z</time></trkpt><trkpt lat="38.04671893547772" lon="13.342996110428057"><ele>468.0</ele><time>2026-04-26T08:16:56Z</time></trkpt><trkpt lat="38.04678887809502" lon="13.34302901049348"><ele>468.8571428571429</ele><time>2026-04-26T08:16:57Z</time></trkpt><trkpt lat="38.046857171542676" lon="13.343058609973667"><ele>469.7142857142858</ele><time>2026-04-26T08:16:58Z</time></trkpt><trkpt lat="38.04693118184356" lon="13.343091310806884"><ele>470.57142857142856</ele><time>2026-04-26T08:16:59Z</time></trkpt><trkpt lat="38.046998544835176" lon="13.343115745026664"><ele>471.42857142857144</ele><time>2026-04-26T08:17:00Z</time></trkpt><trkpt lat="38.047065901070475" lon="13.34313447228569"><ele>472.2857142857143</ele><time>2026-04-26T08:17:01Z</time></trkpt><trkpt lat="38.04713114345469" lon="13.343164385711914"><ele>473.1428571428571</ele><time>2026-04-26T08:17:02Z</time></trkpt><trkpt lat="38.04719458101322" lon="13.343223955747174"><ele>473.99999999999994</ele><time>2026-04-26T08:17:03Z</time></trkpt><trkpt lat="38.04725759281758" lon="13.343283339931938"><ele>474.0</ele><time>2026-04-26T08:17:04Z</time></trkpt><trkpt lat="38.04731625622435" lon="13.343338037474384"><ele>474.0</ele><time>2026-04-26T08:17:05Z</time></trkpt><trkpt lat="38.04742771421549" lon="13.343415956817054"><ele>474.0</ele><time>2026-04-26T08:17:07Z</time></trkpt><trkpt lat="38.04754515434" lon="13.343452215029004"><ele>474.0</ele><time>2026-04-26T08:17:09Z</time></trkpt><trkpt lat="38.047617863595754" lon="13.343450277464877"><ele>474.0</ele><time>2026-04-26T08:17:10Z</time></trkpt><trkpt lat="38.04769104880998" lon="13.34344491961065"><ele>473.99999999999994</ele><time>2026-04-26T08:17:11Z</time></trkpt><trkpt lat="38.04774989535313" lon="13.343408788230755"><ele>474.0</ele><time>2026-04-26T08:17:12Z</time></trkpt><trkpt lat="38.04780414333614" lon="13.343366982100331"><ele>473.99999999999994</ele><time>2026-04-26T08:17:13Z</time></trkpt><trkpt lat="38.04787013935962" lon="13.343338765010406"><ele>473.99999999999994</ele><time>2026-04-26T08:17:14Z</time></trkpt><trkpt lat="38.04793794267613" lon="13.343311118134705"><ele>474.0</ele><time>2026-04-26T08:17:15Z</time></trkpt><trkpt lat="38.048017007323075" lon="13.343300804272607"><ele>473.99999999999994</ele><time>2026-04-26T08:17:16Z</time></trkpt><trkpt lat="38.04808874657518" lon="13.343282380047864"><ele>473.99999999999994</ele><time>2026-04-26T08:17:17Z</time></trkpt><trkpt lat="38.04816475196709" lon="13.343307324376985"><ele>474.0</ele><time>2026-04-26T08:17:18Z</time></trkpt><trkpt lat="38.04822871402887" lon="13.343308873770164"><ele>474.0</ele><time>2026-04-26T08:17:19Z</time></trkpt><trkpt lat="38.0483000336367" lon="13.343308873769628"><ele>474.0</ele><time>2026-04-26T08:17:20Z</time></trkpt><trkpt lat="38.04837840202495" lon="13.343288519797468"><ele>474.0</ele><time>2026-04-26T08:17:21Z</time></trkpt><trkpt lat="38.04847156003184" lon="13.343296514900905"><ele>474.0</ele><time>2026-04-26T08:17:22Z</time></trkpt><trkpt lat="38.048557138507554" lon="13.343278865170149"><ele>474.0</ele><time>2026-04-26T08:17:23Z</time></trkpt><trkpt lat="38.04864825324381" lon="13.343260368368052"><ele>475.3333333333333</ele><time>2026-04-26T08:17:24Z</time></trkpt><trkpt lat="38.0487351896698" lon="13.343242718417454"><ele>476.66666666666663</ele><time>2026-04-26T08:17:25Z</time></trkpt><trkpt lat="38.04881926902806" lon="13.343225648657867"><ele>478.0</ele><time>2026-04-26T08:17:26Z</time></trkpt><trkpt lat="38.048896334953184" lon="13.343210002765886"><ele>479.3333333333333</ele><time>2026-04-26T08:17:27Z</time></trkpt><trkpt lat="38.048976447909695" lon="13.34316928794338"><ele>480.66666666666663</ele><time>2026-04-26T08:17:28Z</time></trkpt><trkpt lat="38.04905576086291" lon="13.34316276247597"><ele>482.0</ele><time>2026-04-26T08:17:29Z</time></trkpt><trkpt lat="38.049143219309194" lon="13.343171996069904"><ele>483.40000000000003</ele><time>2026-04-26T08:17:30Z</time></trkpt><trkpt lat="38.04922439239639" lon="13.343183646749463"><ele>484.80000000000007</ele><time>2026-04-26T08:17:31Z</time></trkpt><trkpt lat="38.04929174450281" lon="13.343185152878114"><ele>486.2</ele><time>2026-04-26T08:17:32Z</time></trkpt><trkpt lat="38.0493686177763" lon="13.343171525600388"><ele>487.6</ele><time>2026-04-26T08:17:33Z</time></trkpt><trkpt lat="38.04948014584361" lon="13.343144423909227"><ele>489.0</ele><time>2026-04-26T08:17:35Z</time></trkpt><trkpt lat="38.049597215669884" lon="13.343173211452928"><ele>489.0</ele><time>2026-04-26T08:17:37Z</time></trkpt><trkpt lat="38.04966600075817" lon="13.343170022603148"><ele>489.0</ele><time>2026-04-26T08:17:38Z</time></trkpt><trkpt lat="38.049782969695954" lon="13.343168870653908"><ele>489.0</ele><time>2026-04-26T08:17:40Z</time></trkpt><trkpt lat="38.04990420499513" lon="13.343182123428466"><ele>489.0</ele><time>2026-04-26T08:17:42Z</time></trkpt><trkpt lat="38.049971909503455" lon="13.343184409283118"><ele>489.0</ele><time>2026-04-26T08:17:43Z</time></trkpt><trkpt lat="38.050041415553636" lon="13.343176938779092"><ele>489.0</ele><time>2026-04-26T08:17:44Z</time></trkpt><trkpt lat="38.050108130793284" lon="13.343163829827251"><ele>490.3333333333333</ele><time>2026-04-26T08:17:45Z</time></trkpt><trkpt lat="38.05023158328869" lon="13.343131050560329"><ele>491.66666666666663</ele><time>2026-04-26T08:17:47Z</time></trkpt><trkpt lat="38.0503036247924" lon="13.34314462207542"><ele>493.0</ele><time>2026-04-26T08:17:48Z</time></trkpt><trkpt lat="38.05037012771582" lon="13.343171169366103"><ele>494.3333333333333</ele><time>2026-04-26T08:17:49Z</time></trkpt><trkpt lat="38.05045055580856" lon="13.343186689510306"><ele>495.66666666666663</ele><time>2026-04-26T08:17:50Z</time></trkpt><trkpt lat="38.050526785934146" lon="13.343199628259743"><ele>497.0</ele><time>2026-04-26T08:17:51Z</time></trkpt><trkpt lat="38.050590259950184" lon="13.343206130943415"><ele>496.99999999999994</ele><time>2026-04-26T08:17:52Z</time></trkpt><trkpt lat="38.050696730932884" lon="13.343219736644205"><ele>497.0</ele><time>2026-04-26T08:17:54Z</time></trkpt><trkpt lat="38.050812059736096" lon="13.343244829652882"><ele>497.0</ele><time>2026-04-26T08:17:56Z</time></trkpt><trkpt lat="38.05087779575769" lon="13.343255605716829"><ele>497.0</ele><time>2026-04-26T08:17:57Z</time></trkpt><trkpt lat="38.05094710350736" lon="13.343227839769426"><ele>496.99999999999994</ele><time>2026-04-26T08:17:58Z</time></trkpt><trkpt lat="38.051030393213296" lon="13.343235469131914"><ele>497.0</ele><time>2026-04-26T08:18:00Z</time></trkpt><trkpt lat="38.05110092337407" lon="13.343317166140523"><ele>498.3333333333333</ele><time>2026-04-26T08:18:02Z</time></trkpt><trkpt lat="38.05116491185592" lon="13.343379682455256"><ele>499.66666666666663</ele><time>2026-04-26T08:18:04Z</time></trkpt><trkpt lat="38.05125991428228" lon="13.343400238704332"><ele>501.0</ele><time>2026-04-26T08:18:06Z</time></trkpt><trkpt lat="38.051321893480015" lon="13.343423576285828"><ele>502.33333333333337</ele><time>2026-04-26T08:18:07Z</time></trkpt><trkpt lat="38.05141497085722" lon="13.343493100777172"><ele>503.6666666666667</ele><time>2026-04-26T08:18:09Z</time></trkpt><trkpt lat="38.051468119840145" lon="13.343565143138964"><ele>505.0</ele><time>2026-04-26T08:18:11Z</time></trkpt><trkpt lat="38.05155519994253" lon="13.343627904802645"><ele>505.6666666666667</ele><time>2026-04-26T08:18:13Z</time></trkpt><trkpt lat="38.051637257457784" lon="13.343684825463368"><ele>506.33333333333337</ele><time>2026-04-26T08:18:15Z</time></trkpt><trkpt lat="38.051738404575936" lon="13.34372661205868"><ele>507.0</ele><time>2026-04-26T08:18:17Z</time></trkpt><trkpt lat="38.05180047241867" lon="13.343746200311763"><ele>507.66666666666663</ele><time>2026-04-26T08:18:18Z</time></trkpt><trkpt lat="38.05187048866529" lon="13.343770963429709"><ele>508.3333333333333</ele><time>2026-04-26T08:18:19Z</time></trkpt><trkpt lat="38.051938348930314" lon="13.343819265483834"><ele>509.0</ele><time>2026-04-26T08:18:20Z</time></trkpt><trkpt lat="38.051995782340995" lon="13.343875894719488"><ele>511.99999999999994</ele><time>2026-04-26T08:18:21Z</time></trkpt><trkpt lat="38.052059819164235" lon="13.343923474509111"><ele>515.0</ele><time>2026-04-26T08:18:22Z</time></trkpt><trkpt lat="38.052128739785815" lon="13.343963147004773"><ele>518.0</ele><time>2026-04-26T08:18:23Z</time></trkpt><trkpt lat="38.05219029206639" lon="13.343989526422053"><ele>521.0</ele><time>2026-04-26T08:18:24Z</time></trkpt><trkpt lat="38.05225256093487" lon="13.34402800888957"><ele>524.0</ele><time>2026-04-26T08:18:25Z</time></trkpt><trkpt lat="38.05231522323875" lon="13.344068948620626"><ele>527.0</ele><time>2026-04-26T08:18:26Z</time></trkpt><trkpt lat="38.052422520472724" lon="13.34414260523613"><ele>525.6666666666666</ele><time>2026-04-26T08:18:28Z</time></trkpt><trkpt lat="38.05247134256418" lon="13.344194389204583"><ele>524.3333333333333</ele><time>2026-04-26T08:18:29Z</time></trkpt><trkpt lat="38.05252759241266" lon="13.344252395300144"><ele>523.0</ele><time>2026-04-26T08:18:30Z</time></trkpt><trkpt lat="38.05263470084759" lon="13.344343007548158"><ele>521.6666666666666</ele><time>2026-04-26T08:18:32Z</time></trkpt><trkpt lat="38.05269150170443" lon="13.344383118477099"><ele>520.3333333333334</ele><time>2026-04-26T08:18:33Z</time></trkpt><trkpt lat="38.052801547265645" lon="13.344440203557705"><ele>519.0</ele><time>2026-04-26T08:18:35Z</time></trkpt><trkpt lat="38.0528864715098" lon="13.34449101544012"><ele>519.0</ele><time>2026-04-26T08:18:37Z</time></trkpt><trkpt lat="38.0529311506278" lon="13.344551763352474"><ele>519.0</ele><time>2026-04-26T08:18:38Z</time></trkpt><trkpt lat="38.052982805544225" lon="13.344614777853284"><ele>519.0</ele><time>2026-04-26T08:18:39Z</time></trkpt><trkpt lat="38.053033991659674" lon="13.3446803777584"><ele>519.0</ele><time>2026-04-26T08:18:39.999Z</time></trkpt><trkpt lat="38.05309875107009" lon="13.344742687407528"><ele>519.0</ele><time>2026-04-26T08:18:40.999Z</time></trkpt><trkpt lat="38.05315531148907" lon="13.344802544564866"><ele>519.0</ele><time>2026-04-26T08:18:41.999Z</time></trkpt><trkpt lat="38.05320047956967" lon="13.344930139482008"><ele>520.5</ele><time>2026-04-26T08:18:43.999Z</time></trkpt><trkpt lat="38.05326723161555" lon="13.344992322812764"><ele>522.0</ele><time>2026-04-26T08:18:44.999Z</time></trkpt><trkpt lat="38.05333059409826" lon="13.345049071125759"><ele>523.5</ele><time>2026-04-26T08:18:45.999Z</time></trkpt><trkpt lat="38.05341372893719" lon="13.345063810983842"><ele>525.0</ele><time>2026-04-26T08:18:46.999Z</time></trkpt><trkpt lat="38.053459136972876" lon="13.345121907684604"><ele>526.5</ele><time>2026-04-26T08:18:47.999Z</time></trkpt><trkpt lat="38.053508737963334" lon="13.34523785591098"><ele>528.0</ele><time>2026-04-26T08:18:49.999Z</time></trkpt><trkpt lat="38.05356978480571" lon="13.345288763542781"><ele>528.0</ele><time>2026-04-26T08:18:50.999Z</time></trkpt><trkpt lat="38.05362063960134" lon="13.345350960189904"><ele>528.0</ele><time>2026-04-26T08:18:51.999Z</time></trkpt><trkpt lat="38.0536963809426" lon="13.34547095898643"><ele>528.0</ele><time>2026-04-26T08:18:53.999Z</time></trkpt><trkpt lat="38.05376874830713" lon="13.345556834813902"><ele>528.0</ele><time>2026-04-26T08:18:55.999Z</time></trkpt><trkpt lat="38.0538243946714" lon="13.345660235589486"><ele>528.0</ele><time>2026-04-26T08:18:58Z</time></trkpt><trkpt lat="38.05386964247439" lon="13.345721784909742"><ele>529.4</ele><time>2026-04-26T08:18:59Z</time></trkpt><trkpt lat="38.053964408117665" lon="13.34583360646216"><ele>530.8</ele><time>2026-04-26T08:19:01Z</time></trkpt><trkpt lat="38.05401491732068" lon="13.345892186648008"><ele>532.2</ele><time>2026-04-26T08:19:02Z</time></trkpt><trkpt lat="38.05406619767284" lon="13.34594262988785"><ele>533.6</ele><time>2026-04-26T08:19:03Z</time></trkpt><trkpt lat="38.05411672383343" lon="13.34599763474934"><ele>535.0</ele><time>2026-04-26T08:19:04Z</time></trkpt><trkpt lat="38.054207568782594" lon="13.346102368657068"><ele>535.0</ele><time>2026-04-26T08:19:06Z</time></trkpt><trkpt lat="38.054309461096125" lon="13.346208267079723"><ele>535.0</ele><time>2026-04-26T08:19:08Z</time></trkpt><trkpt lat="38.05436293216995" lon="13.3462634375595"><ele>535.0</ele><time>2026-04-26T08:19:09Z</time></trkpt><trkpt lat="38.054415498156644" lon="13.34632118945508"><ele>535.0</ele><time>2026-04-26T08:19:10Z</time></trkpt><trkpt lat="38.05446522779327" lon="13.346381311064176"><ele>535.0</ele><time>2026-04-26T08:19:11Z</time></trkpt><trkpt lat="38.05452195013271" lon="13.346429672780467"><ele>535.0</ele><time>2026-04-26T08:19:12Z</time></trkpt><trkpt lat="38.05457568403467" lon="13.346481548870061"><ele>540.0</ele><time>2026-04-26T08:19:13Z</time></trkpt><trkpt lat="38.05461220922494" lon="13.3466059745511"><ele>545.0</ele><time>2026-04-26T08:19:15Z</time></trkpt><trkpt lat="38.054685460388235" lon="13.34660664738466"><ele>550.0</ele><time>2026-04-26T08:31:59Z</time></trkpt><trkpt lat="38.054755867404836" lon="13.346691715034382"><ele>555.0</ele><time>2026-04-26T08:32:02Z</time></trkpt><trkpt lat="38.054836834844444" lon="13.346776537563866"><ele>560.0</ele><time>2026-04-26T08:32:04Z</time></trkpt><trkpt lat="38.054924768735454" lon="13.346865669606897"><ele>557.0</ele><time>2026-04-26T08:32:06Z</time></trkpt><trkpt lat="38.05501225576315" lon="13.346940572013574"><ele>554.0</ele><time>2026-04-26T08:32:08Z</time></trkpt><trkpt lat="38.055091742242716" lon="13.347005370680304"><ele>551.0</ele><time>2026-04-26T08:32:10Z</time></trkpt><trkpt lat="38.05518338479092" lon="13.347086466043908"><ele>548.0</ele><time>2026-04-26T08:32:11.999Z</time></trkpt><trkpt lat="38.055278601139825" lon="13.347168506895489"><ele>545.0</ele><time>2026-04-26T08:32:13.999Z</time></trkpt><trkpt lat="38.05533888864809" lon="13.347210421419005"><ele>549.4</ele><time>2026-04-26T08:32:14.999Z</time></trkpt><trkpt lat="38.05544456573054" lon="13.347266065132633"><ele>553.8</ele><time>2026-04-26T08:32:16.999Z</time></trkpt><trkpt lat="38.0555121582299" lon="13.347294620277314"><ele>558.2</ele><time>2026-04-26T08:32:17.999Z</time></trkpt><trkpt lat="38.055578669821124" lon="13.347326414651391"><ele>562.6</ele><time>2026-04-26T08:32:18.999Z</time></trkpt><trkpt lat="38.05564479191854" lon="13.347360550947005"><ele>567.0</ele><time>2026-04-26T08:32:19.999Z</time></trkpt><trkpt lat="38.055755094313376" lon="13.347425890753161"><ele>564.6</ele><time>2026-04-26T08:32:21.999Z</time></trkpt><trkpt lat="38.055862024680046" lon="13.347501282720655"><ele>562.2</ele><time>2026-04-26T08:32:23.999Z</time></trkpt><trkpt lat="38.055910237774604" lon="13.347562973040555"><ele>559.8</ele><time>2026-04-26T08:32:25.999Z</time></trkpt><trkpt lat="38.05599969099738" lon="13.347631783844076"><ele>557.4</ele><time>2026-04-26T08:32:33.999Z</time></trkpt><trkpt lat="38.056053686180285" lon="13.347684506753948"><ele>555.0</ele><time>2026-04-26T08:32:35.999Z</time></trkpt><trkpt lat="38.05614077712617" lon="13.347775023748731"><ele>555.0</ele><time>2026-04-26T08:32:38.999Z</time></trkpt><trkpt lat="38.05622200205213" lon="13.347851426676135"><ele>555.0</ele><time>2026-04-26T08:32:40.999Z</time></trkpt><trkpt lat="38.05632884739158" lon="13.347904841631333"><ele>555.0</ele><time>2026-04-26T08:32:42.999Z</time></trkpt><trkpt lat="38.056413384614906" lon="13.347965799710295"><ele>555.0</ele><time>2026-04-26T08:32:44.999Z</time></trkpt><trkpt lat="38.05651371265515" lon="13.347990888276676"><ele>555.0</ele><time>2026-04-26T08:32:46.999Z</time></trkpt><trkpt lat="38.05662637007886" lon="13.34797112064608"><ele>555.5</ele><time>2026-04-26T08:32:48.999Z</time></trkpt><trkpt lat="38.056721526040704" lon="13.347926986470023"><ele>556.0</ele><time>2026-04-26T08:32:50.999Z</time></trkpt><trkpt lat="38.056834200670195" lon="13.347869371106547"><ele>556.5</ele><time>2026-04-26T08:32:52.999Z</time></trkpt><trkpt lat="38.05689486677545" lon="13.347839599621183"><ele>557.0</ele><time>2026-04-26T08:32:53.999Z</time></trkpt><trkpt lat="38.05695659159397" lon="13.347815296786672"><ele>557.5</ele><time>2026-04-26T08:32:54.999Z</time></trkpt><trkpt lat="38.05704116638699" lon="13.347784839844579"><ele>558.0</ele><time>2026-04-26T08:32:56.999Z</time></trkpt><trkpt lat="38.05710569717159" lon="13.347770042799622"><ele>558.0</ele><time>2026-04-26T08:33:07.999Z</time></trkpt><trkpt lat="38.057193754628116" lon="13.347728199873403"><ele>558.0</ele><time>2026-04-26T08:33:09.999Z</time></trkpt><trkpt lat="38.05728126446546" lon="13.347700757261311"><ele>558.0</ele><time>2026-04-26T08:33:11.999Z</time></trkpt><trkpt lat="38.05734914620198" lon="13.347685940692491"><ele>558.0</ele><time>2026-04-26T08:33:12.999Z</time></trkpt><trkpt lat="38.05743439402312" lon="13.34768348241651"><ele>558.0</ele><time>2026-04-26T08:33:14.999Z</time></trkpt><trkpt lat="38.05752286424938" lon="13.347734381356362"><ele>558.0</ele><time>2026-04-26T08:33:16.999Z</time></trkpt><trkpt lat="38.05764003988182" lon="13.347748669924204"><ele>558.8</ele><time>2026-04-26T08:33:18.999Z</time></trkpt><trkpt lat="38.057731737857125" lon="13.347802315195105"><ele>559.5999999999999</ele><time>2026-04-26T08:33:20.999Z</time></trkpt><trkpt lat="38.05779414660227" lon="13.34781365531994"><ele>560.4000000000001</ele><time>2026-04-26T08:33:21.999Z</time></trkpt><trkpt lat="38.05790169839839" lon="13.347842394692563"><ele>561.2</ele><time>2026-04-26T08:33:23.999Z</time></trkpt><trkpt lat="38.058025610617726" lon="13.347873566897215"><ele>562.0</ele><time>2026-04-26T08:33:25.999Z</time></trkpt><trkpt lat="38.058098524588594" lon="13.347873118028433"><ele>562.0</ele><time>2026-04-26T08:33:26.999Z</time></trkpt><trkpt lat="38.058175808664636" lon="13.347864687703304"><ele>562.0</ele><time>2026-04-26T08:33:27.999Z</time></trkpt><trkpt lat="38.05825117348281" lon="13.347864703301974"><ele>562.0</ele><time>2026-04-26T08:33:28.999Z</time></trkpt><trkpt lat="38.05832051017043" lon="13.34786840135011"><ele>562.0</ele><time>2026-04-26T08:33:29.999Z</time></trkpt><trkpt lat="38.058394329415556" lon="13.347872741386338"><ele>562.0</ele><time>2026-04-26T08:33:30.999Z</time></trkpt><trkpt lat="38.05845890228762" lon="13.347868808812557"><ele>562.0</ele><time>2026-04-26T08:33:31.999Z</time></trkpt><trkpt lat="38.05855718756014" lon="13.347850351744968"><ele>563.5</ele><time>2026-04-26T08:33:33.999Z</time></trkpt><trkpt lat="38.05866654723732" lon="13.347868868889998"><ele>565.0</ele><time>2026-04-26T08:33:35.999Z</time></trkpt><trkpt lat="38.05876033717758" lon="13.347885340417838"><ele>566.5</ele><time>2026-04-26T08:33:37.999Z</time></trkpt><trkpt lat="38.05883350506051" lon="13.34790914393415"><ele>568.0</ele><time>2026-04-26T08:37:30.999Z</time></trkpt><trkpt lat="38.058901377310185" lon="13.347934282671865"><ele>569.5</ele><time>2026-04-26T08:37:32.999Z</time></trkpt><trkpt lat="38.058979567787574" lon="13.347959592800104"><ele>571.0</ele><time>2026-04-26T08:37:34.999Z</time></trkpt><trkpt lat="38.059055802408295" lon="13.347971611492973"><ele>571.0</ele><time>2026-04-26T08:37:36.999Z</time></trkpt><trkpt lat="38.05914021748348" lon="13.347979420020676"><ele>571.0</ele><time>2026-04-26T08:37:38.999Z</time></trkpt><trkpt lat="38.059224935328615" lon="13.34796613755052"><ele>571.0</ele><time>2026-04-26T08:37:42.999Z</time></trkpt><trkpt lat="38.059295402308486" lon="13.347958683374417"><ele>571.0</ele><time>2026-04-26T08:37:45.999Z</time></trkpt><trkpt lat="38.05937613286227" lon="13.347936431556178"><ele>571.0</ele><time>2026-04-26T08:37:49Z</time></trkpt><trkpt lat="38.059435145031635" lon="13.347882487260971"><ele>571.0</ele><time>2026-04-26T08:37:51Z</time></trkpt><trkpt lat="38.059498399934235" lon="13.34783679581496"><ele>571.0</ele><time>2026-04-26T08:38:04Z</time></trkpt><trkpt lat="38.05957626332492" lon="13.347836163526999"><ele>571.0</ele><time>2026-04-26T08:38:10Z</time></trkpt><trkpt lat="38.05963527103758" lon="13.347874579761845"><ele>571.0</ele><time>2026-04-26T08:38:12Z</time></trkpt><trkpt lat="38.05967838278819" lon="13.347944740002914"><ele>571.0</ele><time>2026-04-26T08:38:15Z</time></trkpt><trkpt lat="38.05974169250187" lon="13.348041707720828"><ele>571.0</ele><time>2026-04-26T08:42:22Z</time></trkpt><trkpt lat="38.05980386184336" lon="13.348136200361733"><ele>571.0</ele><time>2026-04-26T08:42:24Z</time></trkpt><trkpt lat="38.059846690708746" lon="13.348243152823454"><ele>570.6</ele><time>2026-04-26T08:42:26Z</time></trkpt><trkpt lat="38.05991339126908" lon="13.348369172386013"><ele>570.2</ele><time>2026-04-26T08:42:28Z</time></trkpt><trkpt lat="38.05996917221682" lon="13.348447176838873"><ele>569.8</ele><time>2026-04-26T08:42:30Z</time></trkpt><trkpt lat="38.06002858565439" lon="13.348517574162512"><ele>569.4</ele><time>2026-04-26T08:42:32Z</time></trkpt><trkpt lat="38.06010328359933" lon="13.348578750994529"><ele>569.0</ele><time>2026-04-26T08:42:34Z</time></trkpt><trkpt lat="38.06019064091909" lon="13.348673674160498"><ele>569.0</ele><time>2026-04-26T08:42:36Z</time></trkpt><trkpt lat="38.060234960128334" lon="13.34878888484017"><ele>569.0</ele><time>2026-04-26T08:42:38Z</time></trkpt><trkpt lat="38.060274485008804" lon="13.348910862592534"><ele>569.0</ele><time>2026-04-26T08:42:40Z</time></trkpt><trkpt lat="38.06029287250104" lon="13.349026895081709"><ele>569.0</ele><time>2026-04-26T08:42:42Z</time></trkpt><trkpt lat="38.0602705381655" lon="13.34914065372943"><ele>569.0</ele><time>2026-04-26T08:42:45Z</time></trkpt><trkpt lat="38.06024499775231" lon="13.349268123175166"><ele>569.0</ele><time>2026-04-26T08:42:47Z</time></trkpt><trkpt lat="38.06025343385192" lon="13.34938865673438"><ele>569.0</ele><time>2026-04-26T08:42:49Z</time></trkpt><trkpt lat="38.06030154584996" lon="13.349516744316322"><ele>569.0</ele><time>2026-04-26T08:42:51Z</time></trkpt><trkpt lat="38.06035047008388" lon="13.349648999161804"><ele>569.0</ele><time>2026-04-26T08:42:53Z</time></trkpt><trkpt lat="38.060391302858754" lon="13.349772408153125"><ele>569.0</ele><time>2026-04-26T08:42:55Z</time></trkpt><trkpt lat="38.06041342568592" lon="13.34990360377298"><ele>570.8</ele><time>2026-04-26T08:42:57Z</time></trkpt><trkpt lat="38.060434800669825" lon="13.350028157137833"><ele>572.5999999999999</ele><time>2026-04-26T08:42:59Z</time></trkpt><trkpt lat="38.06048677747676" lon="13.350135389701851"><ele>574.4</ele><time>2026-04-26T08:43:01Z</time></trkpt><trkpt lat="38.060537335179056" lon="13.350219922014318"><ele>576.1999999999999</ele><time>2026-04-26T08:43:03Z</time></trkpt><trkpt lat="38.06054423294338" lon="13.350315151070827"><ele>578.0</ele><time>2026-04-26T08:43:05Z</time></trkpt><trkpt lat="38.06052823091215" lon="13.350429771183617"><ele>578.0</ele><time>2026-04-26T08:43:07Z</time></trkpt><trkpt lat="38.06049614204414" lon="13.350529886483384"><ele>578.0</ele><time>2026-04-26T08:43:09Z</time></trkpt><trkpt lat="38.060449165352615" lon="13.350630189420443"><ele>578.0</ele><time>2026-04-26T08:43:11Z</time></trkpt><trkpt lat="38.06045330334206" lon="13.350741127158786"><ele>578.0</ele><time>2026-04-26T08:43:13Z</time></trkpt><trkpt lat="38.06050559754926" lon="13.350802503399256"><ele>578.0</ele><time>2026-04-26T08:43:15Z</time></trkpt><trkpt lat="38.06058324505895" lon="13.35086770098347"><ele>578.0</ele><time>2026-04-26T08:43:17Z</time></trkpt><trkpt lat="38.06061388259685" lon="13.350948178704646"><ele>578.3333333333333</ele><time>2026-04-26T08:43:19Z</time></trkpt><trkpt lat="38.060626756576475" lon="13.35105168222533"><ele>578.6666666666666</ele><time>2026-04-26T08:43:21Z</time></trkpt><trkpt lat="38.060648903436366" lon="13.351190200573395"><ele>579.0</ele><time>2026-04-26T08:43:23Z</time></trkpt><trkpt lat="38.0606782832081" lon="13.351267571435232"><ele>579.3333333333334</ele><time>2026-04-26T08:43:23.999Z</time></trkpt><trkpt lat="38.06071312251098" lon="13.351349053940403"><ele>579.6666666666667</ele><time>2026-04-26T08:43:24.999Z</time></trkpt><trkpt lat="38.06074195449397" lon="13.351421775842361"><ele>580.0</ele><time>2026-04-26T08:43:25.999Z</time></trkpt><trkpt lat="38.06076628150499" lon="13.35152678217907"><ele>579.0</ele><time>2026-04-26T08:43:27.999Z</time></trkpt><trkpt lat="38.060812178274986" lon="13.351636285564014"><ele>578.0</ele><time>2026-04-26T08:43:29.999Z</time></trkpt><trkpt lat="38.06090048324114" lon="13.35169349385018"><ele>577.0</ele><time>2026-04-26T08:43:31.999Z</time></trkpt><trkpt lat="38.060991164399425" lon="13.351739753609726"><ele>576.0</ele><time>2026-04-26T08:43:33.999Z</time></trkpt><trkpt lat="38.061079195335765" lon="13.351824459224842"><ele>575.0</ele><time>2026-04-26T08:43:35.999Z</time></trkpt><trkpt lat="38.06113701068824" lon="13.351873709693681"><ele>575.0</ele><time>2026-04-26T08:43:36.999Z</time></trkpt><trkpt lat="38.061214389535266" lon="13.351938210214472"><ele>575.0</ele><time>2026-04-26T08:43:38.999Z</time></trkpt><trkpt lat="38.06130145089635" lon="13.352032519385148"><ele>575.0</ele><time>2026-04-26T08:43:40.999Z</time></trkpt><trkpt lat="38.061381265761206" lon="13.352124672229822"><ele>575.0</ele><time>2026-04-26T08:43:42.999Z</time></trkpt><trkpt lat="38.06145671910577" lon="13.352204868443028"><ele>575.0</ele><time>2026-04-26T08:43:44.999Z</time></trkpt><trkpt lat="38.06148363856901" lon="13.352303991298696"><ele>575.3333333333333</ele><time>2026-04-26T08:43:46.999Z</time></trkpt><trkpt lat="38.061479021435055" lon="13.352396067578967"><ele>575.6666666666666</ele><time>2026-04-26T08:44:48Z</time></trkpt><trkpt lat="38.06155402225401" lon="13.352423463443168"><ele>576.0</ele><time>2026-04-26T08:44:51Z</time></trkpt><trkpt lat="38.06160906328244" lon="13.3523659055247"><ele>576.3333333333334</ele><time>2026-04-26T08:44:54Z</time></trkpt><trkpt lat="38.061578235596286" lon="13.352295186111514"><ele>576.6666666666667</ele><time>2026-04-26T08:45:24.999Z</time></trkpt><trkpt lat="38.06149185286579" lon="13.352281706781307"><ele>577.0</ele><time>2026-04-26T08:45:26.999Z</time></trkpt><trkpt lat="38.061462475996045" lon="13.352388038340713"><ele>577.0</ele><time>2026-04-26T08:46:06.999Z</time></trkpt><trkpt lat="38.061447992843966" lon="13.352532445415564"><ele>577.0</ele><time>2026-04-26T08:46:08.999Z</time></trkpt><trkpt lat="38.06141694524373" lon="13.352651435794785"><ele>577.0</ele><time>2026-04-26T08:46:10.999Z</time></trkpt><trkpt lat="38.06135046078152" lon="13.352749785868221"><ele>577.0</ele><time>2026-04-26T08:46:12.999Z</time></trkpt><trkpt lat="38.06125630483741" lon="13.352770255221838"><ele>577.0</ele><time>2026-04-26T08:46:14.999Z</time></trkpt><trkpt lat="38.06115432329122" lon="13.352766732935178"><ele>577.0</ele><time>2026-04-26T08:46:16.999Z</time></trkpt><trkpt lat="38.06106060761937" lon="13.35275694189567"><ele>577.0</ele><time>2026-04-26T08:46:18.999Z</time></trkpt><trkpt lat="38.06099310461854" lon="13.35276157801635"><ele>577.0</ele><time>2026-04-26T08:46:19.999Z</time></trkpt><trkpt lat="38.06092986052351" lon="13.352764873984016"><ele>577.0</ele><time>2026-04-26T08:46:20.999Z</time></trkpt><trkpt lat="38.06082954743661" lon="13.35280030106974"><ele>577.0</ele><time>2026-04-26T08:46:22.999Z</time></trkpt><trkpt lat="38.06072435082069" lon="13.352897271855563"><ele>578.4</ele><time>2026-04-26T08:46:24.999Z</time></trkpt><trkpt lat="38.06067665740295" lon="13.352962828554466"><ele>579.8000000000001</ele><time>2026-04-26T08:46:25.999Z</time></trkpt><trkpt lat="38.060621550446456" lon="13.353082787568992"><ele>581.2</ele><time>2026-04-26T08:46:27.999Z</time></trkpt><trkpt lat="38.06057741329868" lon="13.353210197833638"><ele>582.6</ele><time>2026-04-26T08:46:29.999Z</time></trkpt><trkpt lat="38.06055477801553" lon="13.353310453941262"><ele>584.0</ele><time>2026-04-26T08:46:31.999Z</time></trkpt><trkpt lat="38.06053175446333" lon="13.353414739523325"><ele>584.3333333333333</ele><time>2026-04-26T08:46:34.999Z</time></trkpt><trkpt lat="38.06051508246344" lon="13.353527072251596"><ele>584.6666666666666</ele><time>2026-04-26T08:46:37.999Z</time></trkpt><trkpt lat="38.060489603337146" lon="13.353623743032406"><ele>585.0</ele><time>2026-04-26T08:46:40.999Z</time></trkpt><trkpt lat="38.06045097582157" lon="13.353722149503042"><ele>585.3333333333334</ele><time>2026-04-26T08:46:43.999Z</time></trkpt><trkpt lat="38.060420353517564" lon="13.35380453622141"><ele>585.6666666666667</ele><time>2026-04-26T08:46:45.999Z</time></trkpt><trkpt lat="38.060387764823986" lon="13.353889569151843"><ele>586.0</ele><time>2026-04-26T08:46:47.999Z</time></trkpt><trkpt lat="38.060349521108584" lon="13.353960533260823"><ele>586.6666666666667</ele><time>2026-04-26T08:46:49.999Z</time></trkpt><trkpt lat="38.060308438762796" lon="13.354032812360089"><ele>587.3333333333334</ele><time>2026-04-26T08:46:51.999Z</time></trkpt><trkpt lat="38.06026148271417" lon="13.354105942751145"><ele>588.0</ele><time>2026-04-26T08:46:53.999Z</time></trkpt><trkpt lat="38.060210050582704" lon="13.354201027632934"><ele>588.6666666666666</ele><time>2026-04-26T08:46:55.999Z</time></trkpt><trkpt lat="38.06014815370022" lon="13.354335051835582"><ele>589.3333333333333</ele><time>2026-04-26T08:46:57.999Z</time></trkpt><trkpt lat="38.06010349351308" lon="13.354393290748218"><ele>590.0</ele><time>2026-04-26T08:46:58.999Z</time></trkpt><trkpt lat="38.06004320059287" lon="13.354527464592586"><ele>590.0</ele><time>2026-04-26T08:47:00.999Z</time></trkpt><trkpt lat="38.0599958317804" lon="13.354665586466561"><ele>590.0</ele><time>2026-04-26T08:47:02.999Z</time></trkpt><trkpt lat="38.05997260748342" lon="13.354751895427023"><ele>590.0</ele><time>2026-04-26T08:47:03.999Z</time></trkpt><trkpt lat="38.0599444823886" lon="13.354845555710494"><ele>590.0</ele><time>2026-04-26T08:47:04.999Z</time></trkpt><trkpt lat="38.059915652529824" lon="13.354931948078589"><ele>590.0</ele><time>2026-04-26T08:47:05.999Z</time></trkpt><trkpt lat="38.059886126192836" lon="13.35501742630988"><ele>590.0</ele><time>2026-04-26T08:47:06.999Z</time></trkpt><trkpt lat="38.0598534807582" lon="13.355109813861924"><ele>591.1666666666666</ele><time>2026-04-26T08:47:07.999Z</time></trkpt><trkpt lat="38.05982865271619" lon="13.35520139457785"><ele>592.3333333333333</ele><time>2026-04-26T08:47:08.999Z</time></trkpt><trkpt lat="38.05979871765696" lon="13.355286246156284"><ele>593.5</ele><time>2026-04-26T08:47:09.999Z</time></trkpt><trkpt lat="38.0597645489215" lon="13.35538151989914"><ele>594.6666666666666</ele><time>2026-04-26T08:47:10.999Z</time></trkpt><trkpt lat="38.05974030682736" lon="13.355476898131185"><ele>595.8333333333334</ele><time>2026-04-26T08:47:11.999Z</time></trkpt><trkpt lat="38.05970669893574" lon="13.355567168875492"><ele>597.0</ele><time>2026-04-26T08:47:12.999Z</time></trkpt><trkpt lat="38.05968236341798" lon="13.355655487359554"><ele>597.8333333333334</ele><time>2026-04-26T08:47:13.999Z</time></trkpt><trkpt lat="38.05966026762705" lon="13.355751995505704"><ele>598.6666666666666</ele><time>2026-04-26T08:47:14.999Z</time></trkpt><trkpt lat="38.05962812981313" lon="13.355836748997708"><ele>599.5</ele><time>2026-04-26T08:47:15.999Z</time></trkpt><trkpt lat="38.05962731755237" lon="13.355930140396518"><ele>600.3333333333333</ele><time>2026-04-26T08:47:16.999Z</time></trkpt><trkpt lat="38.0596217144677" lon="13.356097029503806"><ele>601.1666666666666</ele><time>2026-04-26T08:47:18.999Z</time></trkpt><trkpt lat="38.05962538736872" lon="13.356180943403153"><ele>602.0</ele><time>2026-04-26T08:47:19.999Z</time></trkpt><trkpt lat="38.05963062172148" lon="13.356268825382896"><ele>602.0</ele><time>2026-04-26T08:47:20.999Z</time></trkpt><trkpt lat="38.05963033945418" lon="13.356358834424269"><ele>602.0</ele><time>2026-04-26T08:47:21.999Z</time></trkpt><trkpt lat="38.05962450312077" lon="13.356450134901863"><ele>602.0</ele><time>2026-04-26T08:47:22.999Z</time></trkpt><trkpt lat="38.059633461520455" lon="13.356554017705125"><ele>602.0</ele><time>2026-04-26T08:47:23.999Z</time></trkpt><trkpt lat="38.05967198680937" lon="13.35674783174023"><ele>602.0</ele><time>2026-04-26T08:47:25.999Z</time></trkpt><trkpt lat="38.059714906359645" lon="13.356851204141948"><ele>602.1666666666666</ele><time>2026-04-26T08:47:26.999Z</time></trkpt><trkpt lat="38.05974588407843" lon="13.356962231155922"><ele>602.3333333333333</ele><time>2026-04-26T08:47:28.999Z</time></trkpt><trkpt lat="38.05977113772124" lon="13.357035832010668"><ele>602.5</ele><time>2026-04-26T08:47:29.999Z</time></trkpt><trkpt lat="38.05979730398529" lon="13.357121262429146"><ele>602.6666666666666</ele><time>2026-04-26T08:47:30.999Z</time></trkpt><trkpt lat="38.059819720661636" lon="13.357200835924994"><ele>602.8333333333334</ele><time>2026-04-26T08:47:31.999Z</time></trkpt><trkpt lat="38.05983714847018" lon="13.357279072942129"><ele>603.0</ele><time>2026-04-26T08:47:32.999Z</time></trkpt><trkpt lat="38.05984689308508" lon="13.357438002337444"><ele>603.1428571428572</ele><time>2026-04-26T08:47:34.999Z</time></trkpt><trkpt lat="38.05984675591264" lon="13.357522772973578"><ele>603.2857142857142</ele><time>2026-04-26T08:47:35.999Z</time></trkpt><trkpt lat="38.059846494498295" lon="13.357610936459233"><ele>603.4285714285714</ele><time>2026-04-26T08:47:36.999Z</time></trkpt><trkpt lat="38.059840879867366" lon="13.357699930007726"><ele>603.5714285714287</ele><time>2026-04-26T08:47:37.999Z</time></trkpt><trkpt lat="38.059830982725515" lon="13.357790260805475"><ele>603.7142857142858</ele><time>2026-04-26T08:47:38.999Z</time></trkpt><trkpt lat="38.059815410606355" lon="13.357882457942322"><ele>603.8571428571429</ele><time>2026-04-26T08:47:39.999Z</time></trkpt><trkpt lat="38.05980221586219" lon="13.357962671449545"><ele>604.0</ele><time>2026-04-26T08:47:40.999Z</time></trkpt><trkpt lat="38.05978862672652" lon="13.358041489122227"><ele>604.8571428571429</ele><time>2026-04-26T08:47:41.999Z</time></trkpt><trkpt lat="38.0597730775859" lon="13.358125718195124"><ele>605.7142857142858</ele><time>2026-04-26T08:47:42.999Z</time></trkpt><trkpt lat="38.05976948631747" lon="13.3582124070293"><ele>606.5714285714287</ele><time>2026-04-26T08:47:43.999Z</time></trkpt><trkpt lat="38.05977339959734" lon="13.358300657549085"><ele>607.4285714285714</ele><time>2026-04-26T08:47:44.999Z</time></trkpt><trkpt lat="38.05979651487854" lon="13.35837824075697"><ele>608.2857142857142</ele><time>2026-04-26T08:47:45.999Z</time></trkpt><trkpt lat="38.05981923572299" lon="13.358466827058463"><ele>609.1428571428572</ele><time>2026-04-26T08:47:46.999Z</time></trkpt><trkpt lat="38.05983513341422" lon="13.358547488698294"><ele>610.0</ele><time>2026-04-26T08:47:47.999Z</time></trkpt><trkpt lat="38.05983469324851" lon="13.35869879684011"><ele>610.0</ele><time>2026-04-26T08:47:49.999Z</time></trkpt><trkpt lat="38.05982962011129" lon="13.358843649582306"><ele>610.0</ele><time>2026-04-26T08:47:51.999Z</time></trkpt><trkpt lat="38.059829468631484" lon="13.359016623618308"><ele>610.0</ele><time>2026-04-26T08:47:53.999Z</time></trkpt><trkpt lat="38.059843187431625" lon="13.359110451790906"><ele>610.0</ele><time>2026-04-26T08:47:54.999Z</time></trkpt><trkpt lat="38.0598482478897" lon="13.359200976492025"><ele>610.0</ele><time>2026-04-26T08:47:55.999Z</time></trkpt><trkpt lat="38.05986410550551" lon="13.359294312126107"><ele>610.2857142857143</ele><time>2026-04-26T08:47:56.999Z</time></trkpt><trkpt lat="38.05988544791347" lon="13.359381274283537"><ele>610.5714285714286</ele><time>2026-04-26T08:47:57.999Z</time></trkpt><trkpt lat="38.05990427278244" lon="13.359475718687204"><ele>610.8571428571429</ele><time>2026-04-26T08:47:58.999Z</time></trkpt><trkpt lat="38.05991808952441" lon="13.359557233571751"><ele>611.1428571428571</ele><time>2026-04-26T08:47:59.999Z</time></trkpt><trkpt lat="38.05992856268709" lon="13.359644787519265"><ele>611.4285714285714</ele><time>2026-04-26T08:48:00.999Z</time></trkpt><trkpt lat="38.059992415343565" lon="13.35972048434656"><ele>611.7142857142857</ele><time>2026-04-26T08:48:01.999Z</time></trkpt><trkpt lat="38.06005341774721" lon="13.359773289377639"><ele>612.0</ele><time>2026-04-26T08:48:02.999Z</time></trkpt><trkpt lat="38.06009857334244" lon="13.35983343630366"><ele>612.0</ele><time>2026-04-26T08:48:03.999Z</time></trkpt><trkpt lat="38.06014009643229" lon="13.359898902397264"><ele>612.0</ele><time>2026-04-26T08:48:04.999Z</time></trkpt><trkpt lat="38.060191786605884" lon="13.359978008405719"><ele>612.0</ele><time>2026-04-26T08:48:05.999Z</time></trkpt><trkpt lat="38.06023481036035" lon="13.360045928641783"><ele>612.0</ele><time>2026-04-26T08:48:06.999Z</time></trkpt><trkpt lat="38.06027656284667" lon="13.360113435342942"><ele>612.0</ele><time>2026-04-26T08:48:07.999Z</time></trkpt><trkpt lat="38.06032624764473" lon="13.360185768670977"><ele>612.0</ele><time>2026-04-26T08:48:08.999Z</time></trkpt><trkpt lat="38.060381580368194" lon="13.360252594116998"><ele>612.0</ele><time>2026-04-26T08:48:09.999Z</time></trkpt><trkpt lat="38.06043785248431" lon="13.360326643970724"><ele>612.0</ele><time>2026-04-26T08:48:10.999Z</time></trkpt><trkpt lat="38.06049107581556" lon="13.360399284608262"><ele>612.0</ele><time>2026-04-26T08:48:11.999Z</time></trkpt><trkpt lat="38.060536639318926" lon="13.36045679827894"><ele>612.0</ele><time>2026-04-26T08:48:12.999Z</time></trkpt><trkpt lat="38.06057746909829" lon="13.360519005477054"><ele>612.0</ele><time>2026-04-26T08:48:13.999Z</time></trkpt><trkpt lat="38.060645663035935" lon="13.360611700497303"><ele>612.0</ele><time>2026-04-26T08:48:15.999Z</time></trkpt><trkpt lat="38.060715353873995" lon="13.360723400071976"><ele>612.0</ele><time>2026-04-26T08:48:17.999Z</time></trkpt><trkpt lat="38.06076331694202" lon="13.360781658186648"><ele>613.8333333333334</ele><time>2026-04-26T08:48:19Z</time></trkpt><trkpt lat="38.060814460005844" lon="13.360839390299478"><ele>615.6666666666666</ele><time>2026-04-26T08:48:20Z</time></trkpt><trkpt lat="38.060869902520174" lon="13.360890838510459"><ele>617.5</ele><time>2026-04-26T08:48:21Z</time></trkpt><trkpt lat="38.060925791322376" lon="13.360933397825422"><ele>619.3333333333333</ele><time>2026-04-26T08:48:22Z</time></trkpt><trkpt lat="38.06104309346111" lon="13.360996097920752"><ele>621.1666666666666</ele><time>2026-04-26T08:48:24Z</time></trkpt><trkpt lat="38.06110618407745" lon="13.3610187807562"><ele>623.0</ele><time>2026-04-26T08:48:25Z</time></trkpt><trkpt lat="38.061234577436956" lon="13.361049388618225"><ele>623.0</ele><time>2026-04-26T08:48:27Z</time></trkpt><trkpt lat="38.06129550884734" lon="13.361074960951816"><ele>623.0</ele><time>2026-04-26T08:48:28Z</time></trkpt><trkpt lat="38.06141821575707" lon="13.361142309835937"><ele>623.0</ele><time>2026-04-26T08:48:30Z</time></trkpt><trkpt lat="38.06148666681658" lon="13.361171661507441"><ele>623.0</ele><time>2026-04-26T08:48:31Z</time></trkpt><trkpt lat="38.06158497412605" lon="13.361212146808931"><ele>623.0</ele><time>2026-04-26T08:48:33Z</time></trkpt><trkpt lat="38.06163654894127" lon="13.361297896371514"><ele>624.0</ele><time>2026-04-26T08:48:35Z</time></trkpt><trkpt lat="38.061655531126284" lon="13.36142499793889"><ele>625.0</ele><time>2026-04-26T08:48:37Z</time></trkpt><trkpt lat="38.06164664726235" lon="13.361567767783177"><ele>626.0</ele><time>2026-04-26T08:48:39Z</time></trkpt><trkpt lat="38.06162388114943" lon="13.361706041779088"><ele>627.0</ele><time>2026-04-26T08:48:41Z</time></trkpt><trkpt lat="38.061614039432285" lon="13.361857262456558"><ele>628.0</ele><time>2026-04-26T08:48:43Z</time></trkpt><trkpt lat="38.06158831101031" lon="13.361993864781372"><ele>627.1666666666667</ele><time>2026-04-26T08:48:45Z</time></trkpt><trkpt lat="38.061583871516" lon="13.362073725621663"><ele>626.3333333333334</ele><time>2026-04-26T08:48:46Z</time></trkpt><trkpt lat="38.061573074688276" lon="13.362240955089415"><ele>625.5</ele><time>2026-04-26T08:48:48Z</time></trkpt><trkpt lat="38.061538699002114" lon="13.362372526794118"><ele>624.6666666666666</ele><time>2026-04-26T08:48:50Z</time></trkpt><trkpt lat="38.061544718145534" lon="13.362458614873573"><ele>623.8333333333333</ele><time>2026-04-26T08:48:51Z</time></trkpt><trkpt lat="38.06155311516872" lon="13.362544386684416"><ele>623.0</ele><time>2026-04-26T08:48:52Z</time></trkpt><trkpt lat="38.06154364157839" lon="13.36269284512395"><ele>623.0</ele><time>2026-04-26T08:48:54Z</time></trkpt><trkpt lat="38.06153079388737" lon="13.362773914720623"><ele>623.0</ele><time>2026-04-26T08:48:55Z</time></trkpt><trkpt lat="38.06151109735852" lon="13.362862622519835"><ele>623.0</ele><time>2026-04-26T08:48:56Z</time></trkpt><trkpt lat="38.0615017889082" lon="13.36294912404406"><ele>623.0</ele><time>2026-04-26T08:48:57Z</time></trkpt><trkpt lat="38.06149949561743" lon="13.363033361517662"><ele>623.0</ele><time>2026-04-26T08:48:58Z</time></trkpt><trkpt lat="38.061503419777466" lon="13.363239685215845"><ele>623.0</ele><time>2026-04-26T08:49:00Z</time></trkpt><trkpt lat="38.06149927044636" lon="13.363350226311205"><ele>624.5</ele><time>2026-04-26T08:49:01Z</time></trkpt><trkpt lat="38.06152552075379" lon="13.363449104712865"><ele>626.0</ele><time>2026-04-26T08:49:02Z</time></trkpt><trkpt lat="38.061529033303984" lon="13.363552896526771"><ele>627.5</ele><time>2026-04-26T08:49:03Z</time></trkpt><trkpt lat="38.06153907966048" lon="13.363661086077032"><ele>629.0</ele><time>2026-04-26T08:49:04Z</time></trkpt><trkpt lat="38.06155017379923" lon="13.363751978382066"><ele>630.5</ele><time>2026-04-26T08:49:05Z</time></trkpt><trkpt lat="38.061562625490396" lon="13.363844079620907"><ele>632.0</ele><time>2026-04-26T08:49:06Z</time></trkpt><trkpt lat="38.06157705648244" lon="13.363951127228654"><ele>632.8333333333333</ele><time>2026-04-26T08:49:07Z</time></trkpt><trkpt lat="38.06157378589767" lon="13.36404715087461"><ele>633.6666666666666</ele><time>2026-04-26T08:49:08Z</time></trkpt><trkpt lat="38.06156971169206" lon="13.364135393204455"><ele>634.5</ele><time>2026-04-26T08:49:09Z</time></trkpt><trkpt lat="38.06154724171927" lon="13.364218875639656"><ele>635.3333333333334</ele><time>2026-04-26T08:49:10Z</time></trkpt><trkpt lat="38.06154721511258" lon="13.364325102715034"><ele>636.1666666666667</ele><time>2026-04-26T08:49:11Z</time></trkpt><trkpt lat="38.06152477067372" lon="13.36441969993147"><ele>637.0</ele><time>2026-04-26T08:49:12Z</time></trkpt><trkpt lat="38.06149484046872" lon="13.364520318645916"><ele>637.0</ele><time>2026-04-26T08:49:13Z</time></trkpt><trkpt lat="38.06146868889802" lon="13.364606037222833"><ele>637.0</ele><time>2026-04-26T08:49:14Z</time></trkpt><trkpt lat="38.06144260825108" lon="13.36469079257783"><ele>637.0</ele><time>2026-04-26T08:49:15Z</time></trkpt><trkpt lat="38.061410259965996" lon="13.36477442463026"><ele>637.0</ele><time>2026-04-26T08:49:16Z</time></trkpt><trkpt lat="38.061374106189255" lon="13.364844386243893"><ele>637.0</ele><time>2026-04-26T08:49:17Z</time></trkpt><trkpt lat="38.061291063841956" lon="13.364947797965407"><ele>637.0</ele><time>2026-04-26T08:49:19Z</time></trkpt><trkpt lat="38.061235301799925" lon="13.364986456862445"><ele>638.2857142857143</ele><time>2026-04-26T08:49:20Z</time></trkpt><trkpt lat="38.06117166625988" lon="13.365006682836622"><ele>639.5714285714286</ele><time>2026-04-26T08:49:21Z</time></trkpt><trkpt lat="38.061097492892124" lon="13.365005037103844"><ele>640.8571428571429</ele><time>2026-04-26T08:49:22Z</time></trkpt><trkpt lat="38.06103111511605" lon="13.365019520432053"><ele>642.1428571428571</ele><time>2026-04-26T08:49:23Z</time></trkpt><trkpt lat="38.06095271840535" lon="13.365036626224548"><ele>643.4285714285714</ele><time>2026-04-26T08:49:24Z</time></trkpt><trkpt lat="38.06088841122412" lon="13.365069014726808"><ele>644.7142857142858</ele><time>2026-04-26T08:49:25Z</time></trkpt><trkpt lat="38.060808426256195" lon="13.36507140305857"><ele>646.0</ele><time>2026-04-26T08:49:26Z</time></trkpt><trkpt lat="38.060730498012326" lon="13.365090827408705"><ele>648.1666666666667</ele><time>2026-04-26T08:49:27Z</time></trkpt><trkpt lat="38.060654574039404" lon="13.365106249811852"><ele>650.3333333333334</ele><time>2026-04-26T08:49:28Z</time></trkpt><trkpt lat="38.060583762221555" lon="13.365095394793283"><ele>652.5</ele><time>2026-04-26T08:49:29Z</time></trkpt><trkpt lat="38.060514921306314" lon="13.365101075841421"><ele>654.6666666666666</ele><time>2026-04-26T08:49:29.999Z</time></trkpt><trkpt lat="38.060390099861074" lon="13.365087745642175"><ele>656.8333333333333</ele><time>2026-04-26T08:49:31.999Z</time></trkpt><trkpt lat="38.06032279236391" lon="13.365073010155191"><ele>659.0</ele><time>2026-04-26T08:49:32.999Z</time></trkpt><trkpt lat="38.060227940265314" lon="13.365033031501037"><ele>659.0</ele><time>2026-04-26T08:49:34.999Z</time></trkpt><trkpt lat="38.06017719423346" lon="13.364976363345464"><ele>659.0</ele><time>2026-04-26T08:49:36.999Z</time></trkpt><trkpt lat="38.06014615411336" lon="13.364885638845646"><ele>659.0</ele><time>2026-04-26T08:49:38.999Z</time></trkpt><trkpt lat="38.060104494371984" lon="13.364758644852383"><ele>659.0</ele><time>2026-04-26T08:49:40.999Z</time></trkpt><trkpt lat="38.06006320826488" lon="13.364611416427229"><ele>659.0</ele><time>2026-04-26T08:49:42.999Z</time></trkpt><trkpt lat="38.060036453724265" lon="13.364530999043652"><ele>659.0</ele><time>2026-04-26T08:49:43.999Z</time></trkpt><trkpt lat="38.06000820517175" lon="13.364446091038173"><ele>662.1666666666666</ele><time>2026-04-26T08:49:44.999Z</time></trkpt><trkpt lat="38.059941401881076" lon="13.364381575191194"><ele>665.3333333333333</ele><time>2026-04-26T08:49:45.999Z</time></trkpt><trkpt lat="38.0598940483475" lon="13.364298333506369"><ele>668.5</ele><time>2026-04-26T08:49:46.999Z</time></trkpt><trkpt lat="38.05985325176491" lon="13.36419926090743"><ele>671.6666666666666</ele><time>2026-04-26T08:49:47.999Z</time></trkpt><trkpt lat="38.05980386346826" lon="13.364096193856668"><ele>674.8333333333334</ele><time>2026-04-26T08:49:48.999Z</time></trkpt><trkpt lat="38.059766432481844" lon="13.364001603767727"><ele>678.0</ele><time>2026-04-26T08:49:49.999Z</time></trkpt><trkpt lat="38.05972178868457" lon="13.363902920923259"><ele>677.0</ele><time>2026-04-26T08:49:50.999Z</time></trkpt><trkpt lat="38.05968273883607" lon="13.363818411367511"><ele>676.0</ele><time>2026-04-26T08:49:51.999Z</time></trkpt><trkpt lat="38.05964304321337" lon="13.363732504257221"><ele>675.0</ele><time>2026-04-26T08:49:52.999Z</time></trkpt><trkpt lat="38.059608862281436" lon="13.363658531739325"><ele>674.0</ele><time>2026-04-26T08:49:53.999Z</time></trkpt><trkpt lat="38.059573828961256" lon="13.363582714535681"><ele>673.0</ele><time>2026-04-26T08:49:54.999Z</time></trkpt><trkpt lat="38.05954106960838" lon="13.363510116928559"><ele>672.0</ele><time>2026-04-26T08:49:55.999Z</time></trkpt><trkpt lat="38.05950507530159" lon="13.363426722714735"><ele>671.0</ele><time>2026-04-26T08:49:56.999Z</time></trkpt><trkpt lat="38.05945874618108" lon="13.363344108824188"><ele>671.0</ele><time>2026-04-26T08:49:57.999Z</time></trkpt><trkpt lat="38.059401391025766" lon="13.36327707092257"><ele>671.0</ele><time>2026-04-26T08:49:58.999Z</time></trkpt><trkpt lat="38.05934283374669" lon="13.363246600886397"><ele>671.0</ele><time>2026-04-26T08:49:59.999Z</time></trkpt><trkpt lat="38.05928559204199" lon="13.36319427293084"><ele>671.0</ele><time>2026-04-26T08:50:00.999Z</time></trkpt><trkpt lat="38.05923433364668" lon="13.363147585191852"><ele>671.0</ele><time>2026-04-26T08:50:01.999Z</time></trkpt><trkpt lat="38.059119368547535" lon="13.363044359701085"><ele>671.0</ele><time>2026-04-26T08:50:03.999Z</time></trkpt><trkpt lat="38.05904171320141" lon="13.363009010344838"><ele>669.4</ele><time>2026-04-26T08:50:04.999Z</time></trkpt><trkpt lat="38.058960793117635" lon="13.362963650346941"><ele>667.8</ele><time>2026-04-26T08:50:05.999Z</time></trkpt><trkpt lat="38.05887397542755" lon="13.362913463978515"><ele>666.1999999999999</ele><time>2026-04-26T08:50:06.999Z</time></trkpt><trkpt lat="38.058797176950556" lon="13.362859526435148"><ele>664.5999999999999</ele><time>2026-04-26T08:50:07.999Z</time></trkpt><trkpt lat="38.05871276075156" lon="13.362809308798022"><ele>663.0</ele><time>2026-04-26T08:50:08.999Z</time></trkpt><trkpt lat="38.05863655900972" lon="13.362736728416495"><ele>663.0</ele><time>2026-04-26T08:50:09.999Z</time></trkpt><trkpt lat="38.05855136546027" lon="13.362675625059145"><ele>663.0</ele><time>2026-04-26T08:50:10.999Z</time></trkpt><trkpt lat="38.0584707726528" lon="13.362614889386744"><ele>663.0</ele><time>2026-04-26T08:50:11.999Z</time></trkpt><trkpt lat="38.05839193747042" lon="13.362553181790618"><ele>663.0</ele><time>2026-04-26T08:50:12.999Z</time></trkpt><trkpt lat="38.05830583378128" lon="13.362506335469329"><ele>663.0</ele><time>2026-04-26T08:50:13.999Z</time></trkpt><trkpt lat="38.05821448409415" lon="13.362430257184293"><ele>665.5999999999999</ele><time>2026-04-26T08:50:14.999Z</time></trkpt><trkpt lat="38.05812146745796" lon="13.362369348842254"><ele>668.1999999999999</ele><time>2026-04-26T08:50:15.999Z</time></trkpt><trkpt lat="38.05803106966579" lon="13.362304572438736"><ele>670.8</ele><time>2026-04-26T08:50:16.999Z</time></trkpt><trkpt lat="38.05793509228663" lon="13.362262488023463"><ele>673.4</ele><time>2026-04-26T08:50:17.999Z</time></trkpt><trkpt lat="38.05785363060341" lon="13.362225218242749"><ele>676.0</ele><time>2026-04-26T08:50:18.999Z</time></trkpt><trkpt lat="38.05779798287428" lon="13.362161801727343"><ele>676.0</ele><time>2026-04-26T08:50:19.999Z</time></trkpt><trkpt lat="38.05772031315874" lon="13.362066850450589"><ele>676.0</ele><time>2026-04-26T08:50:21.999Z</time></trkpt><trkpt lat="38.05772740527459" lon="13.361934272400557"><ele>676.0</ele><time>2026-04-26T08:50:23.999Z</time></trkpt><trkpt lat="38.05776467115895" lon="13.361865950437371"><ele>676.0</ele><time>2026-04-26T08:50:25Z</time></trkpt><trkpt lat="38.05779274351982" lon="13.361770127281451"><ele>676.0</ele><time>2026-04-26T08:50:26Z</time></trkpt><trkpt lat="38.0578245940665" lon="13.361679561968415"><ele>676.0</ele><time>2026-04-26T08:50:27Z</time></trkpt><trkpt lat="38.05785195621182" lon="13.361597915603008"><ele>676.0</ele><time>2026-04-26T08:50:28Z</time></trkpt><trkpt lat="38.05787215307406" lon="13.361516986228102"><ele>676.0</ele><time>2026-04-26T08:50:29Z</time></trkpt><trkpt lat="38.05788342070548" lon="13.361436424318407"><ele>676.0</ele><time>2026-04-26T08:50:30Z</time></trkpt><trkpt lat="38.05788569040874" lon="13.361354826317339"><ele>676.0</ele><time>2026-04-26T08:50:31Z</time></trkpt><trkpt lat="38.057869358587595" lon="13.361252944654051"><ele>676.0</ele><time>2026-04-26T08:50:32Z</time></trkpt><trkpt lat="38.057881580329756" lon="13.361169469455668"><ele>676.0</ele><time>2026-04-26T08:50:33Z</time></trkpt><trkpt lat="38.05786624009988" lon="13.361076116251867"><ele>676.0</ele><time>2026-04-26T08:50:34Z</time></trkpt><trkpt lat="38.05785624075613" lon="13.360976683703495"><ele>674.6666666666667</ele><time>2026-04-26T08:50:35Z</time></trkpt><trkpt lat="38.057852667171616" lon="13.360888360802901"><ele>673.3333333333334</ele><time>2026-04-26T08:50:36Z</time></trkpt><trkpt lat="38.057847151803124" lon="13.360799007156393"><ele>672.0</ele><time>2026-04-26T08:50:37Z</time></trkpt><trkpt lat="38.057848589427074" lon="13.360695862353971"><ele>670.6666666666666</ele><time>2026-04-26T08:50:38Z</time></trkpt><trkpt lat="38.05781773482749" lon="13.360602128343778"><ele>669.3333333333333</ele><time>2026-04-26T08:50:39Z</time></trkpt><trkpt lat="38.057742840039374" lon="13.360515749418212"><ele>668.0</ele><time>2026-04-26T08:50:40Z</time></trkpt><trkpt lat="38.05768339625396" lon="13.360445238604301"><ele>667.5</ele><time>2026-04-26T08:50:41Z</time></trkpt><trkpt lat="38.05760153182212" lon="13.360375428410402"><ele>667.0</ele><time>2026-04-26T08:50:42Z</time></trkpt><trkpt lat="38.057524499819834" lon="13.360320825212787"><ele>666.5</ele><time>2026-04-26T08:50:43Z</time></trkpt><trkpt lat="38.05743850052474" lon="13.360278125287577"><ele>666.0</ele><time>2026-04-26T08:50:44Z</time></trkpt><trkpt lat="38.057366601183936" lon="13.36026621072765"><ele>665.5</ele><time>2026-04-26T08:50:45Z</time></trkpt><trkpt lat="38.05727671418863" lon="13.36025288346197"><ele>665.0</ele><time>2026-04-26T08:50:46Z</time></trkpt><trkpt lat="38.05717189799685" lon="13.360242895011442"><ele>664.0</ele><time>2026-04-26T08:50:47Z</time></trkpt><trkpt lat="38.05707150391898" lon="13.360240077268395"><ele>663.0</ele><time>2026-04-26T08:50:48Z</time></trkpt><trkpt lat="38.05698831911029" lon="13.360250268330287"><ele>662.0</ele><time>2026-04-26T08:50:49Z</time></trkpt><trkpt lat="38.056900712291494" lon="13.360263461850398"><ele>661.0</ele><time>2026-04-26T08:50:50Z</time></trkpt><trkpt lat="38.05682359247856" lon="13.36028055705193"><ele>660.0</ele><time>2026-04-26T08:50:51Z</time></trkpt><trkpt lat="38.05674814697316" lon="13.360266850077572"><ele>659.0</ele><time>2026-04-26T08:50:52Z</time></trkpt><trkpt lat="38.05667921232854" lon="13.360269790870232"><ele>656.6</ele><time>2026-04-26T08:50:53Z</time></trkpt><trkpt lat="38.05654781923395" lon="13.360245801397703"><ele>654.2</ele><time>2026-04-26T08:50:55Z</time></trkpt><trkpt lat="38.0564811079772" lon="13.360168896544387"><ele>651.8000000000001</ele><time>2026-04-26T08:50:56Z</time></trkpt><trkpt lat="38.05642954791392" lon="13.360093324037612"><ele>649.4000000000001</ele><time>2026-04-26T08:50:57Z</time></trkpt><trkpt lat="38.056358701524374" lon="13.360033321627421"><ele>647.0</ele><time>2026-04-26T08:50:58Z</time></trkpt><trkpt lat="38.056301526123" lon="13.359961155710044"><ele>647.0</ele><time>2026-04-26T08:50:59Z</time></trkpt><trkpt lat="38.05623893975273" lon="13.359891974664933"><ele>647.0</ele><time>2026-04-26T08:51:00Z</time></trkpt><trkpt lat="38.05617564168401" lon="13.359823322143145"><ele>647.0</ele><time>2026-04-26T08:51:01Z</time></trkpt><trkpt lat="38.056104343695964" lon="13.359757799807946"><ele>647.0</ele><time>2026-04-26T08:51:02Z</time></trkpt><trkpt lat="38.05602956112734" lon="13.35968938842189"><ele>647.0</ele><time>2026-04-26T08:51:03Z</time></trkpt><trkpt lat="38.05595609887601" lon="13.359619073931514"><ele>647.0</ele><time>2026-04-26T08:51:04Z</time></trkpt><trkpt lat="38.05588567333932" lon="13.359549807748417"><ele>646.5</ele><time>2026-04-26T08:51:05Z</time></trkpt><trkpt lat="38.05581860862613" lon="13.359484843098299"><ele>646.0</ele><time>2026-04-26T08:51:06Z</time></trkpt><trkpt lat="38.05575387576105" lon="13.35941214149994"><ele>645.5</ele><time>2026-04-26T08:51:07Z</time></trkpt><trkpt lat="38.055683262730824" lon="13.359332914975496"><ele>645.0</ele><time>2026-04-26T08:51:08Z</time></trkpt><trkpt lat="38.05562632673368" lon="13.359247564130216"><ele>644.5</ele><time>2026-04-26T08:51:09Z</time></trkpt><trkpt lat="38.05556368785006" lon="13.359172894352959"><ele>644.0</ele><time>2026-04-26T08:51:10Z</time></trkpt><trkpt lat="38.05551044976778" lon="13.35910488869072"><ele>642.8000000000001</ele><time>2026-04-26T08:51:11Z</time></trkpt><trkpt lat="38.055450256267505" lon="13.35902590517298"><ele>641.6</ele><time>2026-04-26T08:51:12Z</time></trkpt><trkpt lat="38.05539347217311" lon="13.35893284275409"><ele>640.4</ele><time>2026-04-26T08:51:13Z</time></trkpt><trkpt lat="38.05536113273029" lon="13.358824184977049"><ele>639.2</ele><time>2026-04-26T08:51:14Z</time></trkpt><trkpt lat="38.05532000646092" lon="13.35871973650613"><ele>638.0</ele><time>2026-04-26T08:51:15Z</time></trkpt><trkpt lat="38.05524381907455" lon="13.358613486137806"><ele>634.0</ele><time>2026-04-26T08:51:16Z</time></trkpt><trkpt lat="38.05517333107195" lon="13.358506280181793"><ele>630.0</ele><time>2026-04-26T08:51:17Z</time></trkpt><trkpt lat="38.05511158264663" lon="13.358381358061198"><ele>626.0</ele><time>2026-04-26T08:51:18Z</time></trkpt><trkpt lat="38.05503224392589" lon="13.35826816810933"><ele>622.0</ele><time>2026-04-26T08:51:19Z</time></trkpt><trkpt lat="38.05494285296696" lon="13.358164608703675"><ele>621.0</ele><time>2026-04-26T08:51:20Z</time></trkpt><trkpt lat="38.05484479582493" lon="13.358076477981221"><ele>620.0</ele><time>2026-04-26T08:51:21Z</time></trkpt><trkpt lat="38.054732616538544" lon="13.358014123391897"><ele>619.0</ele><time>2026-04-26T08:51:22Z</time></trkpt><trkpt lat="38.05462841957908" lon="13.357938743511507"><ele>618.0</ele><time>2026-04-26T08:51:23Z</time></trkpt><trkpt lat="38.05453362661311" lon="13.357851130232543"><ele>617.25</ele><time>2026-04-26T08:51:24Z</time></trkpt><trkpt lat="38.05444210629524" lon="13.357764981914949"><ele>616.5</ele><time>2026-04-26T08:51:25Z</time></trkpt><trkpt lat="38.05433605666077" lon="13.357702302439854"><ele>615.75</ele><time>2026-04-26T08:51:26Z</time></trkpt><trkpt lat="38.05421509919811" lon="13.35769361181044"><ele>615.0</ele><time>2026-04-26T08:51:27Z</time></trkpt><trkpt lat="38.05409902862921" lon="13.357682614203139"><ele>613.1666666666666</ele><time>2026-04-26T08:51:28Z</time></trkpt><trkpt lat="38.05400049676897" lon="13.357641935395618"><ele>611.3333333333334</ele><time>2026-04-26T08:51:29Z</time></trkpt><trkpt lat="38.05391297378956" lon="13.357622250788362"><ele>609.5</ele><time>2026-04-26T08:51:30Z</time></trkpt><trkpt lat="38.05385676325983" lon="13.357564226369545"><ele>607.6666666666667</ele><time>2026-04-26T08:51:31Z</time></trkpt><trkpt lat="38.05380939292228" lon="13.357509022879285"><ele>605.8333333333334</ele><time>2026-04-26T08:51:32Z</time></trkpt><trkpt lat="38.05375114867767" lon="13.35740614560946"><ele>604.0</ele><time>2026-04-26T08:51:34Z</time></trkpt><trkpt lat="38.053684987923255" lon="13.357325358694268"><ele>604.0</ele><time>2026-04-26T08:51:36Z</time></trkpt><trkpt lat="38.05359923199252" lon="13.357223317745206"><ele>604.0</ele><time>2026-04-26T08:51:38Z</time></trkpt><trkpt lat="38.053573706955916" lon="13.35713457554752"><ele>604.0</ele><time>2026-04-26T08:51:39Z</time></trkpt><trkpt lat="38.05347971125091" lon="13.35702322738329"><ele>604.0</ele><time>2026-04-26T08:51:41Z</time></trkpt><trkpt lat="38.05343515483084" lon="13.356966650353293"><ele>604.0</ele><time>2026-04-26T08:51:42Z</time></trkpt><trkpt lat="38.0533794085982" lon="13.356901042982617"><ele>603.0</ele><time>2026-04-26T08:51:43Z</time></trkpt><trkpt lat="38.05331006441476" lon="13.356838735168383"><ele>602.0</ele><time>2026-04-26T08:51:44Z</time></trkpt><trkpt lat="38.053240361182056" lon="13.356785685905036"><ele>601.0</ele><time>2026-04-26T08:51:45Z</time></trkpt><trkpt lat="38.05315987964141" lon="13.356736212608423"><ele>600.0</ele><time>2026-04-26T08:51:46Z</time></trkpt><trkpt lat="38.05307600129033" lon="13.356715300497148"><ele>599.0</ele><time>2026-04-26T08:51:47Z</time></trkpt><trkpt lat="38.05300079557014" lon="13.356656927603172"><ele>598.0</ele><time>2026-04-26T08:51:48Z</time></trkpt><trkpt lat="38.052921184846305" lon="13.356609600709385"><ele>598.0</ele><time>2026-04-26T08:51:49Z</time></trkpt><trkpt lat="38.05284173547003" lon="13.356559328919955"><ele>598.0</ele><time>2026-04-26T08:51:50Z</time></trkpt><trkpt lat="38.05276374155957" lon="13.35651109338399"><ele>598.0</ele><time>2026-04-26T08:51:51Z</time></trkpt><trkpt lat="38.05268048332504" lon="13.356464304797845"><ele>598.0</ele><time>2026-04-26T08:51:52Z</time></trkpt><trkpt lat="38.05258786560746" lon="13.356420786126495"><ele>598.0</ele><time>2026-04-26T08:51:53Z</time></trkpt><trkpt lat="38.05249087041709" lon="13.356388977556252"><ele>599.8</ele><time>2026-04-26T08:51:54Z</time></trkpt><trkpt lat="38.05239422129856" lon="13.356335372018544"><ele>601.5999999999999</ele><time>2026-04-26T08:51:55Z</time></trkpt><trkpt lat="38.05228155782552" lon="13.356284223448892"><ele>603.4000000000001</ele><time>2026-04-26T08:51:56Z</time></trkpt><trkpt lat="38.052187073448415" lon="13.356228403247757"><ele>605.2</ele><time>2026-04-26T08:51:57Z</time></trkpt><trkpt lat="38.052098419270024" lon="13.356163279000823"><ele>607.0</ele><time>2026-04-26T08:51:58Z</time></trkpt><trkpt lat="38.051997474219306" lon="13.35611175189775"><ele>607.0</ele><time>2026-04-26T08:51:59Z</time></trkpt><trkpt lat="38.05189950065053" lon="13.356076127688752"><ele>607.0</ele><time>2026-04-26T08:52:00Z</time></trkpt><trkpt lat="38.05183030079942" lon="13.356014192951783"><ele>607.0</ele><time>2026-04-26T08:52:01Z</time></trkpt><trkpt lat="38.05172992119404" lon="13.355976026278034"><ele>607.0</ele><time>2026-04-26T08:52:02Z</time></trkpt><trkpt lat="38.05164605086729" lon="13.355934508134352"><ele>607.0</ele><time>2026-04-26T08:52:03Z</time></trkpt><trkpt lat="38.05157211469198" lon="13.355909681407766"><ele>604.8333333333334</ele><time>2026-04-26T08:52:04Z</time></trkpt><trkpt lat="38.05150044886196" lon="13.355868216539815"><ele>602.6666666666667</ele><time>2026-04-26T08:52:05Z</time></trkpt><trkpt lat="38.05143214048376" lon="13.355812680241993"><ele>600.5</ele><time>2026-04-26T08:52:06Z</time></trkpt><trkpt lat="38.05133069954533" lon="13.355727004109228"><ele>598.3333333333334</ele><time>2026-04-26T08:52:08Z</time></trkpt><trkpt lat="38.05126841475878" lon="13.355711264741531"><ele>596.1666666666666</ele><time>2026-04-26T08:52:09Z</time></trkpt><trkpt lat="38.051203493695446" lon="13.355725469659966"><ele>594.0</ele><time>2026-04-26T08:52:10Z</time></trkpt><trkpt lat="38.05113425678665" lon="13.355725935362344"><ele>594.0</ele><time>2026-04-26T08:52:11Z</time></trkpt><trkpt lat="38.051081901066226" lon="13.355661436719936"><ele>594.0</ele><time>2026-04-26T08:52:12Z</time></trkpt><trkpt lat="38.05101911505055" lon="13.355652705829185"><ele>594.0</ele><time>2026-04-26T08:52:13Z</time></trkpt><trkpt lat="38.050951480420686" lon="13.355619136294326"><ele>594.0</ele><time>2026-04-26T08:52:14Z</time></trkpt><trkpt lat="38.05088135236191" lon="13.355580383019591"><ele>594.0</ele><time>2026-04-26T08:52:15Z</time></trkpt><trkpt lat="38.050826087044356" lon="13.35553896100443"><ele>594.0</ele><time>2026-04-26T08:52:16Z</time></trkpt><trkpt lat="38.050756112278364" lon="13.355506637408288"><ele>594.0</ele><time>2026-04-26T08:52:17Z</time></trkpt><trkpt lat="38.05069136356133" lon="13.355491312389747"><ele>592.0</ele><time>2026-04-26T08:52:18Z</time></trkpt><trkpt lat="38.05061035287588" lon="13.355502939243529"><ele>590.0</ele><time>2026-04-26T08:52:19Z</time></trkpt><trkpt lat="38.05052288844876" lon="13.355526122004244"><ele>588.0</ele><time>2026-04-26T08:52:20Z</time></trkpt><trkpt lat="38.05043202991864" lon="13.355543081882976"><ele>586.0</ele><time>2026-04-26T08:52:21Z</time></trkpt><trkpt lat="38.050357509082545" lon="13.355516543696748"><ele>584.0</ele><time>2026-04-26T08:52:22Z</time></trkpt><trkpt lat="38.05022785766206" lon="13.355524988997852"><ele>584.0</ele><time>2026-04-26T08:52:24Z</time></trkpt><trkpt lat="38.05016241849686" lon="13.35554136239995"><ele>584.0</ele><time>2026-04-26T08:52:25Z</time></trkpt><trkpt lat="38.05009604075347" lon="13.355547560669054"><ele>584.0</ele><time>2026-04-26T08:52:26Z</time></trkpt><trkpt lat="38.05002352491058" lon="13.355569443495245"><ele>584.0</ele><time>2026-04-26T08:52:27Z</time></trkpt><trkpt lat="38.04995642760029" lon="13.355575565004665"><ele>584.0</ele><time>2026-04-26T08:52:28Z</time></trkpt><trkpt lat="38.049887816574774" lon="13.355572924777308"><ele>584.0</ele><time>2026-04-26T08:52:29Z</time></trkpt><trkpt lat="38.04981554134678" lon="13.355592811879582"><ele>584.0</ele><time>2026-04-26T08:52:30Z</time></trkpt><trkpt lat="38.0497395799081" lon="13.355577669179436"><ele>584.0</ele><time>2026-04-26T08:52:31.001Z</time></trkpt><trkpt lat="38.04966328934841" lon="13.355564041797809"><ele>584.0</ele><time>2026-04-26T08:52:32.001Z</time></trkpt><trkpt lat="38.049589016889975" lon="13.355542850261283"><ele>584.0</ele><time>2026-04-26T08:52:33.001Z</time></trkpt><trkpt lat="38.04951071763979" lon="13.355535166137004"><ele>584.0</ele><time>2026-04-26T08:52:34.001Z</time></trkpt><trkpt lat="38.049428833577124" lon="13.35552647139762"><ele>584.0</ele><time>2026-04-26T08:52:35.001Z</time></trkpt><trkpt lat="38.049336745097214" lon="13.35554444745122"><ele>584.0</ele><time>2026-04-26T08:52:36.001Z</time></trkpt><trkpt lat="38.04924934247537" lon="13.355566835027137"><ele>584.0</ele><time>2026-04-26T08:52:37.001Z</time></trkpt><trkpt lat="38.049173400722616" lon="13.355592508047456"><ele>584.0</ele><time>2026-04-26T08:52:38.001Z</time></trkpt><trkpt lat="38.049103248386956" lon="13.355604903943277"><ele>584.0</ele><time>2026-04-26T08:52:39.001Z</time></trkpt><trkpt lat="38.04896138550725" lon="13.355601407850095"><ele>584.0</ele><time>2026-04-26T08:52:41.001Z</time></trkpt><trkpt lat="38.04887998238706" lon="13.355593798009616"><ele>584.0</ele><time>2026-04-26T08:52:42.001Z</time></trkpt><trkpt lat="38.04879439314764" lon="13.355591930813764"><ele>586.2</ele><time>2026-04-26T08:52:43.001Z</time></trkpt><trkpt lat="38.04870439969358" lon="13.355596540735213"><ele>588.4</ele><time>2026-04-26T08:52:44.001Z</time></trkpt><trkpt lat="38.04862106552464" lon="13.355617511604231"><ele>590.6</ele><time>2026-04-26T08:52:45.001Z</time></trkpt><trkpt lat="38.04853003522899" lon="13.355649507127783"><ele>592.8</ele><time>2026-04-26T08:52:46.001Z</time></trkpt><trkpt lat="38.0484475963761" lon="13.355689414743916"><ele>595.0</ele><time>2026-04-26T08:52:47.001Z</time></trkpt><trkpt lat="38.048360957276145" lon="13.355739481699027"><ele>597.6666666666667</ele><time>2026-04-26T08:52:48.001Z</time></trkpt><trkpt lat="38.0482875965737" lon="13.355808757038751"><ele>600.3333333333334</ele><time>2026-04-26T08:52:49.001Z</time></trkpt><trkpt lat="38.04821148959015" lon="13.355864288927522"><ele>603.0</ele><time>2026-04-26T08:52:50.001Z</time></trkpt><trkpt lat="38.04814140590017" lon="13.355890070210513"><ele>605.6666666666666</ele><time>2026-04-26T08:52:51.001Z</time></trkpt><trkpt lat="38.048087427176156" lon="13.35594326136694"><ele>608.3333333333333</ele><time>2026-04-26T08:52:52Z</time></trkpt><trkpt lat="38.04801474636723" lon="13.35596943915751"><ele>611.0</ele><time>2026-04-26T08:52:53Z</time></trkpt><trkpt lat="38.04792415854742" lon="13.355995821866676"><ele>611.0</ele><time>2026-04-26T08:52:54Z</time></trkpt><trkpt lat="38.04783070906505" lon="13.35602235315196"><ele>611.0</ele><time>2026-04-26T08:52:55Z</time></trkpt><trkpt lat="38.04772720834164" lon="13.356046952943352"><ele>611.0</ele><time>2026-04-26T08:52:56Z</time></trkpt><trkpt lat="38.047624203995724" lon="13.356074612364045"><ele>611.0</ele><time>2026-04-26T08:52:57Z</time></trkpt><trkpt lat="38.04751931154327" lon="13.356109554694822"><ele>611.0</ele><time>2026-04-26T08:52:58Z</time></trkpt><trkpt lat="38.047421083174115" lon="13.356147076638957"><ele>609.1666666666666</ele><time>2026-04-26T08:52:59Z</time></trkpt><trkpt lat="38.04733187857398" lon="13.356178815795749"><ele>607.3333333333333</ele><time>2026-04-26T08:53:00Z</time></trkpt><trkpt lat="38.0472417082314" lon="13.356194290015603"><ele>605.5</ele><time>2026-04-26T08:53:01Z</time></trkpt><trkpt lat="38.047155016989336" lon="13.35621603261279"><ele>603.6666666666666</ele><time>2026-04-26T08:53:02Z</time></trkpt><trkpt lat="38.04708256364232" lon="13.356234516122026"><ele>601.8333333333334</ele><time>2026-04-26T08:53:03Z</time></trkpt><trkpt lat="38.047016442445845" lon="13.356248122896025"><ele>600.0</ele><time>2026-04-26T08:53:04Z</time></trkpt><trkpt lat="38.04695256670103" lon="13.356265295064912"><ele>600.0</ele><time>2026-04-26T08:53:05Z</time></trkpt><trkpt lat="38.046818926976755" lon="13.356235308554938"><ele>600.0</ele><time>2026-04-26T08:53:07Z</time></trkpt><trkpt lat="38.04675306703511" lon="13.356209582062064"><ele>600.0</ele><time>2026-04-26T08:53:08Z</time></trkpt><trkpt lat="38.04668482622993" lon="13.356158444122672"><ele>600.0</ele><time>2026-04-26T08:53:09Z</time></trkpt><trkpt lat="38.04661189359241" lon="13.356101553960613"><ele>600.0</ele><time>2026-04-26T08:53:10Z</time></trkpt><trkpt lat="38.046533017088805" lon="13.356035474901638"><ele>594.1666666666666</ele><time>2026-04-26T08:53:11Z</time></trkpt><trkpt lat="38.046458093421805" lon="13.355974079602538"><ele>588.3333333333334</ele><time>2026-04-26T08:53:12Z</time></trkpt><trkpt lat="38.046390808495055" lon="13.355916433742552"><ele>582.5</ele><time>2026-04-26T08:53:13Z</time></trkpt><trkpt lat="38.04632831752725" lon="13.355867945855678"><ele>576.6666666666667</ele><time>2026-04-26T08:53:14Z</time></trkpt><trkpt lat="38.04626840463437" lon="13.355807353604865"><ele>570.8333333333334</ele><time>2026-04-26T08:53:15Z</time></trkpt><trkpt lat="38.046222563716604" lon="13.35572874142285"><ele>565.0</ele><time>2026-04-26T08:53:16Z</time></trkpt><trkpt lat="38.0461922257772" lon="13.355653437476004"><ele>565.0</ele><time>2026-04-26T08:53:17Z</time></trkpt><trkpt lat="38.04616476945027" lon="13.355565080292566"><ele>565.0</ele><time>2026-04-26T08:53:18Z</time></trkpt><trkpt lat="38.04615105882855" lon="13.35547669883956"><ele>565.0</ele><time>2026-04-26T08:53:19Z</time></trkpt><trkpt lat="38.046148144373305" lon="13.355369730854791"><ele>565.0</ele><time>2026-04-26T08:53:20Z</time></trkpt><trkpt lat="38.04615999862654" lon="13.355268161857511"><ele>565.0</ele><time>2026-04-26T08:53:21Z</time></trkpt><trkpt lat="38.046183874881294" lon="13.35516830159573"><ele>565.0</ele><time>2026-04-26T08:53:22Z</time></trkpt><trkpt lat="38.046216093658984" lon="13.355071933105716"><ele>566.0</ele><time>2026-04-26T08:53:23Z</time></trkpt><trkpt lat="38.04624733087194" lon="13.354967102884446"><ele>567.0</ele><time>2026-04-26T08:53:24Z</time></trkpt><trkpt lat="38.046282367066965" lon="13.354854251958352"><ele>568.0</ele><time>2026-04-26T08:53:25Z</time></trkpt><trkpt lat="38.04631154306175" lon="13.3547535972756"><ele>569.0</ele><time>2026-04-26T08:53:26Z</time></trkpt><trkpt lat="38.046345151735686" lon="13.354662621916845"><ele>570.0</ele><time>2026-04-26T08:53:27Z</time></trkpt><trkpt lat="38.04637960008686" lon="13.354577435759328"><ele>571.0</ele><time>2026-04-26T08:53:28Z</time></trkpt><trkpt lat="38.046410761177114" lon="13.354498679975915"><ele>572.8</ele><time>2026-04-26T08:53:29Z</time></trkpt><trkpt lat="38.04642157878557" lon="13.354413103595387"><ele>574.6</ele><time>2026-04-26T08:53:30Z</time></trkpt><trkpt lat="38.04642528011147" lon="13.35431537407832"><ele>576.4</ele><time>2026-04-26T08:53:31Z</time></trkpt><trkpt lat="38.04638776735067" lon="13.354195457742811"><ele>578.2</ele><time>2026-04-26T08:53:33Z</time></trkpt><trkpt lat="38.04628973795399" lon="13.354095233396349"><ele>580.0</ele><time>2026-04-26T08:53:35Z</time></trkpt><trkpt lat="38.04616656245024" lon="13.354004541955696"><ele>580.0</ele><time>2026-04-26T08:53:37Z</time></trkpt><trkpt lat="38.04610651800975" lon="13.353947267506452"><ele>580.0</ele><time>2026-04-26T08:53:38Z</time></trkpt><trkpt lat="38.04604690894207" lon="13.353896443963757"><ele>580.0</ele><time>2026-04-26T08:53:39Z</time></trkpt><trkpt lat="38.045998432708544" lon="13.353823184388666"><ele>580.0</ele><time>2026-04-26T08:53:40Z</time></trkpt><trkpt lat="38.04595508476406" lon="13.353730927242381"><ele>580.0</ele><time>2026-04-26T08:53:41Z</time></trkpt><trkpt lat="38.04590978849934" lon="13.35363471646972"><ele>580.0</ele><time>2026-04-26T08:53:42Z</time></trkpt><trkpt lat="38.045857388844" lon="13.353539994529223"><ele>581.5</ele><time>2026-04-26T08:53:43Z</time></trkpt><trkpt lat="38.045821192600656" lon="13.353459615712255"><ele>583.0</ele><time>2026-04-26T08:53:44Z</time></trkpt><trkpt lat="38.045782963771046" lon="13.353379188680101"><ele>584.5</ele><time>2026-04-26T08:53:45Z</time></trkpt><trkpt lat="38.04574341552037" lon="13.353298192695926"><ele>586.0</ele><time>2026-04-26T08:53:46Z</time></trkpt><trkpt lat="38.04565711798716" lon="13.35321038328891"><ele>587.5</ele><time>2026-04-26T08:53:48Z</time></trkpt><trkpt lat="38.04558990943942" lon="13.353195657455466"><ele>589.0</ele><time>2026-04-26T08:53:50Z</time></trkpt><trkpt lat="38.045505721820945" lon="13.353190171423154"><ele>590.3333333333334</ele><time>2026-04-26T08:53:53Z</time></trkpt><trkpt lat="38.04543887377606" lon="13.353201771672715"><ele>591.6666666666667</ele><time>2026-04-26T08:53:55Z</time></trkpt><trkpt lat="38.04536859372072" lon="13.353254874221127"><ele>593.0</ele><time>2026-04-26T08:53:57Z</time></trkpt><trkpt lat="38.04527646519042" lon="13.35337803330626"><ele>594.3333333333334</ele><time>2026-04-26T08:53:59Z</time></trkpt><trkpt lat="38.04524371855903" lon="13.353455306325374"><ele>595.6666666666666</ele><time>2026-04-26T08:54:00Z</time></trkpt><trkpt lat="38.045210618475636" lon="13.353543219885614"><ele>597.0</ele><time>2026-04-26T08:54:01Z</time></trkpt><trkpt lat="38.045189216573185" lon="13.353637892166686"><ele>597.0</ele><time>2026-04-26T08:54:02Z</time></trkpt><trkpt lat="38.04516233157624" lon="13.353744436931603"><ele>597.0</ele><time>2026-04-26T08:54:03Z</time></trkpt><trkpt lat="38.04512506915398" lon="13.353846090981095"><ele>597.0</ele><time>2026-04-26T08:54:04Z</time></trkpt><trkpt lat="38.0450851927494" lon="13.353954373170843"><ele>597.0</ele><time>2026-04-26T08:54:05Z</time></trkpt><trkpt lat="38.04505650470639" lon="13.354036733163404"><ele>597.0</ele><time>2026-04-26T08:54:06Z</time></trkpt><trkpt lat="38.04502334873506" lon="13.354115617017634"><ele>597.0</ele><time>2026-04-26T08:54:07Z</time></trkpt><trkpt lat="38.04497879620011" lon="13.354190615949053"><ele>599.1428571428572</ele><time>2026-04-26T08:54:08Z</time></trkpt><trkpt lat="38.044926003589296" lon="13.354253991966068"><ele>601.2857142857143</ele><time>2026-04-26T08:54:09Z</time></trkpt><trkpt lat="38.0448628824655" lon="13.354304576173451"><ele>603.4285714285714</ele><time>2026-04-26T08:54:10Z</time></trkpt><trkpt lat="38.044794592438514" lon="13.354346177995046"><ele>605.5714285714287</ele><time>2026-04-26T08:54:11Z</time></trkpt><trkpt lat="38.04473206072462" lon="13.35436627164684"><ele>607.7142857142858</ele><time>2026-04-26T08:54:12Z</time></trkpt><trkpt lat="38.04467081554977" lon="13.354388422171494"><ele>609.8571428571429</ele><time>2026-04-26T08:54:13Z</time></trkpt><trkpt lat="38.04460714946453" lon="13.354409955291366"><ele>612.0</ele><time>2026-04-26T08:54:14Z</time></trkpt><trkpt lat="38.04454602514797" lon="13.354444731509284"><ele>612.0</ele><time>2026-04-26T08:54:15Z</time></trkpt><trkpt lat="38.04448993779123" lon="13.354491360816192"><ele>612.0</ele><time>2026-04-26T08:54:16Z</time></trkpt><trkpt lat="38.044449779204356" lon="13.35455617605692"><ele>612.0</ele><time>2026-04-26T08:54:17Z</time></trkpt><trkpt lat="38.04441902549968" lon="13.35463167240539"><ele>612.0</ele><time>2026-04-26T08:54:18Z</time></trkpt><trkpt lat="38.04439799077326" lon="13.354715831272767"><ele>612.0</ele><time>2026-04-26T08:54:19Z</time></trkpt><trkpt lat="38.04438667762454" lon="13.354829171765841"><ele>612.0</ele><time>2026-04-26T08:54:20Z</time></trkpt><trkpt lat="38.04437284252029" lon="13.354927005418174"><ele>612.0</ele><time>2026-04-26T08:54:21Z</time></trkpt><trkpt lat="38.04434177723073" lon="13.355054797092674"><ele>612.6666666666666</ele><time>2026-04-26T08:54:23Z</time></trkpt><trkpt lat="38.044313036686695" lon="13.355126575318842"><ele>613.3333333333334</ele><time>2026-04-26T08:57:49Z</time></trkpt><trkpt lat="38.0442906073344" lon="13.355224327578421"><ele>614.0</ele><time>2026-04-26T08:57:51Z</time></trkpt><trkpt lat="38.04423057819247" lon="13.35531076515563"><ele>614.6666666666667</ele><time>2026-04-26T08:57:53Z</time></trkpt><trkpt lat="38.044147469118045" lon="13.355369350766988"><ele>615.3333333333334</ele><time>2026-04-26T08:57:55Z</time></trkpt><trkpt lat="38.0440500641409" lon="13.355389431449558"><ele>616.0</ele><time>2026-04-26T08:57:57Z</time></trkpt><trkpt lat="38.04396989872773" lon="13.35539708370153"><ele>616.0</ele><time>2026-04-26T08:57:59Z</time></trkpt><trkpt lat="38.043842311885285" lon="13.355431306789013"><ele>616.0</ele><time>2026-04-26T08:58:01Z</time></trkpt><trkpt lat="38.04376907184644" lon="13.355452751093832"><ele>616.0</ele><time>2026-04-26T08:58:02Z</time></trkpt><trkpt lat="38.04369541623436" lon="13.35547604023408"><ele>616.0</ele><time>2026-04-26T08:58:03Z</time></trkpt><trkpt lat="38.043623378034034" lon="13.355500968717603"><ele>616.0</ele><time>2026-04-26T08:58:04Z</time></trkpt><trkpt lat="38.04354595517116" lon="13.355533938975515"><ele>616.0</ele><time>2026-04-26T08:58:05Z</time></trkpt><trkpt lat="38.04347951443345" lon="13.355567805560057"><ele>616.0</ele><time>2026-04-26T08:58:06Z</time></trkpt><trkpt lat="38.043417780036215" lon="13.355615655676246"><ele>616.0</ele><time>2026-04-26T08:58:07Z</time></trkpt><trkpt lat="38.043364035647876" lon="13.355673938883138"><ele>616.0</ele><time>2026-04-26T08:58:08Z</time></trkpt><trkpt lat="38.043317271909146" lon="13.355746640030542"><ele>616.0</ele><time>2026-04-26T08:58:09Z</time></trkpt><trkpt lat="38.04326744243569" lon="13.35582511519735"><ele>616.0</ele><time>2026-04-26T08:58:10Z</time></trkpt><trkpt lat="38.04315126661978" lon="13.355921553653747"><ele>616.0</ele><time>2026-04-26T08:58:12Z</time></trkpt><trkpt lat="38.04308343448644" lon="13.355960826339325"><ele>616.0</ele><time>2026-04-26T08:58:13Z</time></trkpt><trkpt lat="38.04300017595077" lon="13.356002271225535"><ele>616.0</ele><time>2026-04-26T08:58:14Z</time></trkpt><trkpt lat="38.0429196913905" lon="13.356041298113354"><ele>616.0</ele><time>2026-04-26T08:58:15Z</time></trkpt><trkpt lat="38.04284318937265" lon="13.35609145537387"><ele>616.0</ele><time>2026-04-26T08:58:16Z</time></trkpt><trkpt lat="38.04276338788601" lon="13.356153405856885"><ele>616.0</ele><time>2026-04-26T08:58:17Z</time></trkpt><trkpt lat="38.04268425064358" lon="13.356222741400721"><ele>616.0</ele><time>2026-04-26T08:58:18Z</time></trkpt><trkpt lat="38.04259892609666" lon="13.356299826473304"><ele>616.0</ele><time>2026-04-26T08:58:19Z</time></trkpt><trkpt lat="38.042512765586366" lon="13.356368836336715"><ele>616.0</ele><time>2026-04-26T08:58:20Z</time></trkpt><trkpt lat="38.04242186190825" lon="13.356442501748573"><ele>616.0</ele><time>2026-04-26T08:58:21Z</time></trkpt><trkpt lat="38.04234160497526" lon="13.356514112172281"><ele>616.0</ele><time>2026-04-26T08:58:22Z</time></trkpt><trkpt lat="38.04226386049633" lon="13.356586729594287"><ele>612.8333333333334</ele><time>2026-04-26T08:58:23Z</time></trkpt><trkpt lat="38.04218540173075" lon="13.35664528074326"><ele>609.6666666666667</ele><time>2026-04-26T08:58:24Z</time></trkpt><trkpt lat="38.04211393050692" lon="13.356710833127005"><ele>606.5</ele><time>2026-04-26T08:58:25Z</time></trkpt><trkpt lat="38.042043177776584" lon="13.356756598297855"><ele>603.3333333333334</ele><time>2026-04-26T08:58:26Z</time></trkpt><trkpt lat="38.041969566775656" lon="13.356781160133664"><ele>600.1666666666666</ele><time>2026-04-26T08:58:27Z</time></trkpt><trkpt lat="38.041888610033176" lon="13.356810915110591"><ele>597.0</ele><time>2026-04-26T08:58:28Z</time></trkpt><trkpt lat="38.041808550056274" lon="13.356829503155886"><ele>597.0</ele><time>2026-04-26T08:58:29Z</time></trkpt><trkpt lat="38.04171862692049" lon="13.356835049109197"><ele>597.0</ele><time>2026-04-26T08:58:30Z</time></trkpt><trkpt lat="38.041635515094626" lon="13.356840174640533"><ele>597.0</ele><time>2026-04-26T08:58:31Z</time></trkpt><trkpt lat="38.041552940901546" lon="13.35683164726531"><ele>597.0</ele><time>2026-04-26T08:58:32Z</time></trkpt><trkpt lat="38.04146970681916" lon="13.35681618451197"><ele>597.0</ele><time>2026-04-26T08:58:33Z</time></trkpt><trkpt lat="38.04138847924001" lon="13.356802676671318"><ele>597.0</ele><time>2026-04-26T08:58:34Z</time></trkpt><trkpt lat="38.04130289318013" lon="13.356768076876582"><ele>595.5</ele><time>2026-04-26T08:58:35Z</time></trkpt><trkpt lat="38.04121301970088" lon="13.356713045948908"><ele>594.0</ele><time>2026-04-26T08:58:36Z</time></trkpt><trkpt lat="38.041109175503976" lon="13.356667385120668"><ele>592.5</ele><time>2026-04-26T08:58:37Z</time></trkpt><trkpt lat="38.040999190406474" lon="13.35660344607218"><ele>591.0</ele><time>2026-04-26T08:58:38Z</time></trkpt><trkpt lat="38.040879974182644" lon="13.356550861683061"><ele>591.0</ele><time>2026-04-26T08:58:39Z</time></trkpt><trkpt lat="38.040778544167694" lon="13.356501845152323"><ele>591.0</ele><time>2026-04-26T08:58:39.999Z</time></trkpt><trkpt lat="38.04069870958762" lon="13.356445295021866"><ele>591.0</ele><time>2026-04-26T08:58:40.999Z</time></trkpt><trkpt lat="38.040630093767334" lon="13.356393870551278"><ele>591.0</ele><time>2026-04-26T08:58:41.999Z</time></trkpt><trkpt lat="38.04056521818839" lon="13.356345185900857"><ele>591.0</ele><time>2026-04-26T08:58:42.999Z</time></trkpt><trkpt lat="38.04044620606422" lon="13.356312946108114"><ele>591.0</ele><time>2026-04-26T08:58:44.999Z</time></trkpt><trkpt lat="38.040374285389866" lon="13.35632681664058"><ele>591.0</ele><time>2026-04-26T08:58:45.999Z</time></trkpt><trkpt lat="38.04029410307858" lon="13.356361266137537"><ele>591.0</ele><time>2026-04-26T08:58:46.999Z</time></trkpt><trkpt lat="38.040202620959235" lon="13.356411995707766"><ele>591.0</ele><time>2026-04-26T08:58:47.999Z</time></trkpt><trkpt lat="38.04010683826167" lon="13.356453808148853"><ele>591.0</ele><time>2026-04-26T08:58:49.001Z</time></trkpt><trkpt lat="38.03999817637428" lon="13.356501949048647"><ele>591.6</ele><time>2026-04-26T08:58:50.001Z</time></trkpt><trkpt lat="38.03989476710639" lon="13.356555764748547"><ele>592.2</ele><time>2026-04-26T08:58:51.001Z</time></trkpt><trkpt lat="38.0398000693706" lon="13.356625066594576"><ele>592.8</ele><time>2026-04-26T08:58:52.001Z</time></trkpt><trkpt lat="38.039705625455696" lon="13.356619642342634"><ele>593.4</ele><time>2026-04-26T08:58:53.001Z</time></trkpt><trkpt lat="38.0396010737121" lon="13.356638627994746"><ele>594.0</ele><time>2026-04-26T08:58:54.001Z</time></trkpt><trkpt lat="38.039486481956565" lon="13.35665234621683"><ele>594.0</ele><time>2026-04-26T08:58:55.001Z</time></trkpt><trkpt lat="38.0393851594829" lon="13.356665762261864"><ele>594.0</ele><time>2026-04-26T08:58:56.001Z</time></trkpt><trkpt lat="38.03929036127449" lon="13.356675575372346"><ele>594.0</ele><time>2026-04-26T08:58:57.001Z</time></trkpt><trkpt lat="38.039203305563866" lon="13.356677372599332"><ele>594.0</ele><time>2026-04-26T08:58:58.001Z</time></trkpt><trkpt lat="38.03913271641544" lon="13.356677441920773"><ele>594.0</ele><time>2026-04-26T08:58:59.001Z</time></trkpt><trkpt lat="38.03905498998496" lon="13.356658030957355"><ele>594.0</ele><time>2026-04-26T08:59:00.001Z</time></trkpt><trkpt lat="38.03898100234946" lon="13.35662400285581"><ele>593.0</ele><time>2026-04-26T08:59:01.001Z</time></trkpt><trkpt lat="38.0389132828009" lon="13.356588328012597"><ele>592.0</ele><time>2026-04-26T08:59:02.001Z</time></trkpt><trkpt lat="38.03885004447451" lon="13.356526126623601"><ele>591.0</ele><time>2026-04-26T08:59:03.001Z</time></trkpt><trkpt lat="38.03877667350396" lon="13.356464029439564"><ele>590.0</ele><time>2026-04-26T08:59:04.001Z</time></trkpt><trkpt lat="38.03869735886914" lon="13.356409926055788"><ele>589.0</ele><time>2026-04-26T08:59:05.001Z</time></trkpt><trkpt lat="38.0386088256875" lon="13.356364750115295"><ele>588.0</ele><time>2026-04-26T08:59:06.001Z</time></trkpt><trkpt lat="38.038518336560614" lon="13.356312121833232"><ele>591.0</ele><time>2026-04-26T08:59:07Z</time></trkpt><trkpt lat="38.0384469746967" lon="13.356273818650804"><ele>594.0</ele><time>2026-04-26T08:59:08Z</time></trkpt><trkpt lat="38.03837403327649" lon="13.356226476702153"><ele>597.0</ele><time>2026-04-26T08:59:09Z</time></trkpt><trkpt lat="38.03831173002146" lon="13.356192367271186"><ele>600.0</ele><time>2026-04-26T08:59:10Z</time></trkpt><trkpt lat="38.03825004475708" lon="13.356164888238997"><ele>603.0</ele><time>2026-04-26T08:59:11Z</time></trkpt><trkpt lat="38.038145101782824" lon="13.356162917931186"><ele>606.0</ele><time>2026-04-26T08:59:13Z</time></trkpt><trkpt lat="38.038046615750574" lon="13.356281316851637"><ele>605.2</ele><time>2026-04-26T08:59:15Z</time></trkpt><trkpt lat="38.03800124636039" lon="13.3563783485167"><ele>604.4000000000001</ele><time>2026-04-26T08:59:16Z</time></trkpt><trkpt lat="38.037973917036794" lon="13.356492565605121"><ele>603.6</ele><time>2026-04-26T08:59:17Z</time></trkpt><trkpt lat="38.03795319310581" lon="13.3566054946245"><ele>602.8000000000001</ele><time>2026-04-26T08:59:18Z</time></trkpt><trkpt lat="38.037927169799396" lon="13.356731622625967"><ele>602.0</ele><time>2026-04-26T08:59:19Z</time></trkpt><trkpt lat="38.037885670941826" lon="13.356851010893333"><ele>602.0</ele><time>2026-04-26T08:59:20Z</time></trkpt><trkpt lat="38.03784842587789" lon="13.356945855564032"><ele>602.0</ele><time>2026-04-26T08:59:21Z</time></trkpt><trkpt lat="38.03780031492011" lon="13.357055808035991"><ele>602.0</ele><time>2026-04-26T08:59:22Z</time></trkpt><trkpt lat="38.037746205151166" lon="13.357162423296323"><ele>602.0</ele><time>2026-04-26T08:59:23Z</time></trkpt><trkpt lat="38.0376918555021" lon="13.35724334663408"><ele>602.0</ele><time>2026-04-26T08:59:24Z</time></trkpt><trkpt lat="38.03763104245558" lon="13.357297114988949"><ele>602.0</ele><time>2026-04-26T08:59:25Z</time></trkpt><trkpt lat="38.037562495111665" lon="13.35732056398769"><ele>600.5</ele><time>2026-04-26T08:59:26Z</time></trkpt><trkpt lat="38.03749398709414" lon="13.357321234597828"><ele>599.0</ele><time>2026-04-26T08:59:27Z</time></trkpt><trkpt lat="38.037409518687156" lon="13.357322447969544"><ele>597.5</ele><time>2026-04-26T08:59:28Z</time></trkpt><trkpt lat="38.03732593058974" lon="13.357311531690483"><ele>596.0</ele><time>2026-04-26T08:59:29Z</time></trkpt><trkpt lat="38.03723375752777" lon="13.357291378950759"><ele>594.5</ele><time>2026-04-26T08:59:30Z</time></trkpt><trkpt lat="38.03712820083152" lon="13.357269635723188"><ele>593.0</ele><time>2026-04-26T08:59:31Z</time></trkpt><trkpt lat="38.037006836766096" lon="13.357254181477687"><ele>593.0</ele><time>2026-04-26T08:59:32Z</time></trkpt><trkpt lat="38.03687825277727" lon="13.357244118592941"><ele>593.0</ele><time>2026-04-26T08:59:33Z</time></trkpt><trkpt lat="38.03676325323354" lon="13.357230276114636"><ele>593.0</ele><time>2026-04-26T08:59:34Z</time></trkpt><trkpt lat="38.03665895697176" lon="13.357208012290696"><ele>593.0</ele><time>2026-04-26T08:59:35Z</time></trkpt><trkpt lat="38.03656522011046" lon="13.357182658980136"><ele>593.0</ele><time>2026-04-26T08:59:36Z</time></trkpt><trkpt lat="38.03648248926116" lon="13.357148505176871"><ele>592.6</ele><time>2026-04-26T08:59:37Z</time></trkpt><trkpt lat="38.03639851180928" lon="13.357114367542202"><ele>592.1999999999999</ele><time>2026-04-26T08:59:38Z</time></trkpt><trkpt lat="38.036313054331494" lon="13.357087465656896"><ele>591.8</ele><time>2026-04-26T08:59:39Z</time></trkpt><trkpt lat="38.036223800414035" lon="13.357058790970736"><ele>591.4</ele><time>2026-04-26T08:59:40Z</time></trkpt><trkpt lat="38.03612968096886" lon="13.357038332850507"><ele>591.0</ele><time>2026-04-26T08:59:41Z</time></trkpt><trkpt lat="38.036042759072004" lon="13.357032015892479"><ele>591.0</ele><time>2026-04-26T08:59:42Z</time></trkpt><trkpt lat="38.035958142660284" lon="13.357039017761961"><ele>591.0</ele><time>2026-04-26T08:59:43Z</time></trkpt><trkpt lat="38.035874797915774" lon="13.357053564788192"><ele>591.0</ele><time>2026-04-26T08:59:44Z</time></trkpt><trkpt lat="38.035791608344795" lon="13.357080514882773"><ele>591.0</ele><time>2026-04-26T08:59:45Z</time></trkpt><trkpt lat="38.035718727141294" lon="13.357123581128322"><ele>591.0</ele><time>2026-04-26T08:59:46Z</time></trkpt><trkpt lat="38.0356518862494" lon="13.357176701553419"><ele>591.0</ele><time>2026-04-26T08:59:47Z</time></trkpt><trkpt lat="38.03559385633017" lon="13.35722902255262"><ele>590.5</ele><time>2026-04-26T08:59:48Z</time></trkpt><trkpt lat="38.03553582129641" lon="13.35727389609633"><ele>590.0</ele><time>2026-04-26T08:59:49Z</time></trkpt><trkpt lat="38.03547189253169" lon="13.357306324024428"><ele>589.5</ele><time>2026-04-26T08:59:50Z</time></trkpt><trkpt lat="38.03539586068129" lon="13.357330162624052"><ele>589.0</ele><time>2026-04-26T08:59:51Z</time></trkpt><trkpt lat="38.03530999201283" lon="13.357348393415611"><ele>588.5</ele><time>2026-04-26T08:59:52Z</time></trkpt><trkpt lat="38.0352286923063" lon="13.357362838782139"><ele>588.0</ele><time>2026-04-26T08:59:53Z</time></trkpt><trkpt lat="38.03515172198326" lon="13.357384363114486"><ele>588.0</ele><time>2026-04-26T08:59:54Z</time></trkpt><trkpt lat="38.035076003456695" lon="13.357413135323862"><ele>588.0</ele><time>2026-04-26T08:59:55Z</time></trkpt><trkpt lat="38.03499810872845" lon="13.357453140291891"><ele>588.0</ele><time>2026-04-26T08:59:56Z</time></trkpt><trkpt lat="38.03492708753171" lon="13.357506627999065"><ele>588.0</ele><time>2026-04-26T08:59:57Z</time></trkpt><trkpt lat="38.03484837722932" lon="13.357566642894707"><ele>588.0</ele><time>2026-04-26T08:59:58Z</time></trkpt><trkpt lat="38.034760336783584" lon="13.357622795728709"><ele>588.0</ele><time>2026-04-26T08:59:59Z</time></trkpt><trkpt lat="38.03467180703742" lon="13.357666007677569"><ele>588.8333333333334</ele><time>2026-04-26T09:00:00Z</time></trkpt><trkpt lat="38.03458945645463" lon="13.357712067250207"><ele>589.6666666666666</ele><time>2026-04-26T09:00:01Z</time></trkpt><trkpt lat="38.03450517398692" lon="13.357749293491548"><ele>590.5</ele><time>2026-04-26T09:00:02Z</time></trkpt><trkpt lat="38.03442248495827" lon="13.357786552375128"><ele>591.3333333333333</ele><time>2026-04-26T09:00:03Z</time></trkpt><trkpt lat="38.03433802279181" lon="13.357824387366325"><ele>592.1666666666666</ele><time>2026-04-26T09:00:04Z</time></trkpt><trkpt lat="38.03425179912422" lon="13.35785957423437"><ele>593.0</ele><time>2026-04-26T09:00:05Z</time></trkpt><trkpt lat="38.03416246729926" lon="13.35789672474857"><ele>593.8</ele><time>2026-04-26T09:00:06Z</time></trkpt><trkpt lat="38.03408457209349" lon="13.357942496721513"><ele>594.5999999999999</ele><time>2026-04-26T09:00:07Z</time></trkpt><trkpt lat="38.034003940717746" lon="13.358000653095194"><ele>595.4000000000001</ele><time>2026-04-26T09:00:08Z</time></trkpt><trkpt lat="38.03392246112506" lon="13.35806323597119"><ele>596.2</ele><time>2026-04-26T09:00:09Z</time></trkpt><trkpt lat="38.03385122792359" lon="13.358134077339383"><ele>597.0</ele><time>2026-04-26T09:00:10Z</time></trkpt><trkpt lat="38.03378771069311" lon="13.358211120781972"><ele>597.0000000000001</ele><time>2026-04-26T09:00:11Z</time></trkpt><trkpt lat="38.03372645245084" lon="13.35827285485899"><ele>597.0</ele><time>2026-04-26T09:00:12Z</time></trkpt><trkpt lat="38.03367470388596" lon="13.358328755153044"><ele>597.0</ele><time>2026-04-26T09:00:13Z</time></trkpt><trkpt lat="38.033613665573505" lon="13.3583913837808"><ele>597.0</ele><time>2026-04-26T09:00:14Z</time></trkpt><trkpt lat="38.033559497029394" lon="13.358460092829924"><ele>597.0</ele><time>2026-04-26T09:00:15Z</time></trkpt><trkpt lat="38.03350836183283" lon="13.358512755419298"><ele>597.0000000000001</ele><time>2026-04-26T09:00:16Z</time></trkpt><trkpt lat="38.03346337223623" lon="13.358570293002042"><ele>597.0</ele><time>2026-04-26T09:00:17Z</time></trkpt><trkpt lat="38.03341969232611" lon="13.358635123124946"><ele>597.0</ele><time>2026-04-26T09:00:18Z</time></trkpt><trkpt lat="38.03336936970125" lon="13.358777653530801"><ele>597.0</ele><time>2026-04-26T09:00:20Z</time></trkpt><trkpt lat="38.03335750264613" lon="13.358927427241143"><ele>597.0</ele><time>2026-04-26T09:00:22Z</time></trkpt><trkpt lat="38.033394920610874" lon="13.359083352945438"><ele>597.0</ele><time>2026-04-26T09:00:23.999Z</time></trkpt><trkpt lat="38.03342892418177" lon="13.359214888877284"><ele>595.8000000000001</ele><time>2026-04-26T09:00:25.999Z</time></trkpt><trkpt lat="38.03341271794858" lon="13.359332467821888"><ele>594.6</ele><time>2026-04-26T09:00:27.999Z</time></trkpt><trkpt lat="38.03335345822794" lon="13.35945115253006"><ele>593.4000000000001</ele><time>2026-04-26T09:00:29.999Z</time></trkpt><trkpt lat="38.033271586795486" lon="13.359524323689053"><ele>592.2</ele><time>2026-04-26T09:00:31.999Z</time></trkpt><trkpt lat="38.033202351579774" lon="13.359560415015869"><ele>591.0</ele><time>2026-04-26T09:00:33.999Z</time></trkpt><trkpt lat="38.03311550396016" lon="13.359619467158552"><ele>590.4</ele><time>2026-04-26T09:01:08Z</time></trkpt><trkpt lat="38.0330133786898" lon="13.359685815213606"><ele>589.8</ele><time>2026-04-26T09:01:10Z</time></trkpt><trkpt lat="38.0329525611089" lon="13.359723683240391"><ele>589.1999999999999</ele><time>2026-04-26T09:01:11Z</time></trkpt><trkpt lat="38.032851359255226" lon="13.359778630313182"><ele>588.6</ele><time>2026-04-26T09:01:13Z</time></trkpt><trkpt lat="38.03278650768046" lon="13.359820436013994"><ele>588.0</ele><time>2026-04-26T09:01:14Z</time></trkpt><trkpt lat="38.03269565349634" lon="13.359891179855383"><ele>588.0</ele><time>2026-04-26T09:01:16Z</time></trkpt><trkpt lat="38.03259571803443" lon="13.359967290509402"><ele>588.0</ele><time>2026-04-26T09:01:18Z</time></trkpt><trkpt lat="38.03253345310522" lon="13.359990184084866"><ele>588.0</ele><time>2026-04-26T09:01:19Z</time></trkpt><trkpt lat="38.0324700215172" lon="13.360006823784842"><ele>588.0</ele><time>2026-04-26T09:01:20Z</time></trkpt><trkpt lat="38.032344810458625" lon="13.360004162771373"><ele>588.0</ele><time>2026-04-26T09:01:22Z</time></trkpt><trkpt lat="38.03227887882845" lon="13.359985226402136"><ele>588.0</ele><time>2026-04-26T09:01:23Z</time></trkpt><trkpt lat="38.03221331890438" lon="13.35995299577356"><ele>588.0</ele><time>2026-04-26T09:01:24Z</time></trkpt><trkpt lat="38.0321489711282" lon="13.359906413930755"><ele>588.0</ele><time>2026-04-26T09:01:25Z</time></trkpt><trkpt lat="38.03208769642683" lon="13.359843551536542"><ele>588.0</ele><time>2026-04-26T09:01:26Z</time></trkpt><trkpt lat="38.03202679206213" lon="13.359775803989258"><ele>588.0</ele><time>2026-04-26T09:01:27Z</time></trkpt><trkpt lat="38.03196280378495" lon="13.359703567339766"><ele>588.0</ele><time>2026-04-26T09:01:28Z</time></trkpt><trkpt lat="38.03191161632959" lon="13.359656406941722"><ele>588.0</ele><time>2026-04-26T09:01:29Z</time></trkpt><trkpt lat="38.03182010973996" lon="13.359549293569675"><ele>589.2857142857143</ele><time>2026-04-26T09:01:31Z</time></trkpt><trkpt lat="38.03175432439596" lon="13.359526154511183"><ele>590.5714285714286</ele><time>2026-04-26T09:01:32Z</time></trkpt><trkpt lat="38.031687198346745" lon="13.359512708663777"><ele>591.8571428571429</ele><time>2026-04-26T09:01:33Z</time></trkpt><trkpt lat="38.031603732090645" lon="13.359517395802321"><ele>593.1428571428571</ele><time>2026-04-26T09:01:34Z</time></trkpt><trkpt lat="38.03152145720147" lon="13.359534415378683"><ele>594.4285714285714</ele><time>2026-04-26T09:01:35Z</time></trkpt><trkpt lat="38.0314467855818" lon="13.359541047852858"><ele>595.7142857142858</ele><time>2026-04-26T09:01:36Z</time></trkpt><trkpt lat="38.031377624330815" lon="13.359536985340991"><ele>597.0</ele><time>2026-04-26T09:01:37Z</time></trkpt><trkpt lat="38.031308720340235" lon="13.359512702071312"><ele>597.0000000000001</ele><time>2026-04-26T09:01:38Z</time></trkpt><trkpt lat="38.03124461123446" lon="13.35947825847303"><ele>597.0</ele><time>2026-04-26T09:01:39Z</time></trkpt><trkpt lat="38.03118105413194" lon="13.359434474754767"><ele>597.0</ele><time>2026-04-26T09:01:40Z</time></trkpt><trkpt lat="38.03112543855023" lon="13.35937078183077"><ele>597.0</ele><time>2026-04-26T09:01:41Z</time></trkpt><trkpt lat="38.03107588465594" lon="13.359307231611293"><ele>597.0</ele><time>2026-04-26T09:01:42Z</time></trkpt><trkpt lat="38.03102338023993" lon="13.359231266963118"><ele>597.0000000000001</ele><time>2026-04-26T09:01:43Z</time></trkpt><trkpt lat="38.03098081237392" lon="13.359147837531426"><ele>597.0</ele><time>2026-04-26T09:01:44Z</time></trkpt><trkpt lat="38.030925937723424" lon="13.359032022933704"><ele>597.0</ele><time>2026-04-26T09:01:46Z</time></trkpt><trkpt lat="38.03086444705204" lon="13.358941238723437"><ele>597.0</ele><time>2026-04-26T09:01:48Z</time></trkpt><trkpt lat="38.030773707830086" lon="13.358860725944888"><ele>597.0</ele><time>2026-04-26T09:01:50Z</time></trkpt><trkpt lat="38.03068291729821" lon="13.35885109490699"><ele>597.0</ele><time>2026-04-26T09:01:52Z</time></trkpt><trkpt lat="38.03061804954834" lon="13.358865219617591"><ele>597.0</ele><time>2026-04-26T09:01:53Z</time></trkpt><trkpt lat="38.03055166431057" lon="13.358874874621058"><ele>597.0</ele><time>2026-04-26T09:01:54Z</time></trkpt><trkpt lat="38.03048147011881" lon="13.358887690234479"><ele>596.5</ele><time>2026-04-26T09:01:55Z</time></trkpt><trkpt lat="38.030409007574846" lon="13.358893742376614"><ele>596.0</ele><time>2026-04-26T09:01:56Z</time></trkpt><trkpt lat="38.03033300631112" lon="13.358902616461451"><ele>595.5</ele><time>2026-04-26T09:01:57Z</time></trkpt><trkpt lat="38.03025274416412" lon="13.358916302427827"><ele>595.0</ele><time>2026-04-26T09:01:58Z</time></trkpt><trkpt lat="38.030173863141385" lon="13.358928438801069"><ele>594.5</ele><time>2026-04-26T09:01:59Z</time></trkpt><trkpt lat="38.030103919818785" lon="13.358952627538006"><ele>594.0</ele><time>2026-04-26T09:02:00Z</time></trkpt><trkpt lat="38.030030181785335" lon="13.358976316743053"><ele>595.6666666666666</ele><time>2026-04-26T09:02:01Z</time></trkpt><trkpt lat="38.029969374569674" lon="13.359020796015338"><ele>597.3333333333334</ele><time>2026-04-26T09:02:02Z</time></trkpt><trkpt lat="38.02985657717286" lon="13.359092590663037"><ele>599.0</ele><time>2026-04-26T09:02:04Z</time></trkpt><trkpt lat="38.02978935473109" lon="13.359130945325987"><ele>600.6666666666667</ele><time>2026-04-26T09:02:05Z</time></trkpt><trkpt lat="38.02972222788103" lon="13.359177070293658"><ele>602.3333333333334</ele><time>2026-04-26T09:02:06Z</time></trkpt><trkpt lat="38.02965830983845" lon="13.359224471303577"><ele>604.0</ele><time>2026-04-26T09:02:07Z</time></trkpt><trkpt lat="38.02959478123551" lon="13.359277247514054"><ele>604.0</ele><time>2026-04-26T09:02:08Z</time></trkpt><trkpt lat="38.029534831158486" lon="13.359331453366718"><ele>604.0</ele><time>2026-04-26T09:02:09Z</time></trkpt><trkpt lat="38.029428441603606" lon="13.359408349824621"><ele>604.0</ele><time>2026-04-26T09:02:11Z</time></trkpt><trkpt lat="38.02936595308528" lon="13.359445968833377"><ele>604.0</ele><time>2026-04-26T09:02:12Z</time></trkpt><trkpt lat="38.02923559365122" lon="13.359472624674384"><ele>604.0</ele><time>2026-04-26T09:02:14Z</time></trkpt><trkpt lat="38.02916478619537" lon="13.359469083391332"><ele>601.0</ele><time>2026-04-26T09:02:14.999Z</time></trkpt><trkpt lat="38.029086884641785" lon="13.35945661867738"><ele>598.0</ele><time>2026-04-26T09:02:15.999Z</time></trkpt><trkpt lat="38.029025432902586" lon="13.359432790564837"><ele>595.0</ele><time>2026-04-26T09:02:16.999Z</time></trkpt><trkpt lat="38.02891273932606" lon="13.359403316865201"><ele>592.0</ele><time>2026-04-26T09:02:18.999Z</time></trkpt><trkpt lat="38.02882222692284" lon="13.359340499569132"><ele>589.0</ele><time>2026-04-26T09:02:20.999Z</time></trkpt><trkpt lat="38.02878763925959" lon="13.359270354937616"><ele>586.0</ele><time>2026-04-26T09:02:21.999Z</time></trkpt><trkpt lat="38.02875416028666" lon="13.359187039747377"><ele>586.0</ele><time>2026-04-26T09:02:22.999Z</time></trkpt><trkpt lat="38.02872051235391" lon="13.359090307142264"><ele>586.0</ele><time>2026-04-26T09:02:23.999Z</time></trkpt><trkpt lat="38.02868236815936" lon="13.359006312161206"><ele>586.0</ele><time>2026-04-26T09:02:24.999Z</time></trkpt><trkpt lat="38.028643730132096" lon="13.358922129434646"><ele>586.0</ele><time>2026-04-26T09:02:25.999Z</time></trkpt><trkpt lat="38.02861306977233" lon="13.358841397412423"><ele>586.0</ele><time>2026-04-26T09:02:26.999Z</time></trkpt><trkpt lat="38.02856795577266" lon="13.358754722355386"><ele>586.0</ele><time>2026-04-26T09:02:27.999Z</time></trkpt><trkpt lat="38.02854093075733" lon="13.358671108987435"><ele>589.0</ele><time>2026-04-26T09:02:28.999Z</time></trkpt><trkpt lat="38.02846755347465" lon="13.358562697948484"><ele>592.0</ele><time>2026-04-26T09:02:30.999Z</time></trkpt><trkpt lat="38.02838897667707" lon="13.358440449372006"><ele>595.0</ele><time>2026-04-26T09:02:32.999Z</time></trkpt><trkpt lat="38.028307713288456" lon="13.358369817579314"><ele>598.0</ele><time>2026-04-26T09:02:34.999Z</time></trkpt><trkpt lat="38.028194189372215" lon="13.35831712285687"><ele>598.0</ele><time>2026-04-26T09:02:36.999Z</time></trkpt><trkpt lat="38.028089990053665" lon="13.358304914958326"><ele>598.0</ele><time>2026-04-26T09:02:38.999Z</time></trkpt><trkpt lat="38.02801373767608" lon="13.35829071838315"><ele>598.0</ele><time>2026-04-26T09:02:40.999Z</time></trkpt><trkpt lat="38.027909053309884" lon="13.358254760400992"><ele>598.0</ele><time>2026-04-26T09:02:42.999Z</time></trkpt><trkpt lat="38.027792374636306" lon="13.35826100973334"><ele>598.0</ele><time>2026-04-26T09:02:44.999Z</time></trkpt><trkpt lat="38.027661650388495" lon="13.358243291203596"><ele>598.0</ele><time>2026-04-26T09:02:46.999Z</time></trkpt><trkpt lat="38.02754630598481" lon="13.358212219074346"><ele>598.0</ele><time>2026-04-26T09:02:48.999Z</time></trkpt><trkpt lat="38.027422656979816" lon="13.358169402742952"><ele>598.0</ele><time>2026-04-26T09:02:50.999Z</time></trkpt><trkpt lat="38.02735401172539" lon="13.358147129010097"><ele>598.0</ele><time>2026-04-26T09:02:51.999Z</time></trkpt><trkpt lat="38.02729015870861" lon="13.358122397216789"><ele>598.0</ele><time>2026-04-26T09:02:52.999Z</time></trkpt><trkpt lat="38.02719906705343" lon="13.358083127705177"><ele>596.6</ele><time>2026-04-26T09:02:54.999Z</time></trkpt><trkpt lat="38.02713867002891" lon="13.358059790694405"><ele>595.1999999999999</ele><time>2026-04-26T09:02:55.999Z</time></trkpt><trkpt lat="38.02702432298707" lon="13.357999630781357"><ele>593.8</ele><time>2026-04-26T09:02:57.999Z</time></trkpt><trkpt lat="38.0269354117108" lon="13.357926760584762"><ele>592.4</ele><time>2026-04-26T09:02:59.999Z</time></trkpt><trkpt lat="38.02684356188716" lon="13.357855768959437"><ele>591.0</ele><time>2026-04-26T09:03:02Z</time></trkpt><trkpt lat="38.02678389383139" lon="13.357826495739086"><ele>593.8</ele><time>2026-04-26T09:03:03Z</time></trkpt><trkpt lat="38.026678580041235" lon="13.357796286206078"><ele>596.6</ele><time>2026-04-26T09:03:05Z</time></trkpt><trkpt lat="38.026572488506126" lon="13.357785489781152"><ele>599.4</ele><time>2026-04-26T09:03:07Z</time></trkpt><trkpt lat="38.0264428292818" lon="13.357824189534835"><ele>602.2</ele><time>2026-04-26T09:03:09Z</time></trkpt><trkpt lat="38.026368378710046" lon="13.357851665784542"><ele>605.0</ele><time>2026-04-26T09:03:10Z</time></trkpt><trkpt lat="38.02630487539872" lon="13.35787165837936"><ele>605.0</ele><time>2026-04-26T09:03:11Z</time></trkpt><trkpt lat="38.02624007257323" lon="13.357902151299827"><ele>605.0</ele><time>2026-04-26T09:03:12Z</time></trkpt><trkpt lat="38.02617344488699" lon="13.357926102759253"><ele>605.0</ele><time>2026-04-26T09:03:13Z</time></trkpt><trkpt lat="38.026116345553326" lon="13.357964991285176"><ele>605.0</ele><time>2026-04-26T09:03:14Z</time></trkpt><trkpt lat="38.02605016002906" lon="13.357913888736558"><ele>605.0</ele><time>2026-04-26T09:03:15Z</time></trkpt><trkpt lat="38.025938643645404" lon="13.357842696677002"><ele>605.0</ele><time>2026-04-26T09:03:17Z</time></trkpt><trkpt lat="38.02586516750166" lon="13.35778784193899"><ele>603.6666666666666</ele><time>2026-04-26T09:03:19Z</time></trkpt><trkpt lat="38.02580126685275" lon="13.357735799744452"><ele>602.3333333333333</ele><time>2026-04-26T09:03:21Z</time></trkpt><trkpt lat="38.025700826521245" lon="13.357681497149049"><ele>601.0</ele><time>2026-04-26T09:03:23Z</time></trkpt><trkpt lat="38.02561893378787" lon="13.357638719108321"><ele>599.6666666666666</ele><time>2026-04-26T09:03:25Z</time></trkpt><trkpt lat="38.02554765688488" lon="13.357652833324149"><ele>598.3333333333334</ele><time>2026-04-26T09:03:27Z</time></trkpt><trkpt lat="38.025481319823754" lon="13.357624885457618"><ele>597.0</ele><time>2026-04-26T09:03:29Z</time></trkpt><trkpt lat="38.02538867989889" lon="13.357623969406644"><ele>597.0</ele><time>2026-04-26T09:03:31Z</time></trkpt><trkpt lat="38.02530994957977" lon="13.357599594822236"><ele>597.0</ele><time>2026-04-26T09:03:33Z</time></trkpt><trkpt lat="38.025245985932344" lon="13.357570895707244"><ele>597.0</ele><time>2026-04-26T09:03:35Z</time></trkpt><trkpt lat="38.0251821266763" lon="13.357584636226255"><ele>597.0</ele><time>2026-04-26T09:03:37Z</time></trkpt><trkpt lat="38.025094099509616" lon="13.357507000334445"><ele>597.0</ele><time>2026-04-26T09:03:39Z</time></trkpt><trkpt lat="38.02503271359208" lon="13.357453466567586"><ele>597.0</ele><time>2026-04-26T09:03:40Z</time></trkpt><trkpt lat="38.02498550848799" lon="13.35738744067699"><ele>597.0</ele><time>2026-04-26T09:03:41Z</time></trkpt><trkpt lat="38.02493216301346" lon="13.357272419050293"><ele>597.0</ele><time>2026-04-26T09:03:43Z</time></trkpt><trkpt lat="38.02491066878726" lon="13.357131650279063"><ele>597.0</ele><time>2026-04-26T09:03:45Z</time></trkpt><trkpt lat="38.024870101513706" lon="13.356985963898614"><ele>597.0</ele><time>2026-04-26T09:03:47Z</time></trkpt><trkpt lat="38.024797983828414" lon="13.356898953830353"><ele>597.0</ele><time>2026-04-26T09:03:49Z</time></trkpt><trkpt lat="38.02473133260503" lon="13.356874201669545"><ele>600.6666666666666</ele><time>2026-04-26T09:03:50Z</time></trkpt><trkpt lat="38.02460424737621" lon="13.356888479057073"><ele>604.3333333333334</ele><time>2026-04-26T09:03:52Z</time></trkpt><trkpt lat="38.024528165842206" lon="13.356908541447082"><ele>608.0</ele><time>2026-04-26T09:03:53Z</time></trkpt><trkpt lat="38.02446168856233" lon="13.356928643268338"><ele>611.6666666666667</ele><time>2026-04-26T09:03:54Z</time></trkpt><trkpt lat="38.0243918962126" lon="13.356946787622949"><ele>615.3333333333334</ele><time>2026-04-26T09:03:55Z</time></trkpt><trkpt lat="38.024320828573394" lon="13.356959777997432"><ele>619.0</ele><time>2026-04-26T09:03:56Z</time></trkpt><trkpt lat="38.024238134462365" lon="13.35697717667899"><ele>619.0</ele><time>2026-04-26T09:03:57Z</time></trkpt><trkpt lat="38.024162142563036" lon="13.356985597103552"><ele>619.0</ele><time>2026-04-26T09:03:58Z</time></trkpt><trkpt lat="38.02409071481441" lon="13.357013941688216"><ele>619.0</ele><time>2026-04-26T09:03:59Z</time></trkpt><trkpt lat="38.02403703047351" lon="13.357059007879464"><ele>619.0</ele><time>2026-04-26T09:04:00Z</time></trkpt><trkpt lat="38.023990668465665" lon="13.357113349665559"><ele>619.0</ele><time>2026-04-26T09:04:01Z</time></trkpt><trkpt lat="38.023945855621626" lon="13.357188271725812"><ele>619.0</ele><time>2026-04-26T09:04:02Z</time></trkpt><trkpt lat="38.02391019689606" lon="13.357285560555084"><ele>619.0</ele><time>2026-04-26T09:04:03Z</time></trkpt><trkpt lat="38.02388115409814" lon="13.357397270279712"><ele>622.2</ele><time>2026-04-26T09:04:04Z</time></trkpt><trkpt lat="38.02385299664321" lon="13.35751546360259"><ele>625.4</ele><time>2026-04-26T09:04:05Z</time></trkpt><trkpt lat="38.02382845235855" lon="13.357635010125403"><ele>628.6</ele><time>2026-04-26T09:04:06Z</time></trkpt><trkpt lat="38.023805494650524" lon="13.357763572780414"><ele>631.8</ele><time>2026-04-26T09:04:07Z</time></trkpt><trkpt lat="38.0237768055334" lon="13.357892297192986"><ele>635.0</ele><time>2026-04-26T09:04:08Z</time></trkpt><trkpt lat="38.02374154642606" lon="13.358017076444016"><ele>632.4</ele><time>2026-04-26T09:04:09Z</time></trkpt><trkpt lat="38.02370755787226" lon="13.358145223963612"><ele>629.8</ele><time>2026-04-26T09:04:10Z</time></trkpt><trkpt lat="38.023679709112656" lon="13.358269935892384"><ele>627.2</ele><time>2026-04-26T09:04:11Z</time></trkpt><trkpt lat="38.02365816018458" lon="13.358400021163144"><ele>624.6</ele><time>2026-04-26T09:04:12Z</time></trkpt><trkpt lat="38.023635341986136" lon="13.358538756693365"><ele>622.0</ele><time>2026-04-26T09:04:13Z</time></trkpt><trkpt lat="38.023607343910086" lon="13.358656767829416"><ele>622.0</ele><time>2026-04-26T09:04:13.999Z</time></trkpt><trkpt lat="38.023575684778066" lon="13.358765836674312"><ele>622.0</ele><time>2026-04-26T09:04:14.999Z</time></trkpt><trkpt lat="38.0235472108835" lon="13.358866931319106"><ele>622.0</ele><time>2026-04-26T09:04:15.999Z</time></trkpt><trkpt lat="38.023503360346055" lon="13.358956654545722"><ele>622.0</ele><time>2026-04-26T09:04:16.999Z</time></trkpt><trkpt lat="38.023446702468654" lon="13.359042551294932"><ele>622.0</ele><time>2026-04-26T09:04:17.999Z</time></trkpt><trkpt lat="38.02338705488415" lon="13.359104894722254"><ele>622.0</ele><time>2026-04-26T09:04:18.999Z</time></trkpt><trkpt lat="38.023316790615276" lon="13.359157429946995"><ele>623.8333333333334</ele><time>2026-04-26T09:04:19.999Z</time></trkpt><trkpt lat="38.023246725002906" lon="13.359200928748914"><ele>625.6666666666667</ele><time>2026-04-26T09:04:20.999Z</time></trkpt><trkpt lat="38.02316735484237" lon="13.359238985258493"><ele>627.5</ele><time>2026-04-26T09:04:21.999Z</time></trkpt><trkpt lat="38.02307641012956" lon="13.3592720730188"><ele>629.3333333333334</ele><time>2026-04-26T09:04:22.999Z</time></trkpt><trkpt lat="38.02299454282719" lon="13.359287044464946"><ele>631.1666666666666</ele><time>2026-04-26T09:04:23.999Z</time></trkpt><trkpt lat="38.02292482345697" lon="13.359299603114666"><ele>633.0</ele><time>2026-04-26T09:04:24.999Z</time></trkpt><trkpt lat="38.02286386467272" lon="13.35932906129973"><ele>633.0</ele><time>2026-04-26T09:04:25.999Z</time></trkpt><trkpt lat="38.02281358432562" lon="13.359385277775731"><ele>633.0</ele><time>2026-04-26T09:04:26.999Z</time></trkpt><trkpt lat="38.02277524244533" lon="13.35946162689039"><ele>633.0</ele><time>2026-04-26T09:04:27.999Z</time></trkpt><trkpt lat="38.02274707165506" lon="13.359551140524735"><ele>633.0</ele><time>2026-04-26T09:04:28.999Z</time></trkpt><trkpt lat="38.022725373531756" lon="13.359649396958655"><ele>633.0</ele><time>2026-04-26T09:04:29.999Z</time></trkpt><trkpt lat="38.02271801419312" lon="13.359753253983929"><ele>633.0</ele><time>2026-04-26T09:04:30.999Z</time></trkpt><trkpt lat="38.02270394423816" lon="13.3598526217848"><ele>629.8333333333334</ele><time>2026-04-26T09:04:31.999Z</time></trkpt><trkpt lat="38.022690375103416" lon="13.359950948790846"><ele>626.6666666666666</ele><time>2026-04-26T09:04:32.999Z</time></trkpt><trkpt lat="38.02267559362594" lon="13.360051220109785"><ele>623.5</ele><time>2026-04-26T09:04:33.999Z</time></trkpt><trkpt lat="38.022663774042506" lon="13.36015322709973"><ele>620.3333333333333</ele><time>2026-04-26T09:04:34.999Z</time></trkpt><trkpt lat="38.02265932987215" lon="13.360258304509605"><ele>617.1666666666666</ele><time>2026-04-26T09:04:35.999Z</time></trkpt><trkpt lat="38.022667234012765" lon="13.36034878278228"><ele>614.0</ele><time>2026-04-26T09:04:36.999Z</time></trkpt><trkpt lat="38.022682168645964" lon="13.36044390926323"><ele>613.1666666666666</ele><time>2026-04-26T09:04:37.999Z</time></trkpt><trkpt lat="38.02268251841625" lon="13.360534609406969"><ele>612.3333333333333</ele><time>2026-04-26T09:04:38.999Z</time></trkpt><trkpt lat="38.02266844379987" lon="13.360638266623845"><ele>611.5</ele><time>2026-04-26T09:04:39.999Z</time></trkpt><trkpt lat="38.02264346905465" lon="13.36075273745243"><ele>610.6666666666666</ele><time>2026-04-26T09:04:40.999Z</time></trkpt><trkpt lat="38.022627288997015" lon="13.360865314676879"><ele>609.8333333333334</ele><time>2026-04-26T09:04:41.999Z</time></trkpt><trkpt lat="38.02260986747286" lon="13.360980847625395"><ele>609.0</ele><time>2026-04-26T09:04:42.999Z</time></trkpt><trkpt lat="38.022588788397144" lon="13.361106919647424"><ele>609.0</ele><time>2026-04-26T09:04:43.999Z</time></trkpt><trkpt lat="38.02256343254863" lon="13.361223802556083"><ele>609.0</ele><time>2026-04-26T09:04:44.999Z</time></trkpt><trkpt lat="38.02254287534583" lon="13.361312614435974"><ele>609.0</ele><time>2026-04-26T09:04:45.999Z</time></trkpt><trkpt lat="38.022520337450125" lon="13.361401529817924"><ele>609.0</ele><time>2026-04-26T09:04:46.999Z</time></trkpt><trkpt lat="38.022491329315685" lon="13.361476695575151"><ele>609.0</ele><time>2026-04-26T09:04:47.999Z</time></trkpt><trkpt lat="38.022434811061714" lon="13.361543587400844"><ele>609.0</ele><time>2026-04-26T09:04:48.999Z</time></trkpt><trkpt lat="38.02237236320324" lon="13.361601614130526"><ele>608.6666666666666</ele><time>2026-04-26T09:04:49.999Z</time></trkpt><trkpt lat="38.02230587125749" lon="13.361647965441932"><ele>608.3333333333334</ele><time>2026-04-26T09:04:50.999Z</time></trkpt><trkpt lat="38.02222935308381" lon="13.361670691823267"><ele>608.0</ele><time>2026-04-26T09:04:51.999Z</time></trkpt><trkpt lat="38.0221465400143" lon="13.361679501291027"><ele>607.6666666666667</ele><time>2026-04-26T09:04:52.999Z</time></trkpt><trkpt lat="38.02205777685601" lon="13.361692245335572"><ele>607.3333333333334</ele><time>2026-04-26T09:04:53.999Z</time></trkpt><trkpt lat="38.02197453184872" lon="13.361702837444424"><ele>607.0</ele><time>2026-04-26T09:04:54.999Z</time></trkpt><trkpt lat="38.021886721145044" lon="13.36171397202615"><ele>607.0</ele><time>2026-04-26T09:04:55.999Z</time></trkpt><trkpt lat="38.02180837534831" lon="13.361727065137053"><ele>607.0</ele><time>2026-04-26T09:04:56.999Z</time></trkpt><trkpt lat="38.021648687112396" lon="13.36177446757341"><ele>607.0</ele><time>2026-04-26T09:04:58.999Z</time></trkpt><trkpt lat="38.02154370804615" lon="13.361811413918003"><ele>607.0</ele><time>2026-04-26T09:04:59.999Z</time></trkpt><trkpt lat="38.02144420984873" lon="13.361833840701268"><ele>609.0</ele><time>2026-04-26T09:05:00.999Z</time></trkpt><trkpt lat="38.021339477880254" lon="13.361852252558291"><ele>611.0</ele><time>2026-04-26T09:05:01.999Z</time></trkpt><trkpt lat="38.02124191670758" lon="13.361865613054908"><ele>613.0</ele><time>2026-04-26T09:05:02.999Z</time></trkpt><trkpt lat="38.02114812715016" lon="13.36188861923223"><ele>615.0</ele><time>2026-04-26T09:05:03.999Z</time></trkpt><trkpt lat="38.021052933152646" lon="13.361900116854445"><ele>617.0</ele><time>2026-04-26T09:05:04.999Z</time></trkpt><trkpt lat="38.02097078928523" lon="13.36190250739971"><ele>617.0</ele><time>2026-04-26T09:05:05.999Z</time></trkpt><trkpt lat="38.020887107893174" lon="13.361906211488641"><ele>617.0</ele><time>2026-04-26T09:05:07Z</time></trkpt><trkpt lat="38.0208007649214" lon="13.361915312492531"><ele>617.0</ele><time>2026-04-26T09:05:08Z</time></trkpt><trkpt lat="38.020701482427455" lon="13.361931428205072"><ele>617.0</ele><time>2026-04-26T09:05:09Z</time></trkpt><trkpt lat="38.02060480493862" lon="13.36195360986099"><ele>617.0</ele><time>2026-04-26T09:05:10Z</time></trkpt><trkpt lat="38.020504499986956" lon="13.361974444450796"><ele>616.8333333333333</ele><time>2026-04-26T09:05:11Z</time></trkpt><trkpt lat="38.02040070696551" lon="13.361986857366649"><ele>616.6666666666666</ele><time>2026-04-26T09:05:12Z</time></trkpt><trkpt lat="38.020309838078994" lon="13.361985981647814"><ele>616.5</ele><time>2026-04-26T09:05:13Z</time></trkpt><trkpt lat="38.02021772677112" lon="13.361983010489224"><ele>616.3333333333334</ele><time>2026-04-26T09:05:14Z</time></trkpt><trkpt lat="38.020137764326165" lon="13.361981243959598"><ele>616.1666666666667</ele><time>2026-04-26T09:05:15Z</time></trkpt><trkpt lat="38.02006465089799" lon="13.361974313921142"><ele>616.0</ele><time>2026-04-26T09:05:16Z</time></trkpt><trkpt lat="38.019940046861706" lon="13.361951442212538"><ele>614.2</ele><time>2026-04-26T09:05:18Z</time></trkpt><trkpt lat="38.01983855724727" lon="13.361948079124291"><ele>612.4000000000001</ele><time>2026-04-26T09:05:20Z</time></trkpt><trkpt lat="38.01969727380692" lon="13.361982173937555"><ele>610.6</ele><time>2026-04-26T09:05:22Z</time></trkpt><trkpt lat="38.019617771391815" lon="13.361997191365512"><ele>608.8000000000001</ele><time>2026-04-26T09:05:23Z</time></trkpt><trkpt lat="38.01955034237863" lon="13.361978674213285"><ele>607.0</ele><time>2026-04-26T09:05:24Z</time></trkpt><trkpt lat="38.01943394808876" lon="13.361991745579612"><ele>607.0</ele><time>2026-04-26T09:05:26Z</time></trkpt><trkpt lat="38.01932907078605" lon="13.362022080583587"><ele>607.0</ele><time>2026-04-26T09:05:28Z</time></trkpt><trkpt lat="38.01920345247406" lon="13.362024256581904"><ele>607.0</ele><time>2026-04-26T09:05:30Z</time></trkpt><trkpt lat="38.019086541740236" lon="13.361998274152324"><ele>607.0</ele><time>2026-04-26T09:05:32Z</time></trkpt><trkpt lat="38.0189891792359" lon="13.362045804103488"><ele>606.4</ele><time>2026-04-26T09:05:34Z</time></trkpt><trkpt lat="38.01895330651912" lon="13.362158163405498"><ele>605.8000000000001</ele><time>2026-04-26T09:05:36Z</time></trkpt><trkpt lat="38.01893900000388" lon="13.362292771875264"><ele>605.2</ele><time>2026-04-26T09:05:38Z</time></trkpt><trkpt lat="38.01891332902901" lon="13.362400267937574"><ele>604.6</ele><time>2026-04-26T09:05:40Z</time></trkpt><trkpt lat="38.018872572875914" lon="13.362490662237303"><ele>604.0</ele><time>2026-04-26T09:05:42Z</time></trkpt><trkpt lat="38.01880111150107" lon="13.362530080231155"><ele>601.6</ele><time>2026-04-26T09:05:45Z</time></trkpt><trkpt lat="38.01868403313079" lon="13.3625249453806"><ele>599.2</ele><time>2026-04-26T09:05:47Z</time></trkpt><trkpt lat="38.01859149914406" lon="13.362508382734616"><ele>596.8000000000001</ele><time>2026-04-26T09:05:48Z</time></trkpt><trkpt lat="38.01848561057341" lon="13.362482140508009"><ele>594.4</ele><time>2026-04-26T09:05:49Z</time></trkpt><trkpt lat="38.018369869870625" lon="13.362462403688282"><ele>592.0</ele><time>2026-04-26T09:05:50Z</time></trkpt><trkpt lat="38.018252497136174" lon="13.362449180554306"><ele>591.6</ele><time>2026-04-26T09:05:51Z</time></trkpt><trkpt lat="38.018134796357195" lon="13.362436707589318"><ele>591.2</ele><time>2026-04-26T09:05:52Z</time></trkpt><trkpt lat="38.01803538913649" lon="13.362423951870062"><ele>590.8</ele><time>2026-04-26T09:05:53Z</time></trkpt><trkpt lat="38.017945271727065" lon="13.362409757085802"><ele>590.4</ele><time>2026-04-26T09:05:54Z</time></trkpt><trkpt lat="38.017866598553944" lon="13.362395384575905"><ele>590.0</ele><time>2026-04-26T09:05:55Z</time></trkpt><trkpt lat="38.01778059443753" lon="13.362379471644536"><ele>590.0</ele><time>2026-04-26T09:05:56Z</time></trkpt><trkpt lat="38.017683521650184" lon="13.362363617392898"><ele>590.0</ele><time>2026-04-26T09:05:57Z</time></trkpt><trkpt lat="38.01756390606539" lon="13.362341251529637"><ele>590.0</ele><time>2026-04-26T09:05:58Z</time></trkpt><trkpt lat="38.017419902557734" lon="13.362323277234"><ele>590.0</ele><time>2026-04-26T09:05:59Z</time></trkpt><trkpt lat="38.01725658761814" lon="13.362298360310781"><ele>588.6666666666666</ele><time>2026-04-26T09:06:00Z</time></trkpt><trkpt lat="38.01708014222501" lon="13.362270507067972"><ele>587.3333333333334</ele><time>2026-04-26T09:06:01Z</time></trkpt><trkpt lat="38.016887146454195" lon="13.362241730928563"><ele>586.0</ele><time>2026-04-26T09:06:02Z</time></trkpt><trkpt lat="38.01665812575052" lon="13.36221262696451"><ele>593.0</ele><time>2026-04-26T09:06:03Z</time></trkpt><trkpt lat="38.01642636305681" lon="13.362185038465856"><ele>600.0</ele><time>2026-04-26T09:06:04Z</time></trkpt><trkpt lat="38.01619525038541" lon="13.36216072086445"><ele>600.0</ele><time>2026-04-26T09:06:05Z</time></trkpt><trkpt lat="38.015976752448" lon="13.362144890000861"><ele>600.0</ele><time>2026-04-26T09:06:06Z</time></trkpt><trkpt lat="38.01577891316097" lon="13.362135158909506"><ele>600.0</ele><time>2026-04-26T09:06:07Z</time></trkpt><trkpt lat="38.015596032740454" lon="13.36213302976582"><ele>598.3333333333334</ele><time>2026-04-26T09:06:08Z</time></trkpt><trkpt lat="38.01542279013839" lon="13.362119863408813"><ele>596.6666666666667</ele><time>2026-04-26T09:06:09Z</time></trkpt><trkpt lat="38.015244349823355" lon="13.362091302563735"><ele>595.0</ele><time>2026-04-26T09:06:10Z</time></trkpt><trkpt lat="38.01506922929658" lon="13.362027016886454"><ele>591.6666666666667</ele><time>2026-04-26T09:06:10.999Z</time></trkpt><trkpt lat="38.014873271091325" lon="13.361935888263863"><ele>588.3333333333334</ele><time>2026-04-26T09:06:11.999Z</time></trkpt><trkpt lat="38.01467372113774" lon="13.361831812004382"><ele>585.0</ele><time>2026-04-26T09:06:12.999Z</time></trkpt><trkpt lat="38.01449992417481" lon="13.361728610245814"><ele>585.0</ele><time>2026-04-26T09:06:13.999Z</time></trkpt><trkpt lat="38.01433681971446" lon="13.361631217750622"><ele>585.0</ele><time>2026-04-26T09:06:14.999Z</time></trkpt><trkpt lat="38.014168243265594" lon="13.361512096745418"><ele>585.0</ele><time>2026-04-26T09:06:15.999Z</time></trkpt><trkpt lat="38.013998424025075" lon="13.361373708972023"><ele>585.0</ele><time>2026-04-26T09:06:16.999Z</time></trkpt><trkpt lat="38.013837919603944" lon="13.361219739036208"><ele>585.0</ele><time>2026-04-26T09:06:17.999Z</time></trkpt><trkpt lat="38.01367726035104" lon="13.361051671866722"><ele>585.0</ele><time>2026-04-26T09:06:18.999Z</time></trkpt><trkpt lat="38.013518657621184" lon="13.360875718785218"><ele>585.0</ele><time>2026-04-26T09:06:19.999Z</time></trkpt><trkpt lat="38.013355838028296" lon="13.36069552653179"><ele>585.0</ele><time>2026-04-26T09:06:20.999Z</time></trkpt><trkpt lat="38.01318621462233" lon="13.360510013308936"><ele>585.0</ele><time>2026-04-26T09:06:21.999Z</time></trkpt><trkpt lat="38.01301038577178" lon="13.36032771122014"><ele>584.6666666666666</ele><time>2026-04-26T09:06:22.999Z</time></trkpt><trkpt lat="38.01283727738693" lon="13.360151282053415"><ele>584.3333333333333</ele><time>2026-04-26T09:06:23.999Z</time></trkpt><trkpt lat="38.01268920721737" lon="13.359997574922525"><ele>584.0</ele><time>2026-04-26T09:06:24.999Z</time></trkpt><trkpt lat="38.01255743548412" lon="13.359856111795136"><ele>583.75</ele><time>2026-04-26T09:06:25.999Z</time></trkpt><trkpt lat="38.01244788863822" lon="13.359735078017078"><ele>583.5</ele><time>2026-04-26T09:06:26.999Z</time></trkpt><trkpt lat="38.01232875883518" lon="13.35960350733082"><ele>583.25</ele><time>2026-04-26T09:06:27.999Z</time></trkpt><trkpt lat="38.012262825435336" lon="13.35950451330232"><ele>583.0</ele><time>2026-04-26T09:06:28.999Z</time></trkpt><trkpt lat="38.01220806498684" lon="13.359420585069449"><ele>583.3333333333334</ele><time>2026-04-26T09:06:29.999Z</time></trkpt><trkpt lat="38.012160551637926" lon="13.359336202013422"><ele>583.6666666666667</ele><time>2026-04-26T09:06:30.999Z</time></trkpt><trkpt lat="38.012108634050314" lon="13.359265288943963"><ele>584.0</ele><time>2026-04-26T09:06:31.999Z</time></trkpt><trkpt lat="38.01204564347534" lon="13.359224619521974"><ele>584.3333333333334</ele><time>2026-04-26T09:06:32.999Z</time></trkpt><trkpt lat="38.01196822177859" lon="13.359192469840167"><ele>584.6666666666666</ele><time>2026-04-26T09:06:33.999Z</time></trkpt><trkpt lat="38.01188890837506" lon="13.359136301278012"><ele>585.0</ele><time>2026-04-26T09:06:34.999Z</time></trkpt><trkpt lat="38.01180755182203" lon="13.359064890620889"><ele>585.0</ele><time>2026-04-26T09:06:35.999Z</time></trkpt><trkpt lat="38.01172858533684" lon="13.359001999518691"><ele>585.0</ele><time>2026-04-26T09:06:36.999Z</time></trkpt><trkpt lat="38.01166188163099" lon="13.358953567124285"><ele>585.0</ele><time>2026-04-26T09:06:37.999Z</time></trkpt><trkpt lat="38.01160009314285" lon="13.358918523204482"><ele>585.0</ele><time>2026-04-26T09:06:38.999Z</time></trkpt><trkpt lat="38.01152156908697" lon="13.358879647248779"><ele>585.0</ele><time>2026-04-26T09:06:39.999Z</time></trkpt><trkpt lat="38.011440435622966" lon="13.358866370977497"><ele>585.0</ele><time>2026-04-26T09:06:40.999Z</time></trkpt><trkpt lat="38.01134495220564" lon="13.358882209132746"><ele>583.75</ele><time>2026-04-26T09:06:41.999Z</time></trkpt><trkpt lat="38.011236101518115" lon="13.358913260920055"><ele>582.5</ele><time>2026-04-26T09:06:42.999Z</time></trkpt><trkpt lat="38.01111534160811" lon="13.35894568319686"><ele>581.25</ele><time>2026-04-26T09:06:43.999Z</time></trkpt><trkpt lat="38.01099693167077" lon="13.358968707435272"><ele>580.0</ele><time>2026-04-26T09:06:44.999Z</time></trkpt><trkpt lat="38.01087410669306" lon="13.358994291087773"><ele>580.5</ele><time>2026-04-26T09:06:45.999Z</time></trkpt><trkpt lat="38.01075263506184" lon="13.359024785259765"><ele>581.0</ele><time>2026-04-26T09:06:46.999Z</time></trkpt><trkpt lat="38.0106313316458" lon="13.359037639869097"><ele>581.5</ele><time>2026-04-26T09:06:47.999Z</time></trkpt><trkpt lat="38.01050593297718" lon="13.359060885401185"><ele>582.0</ele><time>2026-04-26T09:06:48.999Z</time></trkpt><trkpt lat="38.01037967116742" lon="13.359093120076402"><ele>582.0</ele><time>2026-04-26T09:06:49.999Z</time></trkpt><trkpt lat="38.010254329933844" lon="13.359122522567231"><ele>582.0</ele><time>2026-04-26T09:06:50.999Z</time></trkpt><trkpt lat="38.010125772986605" lon="13.35915615747377"><ele>582.0</ele><time>2026-04-26T09:06:51.999Z</time></trkpt><trkpt lat="38.00999520363234" lon="13.359177598601503"><ele>582.0</ele><time>2026-04-26T09:06:52.999Z</time></trkpt><trkpt lat="38.00987219967879" lon="13.359202270534707"><ele>582.0</ele><time>2026-04-26T09:06:53.999Z</time></trkpt><trkpt lat="38.00976552220007" lon="13.359220901439436"><ele>582.0</ele><time>2026-04-26T09:06:54.999Z</time></trkpt><trkpt lat="38.00966028148279" lon="13.35923855091094"><ele>582.0</ele><time>2026-04-26T09:06:55.999Z</time></trkpt><trkpt lat="38.0095591394296" lon="13.359244919661522"><ele>582.0</ele><time>2026-04-26T09:06:56.999Z</time></trkpt><trkpt lat="38.0094510865658" lon="13.359269675121169"><ele>582.0</ele><time>2026-04-26T09:06:57.999Z</time></trkpt><trkpt lat="38.009332212629715" lon="13.359312809168237"><ele>582.0</ele><time>2026-04-26T09:06:58.999Z</time></trkpt><trkpt lat="38.009210847914204" lon="13.359343711884103"><ele>582.0</ele><time>2026-04-26T09:06:59.999Z</time></trkpt><trkpt lat="38.009091593385634" lon="13.359368670947065"><ele>582.0</ele><time>2026-04-26T09:07:00.999Z</time></trkpt><trkpt lat="38.008960262856874" lon="13.359396181596729"><ele>582.0</ele><time>2026-04-26T09:07:01.999Z</time></trkpt><trkpt lat="38.008831956534365" lon="13.359417128496403"><ele>582.3333333333334</ele><time>2026-04-26T09:07:02.999Z</time></trkpt><trkpt lat="38.00870192967164" lon="13.359443634503933"><ele>582.6666666666667</ele><time>2026-04-26T09:07:03.999Z</time></trkpt><trkpt lat="38.008540551190414" lon="13.359465282847237"><ele>583.0</ele><time>2026-04-26T09:07:04.999Z</time></trkpt><trkpt lat="38.00837745397939" lon="13.359500320119567"><ele>584.0</ele><time>2026-04-26T09:07:05.999Z</time></trkpt><trkpt lat="38.00819075067366" lon="13.359537783947445"><ele>585.0</ele><time>2026-04-26T09:07:06.999Z</time></trkpt><trkpt lat="38.00800992111682" lon="13.359575254040505"><ele>586.0</ele><time>2026-04-26T09:07:07.999Z</time></trkpt><trkpt lat="38.007831310330474" lon="13.359610425684586"><ele>586.0</ele><time>2026-04-26T09:07:08.999Z</time></trkpt><trkpt lat="38.007651118219606" lon="13.359641904721773"><ele>586.0</ele><time>2026-04-26T09:07:09.999Z</time></trkpt><trkpt lat="38.00749128875856" lon="13.359671396211322"><ele>586.0</ele><time>2026-04-26T09:07:10.999Z</time></trkpt><trkpt lat="38.00733838091886" lon="13.359701889793739"><ele>586.0</ele><time>2026-04-26T09:07:11.999Z</time></trkpt><trkpt lat="38.00719357941918" lon="13.359733903327987"><ele>586.0</ele><time>2026-04-26T09:07:13Z</time></trkpt><trkpt lat="38.00704480533197" lon="13.359756910258149"><ele>586.0</ele><time>2026-04-26T09:07:14Z</time></trkpt><trkpt lat="38.00689133936303" lon="13.35977893465367"><ele>586.0</ele><time>2026-04-26T09:07:15Z</time></trkpt><trkpt lat="38.00675420734685" lon="13.359799121952848"><ele>586.0</ele><time>2026-04-26T09:07:16Z</time></trkpt><trkpt lat="38.006614652752724" lon="13.359816387982653"><ele>586.0</ele><time>2026-04-26T09:07:17Z</time></trkpt><trkpt lat="38.00649461541532" lon="13.35983495242518"><ele>586.0</ele><time>2026-04-26T09:07:18Z</time></trkpt><trkpt lat="38.006367655152" lon="13.359862246782146"><ele>586.0</ele><time>2026-04-26T09:07:19Z</time></trkpt><trkpt lat="38.006232896467914" lon="13.359889536348225"><ele>586.0</ele><time>2026-04-26T09:07:20Z</time></trkpt><trkpt lat="38.00609253860522" lon="13.359926221153048"><ele>586.0</ele><time>2026-04-26T09:07:21Z</time></trkpt><trkpt lat="38.00595494443869" lon="13.359953367953233"><ele>586.0</ele><time>2026-04-26T09:07:22Z</time></trkpt><trkpt lat="38.00583341282183" lon="13.359971548101136"><ele>585.5</ele><time>2026-04-26T09:07:23Z</time></trkpt><trkpt lat="38.005713810693024" lon="13.359982159204952"><ele>585.0</ele><time>2026-04-26T09:07:24Z</time></trkpt><trkpt lat="38.00559336669634" lon="13.359967177662725"><ele>584.5</ele><time>2026-04-26T09:07:25Z</time></trkpt><trkpt lat="38.005463198687615" lon="13.359926345812928"><ele>584.0</ele><time>2026-04-26T09:07:26Z</time></trkpt><trkpt lat="38.0053358747275" lon="13.359867591513947"><ele>584.0</ele><time>2026-04-26T09:07:27Z</time></trkpt><trkpt lat="38.00519837931721" lon="13.359813749456256"><ele>584.0</ele><time>2026-04-26T09:07:28Z</time></trkpt><trkpt lat="38.0050742659661" lon="13.359770255802179"><ele>584.0</ele><time>2026-04-26T09:07:29Z</time></trkpt><trkpt lat="38.004966931579226" lon="13.359732893017236"><ele>584.0</ele><time>2026-04-26T09:07:30Z</time></trkpt><trkpt lat="38.00486759459833" lon="13.359725811261123"><ele>584.25</ele><time>2026-04-26T09:07:31Z</time></trkpt><trkpt lat="38.00475104354915" lon="13.359748792435031"><ele>584.5</ele><time>2026-04-26T09:07:32Z</time></trkpt><trkpt lat="38.0046272150559" lon="13.35976080683149"><ele>584.75</ele><time>2026-04-26T09:07:33Z</time></trkpt><trkpt lat="38.004502935730784" lon="13.359728435657349"><ele>585.0</ele><time>2026-04-26T09:07:34Z</time></trkpt><trkpt lat="38.00437940340697" lon="13.359680944884385"><ele>586.25</ele><time>2026-04-26T09:07:35Z</time></trkpt><trkpt lat="38.00424450618998" lon="13.359644237842033"><ele>587.5</ele><time>2026-04-26T09:07:36Z</time></trkpt><trkpt lat="38.004098633303585" lon="13.359623251946877"><ele>588.75</ele><time>2026-04-26T09:07:37Z</time></trkpt><trkpt lat="38.00394279263373" lon="13.359603840302942"><ele>590.0</ele><time>2026-04-26T09:07:38Z</time></trkpt><trkpt lat="38.003796515573185" lon="13.359584680184334"><ele>590.25</ele><time>2026-04-26T09:07:39Z</time></trkpt><trkpt lat="38.00365218919588" lon="13.359563130081801"><ele>590.5</ele><time>2026-04-26T09:07:40Z</time></trkpt><trkpt lat="38.00350655128649" lon="13.359538732098384"><ele>590.75</ele><time>2026-04-26T09:07:41Z</time></trkpt><trkpt lat="38.003377783375896" lon="13.359508494181862"><ele>591.0</ele><time>2026-04-26T09:07:42Z</time></trkpt><trkpt lat="38.003257377920896" lon="13.359487900041783"><ele>590.4</ele><time>2026-04-26T09:07:43Z</time></trkpt><trkpt lat="38.003146351740796" lon="13.359469956393681"><ele>589.8</ele><time>2026-04-26T09:07:44Z</time></trkpt><trkpt lat="38.00304265859987" lon="13.359457673843414"><ele>589.1999999999999</ele><time>2026-04-26T09:07:45Z</time></trkpt><trkpt lat="38.002945650408044" lon="13.359447162437231"><ele>588.6</ele><time>2026-04-26T09:07:46Z</time></trkpt><trkpt lat="38.002841450180426" lon="13.359429722963387"><ele>588.0</ele><time>2026-04-26T09:07:47Z</time></trkpt><trkpt lat="38.00272098477834" lon="13.35940483344511"><ele>588.0</ele><time>2026-04-26T09:07:48Z</time></trkpt><trkpt lat="38.00259944050397" lon="13.359370337831132"><ele>588.0</ele><time>2026-04-26T09:07:49Z</time></trkpt><trkpt lat="38.00247080130871" lon="13.359339857413488"><ele>588.0</ele><time>2026-04-26T09:07:50Z</time></trkpt><trkpt lat="38.00233925023982" lon="13.359305814645023"><ele>588.0</ele><time>2026-04-26T09:07:51Z</time></trkpt><trkpt lat="38.00220586576942" lon="13.359262713246872"><ele>588.0</ele><time>2026-04-26T09:07:52Z</time></trkpt><trkpt lat="38.0020767016201" lon="13.359220960136733"><ele>588.0</ele><time>2026-04-26T09:07:53Z</time></trkpt><trkpt lat="38.001959945950496" lon="13.35917011059601"><ele>588.0</ele><time>2026-04-26T09:07:54Z</time></trkpt><trkpt lat="38.00184574575404" lon="13.359116532478925"><ele>588.0</ele><time>2026-04-26T09:07:55Z</time></trkpt><trkpt lat="38.00172470446742" lon="13.359073339891166"><ele>588.0</ele><time>2026-04-26T09:07:56Z</time></trkpt><trkpt lat="38.00160015410322" lon="13.359040928463324"><ele>588.0</ele><time>2026-04-26T09:07:57Z</time></trkpt><trkpt lat="38.00148834312696" lon="13.359016155663845"><ele>588.0</ele><time>2026-04-26T09:07:58Z</time></trkpt><trkpt lat="38.00140198685977" lon="13.359003283203664"><ele>588.0</ele><time>2026-04-26T09:07:59Z</time></trkpt><trkpt lat="38.001279228470075" lon="13.359016727175465"><ele>588.0</ele><time>2026-04-26T09:08:01Z</time></trkpt><trkpt lat="38.001202672809384" lon="13.359037987754737"><ele>588.0</ele><time>2026-04-26T09:08:02Z</time></trkpt><trkpt lat="38.00111501120457" lon="13.35906316419787"><ele>588.0</ele><time>2026-04-26T09:08:03Z</time></trkpt><trkpt lat="38.00101092053046" lon="13.359085819492307"><ele>588.0</ele><time>2026-04-26T09:08:04Z</time></trkpt><trkpt lat="38.00089452679661" lon="13.35911062030485"><ele>588.0</ele><time>2026-04-26T09:08:05Z</time></trkpt><trkpt lat="38.00077202106176" lon="13.359133090332998"><ele>588.0</ele><time>2026-04-26T09:08:06Z</time></trkpt><trkpt lat="38.00064159901882" lon="13.359157175658753"><ele>588.0</ele><time>2026-04-26T09:08:07Z</time></trkpt><trkpt lat="38.00051910118323" lon="13.359174004055859"><ele>588.0</ele><time>2026-04-26T09:08:08Z</time></trkpt><trkpt lat="38.00039813525033" lon="13.359186387410883"><ele>588.0</ele><time>2026-04-26T09:08:09Z</time></trkpt><trkpt lat="38.000273752379876" lon="13.359192026786108"><ele>588.0</ele><time>2026-04-26T09:08:10Z</time></trkpt><trkpt lat="38.00014566451863" lon="13.359188735837616"><ele>588.0</ele><time>2026-04-26T09:08:11Z</time></trkpt><trkpt lat="38.00001670155623" lon="13.359177858052373"><ele>588.0</ele><time>2026-04-26T09:08:12Z</time></trkpt><trkpt lat="37.999876989509126" lon="13.359160735467738"><ele>588.0</ele><time>2026-04-26T09:08:13Z</time></trkpt><trkpt lat="37.999741792301556" lon="13.35913795946605"><ele>588.0</ele><time>2026-04-26T09:08:14Z</time></trkpt><trkpt lat="37.99961886398377" lon="13.359118197208085"><ele>588.0</ele><time>2026-04-26T09:08:15Z</time></trkpt><trkpt lat="37.99950962000202" lon="13.359094843059482"><ele>588.0</ele><time>2026-04-26T09:08:16Z</time></trkpt><trkpt lat="37.99941240592044" lon="13.35907946476651"><ele>588.0</ele><time>2026-04-26T09:08:16.999Z</time></trkpt><trkpt lat="37.99931100201059" lon="13.359061218074007"><ele>588.0</ele><time>2026-04-26T09:08:17.999Z</time></trkpt><trkpt lat="37.999214447357225" lon="13.359041786070431"><ele>588.6666666666666</ele><time>2026-04-26T09:08:18.999Z</time></trkpt><trkpt lat="37.99913020961937" lon="13.359024488959422"><ele>589.3333333333334</ele><time>2026-04-26T09:08:19.999Z</time></trkpt><trkpt lat="37.99906114620588" lon="13.359011403724454"><ele>590.0</ele><time>2026-04-26T09:08:20.999Z</time></trkpt><trkpt lat="37.99895871669476" lon="13.35898017748148"><ele>590.6666666666667</ele><time>2026-04-26T09:08:22.999Z</time></trkpt><trkpt lat="37.998896190603396" lon="13.35894937458294"><ele>591.3333333333334</ele><time>2026-04-26T09:08:25.999Z</time></trkpt><trkpt lat="37.99881128869922" lon="13.358933118668373"><ele>592.0</ele><time>2026-04-26T09:08:28.999Z</time></trkpt><trkpt lat="37.99869192635481" lon="13.358949795945025"><ele>592.0</ele><time>2026-04-26T09:08:30.999Z</time></trkpt><trkpt lat="37.998611359024565" lon="13.358947329293827"><ele>592.0</ele><time>2026-04-26T09:08:31.999Z</time></trkpt><trkpt lat="37.99852336767426" lon="13.358953969098932"><ele>592.0</ele><time>2026-04-26T09:08:32.999Z</time></trkpt><trkpt lat="37.998444920748454" lon="13.358973152912823"><ele>592.0</ele><time>2026-04-26T09:08:33.999Z</time></trkpt><trkpt lat="37.99835624423454" lon="13.358993480998144"><ele>592.0</ele><time>2026-04-26T09:08:34.999Z</time></trkpt><trkpt lat="37.99825753460708" lon="13.359013088369183"><ele>592.0</ele><time>2026-04-26T09:08:35.999Z</time></trkpt><trkpt lat="37.99815701662616" lon="13.359022952099906"><ele>592.6666666666667</ele><time>2026-04-26T09:08:36.999Z</time></trkpt><trkpt lat="37.998061041893614" lon="13.35901833389766"><ele>593.3333333333334</ele><time>2026-04-26T09:08:37.999Z</time></trkpt><trkpt lat="37.99797370170776" lon="13.359008612663606"><ele>594.0</ele><time>2026-04-26T09:08:38.999Z</time></trkpt><trkpt lat="37.99788439784148" lon="13.358973193073115"><ele>594.6666666666666</ele><time>2026-04-26T09:08:39.999Z</time></trkpt><trkpt lat="37.99781887247001" lon="13.358978660936778"><ele>595.3333333333333</ele><time>2026-04-26T09:08:40.999Z</time></trkpt><trkpt lat="37.99772711562732" lon="13.358938864671558"><ele>596.0</ele><time>2026-04-26T09:08:41.999Z</time></trkpt><trkpt lat="37.99764451069271" lon="13.358903885303812"><ele>596.4</ele><time>2026-04-26T09:08:42.999Z</time></trkpt><trkpt lat="37.997566984594116" lon="13.358856649237483"><ele>596.8</ele><time>2026-04-26T09:08:43.999Z</time></trkpt><trkpt lat="37.99747855678233" lon="13.358801354041468"><ele>597.1999999999999</ele><time>2026-04-26T09:08:44.999Z</time></trkpt><trkpt lat="37.997372616956945" lon="13.358742594510124"><ele>597.6</ele><time>2026-04-26T09:08:45.999Z</time></trkpt><trkpt lat="37.997278710264474" lon="13.358689265582308"><ele>598.0</ele><time>2026-04-26T09:08:46.999Z</time></trkpt><trkpt lat="37.99720784267345" lon="13.358644027811081"><ele>599.0</ele><time>2026-04-26T09:08:47.999Z</time></trkpt><trkpt lat="37.99714364890258" lon="13.358608484386536"><ele>600.0</ele><time>2026-04-26T09:08:48.999Z</time></trkpt><trkpt lat="37.9970843705584" lon="13.35857113612342"><ele>601.0</ele><time>2026-04-26T09:08:49.999Z</time></trkpt><trkpt lat="37.997017242624196" lon="13.358527823437667"><ele>602.0</ele><time>2026-04-26T09:08:50.999Z</time></trkpt><trkpt lat="37.99694109724081" lon="13.3584953908"><ele>603.0</ele><time>2026-04-26T09:08:51.999Z</time></trkpt><trkpt lat="37.9968600683216" lon="13.358466563181526"><ele>604.0</ele><time>2026-04-26T09:08:52.999Z</time></trkpt><trkpt lat="37.99677065901521" lon="13.35843565083362"><ele>604.0</ele><time>2026-04-26T09:08:53.999Z</time></trkpt><trkpt lat="37.99667822653822" lon="13.358405162892428"><ele>604.0</ele><time>2026-04-26T09:08:54.999Z</time></trkpt><trkpt lat="37.99658195532816" lon="13.358375316422876"><ele>604.0</ele><time>2026-04-26T09:08:55.999Z</time></trkpt><trkpt lat="37.996486428126396" lon="13.358339204355438"><ele>604.0</ele><time>2026-04-26T09:08:56.999Z</time></trkpt><trkpt lat="37.99640487841058" lon="13.358301310379165"><ele>604.0</ele><time>2026-04-26T09:08:57.999Z</time></trkpt><trkpt lat="37.99634184887502" lon="13.358262376541221"><ele>604.0</ele><time>2026-04-26T09:08:58.999Z</time></trkpt><trkpt lat="37.99627390997335" lon="13.358219112839064"><ele>604.0</ele><time>2026-04-26T09:08:59.999Z</time></trkpt><trkpt lat="37.99620891148133" lon="13.358179488390368"><ele>604.0</ele><time>2026-04-26T09:09:00.999Z</time></trkpt><trkpt lat="37.9961381499901" lon="13.358137261139762"><ele>604.0</ele><time>2026-04-26T09:09:01.999Z</time></trkpt><trkpt lat="37.99606051732569" lon="13.358102466461261"><ele>604.0</ele><time>2026-04-26T09:09:02.999Z</time></trkpt><trkpt lat="37.995979016824315" lon="13.358083024255215"><ele>604.0</ele><time>2026-04-26T09:09:03.999Z</time></trkpt><trkpt lat="37.99590223677177" lon="13.358053825907135"><ele>605.0</ele><time>2026-04-26T09:09:04.999Z</time></trkpt><trkpt lat="37.99581264606012" lon="13.358008670426475"><ele>606.0</ele><time>2026-04-26T09:09:05.999Z</time></trkpt><trkpt lat="37.99571636880778" lon="13.357959865440382"><ele>607.0</ele><time>2026-04-26T09:09:06.999Z</time></trkpt><trkpt lat="37.995615812847994" lon="13.357899026277664"><ele>608.0</ele><time>2026-04-26T09:09:07.999Z</time></trkpt><trkpt lat="37.9955191271159" lon="13.357835258987057"><ele>609.0</ele><time>2026-04-26T09:09:08.999Z</time></trkpt><trkpt lat="37.99542784384609" lon="13.357772835447866"><ele>609.0</ele><time>2026-04-26T09:09:09.999Z</time></trkpt><trkpt lat="37.995331340799176" lon="13.35771475640403"><ele>609.0</ele><time>2026-04-26T09:09:10.999Z</time></trkpt><trkpt lat="37.99523399754343" lon="13.357664371460151"><ele>609.0</ele><time>2026-04-26T09:09:11.999Z</time></trkpt><trkpt lat="37.99512844928335" lon="13.35762687119174"><ele>609.0</ele><time>2026-04-26T09:09:12.999Z</time></trkpt><trkpt lat="37.995018096495926" lon="13.357599692580647"><ele>609.0</ele><time>2026-04-26T09:09:13.999Z</time></trkpt><trkpt lat="37.994896022305454" lon="13.357565305812997"><ele>609.6</ele><time>2026-04-26T09:09:14.999Z</time></trkpt><trkpt lat="37.99478101797546" lon="13.357532972907164"><ele>610.2</ele><time>2026-04-26T09:09:15.999Z</time></trkpt><trkpt lat="37.99467346565836" lon="13.357498656015913"><ele>610.8000000000001</ele><time>2026-04-26T09:09:16.999Z</time></trkpt><trkpt lat="37.994581606916" lon="13.357469491089791"><ele>611.4</ele><time>2026-04-26T09:09:17.999Z</time></trkpt><trkpt lat="37.9945018163919" lon="13.35744144166298"><ele>612.0</ele><time>2026-04-26T09:09:19Z</time></trkpt><trkpt lat="37.994420985612365" lon="13.357423875785875"><ele>612.0</ele><time>2026-04-26T09:09:20Z</time></trkpt><trkpt lat="37.99433739733994" lon="13.357407726672692"><ele>612.0</ele><time>2026-04-26T09:09:21Z</time></trkpt><trkpt lat="37.994239251442046" lon="13.357383605220035"><ele>612.0</ele><time>2026-04-26T09:09:22Z</time></trkpt><trkpt lat="37.99413169796337" lon="13.357344777446274"><ele>612.0</ele><time>2026-04-26T09:09:23Z</time></trkpt><trkpt lat="37.99403079552162" lon="13.357303107749363"><ele>612.0</ele><time>2026-04-26T09:09:24Z</time></trkpt><trkpt lat="37.993942369271025" lon="13.35727938860889"><ele>612.8333333333334</ele><time>2026-04-26T09:09:25Z</time></trkpt><trkpt lat="37.993876280633145" lon="13.35726826596693"><ele>613.6666666666666</ele><time>2026-04-26T09:09:26Z</time></trkpt><trkpt lat="37.99377388693168" lon="13.357243043783564"><ele>614.5</ele><time>2026-04-26T09:09:28Z</time></trkpt><trkpt lat="37.993684964434145" lon="13.357222381471589"><ele>615.3333333333333</ele><time>2026-04-26T09:09:30Z</time></trkpt><trkpt lat="37.99360006814732" lon="13.357196432345738"><ele>616.1666666666666</ele><time>2026-04-26T09:09:32Z</time></trkpt><trkpt lat="37.993526643161076" lon="13.357172861087797"><ele>617.0</ele><time>2026-04-26T09:09:34Z</time></trkpt><trkpt lat="37.99344775458211" lon="13.357157315125933"><ele>617.0</ele><time>2026-04-26T09:09:53Z</time></trkpt><trkpt lat="37.993378637602824" lon="13.357186805616927"><ele>617.0</ele><time>2026-04-26T09:09:55Z</time></trkpt><trkpt lat="37.99330372938185" lon="13.357223141128648"><ele>617.0</ele><time>2026-04-26T09:09:57Z</time></trkpt><trkpt lat="37.993194819795605" lon="13.357239184923596"><ele>617.0</ele><time>2026-04-26T09:09:59Z</time></trkpt><trkpt lat="37.99308158724581" lon="13.357260017484755"><ele>617.0</ele><time>2026-04-26T09:10:01Z</time></trkpt><trkpt lat="37.99296089348512" lon="13.357265481277867"><ele>616.6</ele><time>2026-04-26T09:10:03Z</time></trkpt><trkpt lat="37.99286452520787" lon="13.357274139976541"><ele>616.2</ele><time>2026-04-26T09:10:05Z</time></trkpt><trkpt lat="37.992799618707956" lon="13.35728091119384"><ele>615.8</ele><time>2026-04-26T09:10:06Z</time></trkpt><trkpt lat="37.99269400893278" lon="13.357271177489856"><ele>615.4</ele><time>2026-04-26T09:10:08Z</time></trkpt><trkpt lat="37.99258671958956" lon="13.357251102687101"><ele>615.0</ele><time>2026-04-26T09:10:10Z</time></trkpt><trkpt lat="37.992505827804564" lon="13.3572187669372"><ele>612.8</ele><time>2026-04-26T09:10:12Z</time></trkpt><trkpt lat="37.992445095503626" lon="13.35713099410065"><ele>610.6</ele><time>2026-04-26T09:10:14Z</time></trkpt><trkpt lat="37.99236652844238" lon="13.357090366975983"><ele>608.4</ele><time>2026-04-26T09:10:16Z</time></trkpt><trkpt lat="37.99226341087084" lon="13.357099447237912"><ele>606.2</ele><time>2026-04-26T09:10:18Z</time></trkpt><trkpt lat="37.9921583012057" lon="13.357097619229119"><ele>604.0</ele><time>2026-04-26T09:10:20Z</time></trkpt><trkpt lat="37.992070118949506" lon="13.357102571751467"><ele>604.0</ele><time>2026-04-26T09:10:22Z</time></trkpt><trkpt lat="37.992002600370355" lon="13.357132776396591"><ele>604.0</ele><time>2026-04-26T09:10:23.999Z</time></trkpt><trkpt lat="37.99194390079209" lon="13.357177729833758"><ele>604.0</ele><time>2026-04-26T09:10:27.999Z</time></trkpt><trkpt lat="37.99200422403906" lon="13.357138689074729"><ele>604.0</ele><time>2026-04-26T09:11:12.999Z</time></trkpt><trkpt lat="37.9921114514285" lon="13.357110091349305"><ele>604.0</ele><time>2026-04-26T09:11:14.999Z</time></trkpt><trkpt lat="37.99223686570666" lon="13.357106208538038"><ele>604.0</ele><time>2026-04-26T09:11:16.999Z</time></trkpt><trkpt lat="37.992320821107995" lon="13.357106908578508"><ele>604.0</ele><time>2026-04-26T09:11:17.999Z</time></trkpt><trkpt lat="37.9923941188714" lon="13.357107085565273"><ele>604.0</ele><time>2026-04-26T09:11:18.999Z</time></trkpt><trkpt lat="37.99246533975742" lon="13.357144360215083"><ele>604.0</ele><time>2026-04-26T09:11:20.999Z</time></trkpt><trkpt lat="37.99253972288532" lon="13.357227920438358"><ele>604.0</ele><time>2026-04-26T09:11:22.999Z</time></trkpt><trkpt lat="37.99260138109706" lon="13.35726035742616"><ele>604.0</ele><time>2026-04-26T09:11:23.999Z</time></trkpt><trkpt lat="37.992670151637896" lon="13.357265308356874"><ele>604.0</ele><time>2026-04-26T09:11:25Z</time></trkpt><trkpt lat="37.992746036260186" lon="13.357266327363167"><ele>605.8333333333334</ele><time>2026-04-26T09:11:26Z</time></trkpt><trkpt lat="37.992821180354156" lon="13.357267561700015"><ele>607.6666666666667</ele><time>2026-04-26T09:11:27Z</time></trkpt><trkpt lat="37.99289763434997" lon="13.357263846093671"><ele>609.5</ele><time>2026-04-26T09:11:28Z</time></trkpt><trkpt lat="37.9929688538946" lon="13.35726087381415"><ele>611.3333333333334</ele><time>2026-04-26T09:11:29Z</time></trkpt><trkpt lat="37.993110650926084" lon="13.357250063663958"><ele>613.1666666666666</ele><time>2026-04-26T09:11:31Z</time></trkpt><trkpt lat="37.99318074035746" lon="13.35722973159281"><ele>615.0</ele><time>2026-04-26T09:11:32Z</time></trkpt><trkpt lat="37.993254825898994" lon="13.357204688085535"><ele>615.0</ele><time>2026-04-26T09:11:33Z</time></trkpt><trkpt lat="37.993366338478914" lon="13.357181902176297"><ele>615.0</ele><time>2026-04-26T09:11:35Z</time></trkpt><trkpt lat="37.993439888565376" lon="13.357151521424253"><ele>615.0</ele><time>2026-04-26T09:11:37Z</time></trkpt><trkpt lat="37.9934131688248" lon="13.35705914733396"><ele>615.0</ele><time>2026-04-26T09:11:40Z</time></trkpt><trkpt lat="37.99334133511444" lon="13.357014507463184"><ele>615.0</ele><time>2026-04-26T09:11:42Z</time></trkpt><trkpt lat="37.993264165100236" lon="13.356948361828977"><ele>615.0</ele><time>2026-04-26T09:11:44Z</time></trkpt><trkpt lat="37.993219834412415" lon="13.356889636124954"><ele>615.0</ele><time>2026-04-26T09:11:45Z</time></trkpt><trkpt lat="37.99312144173749" lon="13.35679437069082"><ele>615.0</ele><time>2026-04-26T09:11:47Z</time></trkpt><trkpt lat="37.99301828146492" lon="13.356736045878055"><ele>615.0</ele><time>2026-04-26T09:11:49Z</time></trkpt><trkpt lat="37.992907158282705" lon="13.356685450793798"><ele>615.0</ele><time>2026-04-26T09:11:51Z</time></trkpt><trkpt lat="37.992795977934755" lon="13.356657383246818"><ele>615.0</ele><time>2026-04-26T09:11:53Z</time></trkpt><trkpt lat="37.99269994150083" lon="13.356612723453845"><ele>615.0</ele><time>2026-04-26T09:11:55Z</time></trkpt><trkpt lat="37.992585054379354" lon="13.356550223806789"><ele>615.0</ele><time>2026-04-26T09:11:57Z</time></trkpt><trkpt lat="37.99245943570201" lon="13.356456326533383"><ele>615.0</ele><time>2026-04-26T09:11:59Z</time></trkpt><trkpt lat="37.99238687226632" lon="13.356417639761288"><ele>613.3333333333334</ele><time>2026-04-26T09:12:00Z</time></trkpt><trkpt lat="37.992308895739605" lon="13.356370618095617"><ele>611.6666666666666</ele><time>2026-04-26T09:12:01Z</time></trkpt><trkpt lat="37.992230250590865" lon="13.356329457861815"><ele>610.0</ele><time>2026-04-26T09:12:02Z</time></trkpt><trkpt lat="37.992151535824945" lon="13.356284948399404"><ele>608.3333333333333</ele><time>2026-04-26T09:12:03Z</time></trkpt><trkpt lat="37.992058715898914" lon="13.356239151751062"><ele>606.6666666666666</ele><time>2026-04-26T09:12:04Z</time></trkpt><trkpt lat="37.99198186632996" lon="13.356200976539988"><ele>605.0</ele><time>2026-04-26T09:12:05Z</time></trkpt><trkpt lat="37.99189768693404" lon="13.356154584734488"><ele>605.0</ele><time>2026-04-26T09:12:06Z</time></trkpt><trkpt lat="37.99178073141044" lon="13.356093648761096"><ele>605.0</ele><time>2026-04-26T09:12:08Z</time></trkpt><trkpt lat="37.991669400223536" lon="13.356071900505501"><ele>605.0</ele><time>2026-04-26T09:12:10Z</time></trkpt><trkpt lat="37.991566136979635" lon="13.356059635886552"><ele>605.0</ele><time>2026-04-26T09:12:12Z</time></trkpt><trkpt lat="37.991455045146914" lon="13.356038247051135"><ele>603.6666666666666</ele><time>2026-04-26T09:12:14Z</time></trkpt><trkpt lat="37.991353879062856" lon="13.35600240921907"><ele>602.3333333333333</ele><time>2026-04-26T09:12:16Z</time></trkpt><trkpt lat="37.99126588259631" lon="13.355984677535298"><ele>601.0</ele><time>2026-04-26T09:12:18Z</time></trkpt><trkpt lat="37.99116572385321" lon="13.355959573836538"><ele>599.6666666666666</ele><time>2026-04-26T09:12:20Z</time></trkpt><trkpt lat="37.991097907339324" lon="13.35589825027924"><ele>598.3333333333334</ele><time>2026-04-26T09:12:22Z</time></trkpt><trkpt lat="37.991045207021706" lon="13.35584969847211"><ele>597.0</ele><time>2026-04-26T09:12:24Z</time></trkpt><trkpt lat="37.99097604903804" lon="13.355832022980879"><ele>597.0</ele><time>2026-04-26T09:13:58Z</time></trkpt><trkpt lat="37.99091053710012" lon="13.355755993049804"><ele>597.0</ele><time>2026-04-26T09:16:43.999Z</time></trkpt><trkpt lat="37.99084921242051" lon="13.355724187410168"><ele>597.0</ele><time>2026-04-26T09:17:12.999Z</time></trkpt><trkpt lat="37.99074853669832" lon="13.355683656185684"><ele>597.0</ele><time>2026-04-26T09:17:14.999Z</time></trkpt><trkpt lat="37.990668032309564" lon="13.355636254475709"><ele>597.0</ele><time>2026-04-26T09:17:16.999Z</time></trkpt><trkpt lat="37.99055297684028" lon="13.355605914123275"><ele>596.6</ele><time>2026-04-26T09:17:18.999Z</time></trkpt><trkpt lat="37.990452939980194" lon="13.355627160442493"><ele>596.2</ele><time>2026-04-26T09:17:20.999Z</time></trkpt><trkpt lat="37.99034597859363" lon="13.355611733904919"><ele>595.8</ele><time>2026-04-26T09:17:22.999Z</time></trkpt><trkpt lat="37.990242597766674" lon="13.35556749961113"><ele>595.4</ele><time>2026-04-26T09:17:24.999Z</time></trkpt><trkpt lat="37.99015974916798" lon="13.355549001925624"><ele>595.0</ele><time>2026-04-26T09:17:26.999Z</time></trkpt><trkpt lat="37.990081306154046" lon="13.355537357029275"><ele>593.8333333333334</ele><time>2026-04-26T09:17:28.999Z</time></trkpt><trkpt lat="37.99000751008808" lon="13.355524931119875"><ele>592.6666666666667</ele><time>2026-04-26T09:17:30.999Z</time></trkpt><trkpt lat="37.98993895780846" lon="13.355497436921384"><ele>591.5</ele><time>2026-04-26T09:17:32.999Z</time></trkpt><trkpt lat="37.98988577967646" lon="13.355402452452545"><ele>590.3333333333334</ele><time>2026-04-26T09:17:34.999Z</time></trkpt><trkpt lat="37.9898398783202" lon="13.355326057920017"><ele>589.1666666666666</ele><time>2026-04-26T09:17:36.999Z</time></trkpt><trkpt lat="37.98977192892456" lon="13.355275550907363"><ele>588.0</ele><time>2026-04-26T09:17:38.999Z</time></trkpt><trkpt lat="37.989736449857574" lon="13.35518398136596"><ele>588.0</ele><time>2026-04-26T09:17:40.999Z</time></trkpt><trkpt lat="37.98969034613978" lon="13.35508985789866"><ele>588.0</ele><time>2026-04-26T09:17:43Z</time></trkpt><trkpt lat="37.989625862698205" lon="13.355007785018389"><ele>588.0</ele><time>2026-04-26T09:17:45Z</time></trkpt><trkpt lat="37.989553616567584" lon="13.354955373051311"><ele>588.0</ele><time>2026-04-26T09:17:47Z</time></trkpt><trkpt lat="37.989449428393804" lon="13.354926099253886"><ele>588.0</ele><time>2026-04-26T09:17:49Z</time></trkpt><trkpt lat="37.989365429266236" lon="13.354900086716926"><ele>588.0</ele><time>2026-04-26T09:17:51Z</time></trkpt><trkpt lat="37.989279606280604" lon="13.354888377193248"><ele>588.0</ele><time>2026-04-26T09:17:53Z</time></trkpt><trkpt lat="37.98917355642833" lon="13.354852540272567"><ele>588.0</ele><time>2026-04-26T09:17:55Z</time></trkpt><trkpt lat="37.989101424930816" lon="13.354830857613655"><ele>588.0</ele><time>2026-04-26T09:17:57Z</time></trkpt><trkpt lat="37.989007815376326" lon="13.354841012785531"><ele>588.0</ele><time>2026-04-26T09:17:59Z</time></trkpt><trkpt lat="37.98891379310508" lon="13.35484815888277"><ele>588.0</ele><time>2026-04-26T09:18:01Z</time></trkpt><trkpt lat="37.98881342555943" lon="13.354876690325149"><ele>588.0</ele><time>2026-04-26T09:18:03Z</time></trkpt><trkpt lat="37.988709447282965" lon="13.3548910856388"><ele>588.0</ele><time>2026-04-26T09:18:05Z</time></trkpt><trkpt lat="37.98860000690268" lon="13.354907231156252"><ele>588.0</ele><time>2026-04-26T09:18:07Z</time></trkpt><trkpt lat="37.98848913174219" lon="13.35491893852703"><ele>588.0</ele><time>2026-04-26T09:18:09Z</time></trkpt><trkpt lat="37.98838586139171" lon="13.354906580485226"><ele>588.3333333333334</ele><time>2026-04-26T09:18:11Z</time></trkpt><trkpt lat="37.98828858969691" lon="13.354931314654909"><ele>588.6666666666666</ele><time>2026-04-26T09:18:13Z</time></trkpt><trkpt lat="37.98816720959416" lon="13.354964055872834"><ele>589.0</ele><time>2026-04-26T09:18:15Z</time></trkpt><trkpt lat="37.98809909045558" lon="13.354987685659108"><ele>589.3333333333333</ele><time>2026-04-26T09:18:16Z</time></trkpt><trkpt lat="37.98803204412332" lon="13.35501352146406"><ele>589.6666666666666</ele><time>2026-04-26T09:18:17Z</time></trkpt><trkpt lat="37.987952544236514" lon="13.355045039546399"><ele>590.0</ele><time>2026-04-26T09:18:18Z</time></trkpt><trkpt lat="37.98787474163492" lon="13.355072509768451"><ele>590.0</ele><time>2026-04-26T09:18:19Z</time></trkpt><trkpt lat="37.98779152832779" lon="13.355097768627076"><ele>590.0</ele><time>2026-04-26T09:18:20Z</time></trkpt><trkpt lat="37.987713878060134" lon="13.355111094605876"><ele>590.0</ele><time>2026-04-26T09:18:21Z</time></trkpt><trkpt lat="37.98764427290052" lon="13.355126956511944"><ele>590.0</ele><time>2026-04-26T09:18:22Z</time></trkpt><trkpt lat="37.98758513565363" lon="13.355166725520487"><ele>590.0</ele><time>2026-04-26T09:18:23Z</time></trkpt><trkpt lat="37.987524186296284" lon="13.35525608768747"><ele>590.0</ele><time>2026-04-26T09:18:25Z</time></trkpt><trkpt lat="37.987476809722295" lon="13.35532595648807"><ele>588.2</ele><time>2026-04-26T09:18:45Z</time></trkpt><trkpt lat="37.98740316085857" lon="13.355435653632586"><ele>586.4</ele><time>2026-04-26T09:18:47Z</time></trkpt><trkpt lat="37.98736652401232" lon="13.355507990463103"><ele>584.6</ele><time>2026-04-26T09:18:48Z</time></trkpt><trkpt lat="37.98733458289813" lon="13.355584412137427"><ele>582.8</ele><time>2026-04-26T09:18:48.999Z</time></trkpt><trkpt lat="37.987269991873454" lon="13.355675374828287"><ele>581.0</ele><time>2026-04-26T09:18:50.999Z</time></trkpt><trkpt lat="37.987193266288486" lon="13.3557718005074"><ele>586.25</ele><time>2026-04-26T09:18:52.999Z</time></trkpt><trkpt lat="37.98713953722407" lon="13.355906036765559"><ele>591.5</ele><time>2026-04-26T09:18:54.999Z</time></trkpt><trkpt lat="37.98711299547308" lon="13.356054613523355"><ele>596.75</ele><time>2026-04-26T09:18:56.999Z</time></trkpt><trkpt lat="37.98710904725527" lon="13.356211286671567"><ele>602.0</ele><time>2026-04-26T09:18:58.999Z</time></trkpt><trkpt lat="37.98712629310227" lon="13.356368483359562"><ele>605.1666666666666</ele><time>2026-04-26T09:19:00.999Z</time></trkpt><trkpt lat="37.987126750913106" lon="13.356524205972075"><ele>608.3333333333333</ele><time>2026-04-26T09:19:02.999Z</time></trkpt><trkpt lat="37.98710342503918" lon="13.35667918639634"><ele>611.5</ele><time>2026-04-26T09:19:04.999Z</time></trkpt><trkpt lat="37.98708178640808" lon="13.356756999274182"><ele>614.6666666666666</ele><time>2026-04-26T09:19:05.999Z</time></trkpt><trkpt lat="37.98705154489778" lon="13.35683223529368"><ele>617.8333333333334</ele><time>2026-04-26T09:19:06.999Z</time></trkpt><trkpt lat="37.98701848776323" lon="13.35690620979541"><ele>621.0</ele><time>2026-04-26T09:19:07.999Z</time></trkpt><trkpt lat="37.98698446027814" lon="13.356983877139768"><ele>621.0</ele><time>2026-04-26T09:19:08.999Z</time></trkpt><trkpt lat="37.98695565315135" lon="13.357060012049724"><ele>621.0</ele><time>2026-04-26T09:19:09.999Z</time></trkpt><trkpt lat="37.986926246148506" lon="13.35714835559893"><ele>621.0</ele><time>2026-04-26T09:19:10.999Z</time></trkpt><trkpt lat="37.98690069892634" lon="13.357230629541318"><ele>621.0</ele><time>2026-04-26T09:19:11.999Z</time></trkpt><trkpt lat="37.98687254206796" lon="13.357326724761537"><ele>621.0</ele><time>2026-04-26T09:19:12.999Z</time></trkpt><trkpt lat="37.98685094259986" lon="13.35740842341082"><ele>621.0</ele><time>2026-04-26T09:19:13.999Z</time></trkpt><trkpt lat="37.98680807113043" lon="13.357550964132598"><ele>623.1428571428571</ele><time>2026-04-26T09:19:15.999Z</time></trkpt><trkpt lat="37.98679647438725" lon="13.357633041267325"><ele>625.2857142857142</ele><time>2026-04-26T09:19:16.999Z</time></trkpt><trkpt lat="37.98678531189977" lon="13.357719482577668"><ele>627.4285714285713</ele><time>2026-04-26T09:19:17.999Z</time></trkpt><trkpt lat="37.9867687207295" lon="13.357797610786438"><ele>629.5714285714286</ele><time>2026-04-26T09:19:18.999Z</time></trkpt><trkpt lat="37.98675589976281" lon="13.357882691623939"><ele>631.7142857142858</ele><time>2026-04-26T09:19:19.999Z</time></trkpt><trkpt lat="37.98674479876115" lon="13.357989003907768"><ele>633.8571428571428</ele><time>2026-04-26T09:19:20.999Z</time></trkpt><trkpt lat="37.98673710200219" lon="13.358095636370669"><ele>636.0</ele><time>2026-04-26T09:19:21.999Z</time></trkpt><trkpt lat="37.98672923323304" lon="13.358204452088023"><ele>638.4</ele><time>2026-04-26T09:19:22.999Z</time></trkpt><trkpt lat="37.986724902521644" lon="13.358315568561885"><ele>640.8</ele><time>2026-04-26T09:19:23.999Z</time></trkpt><trkpt lat="37.98672560916237" lon="13.358419346443988"><ele>643.1999999999999</ele><time>2026-04-26T09:19:24.999Z</time></trkpt><trkpt lat="37.98671691258639" lon="13.358525389912954"><ele>645.6</ele><time>2026-04-26T09:19:25.999Z</time></trkpt><trkpt lat="37.98670413517798" lon="13.358617345716816"><ele>648.0</ele><time>2026-04-26T09:19:26.999Z</time></trkpt><trkpt lat="37.98666920227487" lon="13.358775145409048"><ele>643.0</ele><time>2026-04-26T09:19:28.999Z</time></trkpt><trkpt lat="37.986641636663784" lon="13.358882142023146"><ele>638.0</ele><time>2026-04-26T09:19:29.999Z</time></trkpt><trkpt lat="37.98662533279772" lon="13.359006119300668"><ele>633.0</ele><time>2026-04-26T09:19:30.999Z</time></trkpt><trkpt lat="37.98661729583281" lon="13.35911834355888"><ele>628.0</ele><time>2026-04-26T09:19:31.999Z</time></trkpt><trkpt lat="37.98661652854127" lon="13.359223264675583"><ele>623.0</ele><time>2026-04-26T09:19:32.999Z</time></trkpt><trkpt lat="37.98661369762968" lon="13.359323641711743"><ele>618.0</ele><time>2026-04-26T09:19:33.999Z</time></trkpt><trkpt lat="37.98661106914892" lon="13.359424654085847"><ele>618.0</ele><time>2026-04-26T09:19:34.999Z</time></trkpt><trkpt lat="37.986609656097926" lon="13.359526197176312"><ele>618.0</ele><time>2026-04-26T09:19:35.999Z</time></trkpt><trkpt lat="37.98659599506981" lon="13.359616446664166"><ele>618.0</ele><time>2026-04-26T09:19:36.999Z</time></trkpt><trkpt lat="37.98657013315187" lon="13.359698746371722"><ele>618.0</ele><time>2026-04-26T09:19:37.999Z</time></trkpt><trkpt lat="37.98654175375428" lon="13.35978628147814"><ele>618.0</ele><time>2026-04-26T09:19:38.999Z</time></trkpt><trkpt lat="37.986517354480995" lon="13.359876313761033"><ele>618.0</ele><time>2026-04-26T09:19:39.999Z</time></trkpt><trkpt lat="37.98648815161787" lon="13.360033057714535"><ele>619.0</ele><time>2026-04-26T09:19:41.999Z</time></trkpt><trkpt lat="37.98648142210169" lon="13.36013397069368"><ele>620.0</ele><time>2026-04-26T09:19:42.999Z</time></trkpt><trkpt lat="37.98647717123643" lon="13.360240164991756"><ele>621.0</ele><time>2026-04-26T09:19:43.999Z</time></trkpt><trkpt lat="37.98646419349128" lon="13.360357544770817"><ele>622.0</ele><time>2026-04-26T09:19:44.999Z</time></trkpt><trkpt lat="37.98644633649458" lon="13.360452626335032"><ele>623.0</ele><time>2026-04-26T09:19:45.999Z</time></trkpt><trkpt lat="37.98643107667586" lon="13.36053336838441"><ele>624.0</ele><time>2026-04-26T09:19:46.999Z</time></trkpt><trkpt lat="37.9864207085263" lon="13.3606212617827"><ele>625.4</ele><time>2026-04-26T09:19:47.999Z</time></trkpt><trkpt lat="37.98642292941765" lon="13.360728325271083"><ele>626.8</ele><time>2026-04-26T09:19:49Z</time></trkpt><trkpt lat="37.98642985549135" lon="13.360828229783296"><ele>628.2</ele><time>2026-04-26T09:19:50Z</time></trkpt><trkpt lat="37.98645669224922" lon="13.360988927198102"><ele>629.6</ele><time>2026-04-26T09:19:52Z</time></trkpt><trkpt lat="37.98645615145189" lon="13.361161942261324"><ele>631.0</ele><time>2026-04-26T09:19:54Z</time></trkpt><trkpt lat="37.986444629794676" lon="13.361256241836239"><ele>631.0</ele><time>2026-04-26T09:19:55Z</time></trkpt><trkpt lat="37.98642758606712" lon="13.36134726974906"><ele>631.0</ele><time>2026-04-26T09:19:56Z</time></trkpt><trkpt lat="37.986411149373936" lon="13.361444787695435"><ele>631.0</ele><time>2026-04-26T09:19:57Z</time></trkpt><trkpt lat="37.98639651456659" lon="13.361547848213322"><ele>631.0</ele><time>2026-04-26T09:19:58Z</time></trkpt><trkpt lat="37.98638343105523" lon="13.361655633688088"><ele>631.0</ele><time>2026-04-26T09:19:59Z</time></trkpt><trkpt lat="37.98637349696259" lon="13.361775446663842"><ele>631.0</ele><time>2026-04-26T09:20:00Z</time></trkpt><trkpt lat="37.98635809041068" lon="13.36189756908025"><ele>631.2</ele><time>2026-04-26T09:20:01Z</time></trkpt><trkpt lat="37.98634878717063" lon="13.362021136697425"><ele>631.4000000000001</ele><time>2026-04-26T09:20:02Z</time></trkpt><trkpt lat="37.98633796124585" lon="13.362134146628742"><ele>631.6</ele><time>2026-04-26T09:20:03Z</time></trkpt><trkpt lat="37.98633004899107" lon="13.362255761912168"><ele>631.8000000000001</ele><time>2026-04-26T09:20:04Z</time></trkpt><trkpt lat="37.98633206738287" lon="13.362360597019407"><ele>632.0</ele><time>2026-04-26T09:20:05Z</time></trkpt><trkpt lat="37.98634084526984" lon="13.362476554829612"><ele>631.3333333333333</ele><time>2026-04-26T09:20:06Z</time></trkpt><trkpt lat="37.98635196474776" lon="13.362599420988808"><ele>630.6666666666666</ele><time>2026-04-26T09:20:07Z</time></trkpt><trkpt lat="37.986358825088956" lon="13.36271067977552"><ele>630.0</ele><time>2026-04-26T09:20:08Z</time></trkpt><trkpt lat="37.9863635399089" lon="13.362833870510118"><ele>629.3333333333334</ele><time>2026-04-26T09:20:09Z</time></trkpt><trkpt lat="37.98636697845276" lon="13.36293357469386"><ele>628.6666666666667</ele><time>2026-04-26T09:20:10Z</time></trkpt><trkpt lat="37.98636531746766" lon="13.363029987513071"><ele>628.0</ele><time>2026-04-26T09:20:11Z</time></trkpt><trkpt lat="37.986360169902234" lon="13.363118063114722"><ele>626.8333333333334</ele><time>2026-04-26T09:20:12Z</time></trkpt><trkpt lat="37.986352764303064" lon="13.363220235326452"><ele>625.6666666666667</ele><time>2026-04-26T09:20:13Z</time></trkpt><trkpt lat="37.98633939011555" lon="13.36331035848915"><ele>624.5</ele><time>2026-04-26T09:20:14Z</time></trkpt><trkpt lat="37.98631809790847" lon="13.363403352269563"><ele>623.3333333333334</ele><time>2026-04-26T09:20:15Z</time></trkpt><trkpt lat="37.98628848131188" lon="13.363493484678363"><ele>622.1666666666666</ele><time>2026-04-26T09:20:16Z</time></trkpt><trkpt lat="37.98625995504595" lon="13.363578856677723"><ele>621.0</ele><time>2026-04-26T09:20:17Z</time></trkpt><trkpt lat="37.986216131449325" lon="13.36368687766275"><ele>621.0</ele><time>2026-04-26T09:20:19Z</time></trkpt><trkpt lat="37.98625397848753" lon="13.363795661621287"><ele>621.0</ele><time>2026-04-26T09:20:22Z</time></trkpt><trkpt lat="37.98634694336706" lon="13.363780845488668"><ele>621.0</ele><time>2026-04-26T09:20:24Z</time></trkpt><trkpt lat="37.98643272054521" lon="13.363692923633739"><ele>621.0</ele><time>2026-04-26T09:20:26Z</time></trkpt><trkpt lat="37.98650788656981" lon="13.36359438862657"><ele>621.0</ele><time>2026-04-26T09:20:28Z</time></trkpt><trkpt lat="37.98659115513846" lon="13.363483020205694"><ele>621.0</ele><time>2026-04-26T09:20:30Z</time></trkpt><trkpt lat="37.98663747785522" lon="13.363426296817122"><ele>621.0</ele><time>2026-04-26T09:20:31Z</time></trkpt><trkpt lat="37.98668261820446" lon="13.363369718572136"><ele>621.0</ele><time>2026-04-26T09:20:32Z</time></trkpt><trkpt lat="37.98673004211229" lon="13.363317055613285"><ele>621.0</ele><time>2026-04-26T09:20:33Z</time></trkpt><trkpt lat="37.98678479780978" lon="13.363271934127017"><ele>621.0</ele><time>2026-04-26T09:20:34Z</time></trkpt><trkpt lat="37.98688540276686" lon="13.363216857580943"><ele>621.0</ele><time>2026-04-26T09:20:36Z</time></trkpt><trkpt lat="37.98697216150976" lon="13.363190823882938"><ele>622.8</ele><time>2026-04-26T09:20:38Z</time></trkpt><trkpt lat="37.987061375367475" lon="13.363197395992113"><ele>624.6</ele><time>2026-04-26T09:20:40Z</time></trkpt><trkpt lat="37.98710726723671" lon="13.363256145913772"><ele>626.4</ele><time>2026-04-26T09:20:43Z</time></trkpt><trkpt lat="37.98712730565017" lon="13.363359407412363"><ele>628.2</ele><time>2026-04-26T09:20:47Z</time></trkpt><trkpt lat="37.98714942176848" lon="13.363483318391522"><ele>630.0</ele><time>2026-04-26T09:20:49Z</time></trkpt><trkpt lat="37.987143435231374" lon="13.363632715702355"><ele>630.0</ele><time>2026-04-26T09:20:51Z</time></trkpt><trkpt lat="37.9871414134807" lon="13.363718996603614"><ele>630.0</ele><time>2026-04-26T09:20:52Z</time></trkpt><trkpt lat="37.98712357408532" lon="13.36386436447181"><ele>630.0</ele><time>2026-04-26T09:20:54Z</time></trkpt><trkpt lat="37.987106488549934" lon="13.36394404020191"><ele>630.0</ele><time>2026-04-26T09:20:55Z</time></trkpt><trkpt lat="37.98709607465168" lon="13.364023378955999"><ele>630.0</ele><time>2026-04-26T09:20:56Z</time></trkpt><trkpt lat="37.987092563218226" lon="13.364158563820723"><ele>630.0</ele><time>2026-04-26T09:20:57.999Z</time></trkpt><trkpt lat="37.98710109251479" lon="13.364253941018616"><ele>630.0</ele><time>2026-04-26T09:20:58.999Z</time></trkpt><trkpt lat="37.987103831234506" lon="13.364347212138691"><ele>630.0</ele><time>2026-04-26T09:20:59.999Z</time></trkpt><trkpt lat="37.98710783983437" lon="13.364435972275617"><ele>630.0</ele><time>2026-04-26T09:21:00.999Z</time></trkpt><trkpt lat="37.98711600510672" lon="13.364584745297078"><ele>630.0</ele><time>2026-04-26T09:21:02.999Z</time></trkpt><trkpt lat="37.98711966192269" lon="13.364682050085133"><ele>630.0</ele><time>2026-04-26T09:21:03.999Z</time></trkpt><trkpt lat="37.98712611140976" lon="13.364780311742901"><ele>630.0</ele><time>2026-04-26T09:21:04.999Z</time></trkpt><trkpt lat="37.98714299857027" lon="13.364870412497178"><ele>628.8</ele><time>2026-04-26T09:21:05.999Z</time></trkpt><trkpt lat="37.98716984590926" lon="13.364947735705687"><ele>627.6</ele><time>2026-04-26T09:21:06.999Z</time></trkpt><trkpt lat="37.98719735570797" lon="13.365032461274485"><ele>626.4</ele><time>2026-04-26T09:21:07.999Z</time></trkpt><trkpt lat="37.987250079451115" lon="13.365170591774463"><ele>625.2</ele><time>2026-04-26T09:21:09.999Z</time></trkpt><trkpt lat="37.98729073647563" lon="13.365332449045058"><ele>624.0</ele><time>2026-04-26T09:21:11.999Z</time></trkpt><trkpt lat="37.98730296037978" lon="13.365426518997745"><ele>624.0</ele><time>2026-04-26T09:21:12.999Z</time></trkpt><trkpt lat="37.98731039208001" lon="13.365526448815226"><ele>624.0</ele><time>2026-04-26T09:21:13.999Z</time></trkpt><trkpt lat="37.98732330444038" lon="13.365628919163292"><ele>624.0</ele><time>2026-04-26T09:21:14.999Z</time></trkpt><trkpt lat="37.987334606806414" lon="13.365721031584535"><ele>624.0</ele><time>2026-04-26T09:21:15.999Z</time></trkpt><trkpt lat="37.9873477061678" lon="13.365818800306615"><ele>624.0</ele><time>2026-04-26T09:21:16.999Z</time></trkpt><trkpt lat="37.98736057519723" lon="13.365925391589036"><ele>624.0</ele><time>2026-04-26T09:21:17.999Z</time></trkpt><trkpt lat="37.98737619764311" lon="13.366029600259067"><ele>623.0</ele><time>2026-04-26T09:21:18.999Z</time></trkpt><trkpt lat="37.98737374736566" lon="13.366137768326437"><ele>622.0</ele><time>2026-04-26T09:21:19.999Z</time></trkpt><trkpt lat="37.98737122538035" lon="13.366241500580452"><ele>621.0</ele><time>2026-04-26T09:21:20.999Z</time></trkpt><trkpt lat="37.98736808321382" lon="13.366344552725895"><ele>620.0</ele><time>2026-04-26T09:21:21.999Z</time></trkpt><trkpt lat="37.9873628750604" lon="13.366459510966928"><ele>619.0</ele><time>2026-04-26T09:21:22.999Z</time></trkpt><trkpt lat="37.98736682727616" lon="13.366552459559005"><ele>618.0</ele><time>2026-04-26T09:21:23.999Z</time></trkpt><trkpt lat="37.98735753450289" lon="13.366701602426929"><ele>618.0</ele><time>2026-04-26T09:21:25.999Z</time></trkpt><trkpt lat="37.98737813414788" lon="13.36685638482678"><ele>618.0</ele><time>2026-04-26T09:21:27.999Z</time></trkpt><trkpt lat="37.98741428159532" lon="13.36697501692652"><ele>618.0</ele><time>2026-04-26T09:21:29.999Z</time></trkpt><trkpt lat="37.987481593379634" lon="13.367116577705156"><ele>618.0</ele><time>2026-04-26T09:21:31.999Z</time></trkpt><trkpt lat="37.98749403518742" lon="13.367201299386782"><ele>618.0</ele><time>2026-04-26T09:21:32.999Z</time></trkpt><trkpt lat="37.98752510831792" lon="13.367279195313872"><ele>617.5</ele><time>2026-04-26T09:21:33.999Z</time></trkpt><trkpt lat="37.98754418491291" lon="13.367366416236461"><ele>617.0</ele><time>2026-04-26T09:21:34.999Z</time></trkpt><trkpt lat="37.987561008225" lon="13.367446599989613"><ele>616.5</ele><time>2026-04-26T09:21:35.999Z</time></trkpt><trkpt lat="37.9875366047544" lon="13.367539896815666"><ele>616.0</ele><time>2026-04-26T09:21:36.999Z</time></trkpt><trkpt lat="37.98748200259071" lon="13.36768759755454"><ele>615.5</ele><time>2026-04-26T09:21:38.999Z</time></trkpt><trkpt lat="37.98744991034978" lon="13.36777550548824"><ele>615.0</ele><time>2026-04-26T09:21:39.999Z</time></trkpt><trkpt lat="37.987427084361926" lon="13.3678694826417"><ele>615.0</ele><time>2026-04-26T09:21:40.999Z</time></trkpt><trkpt lat="37.98742543060122" lon="13.367957086844166"><ele>615.0</ele><time>2026-04-26T09:21:41.999Z</time></trkpt><trkpt lat="37.98743584004819" lon="13.368041033217407"><ele>615.0</ele><time>2026-04-26T09:21:42.999Z</time></trkpt><trkpt lat="37.98745897726763" lon="13.368127499491047"><ele>615.0</ele><time>2026-04-26T09:21:43.999Z</time></trkpt><trkpt lat="37.987483023091485" lon="13.3682023867047"><ele>615.0</ele><time>2026-04-26T09:21:44.999Z</time></trkpt><trkpt lat="37.98750098606083" lon="13.368347794723226"><ele>615.0</ele><time>2026-04-26T09:21:46.999Z</time></trkpt><trkpt lat="37.98746891090259" lon="13.36847529758621"><ele>615.2</ele><time>2026-04-26T09:21:48.999Z</time></trkpt><trkpt lat="37.987444544169364" lon="13.36862442521684"><ele>615.4</ele><time>2026-04-26T09:21:50.999Z</time></trkpt><trkpt lat="37.987420519454695" lon="13.368747583983842"><ele>615.6</ele><time>2026-04-26T09:21:52.999Z</time></trkpt><trkpt lat="37.98741259201313" lon="13.368854656686107"><ele>615.8</ele><time>2026-04-26T09:21:55Z</time></trkpt><trkpt lat="37.987416805304676" lon="13.368940459722415"><ele>616.0</ele><time>2026-04-26T09:21:57Z</time></trkpt><trkpt lat="37.98743228069415" lon="13.36904786419358"><ele>615.3333333333334</ele><time>2026-04-26T09:31:10Z</time></trkpt><trkpt lat="37.987441345130165" lon="13.369131072566313"><ele>614.6666666666667</ele><time>2026-04-26T09:31:12Z</time></trkpt><trkpt lat="37.98746801889181" lon="13.369211705910775"><ele>614.0</ele><time>2026-04-26T09:31:14Z</time></trkpt><trkpt lat="37.98749066767708" lon="13.369313297611692"><ele>613.3333333333334</ele><time>2026-04-26T09:31:16Z</time></trkpt><trkpt lat="37.98751094139999" lon="13.369434963127986"><ele>612.6666666666666</ele><time>2026-04-26T09:31:18Z</time></trkpt><trkpt lat="37.98753454928896" lon="13.3695908573663"><ele>612.0</ele><time>2026-04-26T09:31:20Z</time></trkpt><trkpt lat="37.98755052438991" lon="13.369675720038051"><ele>615.1666666666666</ele><time>2026-04-26T09:31:21Z</time></trkpt><trkpt lat="37.987568793138756" lon="13.369767993516682"><ele>618.3333333333334</ele><time>2026-04-26T09:31:22Z</time></trkpt><trkpt lat="37.987588613567326" lon="13.369854871074276"><ele>621.5</ele><time>2026-04-26T09:31:23Z</time></trkpt><trkpt lat="37.98761118536408" lon="13.369940369702695"><ele>624.6666666666667</ele><time>2026-04-26T09:31:24Z</time></trkpt><trkpt lat="37.98761366232942" lon="13.37002534004875"><ele>627.8333333333334</ele><time>2026-04-26T09:31:25Z</time></trkpt><trkpt lat="37.987592334150435" lon="13.370158883723366"><ele>631.0</ele><time>2026-04-26T09:31:27Z</time></trkpt><trkpt lat="37.98756714837327" lon="13.370236724036733"><ele>631.0</ele><time>2026-04-26T09:31:28Z</time></trkpt><trkpt lat="37.98754283235303" lon="13.370384812190713"><ele>631.0</ele><time>2026-04-26T09:31:29.999Z</time></trkpt><trkpt lat="37.98754309966596" lon="13.370469959138672"><ele>631.0</ele><time>2026-04-26T09:31:30.999Z</time></trkpt><trkpt lat="37.987550505815776" lon="13.370633996006712"><ele>631.0</ele><time>2026-04-26T09:31:32.999Z</time></trkpt><trkpt lat="37.987575006626166" lon="13.370784406265612"><ele>631.0</ele><time>2026-04-26T09:31:34.999Z</time></trkpt><trkpt lat="37.98759873428822" lon="13.370862798840694"><ele>630.3333333333334</ele><time>2026-04-26T09:31:35.999Z</time></trkpt><trkpt lat="37.98763284435575" lon="13.370949350261927"><ele>629.6666666666667</ele><time>2026-04-26T09:31:36.999Z</time></trkpt><trkpt lat="37.98765589453148" lon="13.371032281781085"><ele>629.0</ele><time>2026-04-26T09:31:37.999Z</time></trkpt><trkpt lat="37.98770848511811" lon="13.371191281385252"><ele>628.3333333333334</ele><time>2026-04-26T09:31:39.999Z</time></trkpt><trkpt lat="37.98773954934329" lon="13.371278421445124"><ele>627.6666666666666</ele><time>2026-04-26T09:31:40.999Z</time></trkpt><trkpt lat="37.98777269384318" lon="13.371371396965104"><ele>627.0</ele><time>2026-04-26T09:31:41.999Z</time></trkpt><trkpt lat="37.98780762189362" lon="13.37146532707346"><ele>624.6666666666666</ele><time>2026-04-26T09:31:42.999Z</time></trkpt><trkpt lat="37.987855910609305" lon="13.371551184798278"><ele>622.3333333333334</ele><time>2026-04-26T09:31:43.999Z</time></trkpt><trkpt lat="37.98788792718441" lon="13.371646622454065"><ele>620.0</ele><time>2026-04-26T09:31:44.999Z</time></trkpt><trkpt lat="37.98791638512723" lon="13.371736119491024"><ele>617.6666666666667</ele><time>2026-04-26T09:31:45.999Z</time></trkpt><trkpt lat="37.987960552036675" lon="13.371847444237547"><ele>615.3333333333334</ele><time>2026-04-26T09:31:46.999Z</time></trkpt><trkpt lat="37.98800240552954" lon="13.371950009160212"><ele>613.0</ele><time>2026-04-26T09:31:47.999Z</time></trkpt><trkpt lat="37.98802552303719" lon="13.372071297085034"><ele>613.0</ele><time>2026-04-26T09:31:48.999Z</time></trkpt><trkpt lat="37.98807086179895" lon="13.37217176170661"><ele>613.0</ele><time>2026-04-26T09:31:49.999Z</time></trkpt><trkpt lat="37.98809640955614" lon="13.372268472520128"><ele>613.0</ele><time>2026-04-26T09:31:50.999Z</time></trkpt><trkpt lat="37.98811603912991" lon="13.372373584392824"><ele>613.0</ele><time>2026-04-26T09:31:51.999Z</time></trkpt><trkpt lat="37.988139562993005" lon="13.372455760308954"><ele>613.0</ele><time>2026-04-26T09:31:52.999Z</time></trkpt><trkpt lat="37.98816741185583" lon="13.37252775119387"><ele>613.0</ele><time>2026-04-26T09:31:53.999Z</time></trkpt><trkpt lat="37.98817781313513" lon="13.372673206146438"><ele>610.1666666666667</ele><time>2026-04-26T09:31:55.999Z</time></trkpt><trkpt lat="37.988147252356605" lon="13.37274478809509"><ele>607.3333333333334</ele><time>2026-04-26T09:31:56.999Z</time></trkpt><trkpt lat="37.9880395924676" lon="13.372844459366256"><ele>604.5</ele><time>2026-04-26T09:31:58.999Z</time></trkpt><trkpt lat="37.987987357688034" lon="13.372901130157445"><ele>601.6666666666666</ele><time>2026-04-26T09:31:59.999Z</time></trkpt><trkpt lat="37.98794018347523" lon="13.373023786272615"><ele>598.8333333333333</ele><time>2026-04-26T09:32:01.999Z</time></trkpt><trkpt lat="37.98792577445936" lon="13.373102718215298"><ele>596.0</ele><time>2026-04-26T09:32:02.999Z</time></trkpt><trkpt lat="37.98791746044471" lon="13.373189443638406"><ele>596.0</ele><time>2026-04-26T09:32:03.999Z</time></trkpt><trkpt lat="37.98790821551069" lon="13.373269268965165"><ele>596.0</ele><time>2026-04-26T09:32:04.999Z</time></trkpt><trkpt lat="37.98789721683528" lon="13.373359968367726"><ele>596.0</ele><time>2026-04-26T09:32:05.999Z</time></trkpt><trkpt lat="37.987890546373755" lon="13.3735354264376"><ele>596.0</ele><time>2026-04-26T09:32:07.999Z</time></trkpt><trkpt lat="37.98788938553321" lon="13.373638381741886"><ele>596.0</ele><time>2026-04-26T09:32:08.999Z</time></trkpt><trkpt lat="37.987896033518396" lon="13.373788480300899"><ele>596.0</ele><time>2026-04-26T09:32:10.999Z</time></trkpt><trkpt lat="37.987892826132445" lon="13.373900954955415"><ele>596.0</ele><time>2026-04-26T09:32:12.999Z</time></trkpt><trkpt lat="37.98777998048177" lon="13.373937399131279"><ele>596.0</ele><time>2026-04-26T09:32:14.999Z</time></trkpt><trkpt lat="37.9877005715298" lon="13.373945548732749"><ele>596.0</ele><time>2026-04-26T09:32:16.999Z</time></trkpt><trkpt lat="37.98762369065376" lon="13.37390373102584"><ele>596.0</ele><time>2026-04-26T09:32:18.999Z</time></trkpt><trkpt lat="37.98752648334685" lon="13.373851944751914"><ele>593.5</ele><time>2026-04-26T09:32:20.999Z</time></trkpt><trkpt lat="37.98746198566438" lon="13.37382602682086"><ele>591.0</ele><time>2026-04-26T09:32:21.999Z</time></trkpt><trkpt lat="37.9873849449149" lon="13.373772528188914"><ele>588.5</ele><time>2026-04-26T09:32:24Z</time></trkpt><trkpt lat="37.98730532420295" lon="13.373730013811501"><ele>586.0</ele><time>2026-04-26T09:32:26Z</time></trkpt><trkpt lat="37.98719777294845" lon="13.373668764931688"><ele>583.5</ele><time>2026-04-26T09:32:28Z</time></trkpt><trkpt lat="37.98714117649857" lon="13.373632606236287"><ele>581.0</ele><time>2026-04-26T09:32:29Z</time></trkpt><trkpt lat="37.98704343076715" lon="13.373570262840856"><ele>581.0</ele><time>2026-04-26T09:32:31Z</time></trkpt><trkpt lat="37.986967171150724" lon="13.373514442431498"><ele>581.0</ele><time>2026-04-26T09:32:33Z</time></trkpt><trkpt lat="37.98693498771052" lon="13.373399904339713"><ele>581.0</ele><time>2026-04-26T09:32:35Z</time></trkpt><trkpt lat="37.986982154888196" lon="13.373293175818239"><ele>581.0</ele><time>2026-04-26T09:32:37Z</time></trkpt><trkpt lat="37.987013798374136" lon="13.373152348205535"><ele>581.0</ele><time>2026-04-26T09:32:39Z</time></trkpt><trkpt lat="37.98704396309112" lon="13.37302888752553"><ele>580.8</ele><time>2026-04-26T09:32:41Z</time></trkpt><trkpt lat="37.98702593087251" lon="13.372941767935147"><ele>580.6</ele><time>2026-04-26T09:32:42Z</time></trkpt><trkpt lat="37.986929712870065" lon="13.372835714074506"><ele>580.4</ele><time>2026-04-26T09:32:44Z</time></trkpt><trkpt lat="37.986893978349734" lon="13.372745891152892"><ele>580.2</ele><time>2026-04-26T09:32:45Z</time></trkpt><trkpt lat="37.9868480190618" lon="13.372673598852145"><ele>580.0</ele><time>2026-04-26T09:32:46Z</time></trkpt><trkpt lat="37.98676786271323" lon="13.372534651348577"><ele>580.0</ele><time>2026-04-26T09:32:48Z</time></trkpt><trkpt lat="37.98673502241014" lon="13.372462062558018"><ele>580.0</ele><time>2026-04-26T09:32:49Z</time></trkpt><trkpt lat="37.98670882885592" lon="13.372387359636107"><ele>580.0</ele><time>2026-04-26T09:32:50Z</time></trkpt><trkpt lat="37.98663672696245" lon="13.37225662640369"><ele>580.0</ele><time>2026-04-26T09:32:52Z</time></trkpt><trkpt lat="37.986544254175335" lon="13.37221736389274"><ele>580.0</ele><time>2026-04-26T09:32:54Z</time></trkpt><trkpt lat="37.98643898754368" lon="13.372165803832637"><ele>579.2</ele><time>2026-04-26T09:32:56Z</time></trkpt><trkpt lat="37.98634971146763" lon="13.372100403391762"><ele>578.4</ele><time>2026-04-26T09:32:58Z</time></trkpt><trkpt lat="37.986254062428294" lon="13.372042110306474"><ele>577.6</ele><time>2026-04-26T09:33:00Z</time></trkpt><trkpt lat="37.98614762727031" lon="13.372013530195506"><ele>576.8</ele><time>2026-04-26T09:33:02Z</time></trkpt><trkpt lat="37.98604456618377" lon="13.372015890468075"><ele>576.0</ele><time>2026-04-26T09:33:04Z</time></trkpt><trkpt lat="37.98594591078125" lon="13.37200869838549"><ele>576.0</ele><time>2026-04-26T09:33:06Z</time></trkpt><trkpt lat="37.98584667943524" lon="13.371956154106728"><ele>576.0</ele><time>2026-04-26T09:33:08Z</time></trkpt><trkpt lat="37.985754688580414" lon="13.371908686682062"><ele>576.0</ele><time>2026-04-26T09:33:10Z</time></trkpt><trkpt lat="37.98566154003918" lon="13.371882178719643"><ele>576.0</ele><time>2026-04-26T09:33:12Z</time></trkpt><trkpt lat="37.98557056943267" lon="13.371878176619168"><ele>576.0</ele><time>2026-04-26T09:33:14Z</time></trkpt><trkpt lat="37.98546856106187" lon="13.371883301073215"><ele>574.6666666666666</ele><time>2026-04-26T09:33:16Z</time></trkpt><trkpt lat="37.98537199536646" lon="13.371857385758036"><ele>573.3333333333334</ele><time>2026-04-26T09:33:18Z</time></trkpt><trkpt lat="37.985296326724374" lon="13.371818022710801"><ele>572.0</ele><time>2026-04-26T09:33:20Z</time></trkpt><trkpt lat="37.985228060941445" lon="13.371828196373302"><ele>570.6666666666667</ele><time>2026-04-26T09:33:22Z</time></trkpt><trkpt lat="37.9851866915253" lon="13.37192943296424"><ele>569.3333333333334</ele><time>2026-04-26T09:33:24Z</time></trkpt><trkpt lat="37.985169800745" lon="13.372048084659992"><ele>568.0</ele><time>2026-04-26T09:33:26Z</time></trkpt><trkpt lat="37.9851025539253" lon="13.372124449759811"><ele>568.0</ele><time>2026-04-26T09:33:28Z</time></trkpt><trkpt lat="37.98502453075176" lon="13.372111342647063"><ele>568.0</ele><time>2026-04-26T09:33:30Z</time></trkpt><trkpt lat="37.98492751975529" lon="13.372053733554715"><ele>568.0</ele><time>2026-04-26T09:33:32Z</time></trkpt><trkpt lat="37.98483385511365" lon="13.37196711357374"><ele>568.0</ele><time>2026-04-26T09:33:34Z</time></trkpt><trkpt lat="37.984720716410315" lon="13.371887913786"><ele>568.0</ele><time>2026-04-26T09:33:35.999Z</time></trkpt><trkpt lat="37.98466011274931" lon="13.371839318640676"><ele>566.6666666666667</ele><time>2026-04-26T09:33:36.999Z</time></trkpt><trkpt lat="37.98458925469051" lon="13.37178251376689"><ele>565.3333333333334</ele><time>2026-04-26T09:33:37.999Z</time></trkpt><trkpt lat="37.98453613801237" lon="13.371733410707414"><ele>564.0</ele><time>2026-04-26T09:33:38.999Z</time></trkpt><trkpt lat="37.98447210012066" lon="13.371684100915445"><ele>562.6666666666666</ele><time>2026-04-26T09:33:39.999Z</time></trkpt><trkpt lat="37.984418995640546" lon="13.371636273295675"><ele>561.3333333333333</ele><time>2026-04-26T09:33:40.999Z</time></trkpt><trkpt lat="37.98436124451939" lon="13.37158754172862"><ele>560.0</ele><time>2026-04-26T09:33:41.999Z</time></trkpt><trkpt lat="37.98427239049261" lon="13.37149469499588"><ele>560.0</ele><time>2026-04-26T09:33:43.999Z</time></trkpt><trkpt lat="37.984224387720595" lon="13.371395318079843"><ele>560.0</ele><time>2026-04-26T09:33:45.999Z</time></trkpt><trkpt lat="37.984137200156795" lon="13.371346401437563"><ele>560.0</ele><time>2026-04-26T09:33:47.999Z</time></trkpt><trkpt lat="37.984042954223334" lon="13.371379437301169"><ele>560.0</ele><time>2026-04-26T09:33:49.999Z</time></trkpt><trkpt lat="37.98398509768913" lon="13.371443648599143"><ele>560.0</ele><time>2026-04-26T09:33:51.999Z</time></trkpt><trkpt lat="37.98391650123735" lon="13.371407804448113"><ele>560.0</ele><time>2026-04-26T09:33:54.999Z</time></trkpt><trkpt lat="37.98391583724685" lon="13.371304529909567"><ele>557.1666666666666</ele><time>2026-04-26T09:33:56.999Z</time></trkpt><trkpt lat="37.98393358194149" lon="13.371143984749041"><ele>554.3333333333333</ele><time>2026-04-26T09:33:58.999Z</time></trkpt><trkpt lat="37.98394273691844" lon="13.371057234760084"><ele>551.5</ele><time>2026-04-26T09:33:59.999Z</time></trkpt><trkpt lat="37.983952567683275" lon="13.370944086303444"><ele>548.6666666666666</ele><time>2026-04-26T09:34:01.999Z</time></trkpt><trkpt lat="37.98395396811415" lon="13.370860874036055"><ele>545.8333333333334</ele><time>2026-04-26T09:34:03.999Z</time></trkpt><trkpt lat="37.983997460255644" lon="13.370761771534582"><ele>543.0</ele><time>2026-04-26T09:34:05.999Z</time></trkpt><trkpt lat="37.98395089722374" lon="13.370649606936281"><ele>543.0</ele><time>2026-04-26T09:34:07.999Z</time></trkpt><trkpt lat="37.98386972046004" lon="13.370617175442675"><ele>543.0</ele><time>2026-04-26T09:34:08.999Z</time></trkpt><trkpt lat="37.98379489412333" lon="13.370491394777227"><ele>543.0</ele><time>2026-04-26T09:34:10.999Z</time></trkpt><trkpt lat="37.983692259335385" lon="13.370390702357227"><ele>543.0</ele><time>2026-04-26T09:34:12.999Z</time></trkpt><trkpt lat="37.98363349507259" lon="13.370322597248467"><ele>543.0</ele><time>2026-04-26T09:34:13.999Z</time></trkpt><trkpt lat="37.983573539448564" lon="13.370273903114803"><ele>542.0</ele><time>2026-04-26T09:34:14.999Z</time></trkpt><trkpt lat="37.98351457492019" lon="13.370203491801483"><ele>541.0</ele><time>2026-04-26T09:34:15.999Z</time></trkpt><trkpt lat="37.98345239385333" lon="13.370170953488895"><ele>540.0</ele><time>2026-04-26T09:34:16.999Z</time></trkpt><trkpt lat="37.98339945730279" lon="13.37012556438233"><ele>539.0</ele><time>2026-04-26T09:34:17.999Z</time></trkpt><trkpt lat="37.98334202152824" lon="13.370092551480624"><ele>538.0</ele><time>2026-04-26T09:34:18.999Z</time></trkpt><trkpt lat="37.983225196603826" lon="13.370060492982118"><ele>537.0</ele><time>2026-04-26T09:34:20.999Z</time></trkpt><trkpt lat="37.98313653086343" lon="13.370036753850385"><ele>537.0</ele><time>2026-04-26T09:34:22.999Z</time></trkpt><trkpt lat="37.98307435322969" lon="13.370062216423225"><ele>537.0</ele><time>2026-04-26T09:34:25.999Z</time></trkpt><trkpt lat="37.98305997468485" lon="13.370159901182832"><ele>537.0</ele><time>2026-04-26T09:34:29Z</time></trkpt><trkpt lat="37.98309338944175" lon="13.370239274326956"><ele>537.0</ele><time>2026-04-26T09:34:31Z</time></trkpt><trkpt lat="37.98317301512175" lon="13.37030941710876"><ele>537.0</ele><time>2026-04-26T09:34:33Z</time></trkpt><trkpt lat="37.983270811642306" lon="13.370383442941286"><ele>537.0</ele><time>2026-04-26T09:34:35Z</time></trkpt><trkpt lat="37.98335087321285" lon="13.370472438059188"><ele>538.2</ele><time>2026-04-26T09:34:37Z</time></trkpt><trkpt lat="37.98339598725533" lon="13.370573062697613"><ele>539.4000000000001</ele><time>2026-04-26T09:34:39Z</time></trkpt><trkpt lat="37.98341596827657" lon="13.370682258774314"><ele>540.5999999999999</ele><time>2026-04-26T09:34:41Z</time></trkpt><trkpt lat="37.98335419035456" lon="13.370791701864885"><ele>541.8</ele><time>2026-04-26T09:34:43Z</time></trkpt><trkpt lat="37.9832748498541" lon="13.370907922179182"><ele>543.0</ele><time>2026-04-26T09:34:45Z</time></trkpt><trkpt lat="37.98321304616075" lon="13.371040853328207"><ele>540.5</ele><time>2026-04-26T09:34:47Z</time></trkpt><trkpt lat="37.98314200603" lon="13.371164521051535"><ele>538.0</ele><time>2026-04-26T09:34:49Z</time></trkpt><trkpt lat="37.983069536886" lon="13.371287858425156"><ele>535.5</ele><time>2026-04-26T09:34:51Z</time></trkpt><trkpt lat="37.982994193461614" lon="13.371410188435455"><ele>533.0</ele><time>2026-04-26T09:34:53Z</time></trkpt><trkpt lat="37.982938270489605" lon="13.371529355961997"><ele>533.0</ele><time>2026-04-26T09:34:55Z</time></trkpt><trkpt lat="37.982915128897936" lon="13.371671208485747"><ele>533.0</ele><time>2026-04-26T09:34:57Z</time></trkpt><trkpt lat="37.98290946919866" lon="13.371830318939102"><ele>533.0</ele><time>2026-04-26T09:34:59Z</time></trkpt><trkpt lat="37.98289426044457" lon="13.37191595697932"><ele>533.0</ele><time>2026-04-26T09:35:00Z</time></trkpt><trkpt lat="37.98284861501239" lon="13.372059902732024"><ele>533.0</ele><time>2026-04-26T09:35:02Z</time></trkpt><trkpt lat="37.98278400332991" lon="13.372199318937101"><ele>534.8571428571429</ele><time>2026-04-26T09:35:04Z</time></trkpt><trkpt lat="37.98275521661029" lon="13.372276719803788"><ele>536.7142857142857</ele><time>2026-04-26T09:35:05Z</time></trkpt><trkpt lat="37.98272342696942" lon="13.372352513432265"><ele>538.5714285714286</ele><time>2026-04-26T09:35:06Z</time></trkpt><trkpt lat="37.98268860902605" lon="13.372434585634661"><ele>540.4285714285714</ele><time>2026-04-26T09:35:07Z</time></trkpt><trkpt lat="37.98264837563664" lon="13.37249907445838"><ele>542.2857142857142</ele><time>2026-04-26T09:35:08Z</time></trkpt><trkpt lat="37.982600784952865" lon="13.37255479219586"><ele>544.1428571428571</ele><time>2026-04-26T09:35:09Z</time></trkpt><trkpt lat="37.98253814168375" lon="13.372584311185708"><ele>546.0</ele><time>2026-04-26T09:35:10Z</time></trkpt><trkpt lat="37.98250165972703" lon="13.372655855441671"><ele>540.4</ele><time>2026-04-26T09:35:11Z</time></trkpt><trkpt lat="37.9824160460127" lon="13.372769243331824"><ele>534.8</ele><time>2026-04-26T09:35:13Z</time></trkpt><trkpt lat="37.98238098252103" lon="13.37283649047049"><ele>529.1999999999999</ele><time>2026-04-26T09:35:14Z</time></trkpt><trkpt lat="37.98231649783762" lon="13.372953057730426"><ele>523.6</ele><time>2026-04-26T09:35:16Z</time></trkpt><trkpt lat="37.98225245990817" lon="13.37305096757853"><ele>518.0</ele><time>2026-04-26T09:35:18Z</time></trkpt><trkpt lat="37.982172693479974" lon="13.373135625081987"><ele>518.0</ele><time>2026-04-26T09:35:20Z</time></trkpt><trkpt lat="37.982098657204226" lon="13.373124109142884"><ele>518.0</ele><time>2026-04-26T09:35:23Z</time></trkpt><trkpt lat="37.98211818336388" lon="13.373023513123409"><ele>518.0</ele><time>2026-04-26T09:35:25Z</time></trkpt><trkpt lat="37.98214587676334" lon="13.37292626879694"><ele>518.0</ele><time>2026-04-26T09:35:27Z</time></trkpt><trkpt lat="37.982171566767605" lon="13.372795588732165"><ele>518.0</ele><time>2026-04-26T09:35:29Z</time></trkpt><trkpt lat="37.982202980248005" lon="13.372639688834663"><ele>516.2857142857143</ele><time>2026-04-26T09:35:31Z</time></trkpt><trkpt lat="37.98221972028521" lon="13.372560576390951"><ele>514.5714285714286</ele><time>2026-04-26T09:35:32Z</time></trkpt><trkpt lat="37.982237347418994" lon="13.372472797674796"><ele>512.8571428571429</ele><time>2026-04-26T09:35:33Z</time></trkpt><trkpt lat="37.98224990517494" lon="13.372385141166488"><ele>511.14285714285717</ele><time>2026-04-26T09:35:34Z</time></trkpt><trkpt lat="37.98225818373746" lon="13.372297730804823"><ele>509.42857142857144</ele><time>2026-04-26T09:35:35Z</time></trkpt><trkpt lat="37.98226475158443" lon="13.372210172281296"><ele>507.7142857142858</ele><time>2026-04-26T09:35:36Z</time></trkpt><trkpt lat="37.98227091745001" lon="13.372127972916017"><ele>506.00000000000006</ele><time>2026-04-26T09:35:37Z</time></trkpt><trkpt lat="37.98227508949821" lon="13.372046862816706"><ele>504.4</ele><time>2026-04-26T09:35:38Z</time></trkpt><trkpt lat="37.9822644818243" lon="13.37189094421504"><ele>502.8</ele><time>2026-04-26T09:35:40Z</time></trkpt><trkpt lat="37.98222577782343" lon="13.371755290103637"><ele>501.19999999999993</ele><time>2026-04-26T09:35:42Z</time></trkpt><trkpt lat="37.982165198021" lon="13.371651945567917"><ele>499.59999999999997</ele><time>2026-04-26T09:35:44Z</time></trkpt><trkpt lat="37.98209527323797" lon="13.371687536438449"><ele>498.0</ele><time>2026-04-26T09:35:45Z</time></trkpt><trkpt lat="37.981996962808225" lon="13.37167968757931"><ele>498.0</ele><time>2026-04-26T09:35:47Z</time></trkpt><trkpt lat="37.981893067058714" lon="13.3717046315299"><ele>497.99999999999994</ele><time>2026-04-26T09:35:49Z</time></trkpt><trkpt lat="37.98180148228141" lon="13.371769474616634"><ele>497.99999999999994</ele><time>2026-04-26T09:35:50.999Z</time></trkpt><trkpt lat="37.98171135265857" lon="13.371841201500986"><ele>498.0</ele><time>2026-04-26T09:35:52.999Z</time></trkpt><trkpt lat="37.981635580678905" lon="13.371916638267285"><ele>498.0</ele><time>2026-04-26T09:35:54.999Z</time></trkpt><trkpt lat="37.98155752879388" lon="13.372001439209852"><ele>495.59999999999997</ele><time>2026-04-26T09:35:56.999Z</time></trkpt><trkpt lat="37.9814785760124" lon="13.372091709943748"><ele>493.19999999999993</ele><time>2026-04-26T09:35:58.999Z</time></trkpt><trkpt lat="37.98140702963015" lon="13.372179951485133"><ele>490.8</ele><time>2026-04-26T09:36:00.999Z</time></trkpt><trkpt lat="37.981317416294395" lon="13.372255228709514"><ele>488.4</ele><time>2026-04-26T09:36:02.999Z</time></trkpt><trkpt lat="37.98124246653859" lon="13.372327063243214"><ele>486.0</ele><time>2026-04-26T09:36:04.999Z</time></trkpt><trkpt lat="37.98118015352951" lon="13.372420741036704"><ele>486.0</ele><time>2026-04-26T09:36:06.999Z</time></trkpt><trkpt lat="37.981130628184175" lon="13.372546164819019"><ele>486.0</ele><time>2026-04-26T09:36:08.999Z</time></trkpt><trkpt lat="37.98106251895958" lon="13.372660334979956"><ele>486.0</ele><time>2026-04-26T09:36:10.999Z</time></trkpt><trkpt lat="37.98097871662206" lon="13.372758218563966"><ele>486.0</ele><time>2026-04-26T09:36:12.999Z</time></trkpt><trkpt lat="37.980907988749905" lon="13.372861126047185"><ele>486.0</ele><time>2026-04-26T09:36:14.999Z</time></trkpt><trkpt lat="37.98085914766729" lon="13.372982280032005"><ele>483.0</ele><time>2026-04-26T09:36:16.999Z</time></trkpt><trkpt lat="37.980805016363426" lon="13.373110016531536"><ele>480.0</ele><time>2026-04-26T09:36:18.999Z</time></trkpt><trkpt lat="37.98077242914667" lon="13.373184766331212"><ele>477.0</ele><time>2026-04-26T09:36:19.999Z</time></trkpt><trkpt lat="37.980742332991845" lon="13.373263176736861"><ele>474.0</ele><time>2026-04-26T09:36:20.999Z</time></trkpt><trkpt lat="37.98071408381854" lon="13.37333631697503"><ele>471.0</ele><time>2026-04-26T09:36:21.999Z</time></trkpt><trkpt lat="37.98067007221734" lon="13.373410464912343"><ele>468.0</ele><time>2026-04-26T09:36:22.999Z</time></trkpt><trkpt lat="37.98063791434715" lon="13.373480269147215"><ele>468.0</ele><time>2026-04-26T09:36:23.999Z</time></trkpt><trkpt lat="37.98058679177473" lon="13.373581628202011"><ele>467.99999999999994</ele><time>2026-04-26T09:36:25.999Z</time></trkpt><trkpt lat="37.98053210274364" lon="13.37370575898779"><ele>467.99999999999994</ele><time>2026-04-26T09:36:27.999Z</time></trkpt><trkpt lat="37.98047830140614" lon="13.373828619204037"><ele>468.0</ele><time>2026-04-26T09:36:29.999Z</time></trkpt><trkpt lat="37.98044609500154" lon="13.37396572794829"><ele>468.0</ele><time>2026-04-26T09:36:31.999Z</time></trkpt><trkpt lat="37.98043508446536" lon="13.374045675995344"><ele>468.6666666666667</ele><time>2026-04-26T09:36:32.999Z</time></trkpt><trkpt lat="37.98041022391236" lon="13.374120956327912"><ele>469.33333333333337</ele><time>2026-04-26T09:36:33.999Z</time></trkpt><trkpt lat="37.98036978839626" lon="13.37419811660385"><ele>470.0</ele><time>2026-04-26T09:36:35Z</time></trkpt><trkpt lat="37.98033773424589" lon="13.3742697514195"><ele>470.6666666666667</ele><time>2026-04-26T09:36:36Z</time></trkpt><trkpt lat="37.98027393439088" lon="13.374395872676494"><ele>471.33333333333337</ele><time>2026-04-26T09:36:38Z</time></trkpt><trkpt lat="37.9802125058375" lon="13.374532235371008"><ele>472.0</ele><time>2026-04-26T09:36:40Z</time></trkpt><trkpt lat="37.98018026005198" lon="13.374603816394192"><ele>472.00000000000006</ele><time>2026-04-26T09:36:41Z</time></trkpt><trkpt lat="37.980164591213125" lon="13.374682275409729"><ele>472.0</ele><time>2026-04-26T09:36:42Z</time></trkpt><trkpt lat="37.98012617016199" lon="13.374746812911452"><ele>472.0</ele><time>2026-04-26T09:36:43Z</time></trkpt><trkpt lat="37.98007373186914" lon="13.374880115588923"><ele>472.0</ele><time>2026-04-26T09:36:45Z</time></trkpt><trkpt lat="37.980037697998256" lon="13.37502849813982"><ele>472.00000000000006</ele><time>2026-04-26T09:36:47Z</time></trkpt><trkpt lat="37.98001764569181" lon="13.375108515419846"><ele>472.0</ele><time>2026-04-26T09:36:48Z</time></trkpt><trkpt lat="37.98000257626666" lon="13.375187202102412"><ele>466.6</ele><time>2026-04-26T09:36:49Z</time></trkpt><trkpt lat="37.979986898167176" lon="13.37533840190818"><ele>461.20000000000005</ele><time>2026-04-26T09:36:51Z</time></trkpt><trkpt lat="37.979955813945786" lon="13.375488098395223"><ele>455.8</ele><time>2026-04-26T09:36:53Z</time></trkpt><trkpt lat="37.97989156470992" lon="13.375584861653241"><ele>450.4</ele><time>2026-04-26T09:36:55Z</time></trkpt><trkpt lat="37.979843670234125" lon="13.375641421504183"><ele>445.0</ele><time>2026-04-26T09:36:56Z</time></trkpt><trkpt lat="37.979786510193726" lon="13.375773505474776"><ele>445.0</ele><time>2026-04-26T09:36:58Z</time></trkpt><trkpt lat="37.97972716700567" lon="13.375904167579154"><ele>445.0</ele><time>2026-04-26T09:37:00Z</time></trkpt><trkpt lat="37.97965772242601" lon="13.375999233678439"><ele>445.0</ele><time>2026-04-26T09:37:02Z</time></trkpt><trkpt lat="37.979600600387286" lon="13.37611951910661"><ele>445.0</ele><time>2026-04-26T09:37:04Z</time></trkpt><trkpt lat="37.97952987271091" lon="13.376230006311129"><ele>445.0</ele><time>2026-04-26T09:37:06Z</time></trkpt><trkpt lat="37.97946279085516" lon="13.376335971474742"><ele>448.4</ele><time>2026-04-26T09:37:08Z</time></trkpt><trkpt lat="37.97939255811124" lon="13.376460541978648"><ele>451.8</ele><time>2026-04-26T09:37:10Z</time></trkpt><trkpt lat="37.97933147553587" lon="13.37660482977612"><ele>455.20000000000005</ele><time>2026-04-26T09:37:12Z</time></trkpt><trkpt lat="37.979290970203444" lon="13.37666713158976"><ele>458.6</ele><time>2026-04-26T09:37:13Z</time></trkpt><trkpt lat="37.97922618565241" lon="13.376769661009265"><ele>462.0</ele><time>2026-04-26T09:37:15Z</time></trkpt><trkpt lat="37.97918942443498" lon="13.376893935184308"><ele>458.0</ele><time>2026-04-26T09:37:17Z</time></trkpt><trkpt lat="37.97916908648934" lon="13.376969594053412"><ele>454.00000000000006</ele><time>2026-04-26T09:37:18Z</time></trkpt><trkpt lat="37.97912141845217" lon="13.377116836890442"><ele>450.00000000000006</ele><time>2026-04-26T09:37:20Z</time></trkpt><trkpt lat="37.979065828543476" lon="13.377251861350071"><ele>446.0</ele><time>2026-04-26T09:37:22Z</time></trkpt><trkpt lat="37.97900828100607" lon="13.37738731920691"><ele>442.0</ele><time>2026-04-26T09:37:24Z</time></trkpt><trkpt lat="37.97896439034946" lon="13.377507347009528"><ele>442.00000000000006</ele><time>2026-04-26T09:37:26Z</time></trkpt><trkpt lat="37.97889903071115" lon="13.37760773768265"><ele>442.0</ele><time>2026-04-26T09:37:28Z</time></trkpt><trkpt lat="37.978836545884015" lon="13.377635467307755"><ele>442.0</ele><time>2026-04-26T09:37:30Z</time></trkpt><trkpt lat="37.978783978038756" lon="13.37754224382059"><ele>442.0</ele><time>2026-04-26T09:37:32Z</time></trkpt><trkpt lat="37.97873111406676" lon="13.377486485969568"><ele>442.00000000000006</ele><time>2026-04-26T09:37:34Z</time></trkpt><trkpt lat="37.978662438733515" lon="13.377428354804781"><ele>442.0</ele><time>2026-04-26T09:37:37Z</time></trkpt><trkpt lat="37.97859526110837" lon="13.377411691455876"><ele>442.00000000000006</ele><time>2026-04-26T09:38:39.999Z</time></trkpt><trkpt lat="37.9785350900315" lon="13.377380611800389"><ele>442.0</ele><time>2026-04-26T09:38:56Z</time></trkpt><trkpt lat="37.97846838240489" lon="13.377361994339223"><ele>442.0</ele><time>2026-04-26T09:40:04Z</time></trkpt><trkpt lat="37.97840417104251" lon="13.377328127643237"><ele>442.0</ele><time>2026-04-26T09:42:00Z</time></trkpt><trkpt lat="37.97833516332969" lon="13.377320195324977"><ele>442.0</ele><time>2026-04-26T09:42:38.999Z</time></trkpt><trkpt lat="37.97827294306397" lon="13.377337201673614"><ele>442.00000000000006</ele><time>2026-04-26T09:42:45.999Z</time></trkpt><trkpt lat="37.97819628351371" lon="13.37734373589753"><ele>442.0</ele><time>2026-04-26T09:42:48.999Z</time></trkpt><trkpt lat="37.97812198730241" lon="13.377352123064014"><ele>439.6666666666667</ele><time>2026-04-26T09:42:51.999Z</time></trkpt><trkpt lat="37.978048867426395" lon="13.377385383645757"><ele>437.33333333333337</ele><time>2026-04-26T09:42:57Z</time></trkpt><trkpt lat="37.97797111363355" lon="13.377447835940899"><ele>435.0</ele><time>2026-04-26T09:43:00Z</time></trkpt><trkpt lat="37.97789396230417" lon="13.377500757052879"><ele>432.66666666666663</ele><time>2026-04-26T09:43:03Z</time></trkpt><trkpt lat="37.977834122688094" lon="13.377551419645654"><ele>430.3333333333333</ele><time>2026-04-26T09:43:06Z</time></trkpt><trkpt lat="37.97778038659729" lon="13.377653436710798"><ele>428.0</ele><time>2026-04-26T09:43:08Z</time></trkpt><trkpt lat="37.977706777742185" lon="13.377704034071257"><ele>427.99999999999994</ele><time>2026-04-26T09:43:10Z</time></trkpt><trkpt lat="37.977618480400366" lon="13.377754773578202"><ele>428.0</ele><time>2026-04-26T09:43:12Z</time></trkpt><trkpt lat="37.977559506490074" lon="13.377795899499489"><ele>428.0</ele><time>2026-04-26T09:43:14Z</time></trkpt><trkpt lat="37.97748230699679" lon="13.377843044718837"><ele>428.0</ele><time>2026-04-26T09:43:17Z</time></trkpt><trkpt lat="37.97741497388631" lon="13.37792400430748"><ele>427.99999999999994</ele><time>2026-04-26T09:43:20Z</time></trkpt><trkpt lat="37.977348367641554" lon="13.377988678454999"><ele>428.0</ele><time>2026-04-26T09:43:22Z</time></trkpt><trkpt lat="37.97728471136536" lon="13.378020013620223"><ele>427.3333333333333</ele><time>2026-04-26T09:43:24Z</time></trkpt><trkpt lat="37.97721290687401" lon="13.37802227991585"><ele>426.66666666666663</ele><time>2026-04-26T09:43:27Z</time></trkpt><trkpt lat="37.97716733708386" lon="13.377957901049356"><ele>426.0</ele><time>2026-04-26T09:43:30Z</time></trkpt><trkpt lat="37.97709651518918" lon="13.377986828759092"><ele>425.33333333333337</ele><time>2026-04-26T09:43:36Z</time></trkpt><trkpt lat="37.977085494298805" lon="13.378067011367888"><ele>424.6666666666667</ele><time>2026-04-26T09:43:38Z</time></trkpt><trkpt lat="37.97706114186315" lon="13.378193323352543"><ele>424.0</ele><time>2026-04-26T09:43:41Z</time></trkpt><trkpt lat="37.97705051906575" lon="13.378319134477968"><ele>424.00000000000006</ele><time>2026-04-26T09:43:43Z</time></trkpt><trkpt lat="37.97703612089631" lon="13.378437524445623"><ele>424.0</ele><time>2026-04-26T09:43:45Z</time></trkpt><trkpt lat="37.97700874414027" lon="13.378567949205294"><ele>424.0</ele><time>2026-04-26T09:43:47Z</time></trkpt><trkpt lat="37.97700779582567" lon="13.378669171454339"><ele>424.0</ele><time>2026-04-26T09:43:49Z</time></trkpt><trkpt lat="37.976985679597284" lon="13.37877077754486"><ele>424.00000000000006</ele><time>2026-04-26T09:43:51Z</time></trkpt><trkpt lat="37.976936582773135" lon="13.37885669491895"><ele>424.0</ele><time>2026-04-26T09:43:53Z</time></trkpt><trkpt lat="37.97687605831459" lon="13.378958450597725"><ele>423.6666666666667</ele><time>2026-04-26T09:43:55Z</time></trkpt><trkpt lat="37.976811959495556" lon="13.379072009770761"><ele>423.33333333333337</ele><time>2026-04-26T09:43:57Z</time></trkpt><trkpt lat="37.97674312781648" lon="13.379204579255065"><ele>423.0</ele><time>2026-04-26T09:43:59Z</time></trkpt><trkpt lat="37.97670252775436" lon="13.379271618737954"><ele>422.66666666666663</ele><time>2026-04-26T09:44:00Z</time></trkpt><trkpt lat="37.97665900138786" lon="13.379341428028836"><ele>422.3333333333333</ele><time>2026-04-26T09:44:01Z</time></trkpt><trkpt lat="37.97661649358011" lon="13.379413048195145"><ele>422.0</ele><time>2026-04-26T09:44:02Z</time></trkpt><trkpt lat="37.976571328935236" lon="13.379481556989848"><ele>422.66666666666663</ele><time>2026-04-26T09:44:03Z</time></trkpt><trkpt lat="37.976525943227514" lon="13.379550985880515"><ele>423.3333333333333</ele><time>2026-04-26T09:44:04Z</time></trkpt><trkpt lat="37.976472246992266" lon="13.379643614382708"><ele>424.0</ele><time>2026-04-26T09:44:05Z</time></trkpt><trkpt lat="37.97641866608984" lon="13.379734725703052"><ele>424.66666666666663</ele><time>2026-04-26T09:44:06Z</time></trkpt><trkpt lat="37.97636908713791" lon="13.379821253753738"><ele>425.3333333333333</ele><time>2026-04-26T09:44:07Z</time></trkpt><trkpt lat="37.97631600006504" lon="13.379912984295833"><ele>426.0</ele><time>2026-04-26T09:44:08Z</time></trkpt><trkpt lat="37.97627690048482" lon="13.379993449731481"><ele>424.6666666666667</ele><time>2026-04-26T09:44:09Z</time></trkpt><trkpt lat="37.97623457038616" lon="13.380065561287717"><ele>423.33333333333337</ele><time>2026-04-26T09:44:10Z</time></trkpt><trkpt lat="37.97618840185949" lon="13.380122964340222"><ele>422.0</ele><time>2026-04-26T09:44:11Z</time></trkpt><trkpt lat="37.97612837785196" lon="13.380224273550592"><ele>420.6666666666667</ele><time>2026-04-26T09:44:13Z</time></trkpt><trkpt lat="37.97608278725955" lon="13.380346594218127"><ele>419.33333333333337</ele><time>2026-04-26T09:44:15Z</time></trkpt><trkpt lat="37.9760755992802" lon="13.3804752252246"><ele>418.0</ele><time>2026-04-26T09:44:17Z</time></trkpt><trkpt lat="37.97605835017317" lon="13.380611037792754"><ele>417.85714285714283</ele><time>2026-04-26T09:44:19Z</time></trkpt><trkpt lat="37.97603552197356" lon="13.380689262276078"><ele>417.71428571428567</ele><time>2026-04-26T09:44:20Z</time></trkpt><trkpt lat="37.976003768358176" lon="13.380765337123835"><ele>417.57142857142856</ele><time>2026-04-26T09:44:21Z</time></trkpt><trkpt lat="37.97596573130662" lon="13.380834728159586"><ele>417.42857142857144</ele><time>2026-04-26T09:44:22Z</time></trkpt><trkpt lat="37.97592589282266" lon="13.380902444462034"><ele>417.2857142857143</ele><time>2026-04-26T09:44:23Z</time></trkpt><trkpt lat="37.975879701120164" lon="13.380989204808866"><ele>417.14285714285717</ele><time>2026-04-26T09:44:24Z</time></trkpt><trkpt lat="37.97583694724647" lon="13.38105802775026"><ele>417.0</ele><time>2026-04-26T09:44:25Z</time></trkpt><trkpt lat="37.975793447976926" lon="13.381126720190972"><ele>417.0</ele><time>2026-04-26T09:44:26Z</time></trkpt><trkpt lat="37.97575249856423" lon="13.381201177732924"><ele>417.0</ele><time>2026-04-26T09:44:27Z</time></trkpt><trkpt lat="37.975716828140285" lon="13.381283107041781"><ele>417.0</ele><time>2026-04-26T09:44:28Z</time></trkpt><trkpt lat="37.975695415583864" lon="13.381380730987715"><ele>417.0</ele><time>2026-04-26T09:44:28.999Z</time></trkpt><trkpt lat="37.975691414559215" lon="13.381481915148267"><ele>417.0</ele><time>2026-04-26T09:44:29.999Z</time></trkpt><trkpt lat="37.97569809824631" lon="13.381595520484879"><ele>417.0</ele><time>2026-04-26T09:44:30.999Z</time></trkpt><trkpt lat="37.975692273073335" lon="13.381703210154855"><ele>417.0</ele><time>2026-04-26T09:44:31.999Z</time></trkpt><trkpt lat="37.97570559035305" lon="13.381808386892203"><ele>417.0</ele><time>2026-04-26T09:44:32.999Z</time></trkpt><trkpt lat="37.97570286431206" lon="13.381923426626985"><ele>417.0</ele><time>2026-04-26T09:44:33.999Z</time></trkpt><trkpt lat="37.97569518736413" lon="13.3820231943299"><ele>417.0</ele><time>2026-04-26T09:44:34.999Z</time></trkpt><trkpt lat="37.97567906415565" lon="13.382125470133351"><ele>417.0</ele><time>2026-04-26T09:44:35.999Z</time></trkpt><trkpt lat="37.97566021339747" lon="13.382231448946753"><ele>417.0</ele><time>2026-04-26T09:44:36.999Z</time></trkpt><trkpt lat="37.97562814487127" lon="13.382320131996027"><ele>417.0</ele><time>2026-04-26T09:44:37.999Z</time></trkpt><trkpt lat="37.9755959364091" lon="13.382394589662013"><ele>417.0</ele><time>2026-04-26T09:44:38.999Z</time></trkpt><trkpt lat="37.97556722060441" lon="13.382486416723117"><ele>417.0</ele><time>2026-04-26T09:44:39.999Z</time></trkpt><trkpt lat="37.97553792067444" lon="13.38258570516707"><ele>417.0</ele><time>2026-04-26T09:44:40.999Z</time></trkpt><trkpt lat="37.97549837233025" lon="13.382688188700822"><ele>417.0</ele><time>2026-04-26T09:44:41.999Z</time></trkpt><trkpt lat="37.97547208985204" lon="13.382787357064732"><ele>417.0</ele><time>2026-04-26T09:44:42.999Z</time></trkpt><trkpt lat="37.975455117922046" lon="13.382875579137739"><ele>417.0</ele><time>2026-04-26T09:44:43.999Z</time></trkpt><trkpt lat="37.975442063712634" lon="13.382955794885788"><ele>417.0</ele><time>2026-04-26T09:44:44.999Z</time></trkpt><trkpt lat="37.97539790424677" lon="13.383086583641225"><ele>417.0</ele><time>2026-04-26T09:44:46.999Z</time></trkpt><trkpt lat="37.97533573336609" lon="13.383177964572011"><ele>417.0</ele><time>2026-04-26T09:44:48.999Z</time></trkpt><trkpt lat="37.97527112391508" lon="13.3833051646152"><ele>417.0</ele><time>2026-04-26T09:44:50.999Z</time></trkpt><trkpt lat="37.97523782979999" lon="13.383448363530249"><ele>416.8333333333333</ele><time>2026-04-26T09:44:52.999Z</time></trkpt><trkpt lat="37.97521870644985" lon="13.383530667438835"><ele>416.66666666666663</ele><time>2026-04-26T09:44:53.999Z</time></trkpt><trkpt lat="37.97515884287564" lon="13.383632945684997"><ele>416.5</ele><time>2026-04-26T09:44:55.999Z</time></trkpt><trkpt lat="37.975062249084445" lon="13.383705229801905"><ele>416.3333333333333</ele><time>2026-04-26T09:44:57.999Z</time></trkpt><trkpt lat="37.97500930875153" lon="13.383753308392748"><ele>416.16666666666663</ele><time>2026-04-26T09:44:59Z</time></trkpt><trkpt lat="37.97495258386238" lon="13.383803427087487"><ele>416.0</ele><time>2026-04-26T09:45:00Z</time></trkpt><trkpt lat="37.97490120176498" lon="13.383855927581912"><ele>415.25</ele><time>2026-04-26T09:45:01Z</time></trkpt><trkpt lat="37.97483087090257" lon="13.383975063877148"><ele>414.5</ele><time>2026-04-26T09:45:03Z</time></trkpt><trkpt lat="37.974774170304116" lon="13.384078074657074"><ele>413.75</ele><time>2026-04-26T09:45:05Z</time></trkpt><trkpt lat="37.974703036879305" lon="13.384194942969286"><ele>413.0</ele><time>2026-04-26T09:45:07Z</time></trkpt><trkpt lat="37.974621896381755" lon="13.384327873686543"><ele>413.0</ele><time>2026-04-26T09:45:09Z</time></trkpt><trkpt lat="37.974586095935514" lon="13.384399671473194"><ele>413.0</ele><time>2026-04-26T09:45:10Z</time></trkpt><trkpt lat="37.97453174523319" lon="13.384537345857975"><ele>413.0</ele><time>2026-04-26T09:45:12Z</time></trkpt><trkpt lat="37.97445289022767" lon="13.384653857406125"><ele>413.0</ele><time>2026-04-26T09:45:14Z</time></trkpt><trkpt lat="37.974407481255916" lon="13.384716592451593"><ele>413.0</ele><time>2026-04-26T09:45:15Z</time></trkpt><trkpt lat="37.97435142908185" lon="13.38478492554824"><ele>413.16666666666663</ele><time>2026-04-26T09:45:16Z</time></trkpt><trkpt lat="37.97429725164918" lon="13.38485958205639"><ele>413.3333333333333</ele><time>2026-04-26T09:45:17Z</time></trkpt><trkpt lat="37.9742674390497" lon="13.384942848671852"><ele>413.5</ele><time>2026-04-26T09:45:18Z</time></trkpt><trkpt lat="37.974230182970324" lon="13.385031973319201"><ele>413.66666666666663</ele><time>2026-04-26T09:45:19Z</time></trkpt><trkpt lat="37.974188506511815" lon="13.385116087515083"><ele>413.8333333333333</ele><time>2026-04-26T09:45:20Z</time></trkpt><trkpt lat="37.97414015998868" lon="13.385199659784336"><ele>414.0</ele><time>2026-04-26T09:45:21Z</time></trkpt><trkpt lat="37.97408688167214" lon="13.385280552271055"><ele>413.8333333333333</ele><time>2026-04-26T09:45:22Z</time></trkpt><trkpt lat="37.97403310618191" lon="13.385356855967403"><ele>413.66666666666663</ele><time>2026-04-26T09:45:23Z</time></trkpt><trkpt lat="37.97397514022765" lon="13.385431827194868"><ele>413.5</ele><time>2026-04-26T09:45:24Z</time></trkpt><trkpt lat="37.97391902817826" lon="13.385503050065214"><ele>413.3333333333333</ele><time>2026-04-26T09:45:25Z</time></trkpt><trkpt lat="37.97385547782284" lon="13.385577873635812"><ele>413.16666666666663</ele><time>2026-04-26T09:45:26Z</time></trkpt><trkpt lat="37.97378796787802" lon="13.385657295388047"><ele>413.0</ele><time>2026-04-26T09:45:27Z</time></trkpt><trkpt lat="37.97373327692767" lon="13.38571847221084"><ele>412.99999999999994</ele><time>2026-04-26T09:45:28Z</time></trkpt><trkpt lat="37.97367651657451" lon="13.385764466117632"><ele>413.0</ele><time>2026-04-26T09:45:29Z</time></trkpt><trkpt lat="37.973614269082155" lon="13.385803001069451"><ele>413.0</ele><time>2026-04-26T09:45:30Z</time></trkpt><trkpt lat="37.97354082047861" lon="13.38584568461605"><ele>413.0</ele><time>2026-04-26T09:45:31Z</time></trkpt><trkpt lat="37.973470677115806" lon="13.385896543555289"><ele>412.99999999999994</ele><time>2026-04-26T09:45:32Z</time></trkpt><trkpt lat="37.97340918090698" lon="13.385963611707128"><ele>413.0</ele><time>2026-04-26T09:45:33Z</time></trkpt><trkpt lat="37.97336076035171" lon="13.386038273057553"><ele>413.3333333333333</ele><time>2026-04-26T09:45:34Z</time></trkpt><trkpt lat="37.97331146708115" lon="13.386122642581086"><ele>413.66666666666663</ele><time>2026-04-26T09:45:35Z</time></trkpt><trkpt lat="37.97325983981877" lon="13.386204590156801"><ele>414.0</ele><time>2026-04-26T09:45:36Z</time></trkpt><trkpt lat="37.97320481797216" lon="13.386289666769095"><ele>414.33333333333337</ele><time>2026-04-26T09:45:37Z</time></trkpt><trkpt lat="37.97315484765371" lon="13.386371643503008"><ele>414.6666666666667</ele><time>2026-04-26T09:45:38Z</time></trkpt><trkpt lat="37.97308560467527" lon="13.386473933164984"><ele>415.0</ele><time>2026-04-26T09:45:40Z</time></trkpt><trkpt lat="37.972998317855065" lon="13.386526453945287"><ele>415.0</ele><time>2026-04-26T09:45:42Z</time></trkpt><trkpt lat="37.972894937698804" lon="13.38647383131363"><ele>415.0</ele><time>2026-04-26T09:45:44Z</time></trkpt><trkpt lat="37.972776423731084" lon="13.386477944532084"><ele>415.0</ele><time>2026-04-26T09:45:46Z</time></trkpt><trkpt lat="37.97271197499694" lon="13.386578435922853"><ele>415.0</ele><time>2026-04-26T09:45:48Z</time></trkpt><trkpt lat="37.97266867962826" lon="13.386692280281945"><ele>415.0</ele><time>2026-04-26T09:45:50Z</time></trkpt><trkpt lat="37.97263103880016" lon="13.386768592407988"><ele>415.00000000000006</ele><time>2026-04-26T09:45:51Z</time></trkpt><trkpt lat="37.97259480112937" lon="13.386840209968168"><ele>415.0</ele><time>2026-04-26T09:45:52Z</time></trkpt><trkpt lat="37.97256945672264" lon="13.38691417610646"><ele>415.0</ele><time>2026-04-26T09:45:53Z</time></trkpt><trkpt lat="37.97255095074407" lon="13.387015276354152"><ele>415.0</ele><time>2026-04-26T09:45:55Z</time></trkpt><trkpt lat="37.972526151372364" lon="13.387127891813295"><ele>415.00000000000006</ele><time>2026-04-26T09:45:57Z</time></trkpt><trkpt lat="37.972483535654774" lon="13.387260232995397"><ele>415.0</ele><time>2026-04-26T09:45:59Z</time></trkpt><trkpt lat="37.97243494406546" lon="13.38740069052199"><ele>415.14285714285717</ele><time>2026-04-26T09:46:01Z</time></trkpt><trkpt lat="37.97241354360251" lon="13.387476091320625"><ele>415.28571428571433</ele><time>2026-04-26T09:46:02Z</time></trkpt><trkpt lat="37.97239053323459" lon="13.387559069692928"><ele>415.42857142857144</ele><time>2026-04-26T09:46:03Z</time></trkpt><trkpt lat="37.9723677887009" lon="13.387641654980284"><ele>415.57142857142856</ele><time>2026-04-26T09:46:04Z</time></trkpt><trkpt lat="37.97234916385667" lon="13.387719240196654"><ele>415.7142857142857</ele><time>2026-04-26T09:46:05Z</time></trkpt><trkpt lat="37.97231953591903" lon="13.387791687918428"><ele>415.85714285714283</ele><time>2026-04-26T09:46:06Z</time></trkpt><trkpt lat="37.97228682758532" lon="13.387861844648286"><ele>416.0</ele><time>2026-04-26T09:46:07Z</time></trkpt><trkpt lat="37.97225395827858" lon="13.387936016605227"><ele>415.2857142857143</ele><time>2026-04-26T09:46:08Z</time></trkpt><trkpt lat="37.97222425357168" lon="13.388019948388944"><ele>414.5714285714286</ele><time>2026-04-26T09:46:09Z</time></trkpt><trkpt lat="37.972189892958696" lon="13.388104707986036"><ele>413.8571428571429</ele><time>2026-04-26T09:46:10Z</time></trkpt><trkpt lat="37.972149772118414" lon="13.38819208105356"><ele>413.1428571428571</ele><time>2026-04-26T09:46:11Z</time></trkpt><trkpt lat="37.97210463486819" lon="13.38826201280411"><ele>412.42857142857144</ele><time>2026-04-26T09:46:12Z</time></trkpt><trkpt lat="37.972060198481245" lon="13.38832755067964"><ele>411.7142857142857</ele><time>2026-04-26T09:46:13Z</time></trkpt><trkpt lat="37.972010902939004" lon="13.388403654995694"><ele>411.0</ele><time>2026-04-26T09:46:14Z</time></trkpt><trkpt lat="37.9719649087341" lon="13.388488935350729"><ele>411.0</ele><time>2026-04-26T09:46:15Z</time></trkpt><trkpt lat="37.97192700753464" lon="13.388572522748964"><ele>411.0</ele><time>2026-04-26T09:46:16Z</time></trkpt><trkpt lat="37.971883722587414" lon="13.388665205642091"><ele>411.0</ele><time>2026-04-26T09:46:17Z</time></trkpt><trkpt lat="37.97183148120165" lon="13.38875727992652"><ele>411.0</ele><time>2026-04-26T09:46:18Z</time></trkpt><trkpt lat="37.971787178359286" lon="13.38885084297706"><ele>411.0</ele><time>2026-04-26T09:46:19Z</time></trkpt><trkpt lat="37.97175142916019" lon="13.388940759587813"><ele>411.0</ele><time>2026-04-26T09:46:20Z</time></trkpt><trkpt lat="37.97172452707448" lon="13.389043534849762"><ele>411.0</ele><time>2026-04-26T09:46:21Z</time></trkpt><trkpt lat="37.971711185898776" lon="13.389128526481779"><ele>411.0</ele><time>2026-04-26T09:46:22Z</time></trkpt><trkpt lat="37.97169221636263" lon="13.389292558790153"><ele>411.0</ele><time>2026-04-26T09:46:24Z</time></trkpt><trkpt lat="37.97168203626876" lon="13.38937623891621"><ele>411.0</ele><time>2026-04-26T09:46:25Z</time></trkpt><trkpt lat="37.97167003507967" lon="13.389456489219022"><ele>411.0</ele><time>2026-04-26T09:46:26Z</time></trkpt><trkpt lat="37.97164674991729" lon="13.389545169103465"><ele>411.0</ele><time>2026-04-26T09:46:27Z</time></trkpt><trkpt lat="37.97161645620269" lon="13.389635300013914"><ele>414.0</ele><time>2026-04-26T09:46:28Z</time></trkpt><trkpt lat="37.971589276303085" lon="13.389730284925012"><ele>417.0</ele><time>2026-04-26T09:46:29Z</time></trkpt><trkpt lat="37.971558560232666" lon="13.389817982925738"><ele>420.0</ele><time>2026-04-26T09:46:30Z</time></trkpt><trkpt lat="37.971505569376205" lon="13.389908426134573"><ele>423.0</ele><time>2026-04-26T09:46:31Z</time></trkpt><trkpt lat="37.971450336634916" lon="13.389992650162332"><ele>426.0</ele><time>2026-04-26T09:46:32Z</time></trkpt><trkpt lat="37.97139643987848" lon="13.390077849894269"><ele>429.0</ele><time>2026-04-26T09:46:33Z</time></trkpt><trkpt lat="37.97134665583336" lon="13.390178645045964"><ele>429.0</ele><time>2026-04-26T09:46:34Z</time></trkpt><trkpt lat="37.97130120754719" lon="13.390280256665573"><ele>429.0</ele><time>2026-04-26T09:46:35Z</time></trkpt><trkpt lat="37.9712667829597" lon="13.39037513884776"><ele>429.0</ele><time>2026-04-26T09:46:36Z</time></trkpt><trkpt lat="37.97122888205629" lon="13.390450454679524"><ele>429.0</ele><time>2026-04-26T09:46:37Z</time></trkpt><trkpt lat="37.97116767925672" lon="13.390570024307076"><ele>429.0</ele><time>2026-04-26T09:46:38.999Z</time></trkpt><trkpt lat="37.97110785994309" lon="13.390699074257922"><ele>428.2</ele><time>2026-04-26T09:46:40.999Z</time></trkpt><trkpt lat="37.971045625276076" lon="13.390807882910734"><ele>427.4</ele><time>2026-04-26T09:46:42.999Z</time></trkpt><trkpt lat="37.97097852575107" lon="13.390910944180519"><ele>426.6</ele><time>2026-04-26T09:46:44.999Z</time></trkpt><trkpt lat="37.97093662892693" lon="13.391033679651498"><ele>425.8</ele><time>2026-04-26T09:46:46.999Z</time></trkpt><trkpt lat="37.97091972511626" lon="13.391161736807485"><ele>425.0</ele><time>2026-04-26T09:46:48.999Z</time></trkpt><trkpt lat="37.97087739507541" lon="13.391270829492798"><ele>424.6</ele><time>2026-04-26T09:46:50.999Z</time></trkpt><trkpt lat="37.97081750512824" lon="13.391353059849914"><ele>424.2</ele><time>2026-04-26T09:46:52.999Z</time></trkpt><trkpt lat="37.9707359133342" lon="13.391435205258876"><ele>423.79999999999995</ele><time>2026-04-26T09:46:54.999Z</time></trkpt><trkpt lat="37.970646871521055" lon="13.391535272346147"><ele>423.4</ele><time>2026-04-26T09:46:56.999Z</time></trkpt><trkpt lat="37.9705675588024" lon="13.391632340044376"><ele>423.0</ele><time>2026-04-26T09:46:58.999Z</time></trkpt><trkpt lat="37.97047037379687" lon="13.391702737957377"><ele>423.0</ele><time>2026-04-26T09:47:00.999Z</time></trkpt><trkpt lat="37.970354736101804" lon="13.39174021644495"><ele>423.0</ele><time>2026-04-26T09:47:02.999Z</time></trkpt><trkpt lat="37.970232456204805" lon="13.391762151203535"><ele>423.0</ele><time>2026-04-26T09:47:05Z</time></trkpt><trkpt lat="37.970105185769306" lon="13.391772425300845"><ele>423.0</ele><time>2026-04-26T09:47:07Z</time></trkpt><trkpt lat="37.970036335716046" lon="13.39177745947268"><ele>423.0</ele><time>2026-04-26T09:47:08Z</time></trkpt><trkpt lat="37.969929097314" lon="13.391815818995532"><ele>423.59999999999997</ele><time>2026-04-26T09:47:10Z</time></trkpt><trkpt lat="37.9698400872859" lon="13.391883699626494"><ele>424.2</ele><time>2026-04-26T09:47:12Z</time></trkpt><trkpt lat="37.96973873061327" lon="13.391904880174833"><ele>424.8</ele><time>2026-04-26T09:47:14Z</time></trkpt><trkpt lat="37.96962795352704" lon="13.391921218180938"><ele>425.4</ele><time>2026-04-26T09:47:16Z</time></trkpt><trkpt lat="37.96954215281669" lon="13.391949324446093"><ele>426.0</ele><time>2026-04-26T09:47:18Z</time></trkpt><trkpt lat="37.96945865483148" lon="13.392026369255"><ele>426.0</ele><time>2026-04-26T09:47:20Z</time></trkpt><trkpt lat="37.9693854715631" lon="13.392094293188489"><ele>426.0</ele><time>2026-04-26T09:47:22Z</time></trkpt><trkpt lat="37.96927682874499" lon="13.39211952759134"><ele>426.0</ele><time>2026-04-26T09:47:24Z</time></trkpt><trkpt lat="37.969201319716255" lon="13.392163356085302"><ele>426.0</ele><time>2026-04-26T09:47:26Z</time></trkpt><trkpt lat="37.96912190203677" lon="13.39224139376053"><ele>426.0</ele><time>2026-04-26T09:47:28Z</time></trkpt><trkpt lat="37.969040462972494" lon="13.392350937647645"><ele>424.85714285714283</ele><time>2026-04-26T09:47:30Z</time></trkpt><trkpt lat="37.968983045344615" lon="13.392403598557644"><ele>423.7142857142857</ele><time>2026-04-26T09:47:31Z</time></trkpt><trkpt lat="37.96892847103902" lon="13.392470877063479"><ele>422.57142857142856</ele><time>2026-04-26T09:47:32Z</time></trkpt><trkpt lat="37.96887410307224" lon="13.392531503453467"><ele>421.42857142857144</ele><time>2026-04-26T09:47:33Z</time></trkpt><trkpt lat="37.968820184714325" lon="13.392575687496684"><ele>420.2857142857143</ele><time>2026-04-26T09:47:34Z</time></trkpt><trkpt lat="37.96875420035183" lon="13.392605772293543"><ele>419.1428571428571</ele><time>2026-04-26T09:47:35Z</time></trkpt><trkpt lat="37.968685388054965" lon="13.392631731585158"><ele>418.0</ele><time>2026-04-26T09:47:36Z</time></trkpt><trkpt lat="37.968564678537874" lon="13.392653812057784"><ele>418.00000000000006</ele><time>2026-04-26T09:47:38Z</time></trkpt><trkpt lat="37.96849987221208" lon="13.392661534028154"><ele>418.0</ele><time>2026-04-26T09:47:39Z</time></trkpt><trkpt lat="37.96838077516177" lon="13.392692377740026"><ele>418.0</ele><time>2026-04-26T09:47:41Z</time></trkpt><trkpt lat="37.96828342888768" lon="13.39277330741941"><ele>418.0</ele><time>2026-04-26T09:47:43Z</time></trkpt><trkpt lat="37.96822969178089" lon="13.39282775577841"><ele>418.00000000000006</ele><time>2026-04-26T09:47:44Z</time></trkpt><trkpt lat="37.96816803819119" lon="13.392857230637166"><ele>418.0</ele><time>2026-04-26T09:47:45Z</time></trkpt><trkpt lat="37.96811465368803" lon="13.392914598786012"><ele>419.00000000000006</ele><time>2026-04-26T09:47:46Z</time></trkpt><trkpt lat="37.96804347583082" lon="13.392945740870589"><ele>420.0</ele><time>2026-04-26T09:47:47Z</time></trkpt><trkpt lat="37.96796988889122" lon="13.392994384766064"><ele>421.0</ele><time>2026-04-26T09:47:48Z</time></trkpt><trkpt lat="37.96790777425773" lon="13.393060986827114"><ele>422.0</ele><time>2026-04-26T09:47:49Z</time></trkpt><trkpt lat="37.96783662379164" lon="13.39309419654319"><ele>423.00000000000006</ele><time>2026-04-26T09:47:50Z</time></trkpt><trkpt lat="37.96777198160474" lon="13.393138704343382"><ele>424.0</ele><time>2026-04-26T09:47:51Z</time></trkpt><trkpt lat="37.96771195586255" lon="13.393193450558309"><ele>421.83333333333337</ele><time>2026-04-26T09:47:52Z</time></trkpt><trkpt lat="37.96765583803661" lon="13.393256387038297"><ele>419.6666666666667</ele><time>2026-04-26T09:47:53Z</time></trkpt><trkpt lat="37.96759712079559" lon="13.393319906759746"><ele>417.5</ele><time>2026-04-26T09:47:54Z</time></trkpt><trkpt lat="37.96753357393465" lon="13.393388406947643"><ele>415.33333333333337</ele><time>2026-04-26T09:47:55Z</time></trkpt><trkpt lat="37.96745912319043" lon="13.393462712454212"><ele>413.1666666666667</ele><time>2026-04-26T09:47:56Z</time></trkpt><trkpt lat="37.96738622301211" lon="13.393538767396517"><ele>411.0</ele><time>2026-04-26T09:47:57Z</time></trkpt><trkpt lat="37.96731032063287" lon="13.393613130259942"><ele>411.0</ele><time>2026-04-26T09:47:58Z</time></trkpt><trkpt lat="37.96724264523537" lon="13.393694644814566"><ele>411.0</ele><time>2026-04-26T09:47:59Z</time></trkpt><trkpt lat="37.96717928932822" lon="13.393776728537652"><ele>411.0</ele><time>2026-04-26T09:48:00Z</time></trkpt><trkpt lat="37.96711915254622" lon="13.393858966769868"><ele>411.0</ele><time>2026-04-26T09:48:01Z</time></trkpt><trkpt lat="37.96705338187178" lon="13.393941636164962"><ele>411.0</ele><time>2026-04-26T09:48:02Z</time></trkpt><trkpt lat="37.96698402481167" lon="13.394026280892458"><ele>410.4</ele><time>2026-04-26T09:48:03Z</time></trkpt><trkpt lat="37.96691970681362" lon="13.394113774635422"><ele>409.8</ele><time>2026-04-26T09:48:04Z</time></trkpt><trkpt lat="37.96685596942729" lon="13.394197345669793"><ele>409.2</ele><time>2026-04-26T09:48:05Z</time></trkpt><trkpt lat="37.96678858893546" lon="13.394274213151975"><ele>408.59999999999997</ele><time>2026-04-26T09:48:06Z</time></trkpt><trkpt lat="37.96671880006142" lon="13.394342339875992"><ele>408.0</ele><time>2026-04-26T09:48:07Z</time></trkpt><trkpt lat="37.9666434727485" lon="13.394415377945172"><ele>408.0</ele><time>2026-04-26T09:48:08Z</time></trkpt><trkpt lat="37.966568680266775" lon="13.394491344997366"><ele>408.0</ele><time>2026-04-26T09:48:09Z</time></trkpt><trkpt lat="37.96649237755281" lon="13.394568064261458"><ele>408.0</ele><time>2026-04-26T09:48:10Z</time></trkpt><trkpt lat="37.966424617079284" lon="13.394643225927146"><ele>408.0</ele><time>2026-04-26T09:48:11Z</time></trkpt><trkpt lat="37.96634017317737" lon="13.394701607137891"><ele>408.0</ele><time>2026-04-26T09:48:13Z</time></trkpt><trkpt lat="37.96627775702061" lon="13.39477549286422"><ele>406.3333333333333</ele><time>2026-04-26T09:48:14Z</time></trkpt><trkpt lat="37.966224209792294" lon="13.394841653550877"><ele>404.66666666666663</ele><time>2026-04-26T09:48:15Z</time></trkpt><trkpt lat="37.96617073341983" lon="13.394918854606141"><ele>403.0</ele><time>2026-04-26T09:48:16Z</time></trkpt><trkpt lat="37.966119852341016" lon="13.39498880513131"><ele>401.3333333333333</ele><time>2026-04-26T09:48:17Z</time></trkpt><trkpt lat="37.96606286723222" lon="13.395050168387776"><ele>399.66666666666663</ele><time>2026-04-26T09:48:18Z</time></trkpt><trkpt lat="37.965999599750816" lon="13.395113831759991"><ele>398.0</ele><time>2026-04-26T09:48:19Z</time></trkpt><trkpt lat="37.965941862863176" lon="13.39516887854299"><ele>397.99999999999994</ele><time>2026-04-26T09:48:20Z</time></trkpt><trkpt lat="37.96587807752478" lon="13.395205940705253"><ele>398.0</ele><time>2026-04-26T09:48:21Z</time></trkpt><trkpt lat="37.96582143116903" lon="13.395246991200096"><ele>398.0</ele><time>2026-04-26T09:48:22Z</time></trkpt><trkpt lat="37.96575914614437" lon="13.395367049042925"><ele>398.0</ele><time>2026-04-26T09:48:24Z</time></trkpt><trkpt lat="37.965723350042694" lon="13.395443430832566"><ele>397.99999999999994</ele><time>2026-04-26T09:48:25Z</time></trkpt><trkpt lat="37.96567968309157" lon="13.395591225523255"><ele>398.0</ele><time>2026-04-26T09:48:27Z</time></trkpt><trkpt lat="37.96566790243626" lon="13.395677112439296"><ele>400.59999999999997</ele><time>2026-04-26T09:48:28Z</time></trkpt><trkpt lat="37.96565563048629" lon="13.395832166272957"><ele>403.2</ele><time>2026-04-26T09:48:30Z</time></trkpt><trkpt lat="37.96566948271654" lon="13.39597773423383"><ele>405.8</ele><time>2026-04-26T09:48:32Z</time></trkpt><trkpt lat="37.96569340029017" lon="13.396105546235134"><ele>408.4</ele><time>2026-04-26T09:48:34Z</time></trkpt><trkpt lat="37.96567900630024" lon="13.396240445092289"><ele>411.0</ele><time>2026-04-26T09:48:36Z</time></trkpt><trkpt lat="37.96569145446912" lon="13.396397665524475"><ele>411.0</ele><time>2026-04-26T09:48:38Z</time></trkpt><trkpt lat="37.9656597363951" lon="13.396546586666915"><ele>411.0</ele><time>2026-04-26T09:48:40Z</time></trkpt><trkpt lat="37.965619738449426" lon="13.396621204401601"><ele>411.0</ele><time>2026-04-26T09:48:41Z</time></trkpt><trkpt lat="37.96554373404404" lon="13.396742840090772"><ele>411.0</ele><time>2026-04-26T09:48:43Z</time></trkpt><trkpt lat="37.965508496256604" lon="13.396857971388295"><ele>411.0</ele><time>2026-04-26T09:48:45Z</time></trkpt><trkpt lat="37.96553367210862" lon="13.396982594896487"><ele>411.0</ele><time>2026-04-26T09:48:47Z</time></trkpt><trkpt lat="37.965574011486474" lon="13.397079551402257"><ele>411.0</ele><time>2026-04-26T09:48:49Z</time></trkpt><trkpt lat="37.96559395954112" lon="13.39721635360237"><ele>411.0</ele><time>2026-04-26T09:48:51Z</time></trkpt><trkpt lat="37.965538019963574" lon="13.397358266812923"><ele>411.0</ele><time>2026-04-26T09:48:53Z</time></trkpt><trkpt lat="37.965493436831366" lon="13.397419107478193"><ele>411.0</ele><time>2026-04-26T09:48:54Z</time></trkpt><trkpt lat="37.96545663523409" lon="13.397485817321991"><ele>409.6666666666667</ele><time>2026-04-26T09:48:54.999Z</time></trkpt><trkpt lat="37.96542318453628" lon="13.397562305935582"><ele>408.33333333333337</ele><time>2026-04-26T09:48:55.999Z</time></trkpt><trkpt lat="37.965368288312845" lon="13.397691026932263"><ele>407.0</ele><time>2026-04-26T09:48:57.999Z</time></trkpt><trkpt lat="37.96529786769142" lon="13.397818005766046"><ele>405.6666666666667</ele><time>2026-04-26T09:48:59.999Z</time></trkpt><trkpt lat="37.96525438802511" lon="13.397880998218229"><ele>404.33333333333337</ele><time>2026-04-26T09:49:00.999Z</time></trkpt><trkpt lat="37.96520569343369" lon="13.397944496763762"><ele>403.0</ele><time>2026-04-26T09:49:01.999Z</time></trkpt><trkpt lat="37.965166554861895" lon="13.398008584572088"><ele>401.2857142857143</ele><time>2026-04-26T09:49:02.999Z</time></trkpt><trkpt lat="37.96514876618058" lon="13.39808933341494"><ele>399.57142857142856</ele><time>2026-04-26T09:49:03.999Z</time></trkpt><trkpt lat="37.96514444141442" lon="13.398190438227946"><ele>397.85714285714283</ele><time>2026-04-26T09:49:04.999Z</time></trkpt><trkpt lat="37.96513512886404" lon="13.398288265564963"><ele>396.1428571428571</ele><time>2026-04-26T09:49:05.999Z</time></trkpt><trkpt lat="37.96511608467844" lon="13.39838785177948"><ele>394.42857142857144</ele><time>2026-04-26T09:49:06.999Z</time></trkpt><trkpt lat="37.96509501303679" lon="13.398475266367454"><ele>392.71428571428567</ele><time>2026-04-26T09:49:07.999Z</time></trkpt><trkpt lat="37.96507233784958" lon="13.398562996335967"><ele>391.0</ele><time>2026-04-26T09:49:08.999Z</time></trkpt><trkpt lat="37.96504636355453" lon="13.398706716597884"><ele>391.5</ele><time>2026-04-26T09:49:11.001Z</time></trkpt><trkpt lat="37.96502185294944" lon="13.398841005155315"><ele>392.0</ele><time>2026-04-26T09:49:13.001Z</time></trkpt><trkpt lat="37.96499491531793" lon="13.398932720192965"><ele>392.5</ele><time>2026-04-26T09:49:15.001Z</time></trkpt><trkpt lat="37.96482705132113" lon="13.398720957578883"><ele>393.0</ele><time>2026-04-26T09:49:31Z</time></trkpt><trkpt lat="37.96477928177492" lon="13.398644492826177"><ele>393.0</ele><time>2026-04-26T09:49:32Z</time></trkpt><trkpt lat="37.96472697626079" lon="13.398555125634143"><ele>393.0</ele><time>2026-04-26T09:49:34Z</time></trkpt><trkpt lat="37.96468641381645" lon="13.39847722540621"><ele>393.0</ele><time>2026-04-26T09:49:36Z</time></trkpt><trkpt lat="37.96464925519371" lon="13.398397605463824"><ele>393.0</ele><time>2026-04-26T09:49:38Z</time></trkpt><trkpt lat="37.964683614215666" lon="13.398471559877017"><ele>393.0</ele><time>2026-04-26T09:49:59Z</time></trkpt><trkpt lat="37.964724023477146" lon="13.398549751318257"><ele>393.0</ele><time>2026-04-26T09:50:01Z</time></trkpt><trkpt lat="37.96480565998493" lon="13.398699573438133"><ele>393.0</ele><time>2026-04-26T09:50:02Z</time></trkpt><trkpt lat="37.964822359879285" lon="13.39878180034899"><ele>393.0</ele><time>2026-04-26T09:50:03Z</time></trkpt><trkpt lat="37.96489332589342" lon="13.398896547013848"><ele>393.0</ele><time>2026-04-26T09:50:05Z</time></trkpt><trkpt lat="37.96495786485146" lon="13.399030231081419"><ele>393.0</ele><time>2026-04-26T09:50:07Z</time></trkpt><trkpt lat="37.965014529454216" lon="13.399097046204643"><ele>393.0</ele><time>2026-04-26T09:50:08Z</time></trkpt><trkpt lat="37.965044521461586" lon="13.399186684559043"><ele>391.7142857142857</ele><time>2026-04-26T09:50:09Z</time></trkpt><trkpt lat="37.96508227301709" lon="13.39925485537789"><ele>390.42857142857144</ele><time>2026-04-26T09:50:10Z</time></trkpt><trkpt lat="37.96511061301042" lon="13.399326599653639"><ele>389.1428571428571</ele><time>2026-04-26T09:50:11Z</time></trkpt><trkpt lat="37.96513752021568" lon="13.399405914361402"><ele>387.8571428571429</ele><time>2026-04-26T09:50:12Z</time></trkpt><trkpt lat="37.96516127020975" lon="13.399480713276336"><ele>386.57142857142856</ele><time>2026-04-26T09:50:13Z</time></trkpt><trkpt lat="37.96518278377465" lon="13.399561498515322"><ele>385.2857142857143</ele><time>2026-04-26T09:50:14Z</time></trkpt><trkpt lat="37.965202274455194" lon="13.399639634200202"><ele>384.0</ele><time>2026-04-26T09:50:15Z</time></trkpt><trkpt lat="37.96522309211716" lon="13.399725092685808"><ele>381.5</ele><time>2026-04-26T09:50:16Z</time></trkpt><trkpt lat="37.96524099286547" lon="13.399808858692813"><ele>379.0</ele><time>2026-04-26T09:50:17Z</time></trkpt><trkpt lat="37.96522800281371" lon="13.399946235143052"><ele>376.5</ele><time>2026-04-26T09:50:19Z</time></trkpt><trkpt lat="37.965166123322696" lon="13.399996365391306"><ele>374.0</ele><time>2026-04-26T09:50:20Z</time></trkpt><trkpt lat="37.96507659355281" lon="13.399983893317586"><ele>371.5</ele><time>2026-04-26T09:50:21Z</time></trkpt><trkpt lat="37.96500304246001" lon="13.40001640623919"><ele>369.0</ele><time>2026-04-26T09:50:22Z</time></trkpt><trkpt lat="37.96493161969012" lon="13.400001680137656"><ele>369.0</ele><time>2026-04-26T09:50:23Z</time></trkpt><trkpt lat="37.96487435482362" lon="13.400049652498598"><ele>369.0</ele><time>2026-04-26T09:50:24Z</time></trkpt><trkpt lat="37.964838347991275" lon="13.400123593665874"><ele>369.0</ele><time>2026-04-26T09:50:25Z</time></trkpt><trkpt lat="37.96483673775558" lon="13.400214908126582"><ele>369.0</ele><time>2026-04-26T09:50:26Z</time></trkpt><trkpt lat="37.9648655657468" lon="13.400294365641038"><ele>369.0</ele><time>2026-04-26T09:50:27Z</time></trkpt><trkpt lat="37.96491711077297" lon="13.400393309898558"><ele>369.0</ele><time>2026-04-26T09:50:28Z</time></trkpt><trkpt lat="37.96498057090723" lon="13.400473588855055"><ele>367.2857142857143</ele><time>2026-04-26T09:50:29Z</time></trkpt><trkpt lat="37.96503985527799" lon="13.400540201070314"><ele>365.57142857142856</ele><time>2026-04-26T09:50:30Z</time></trkpt><trkpt lat="37.96508881339924" lon="13.400602420553732"><ele>363.8571428571429</ele><time>2026-04-26T09:50:31Z</time></trkpt><trkpt lat="37.96510156257001" lon="13.40068278965018"><ele>362.1428571428571</ele><time>2026-04-26T09:50:32Z</time></trkpt><trkpt lat="37.96508360852792" lon="13.400762470220302"><ele>360.42857142857144</ele><time>2026-04-26T09:50:33Z</time></trkpt><trkpt lat="37.96501999144063" lon="13.400815533096704"><ele>358.7142857142857</ele><time>2026-04-26T09:50:34Z</time></trkpt><trkpt lat="37.96494216410818" lon="13.400841373859143"><ele>357.0</ele><time>2026-04-26T09:50:35Z</time></trkpt><trkpt lat="37.9648447445836" lon="13.40082399378897"><ele>357.0</ele><time>2026-04-26T09:50:36Z</time></trkpt><trkpt lat="37.96476014867169" lon="13.400737826715092"><ele>357.0</ele><time>2026-04-26T09:50:37Z</time></trkpt><trkpt lat="37.96465081614526" lon="13.40069154250345"><ele>357.0</ele><time>2026-04-26T09:50:38Z</time></trkpt><trkpt lat="37.96454958761751" lon="13.400634390903912"><ele>357.0</ele><time>2026-04-26T09:50:39Z</time></trkpt><trkpt lat="37.96444036416524" lon="13.400579494918908"><ele>357.0</ele><time>2026-04-26T09:50:40Z</time></trkpt><trkpt lat="37.96432362418212" lon="13.400541166794273"><ele>357.0</ele><time>2026-04-26T09:50:41Z</time></trkpt><trkpt lat="37.964202607726556" lon="13.400531765404132"><ele>357.0</ele><time>2026-04-26T09:50:42Z</time></trkpt><trkpt lat="37.96409489624574" lon="13.400529021510474"><ele>357.0</ele><time>2026-04-26T09:50:43Z</time></trkpt><trkpt lat="37.96398969903071" lon="13.400517973351922"><ele>357.8</ele><time>2026-04-26T09:50:44Z</time></trkpt><trkpt lat="37.963881030733" lon="13.40049003445784"><ele>358.6</ele><time>2026-04-26T09:50:45Z</time></trkpt><trkpt lat="37.96378157436753" lon="13.400444113036535"><ele>359.40000000000003</ele><time>2026-04-26T09:50:46Z</time></trkpt><trkpt lat="37.963706767864004" lon="13.400364506430979"><ele>360.20000000000005</ele><time>2026-04-26T09:50:47Z</time></trkpt><trkpt lat="37.96362559138666" lon="13.40032489084682"><ele>361.0</ele><time>2026-04-26T09:50:48Z</time></trkpt><trkpt lat="37.96354463709045" lon="13.400277411210707"><ele>361.0</ele><time>2026-04-26T09:50:49Z</time></trkpt><trkpt lat="37.96347762483395" lon="13.400281773869454"><ele>361.0</ele><time>2026-04-26T09:50:50Z</time></trkpt><trkpt lat="37.96340205732996" lon="13.400309594996314"><ele>361.0</ele><time>2026-04-26T09:50:51Z</time></trkpt><trkpt lat="37.96335973765877" lon="13.400484858831568"><ele>361.0</ele><time>2026-04-26T09:50:52Z</time></trkpt><trkpt lat="37.96327412540454" lon="13.400586769593437"><ele>361.0</ele><time>2026-04-26T09:50:53Z</time></trkpt><trkpt lat="37.963182525680836" lon="13.400696951642237"><ele>357.0</ele><time>2026-04-26T09:50:54Z</time></trkpt><trkpt lat="37.96307069813584" lon="13.400778935154884"><ele>353.0</ele><time>2026-04-26T09:50:55Z</time></trkpt><trkpt lat="37.96296735409012" lon="13.400846667668993"><ele>349.0</ele><time>2026-04-26T09:50:56Z</time></trkpt><trkpt lat="37.96286226405864" lon="13.400877505550248"><ele>345.0</ele><time>2026-04-26T09:50:57Z</time></trkpt><trkpt lat="37.96276315643461" lon="13.400899690382627"><ele>345.0</ele><time>2026-04-26T09:50:58Z</time></trkpt><trkpt lat="37.96264083001092" lon="13.400923397491063"><ele>345.0</ele><time>2026-04-26T09:50:59Z</time></trkpt><trkpt lat="37.96250534987144" lon="13.400926214308685"><ele>345.0</ele><time>2026-04-26T09:51:00Z</time></trkpt><trkpt lat="37.96236190185703" lon="13.400945076905243"><ele>345.0</ele><time>2026-04-26T09:51:01Z</time></trkpt><trkpt lat="37.96221570055617" lon="13.40098700975292"><ele>346.0</ele><time>2026-04-26T09:51:02Z</time></trkpt><trkpt lat="37.96207082737787" lon="13.401051291420254"><ele>347.0</ele><time>2026-04-26T09:51:03Z</time></trkpt><trkpt lat="37.96195390077537" lon="13.401103956738101"><ele>348.0</ele><time>2026-04-26T09:51:04Z</time></trkpt><trkpt lat="37.96186771837539" lon="13.401161320060643"><ele>349.0</ele><time>2026-04-26T09:51:05Z</time></trkpt><trkpt lat="37.961822283397275" lon="13.401260305307115"><ele>346.3333333333333</ele><time>2026-04-26T09:51:06Z</time></trkpt><trkpt lat="37.961791146787924" lon="13.401354926799026"><ele>343.66666666666663</ele><time>2026-04-26T09:51:07Z</time></trkpt><trkpt lat="37.96174632845724" lon="13.4014593141325"><ele>341.0</ele><time>2026-04-26T09:51:08Z</time></trkpt><trkpt lat="37.961697908056095" lon="13.401562135781775"><ele>338.3333333333333</ele><time>2026-04-26T09:51:09Z</time></trkpt><trkpt lat="37.96166033148728" lon="13.401654498221294"><ele>335.6666666666667</ele><time>2026-04-26T09:51:09.999Z</time></trkpt><trkpt lat="37.96160209917968" lon="13.401702152903747"><ele>333.0</ele><time>2026-04-26T09:51:10.999Z</time></trkpt><trkpt lat="37.96152892671793" lon="13.40171593121612"><ele>333.0</ele><time>2026-04-26T09:51:11.999Z</time></trkpt><trkpt lat="37.96143749193994" lon="13.4016774332525"><ele>333.0</ele><time>2026-04-26T09:51:12.999Z</time></trkpt><trkpt lat="37.9613399719314" lon="13.401639218361174"><ele>333.0</ele><time>2026-04-26T09:51:13.999Z</time></trkpt><trkpt lat="37.96122708299561" lon="13.401618495517702"><ele>333.0</ele><time>2026-04-26T09:51:14.999Z</time></trkpt><trkpt lat="37.9611338254611" lon="13.401579247018264"><ele>333.0</ele><time>2026-04-26T09:51:15.999Z</time></trkpt><trkpt lat="37.96104940107304" lon="13.40156856752371"><ele>333.0</ele><time>2026-04-26T09:51:17.001Z</time></trkpt><trkpt lat="37.9609427025767" lon="13.401616042134997"><ele>333.0</ele><time>2026-04-26T09:51:19.001Z</time></trkpt><trkpt lat="37.960924189004025" lon="13.401705581434388"><ele>333.0</ele><time>2026-04-26T09:51:20.001Z</time></trkpt><trkpt lat="37.96091821590637" lon="13.401864785389705"><ele>333.0</ele><time>2026-04-26T09:51:22.001Z</time></trkpt><trkpt lat="37.96094954252887" lon="13.401938165438654"><ele>333.0</ele><time>2026-04-26T09:51:23.001Z</time></trkpt><trkpt lat="37.96100620517532" lon="13.401990506597093"><ele>333.0</ele><time>2026-04-26T09:51:24.001Z</time></trkpt><trkpt lat="37.961074340149814" lon="13.402013188647611"><ele>333.0</ele><time>2026-04-26T09:51:25.001Z</time></trkpt><trkpt lat="37.9611427503717" lon="13.40201326634275"><ele>333.0</ele><time>2026-04-26T09:51:26.001Z</time></trkpt><trkpt lat="37.96127217649899" lon="13.401971211040212"><ele>333.0</ele><time>2026-04-26T09:51:27.001Z</time></trkpt><trkpt lat="37.96139491071187" lon="13.401972105024594"><ele>333.0</ele><time>2026-04-26T09:51:28.001Z</time></trkpt><trkpt lat="37.96152011182501" lon="13.401956370566584"><ele>333.0</ele><time>2026-04-26T09:51:29.001Z</time></trkpt><trkpt lat="37.96166544554245" lon="13.40193156342046"><ele>333.0</ele><time>2026-04-26T09:51:30.001Z</time></trkpt><trkpt lat="37.961794632035044" lon="13.40189137728078"><ele>333.0</ele><time>2026-04-26T09:51:31.001Z</time></trkpt><trkpt lat="37.96191624527879" lon="13.401822728915556"><ele>333.0</ele><time>2026-04-26T09:51:32.001Z</time></trkpt><trkpt lat="37.96204311201786" lon="13.401743360406588"><ele>331.2</ele><time>2026-04-26T09:51:33.001Z</time></trkpt><trkpt lat="37.96216240995766" lon="13.401668564279229"><ele>329.4</ele><time>2026-04-26T09:51:34.001Z</time></trkpt><trkpt lat="37.96226260167471" lon="13.401605613622928"><ele>327.59999999999997</ele><time>2026-04-26T09:51:35.001Z</time></trkpt><trkpt lat="37.96235041006098" lon="13.401555779989218"><ele>325.79999999999995</ele><time>2026-04-26T09:51:36.001Z</time></trkpt><trkpt lat="37.96243078521487" lon="13.401521912793749"><ele>324.0</ele><time>2026-04-26T09:51:37.001Z</time></trkpt><trkpt lat="37.962511489250154" lon="13.401509975776602"><ele>324.1666666666667</ele><time>2026-04-26T09:51:38.001Z</time></trkpt><trkpt lat="37.96258709948873" lon="13.401521685798718"><ele>324.3333333333333</ele><time>2026-04-26T09:51:39.001Z</time></trkpt><trkpt lat="37.96264883457941" lon="13.401574306666717"><ele>324.5</ele><time>2026-04-26T09:51:40.001Z</time></trkpt><trkpt lat="37.96271751200041" lon="13.401678490764722"><ele>324.66666666666663</ele><time>2026-04-26T09:51:42Z</time></trkpt><trkpt lat="37.96266748138125" lon="13.401798402882514"><ele>324.8333333333333</ele><time>2026-04-26T09:51:44Z</time></trkpt><trkpt lat="37.96261629310799" lon="13.401866448250674"><ele>325.0</ele><time>2026-04-26T09:51:45Z</time></trkpt><trkpt lat="37.962551880765155" lon="13.401928321929004"><ele>324.8</ele><time>2026-04-26T09:51:46Z</time></trkpt><trkpt lat="37.96246531224824" lon="13.401964411545038"><ele>324.6</ele><time>2026-04-26T09:51:47Z</time></trkpt><trkpt lat="37.96236364999245" lon="13.401984796902697"><ele>324.4</ele><time>2026-04-26T09:51:48Z</time></trkpt><trkpt lat="37.96224686335034" lon="13.402006489832816"><ele>324.2</ele><time>2026-04-26T09:51:49Z</time></trkpt><trkpt lat="37.96213025174171" lon="13.402039312663959"><ele>324.0</ele><time>2026-04-26T09:51:50Z</time></trkpt><trkpt lat="37.96199453404427" lon="13.402076627346345"><ele>324.0</ele><time>2026-04-26T09:51:51Z</time></trkpt><trkpt lat="37.96185511194116" lon="13.402102287789816"><ele>324.0</ele><time>2026-04-26T09:51:52Z</time></trkpt><trkpt lat="37.96171839787094" lon="13.402116708828252"><ele>324.0</ele><time>2026-04-26T09:51:53Z</time></trkpt><trkpt lat="37.96159702421625" lon="13.402132907804889"><ele>324.0</ele><time>2026-04-26T09:51:54Z</time></trkpt><trkpt lat="37.96147759579866" lon="13.402172508434708"><ele>319.25</ele><time>2026-04-26T09:51:55Z</time></trkpt><trkpt lat="37.961353876818336" lon="13.402234916518905"><ele>314.5</ele><time>2026-04-26T09:51:56Z</time></trkpt><trkpt lat="37.96123102537918" lon="13.402308880510098"><ele>309.75</ele><time>2026-04-26T09:51:57Z</time></trkpt><trkpt lat="37.96112114180382" lon="13.402375693095436"><ele>305.0</ele><time>2026-04-26T09:51:58Z</time></trkpt><trkpt lat="37.96103592428671" lon="13.402427992214175"><ele>305.0</ele><time>2026-04-26T09:51:59Z</time></trkpt><trkpt lat="37.9609748592617" lon="13.402461068218564"><ele>305.0</ele><time>2026-04-26T09:52:00Z</time></trkpt><trkpt lat="37.96091239920381" lon="13.402474282032154"><ele>305.0</ele><time>2026-04-26T09:52:01Z</time></trkpt><trkpt lat="37.96080654862981" lon="13.40240726287224"><ele>305.0</ele><time>2026-04-26T09:52:03Z</time></trkpt><trkpt lat="37.96071969165086" lon="13.40228610475181"><ele>305.0</ele><time>2026-04-26T09:52:05Z</time></trkpt><trkpt lat="37.960656308011366" lon="13.402203226110478"><ele>309.2</ele><time>2026-04-26T09:52:06Z</time></trkpt><trkpt lat="37.96058571600754" lon="13.402109290163452"><ele>313.4</ele><time>2026-04-26T09:52:07Z</time></trkpt><trkpt lat="37.960501867144345" lon="13.402043026752523"><ele>317.6</ele><time>2026-04-26T09:52:08Z</time></trkpt><trkpt lat="37.96043385775107" lon="13.401959699352517"><ele>321.8</ele><time>2026-04-26T09:52:09Z</time></trkpt><trkpt lat="37.96035816546601" lon="13.40189864012944"><ele>326.0</ele><time>2026-04-26T09:52:10Z</time></trkpt><trkpt lat="37.96027249686043" lon="13.401861410292616"><ele>326.0</ele><time>2026-04-26T09:52:11Z</time></trkpt><trkpt lat="37.960179151576185" lon="13.401849776265667"><ele>326.0</ele><time>2026-04-26T09:52:12Z</time></trkpt><trkpt lat="37.96007703956689" lon="13.401865808964693"><ele>326.0</ele><time>2026-04-26T09:52:13Z</time></trkpt><trkpt lat="37.959974897196126" lon="13.401909254901772"><ele>326.0</ele><time>2026-04-26T09:52:14Z</time></trkpt><trkpt lat="37.95989269237078" lon="13.401969301774654"><ele>326.0</ele><time>2026-04-26T09:52:15Z</time></trkpt><trkpt lat="37.95981906488485" lon="13.402010065570401"><ele>323.40000000000003</ele><time>2026-04-26T09:52:16Z</time></trkpt><trkpt lat="37.959739165591586" lon="13.40201392870419"><ele>320.8</ele><time>2026-04-26T09:52:17Z</time></trkpt><trkpt lat="37.95964758226889" lon="13.401976394438814"><ele>318.20000000000005</ele><time>2026-04-26T09:52:18Z</time></trkpt><trkpt lat="37.95956900870182" lon="13.401880643879423"><ele>315.6</ele><time>2026-04-26T09:52:19Z</time></trkpt><trkpt lat="37.959474829295566" lon="13.401805619839386"><ele>313.0</ele><time>2026-04-26T09:52:20Z</time></trkpt><trkpt lat="37.95940583335323" lon="13.401716337065569"><ele>313.0</ele><time>2026-04-26T09:52:21Z</time></trkpt><trkpt lat="37.959336057063766" lon="13.401661181627238"><ele>313.0</ele><time>2026-04-26T09:52:22Z</time></trkpt><trkpt lat="37.959247986352025" lon="13.401654217787557"><ele>313.0</ele><time>2026-04-26T09:52:23Z</time></trkpt><trkpt lat="37.95915218315364" lon="13.401673649616985"><ele>313.0</ele><time>2026-04-26T09:52:24Z</time></trkpt><trkpt lat="37.959061878677616" lon="13.401715189884696"><ele>313.0</ele><time>2026-04-26T09:52:25Z</time></trkpt><trkpt lat="37.95898375053083" lon="13.401792391877565"><ele>311.2</ele><time>2026-04-26T09:52:26Z</time></trkpt><trkpt lat="37.958915260506295" lon="13.401891939195513"><ele>309.4</ele><time>2026-04-26T09:52:27Z</time></trkpt><trkpt lat="37.9588689019133" lon="13.402004007416867"><ele>307.59999999999997</ele><time>2026-04-26T09:52:28Z</time></trkpt><trkpt lat="37.95884345095901" lon="13.402138068605813"><ele>305.8</ele><time>2026-04-26T09:52:29Z</time></trkpt><trkpt lat="37.958839285648935" lon="13.402279382409677"><ele>304.0</ele><time>2026-04-26T09:52:30Z</time></trkpt><trkpt lat="37.95886539213906" lon="13.40241325495299"><ele>301.0</ele><time>2026-04-26T09:52:31Z</time></trkpt><trkpt lat="37.958920161419044" lon="13.402544869573482"><ele>298.0</ele><time>2026-04-26T09:52:32Z</time></trkpt><trkpt lat="37.95899326659622" lon="13.402666280397295"><ele>295.0</ele><time>2026-04-26T09:52:33Z</time></trkpt><trkpt lat="37.9590910435744" lon="13.402780787738555"><ele>292.0</ele><time>2026-04-26T09:52:34Z</time></trkpt><trkpt lat="37.959189648524585" lon="13.40288460998235"><ele>291.5</ele><time>2026-04-26T09:52:35Z</time></trkpt><trkpt lat="37.95927308798767" lon="13.402992979068966"><ele>291.0</ele><time>2026-04-26T09:52:36Z</time></trkpt><trkpt lat="37.9593465785524" lon="13.403121470573822"><ele>290.5</ele><time>2026-04-26T09:52:37Z</time></trkpt><trkpt lat="37.959400295395405" lon="13.403239788502503"><ele>290.0</ele><time>2026-04-26T09:52:38Z</time></trkpt><trkpt lat="37.95943565706153" lon="13.403357526705621"><ele>288.75</ele><time>2026-04-26T09:52:39Z</time></trkpt><trkpt lat="37.95944925621887" lon="13.403477198435642"><ele>287.5</ele><time>2026-04-26T09:52:40Z</time></trkpt><trkpt lat="37.95944953841757" lon="13.403619184922572"><ele>286.25</ele><time>2026-04-26T09:52:41Z</time></trkpt><trkpt lat="37.95945317168633" lon="13.403792147348584"><ele>285.0</ele><time>2026-04-26T09:52:42Z</time></trkpt><trkpt lat="37.9594575634711" lon="13.40398008878131"><ele>285.0</ele><time>2026-04-26T09:52:43Z</time></trkpt><trkpt lat="37.959467252563215" lon="13.404181259871184"><ele>285.0</ele><time>2026-04-26T09:52:44Z</time></trkpt><trkpt lat="37.959486500548586" lon="13.40439774925616"><ele>285.0</ele><time>2026-04-26T09:52:45Z</time></trkpt><trkpt lat="37.95950375955119" lon="13.404608571979452"><ele>285.75</ele><time>2026-04-26T09:52:46Z</time></trkpt><trkpt lat="37.95952690181494" lon="13.404806823027165"><ele>286.5</ele><time>2026-04-26T09:52:47Z</time></trkpt><trkpt lat="37.9595601938679" lon="13.404983328360489"><ele>287.25</ele><time>2026-04-26T09:52:48Z</time></trkpt><trkpt lat="37.95960752904303" lon="13.40515836457016"><ele>288.0</ele><time>2026-04-26T09:52:49Z</time></trkpt><trkpt lat="37.959657402363696" lon="13.40532518526927"><ele>288.0</ele><time>2026-04-26T09:52:50Z</time></trkpt><trkpt lat="37.95971599026104" lon="13.40547295614431"><ele>288.0</ele><time>2026-04-26T09:52:51Z</time></trkpt><trkpt lat="37.959782690953006" lon="13.405605293194021"><ele>288.0</ele><time>2026-04-26T09:52:52Z</time></trkpt><trkpt lat="37.959868240245804" lon="13.405724311977272"><ele>288.0</ele><time>2026-04-26T09:52:53Z</time></trkpt><trkpt lat="37.95997402029413" lon="13.405830317862636"><ele>290.5</ele><time>2026-04-26T09:52:54Z</time></trkpt><trkpt lat="37.9600987664976" lon="13.405925535165668"><ele>293.0</ele><time>2026-04-26T09:52:55Z</time></trkpt><trkpt lat="37.960235136120104" lon="13.406011296923639"><ele>295.5</ele><time>2026-04-26T09:52:56Z</time></trkpt><trkpt lat="37.960361387118" lon="13.406089097524228"><ele>298.0</ele><time>2026-04-26T09:52:57Z</time></trkpt><trkpt lat="37.96046210938152" lon="13.406174607341823"><ele>298.0</ele><time>2026-04-26T09:52:58Z</time></trkpt><trkpt lat="37.96055477691121" lon="13.406241126822819"><ele>298.0</ele><time>2026-04-26T09:52:59Z</time></trkpt><trkpt lat="37.960628368052035" lon="13.406298834674757"><ele>298.0</ele><time>2026-04-26T09:53:00Z</time></trkpt><trkpt lat="37.96069765198308" lon="13.406362071278162"><ele>298.0</ele><time>2026-04-26T09:53:01Z</time></trkpt><trkpt lat="37.96076000628514" lon="13.406442650017995"><ele>298.0</ele><time>2026-04-26T09:53:02Z</time></trkpt><trkpt lat="37.96077959682662" lon="13.40657193051259"><ele>299.0</ele><time>2026-04-26T09:53:03Z</time></trkpt><trkpt lat="37.96078099896894" lon="13.40672719567895"><ele>300.0</ele><time>2026-04-26T09:53:04Z</time></trkpt><trkpt lat="37.96078362831537" lon="13.40691070511787"><ele>301.0</ele><time>2026-04-26T09:53:05Z</time></trkpt><trkpt lat="37.960810883253046" lon="13.407103710261968"><ele>302.0</ele><time>2026-04-26T09:53:06Z</time></trkpt><trkpt lat="37.96085833042552" lon="13.407294726244162"><ele>299.25</ele><time>2026-04-26T09:53:07Z</time></trkpt><trkpt lat="37.96091109653283" lon="13.4074793281166"><ele>296.5</ele><time>2026-04-26T09:53:08Z</time></trkpt><trkpt lat="37.96098119169084" lon="13.407644408151642"><ele>293.75</ele><time>2026-04-26T09:53:09Z</time></trkpt><trkpt lat="37.96103255511915" lon="13.40777885723851"><ele>291.0</ele><time>2026-04-26T09:53:10Z</time></trkpt><trkpt lat="37.96106573988422" lon="13.407887358949429"><ele>291.0</ele><time>2026-04-26T09:53:11Z</time></trkpt><trkpt lat="37.961078081420126" lon="13.407985102217658"><ele>291.0</ele><time>2026-04-26T09:53:12Z</time></trkpt><trkpt lat="37.96106396919" lon="13.40808030086724"><ele>291.0</ele><time>2026-04-26T09:53:13Z</time></trkpt><trkpt lat="37.96102656592853" lon="13.408166413497682"><ele>291.0</ele><time>2026-04-26T09:53:14Z</time></trkpt><trkpt lat="37.96095594544239" lon="13.408250594677206"><ele>291.0</ele><time>2026-04-26T09:53:15Z</time></trkpt><trkpt lat="37.960875268843644" lon="13.408341497120805"><ele>291.0</ele><time>2026-04-26T09:53:16Z</time></trkpt><trkpt lat="37.96077041889945" lon="13.408439687425835"><ele>296.25</ele><time>2026-04-26T09:53:17Z</time></trkpt><trkpt lat="37.960661040051995" lon="13.408545201785506"><ele>301.5</ele><time>2026-04-26T09:53:17.999Z</time></trkpt><trkpt lat="37.96055331190173" lon="13.4086490964884"><ele>306.75</ele><time>2026-04-26T09:53:18.999Z</time></trkpt><trkpt lat="37.9604681792205" lon="13.408746054674229"><ele>312.0</ele><time>2026-04-26T09:53:19.999Z</time></trkpt><trkpt lat="37.96040544494203" lon="13.408862198047691"><ele>312.0</ele><time>2026-04-26T09:53:20.999Z</time></trkpt><trkpt lat="37.96035760327728" lon="13.409011608484972"><ele>312.0</ele><time>2026-04-26T09:53:21.999Z</time></trkpt><trkpt lat="37.960320590449356" lon="13.409185428922674"><ele>312.0</ele><time>2026-04-26T09:53:23.001Z</time></trkpt><trkpt lat="37.96028883549599" lon="13.409371953899917"><ele>312.0</ele><time>2026-04-26T09:53:24.001Z</time></trkpt><trkpt lat="37.960256058278596" lon="13.409557504583079"><ele>312.25</ele><time>2026-04-26T09:53:25.001Z</time></trkpt><trkpt lat="37.96021715284672" lon="13.40973342643732"><ele>312.5</ele><time>2026-04-26T09:53:26.001Z</time></trkpt><trkpt lat="37.96017965670661" lon="13.40989390974747"><ele>312.75</ele><time>2026-04-26T09:53:27.001Z</time></trkpt><trkpt lat="37.96014777391435" lon="13.410045627139217"><ele>313.0</ele><time>2026-04-26T09:53:28.001Z</time></trkpt><trkpt lat="37.96013705979145" lon="13.410220872044652"><ele>313.0</ele><time>2026-04-26T09:53:29.001Z</time></trkpt><trkpt lat="37.96013857357656" lon="13.410416086007148"><ele>313.0</ele><time>2026-04-26T09:53:30.001Z</time></trkpt><trkpt lat="37.96013592470996" lon="13.410616447793519"><ele>313.0</ele><time>2026-04-26T09:53:31.001Z</time></trkpt><trkpt lat="37.96011283906995" lon="13.410811968537429"><ele>314.3333333333333</ele><time>2026-04-26T09:53:32.001Z</time></trkpt><trkpt lat="37.96007782572712" lon="13.411011999565545"><ele>315.6666666666667</ele><time>2026-04-26T09:53:33.001Z</time></trkpt><trkpt lat="37.96004420990927" lon="13.411211116174389"><ele>317.0</ele><time>2026-04-26T09:53:34.001Z</time></trkpt><trkpt lat="37.96001007642981" lon="13.411418784250804"><ele>322.33333333333337</ele><time>2026-04-26T09:53:35.001Z</time></trkpt><trkpt lat="37.95996681684255" lon="13.411632858779642"><ele>327.6666666666667</ele><time>2026-04-26T09:53:36.001Z</time></trkpt><trkpt lat="37.959911206511805" lon="13.411850925110192"><ele>333.0</ele><time>2026-04-26T09:53:37.001Z</time></trkpt><trkpt lat="37.95986494508407" lon="13.4120395493713"><ele>333.5</ele><time>2026-04-26T09:53:38.001Z</time></trkpt><trkpt lat="37.959826919542806" lon="13.412216848920448"><ele>334.0</ele><time>2026-04-26T09:53:39.001Z</time></trkpt><trkpt lat="37.95979211913105" lon="13.412375147589067"><ele>334.5</ele><time>2026-04-26T09:53:40.001Z</time></trkpt><trkpt lat="37.959759707022066" lon="13.412523402506011"><ele>335.0</ele><time>2026-04-26T09:53:41.001Z</time></trkpt><trkpt lat="37.959724809208865" lon="13.412682083144869"><ele>335.0</ele><time>2026-04-26T09:53:42.001Z</time></trkpt><trkpt lat="37.95970260721875" lon="13.412857599448888"><ele>335.0</ele><time>2026-04-26T09:53:43.001Z</time></trkpt><trkpt lat="37.959682299430725" lon="13.41302819267142"><ele>335.0</ele><time>2026-04-26T09:53:44.001Z</time></trkpt><trkpt lat="37.95966583534536" lon="13.413173276277199"><ele>335.0</ele><time>2026-04-26T09:53:45.001Z</time></trkpt><trkpt lat="37.9596449602549" lon="13.413306001071211"><ele>335.0</ele><time>2026-04-26T09:53:46.001Z</time></trkpt><trkpt lat="37.95961282926061" lon="13.413427228112761"><ele>335.0</ele><time>2026-04-26T09:53:47Z</time></trkpt><trkpt lat="37.95955969731442" lon="13.413526735823556"><ele>335.0</ele><time>2026-04-26T09:53:48Z</time></trkpt><trkpt lat="37.95949209150664" lon="13.413586278448541"><ele>335.0</ele><time>2026-04-26T09:53:49Z</time></trkpt><trkpt lat="37.959408160798894" lon="13.413607434858987"><ele>335.0</ele><time>2026-04-26T09:53:50Z</time></trkpt><trkpt lat="37.95932382183832" lon="13.413581058125487"><ele>335.0</ele><time>2026-04-26T09:53:51Z</time></trkpt><trkpt lat="37.95926135704874" lon="13.413534348155414"><ele>335.0</ele><time>2026-04-26T09:53:52Z</time></trkpt><trkpt lat="37.959201418383145" lon="13.41345687771815"><ele>335.0</ele><time>2026-04-26T09:53:53Z</time></trkpt><trkpt lat="37.95917618723803" lon="13.413341890215191"><ele>335.0</ele><time>2026-04-26T09:53:54Z</time></trkpt><trkpt lat="37.959132345859764" lon="13.413213932671695"><ele>335.0</ele><time>2026-04-26T09:53:55Z</time></trkpt><trkpt lat="37.95909175265984" lon="13.413095229697062"><ele>338.5</ele><time>2026-04-26T09:53:56Z</time></trkpt><trkpt lat="37.95904075024714" lon="13.412934265457356"><ele>342.0</ele><time>2026-04-26T09:53:57Z</time></trkpt><trkpt lat="37.958986967246986" lon="13.412771144261946"><ele>345.5</ele><time>2026-04-26T09:53:58Z</time></trkpt><trkpt lat="37.95893504964885" lon="13.412610657018615"><ele>349.0</ele><time>2026-04-26T09:53:59Z</time></trkpt><trkpt lat="37.95890886101857" lon="13.41247031728623"><ele>349.0</ele><time>2026-04-26T09:54:00Z</time></trkpt><trkpt lat="37.958900048978364" lon="13.412316058527722"><ele>349.0</ele><time>2026-04-26T09:54:01Z</time></trkpt><trkpt lat="37.95889755967499" lon="13.41214049780676"><ele>349.0</ele><time>2026-04-26T09:54:02Z</time></trkpt><trkpt lat="37.95889726637216" lon="13.411944847496247"><ele>349.0</ele><time>2026-04-26T09:54:03Z</time></trkpt><trkpt lat="37.958897266369526" lon="13.41174886094508"><ele>349.0</ele><time>2026-04-26T09:54:04Z</time></trkpt><trkpt lat="37.95889785146719" lon="13.41155496792872"><ele>349.0</ele><time>2026-04-26T09:54:05Z</time></trkpt><trkpt lat="37.95889860707906" lon="13.411359983073707"><ele>349.0</ele><time>2026-04-26T09:54:06Z</time></trkpt><trkpt lat="37.95889943735963" lon="13.411154051129028"><ele>350.0</ele><time>2026-04-26T09:54:07Z</time></trkpt><trkpt lat="37.958900908630234" lon="13.410945935805346"><ele>351.0</ele><time>2026-04-26T09:54:08Z</time></trkpt><trkpt lat="37.95890237686701" lon="13.410738249881287"><ele>352.0</ele><time>2026-04-26T09:54:09Z</time></trkpt><trkpt lat="37.95890400439638" lon="13.410532662584039"><ele>352.25</ele><time>2026-04-26T09:54:10Z</time></trkpt><trkpt lat="37.95889915779318" lon="13.410330913954754"><ele>352.5</ele><time>2026-04-26T09:54:11Z</time></trkpt><trkpt lat="37.95886707177854" lon="13.410148310796501"><ele>352.75</ele><time>2026-04-26T09:54:12Z</time></trkpt><trkpt lat="37.958839232398645" lon="13.409976869004488"><ele>353.0</ele><time>2026-04-26T09:54:13Z</time></trkpt><trkpt lat="37.95879232437677" lon="13.409801539267226"><ele>354.0</ele><time>2026-04-26T09:54:14Z</time></trkpt><trkpt lat="37.95872481412492" lon="13.40963133583391"><ele>355.0</ele><time>2026-04-26T09:54:15Z</time></trkpt><trkpt lat="37.958689626625514" lon="13.409483031470176"><ele>356.0</ele><time>2026-04-26T09:54:16Z</time></trkpt><trkpt lat="37.958668400386586" lon="13.409361075843794"><ele>357.0</ele><time>2026-04-26T09:54:17Z</time></trkpt><trkpt lat="37.958667481787984" lon="13.4092242820621"><ele>357.0</ele><time>2026-04-26T09:54:18Z</time></trkpt><trkpt lat="37.95869698778138" lon="13.40910025222098"><ele>357.0</ele><time>2026-04-26T09:54:19Z</time></trkpt><trkpt lat="37.95872858806793" lon="13.408969209795357"><ele>357.0</ele><time>2026-04-26T09:54:20Z</time></trkpt><trkpt lat="37.9587502177606" lon="13.408861741344225"><ele>357.0</ele><time>2026-04-26T09:54:21Z</time></trkpt><trkpt lat="37.95876055884758" lon="13.408772652287105"><ele>357.0</ele><time>2026-04-26T09:54:22Z</time></trkpt><trkpt lat="37.95872004799671" lon="13.408674548971499"><ele>358.8</ele><time>2026-04-26T09:54:23Z</time></trkpt><trkpt lat="37.958660864890305" lon="13.408604036383993"><ele>360.6</ele><time>2026-04-26T09:54:24Z</time></trkpt><trkpt lat="37.95856363807698" lon="13.408628056759405"><ele>362.40000000000003</ele><time>2026-04-26T09:54:25Z</time></trkpt><trkpt lat="37.95848241863061" lon="13.408688745064534"><ele>364.20000000000005</ele><time>2026-04-26T09:54:26Z</time></trkpt><trkpt lat="37.95841790475271" lon="13.408792685703395"><ele>366.0</ele><time>2026-04-26T09:54:27Z</time></trkpt><trkpt lat="37.95836436105643" lon="13.408947244149363"><ele>369.5</ele><time>2026-04-26T09:54:28Z</time></trkpt><trkpt lat="37.95832565731657" lon="13.409097896475386"><ele>373.0</ele><time>2026-04-26T09:54:29Z</time></trkpt><trkpt lat="37.958307040858855" lon="13.409262592387122"><ele>376.5</ele><time>2026-04-26T09:54:30Z</time></trkpt><trkpt lat="37.95830468591274" lon="13.409450321310452"><ele>380.0</ele><time>2026-04-26T09:54:31Z</time></trkpt><trkpt lat="37.95832021667164" lon="13.409638840035948"><ele>379.5</ele><time>2026-04-26T09:54:32Z</time></trkpt><trkpt lat="37.958341227031575" lon="13.409800381761283"><ele>379.0</ele><time>2026-04-26T09:54:33Z</time></trkpt><trkpt lat="37.958342499669726" lon="13.409938246106542"><ele>378.5</ele><time>2026-04-26T09:54:34Z</time></trkpt><trkpt lat="37.95832395156301" lon="13.410074044162158"><ele>378.0</ele><time>2026-04-26T09:54:35Z</time></trkpt><trkpt lat="37.95828184102702" lon="13.410205042941312"><ele>378.0</ele><time>2026-04-26T09:54:36Z</time></trkpt><trkpt lat="37.958211091716514" lon="13.410325951956011"><ele>378.0</ele><time>2026-04-26T09:54:37Z</time></trkpt><trkpt lat="37.95812380028556" lon="13.410452021613025"><ele>378.0</ele><time>2026-04-26T09:54:38Z</time></trkpt><trkpt lat="37.958037338427935" lon="13.410585891167617"><ele>378.0</ele><time>2026-04-26T09:54:39Z</time></trkpt><trkpt lat="37.95795478972743" lon="13.410722287560754"><ele>376.5</ele><time>2026-04-26T09:54:40Z</time></trkpt><trkpt lat="37.95787283457255" lon="13.410853933740533"><ele>375.0</ele><time>2026-04-26T09:54:41Z</time></trkpt><trkpt lat="37.95778080406721" lon="13.410967060754857"><ele>373.5</ele><time>2026-04-26T09:54:42Z</time></trkpt><trkpt lat="37.95766684107455" lon="13.411076758107907"><ele>372.0</ele><time>2026-04-26T09:54:43Z</time></trkpt><trkpt lat="37.95755071748894" lon="13.411184705149696"><ele>375.75</ele><time>2026-04-26T09:54:44Z</time></trkpt><trkpt lat="37.957433895082595" lon="13.411291280239228"><ele>379.5</ele><time>2026-04-26T09:54:45Z</time></trkpt><trkpt lat="37.957326211892045" lon="13.411397905693065"><ele>383.25</ele><time>2026-04-26T09:54:46Z</time></trkpt><trkpt lat="37.95723448321945" lon="13.411534593287747"><ele>387.0</ele><time>2026-04-26T09:54:47Z</time></trkpt><trkpt lat="37.957156162460905" lon="13.411700930783956"><ele>387.0</ele><time>2026-04-26T09:54:48Z</time></trkpt><trkpt lat="37.957085917308945" lon="13.41188876880249"><ele>387.0</ele><time>2026-04-26T09:54:49Z</time></trkpt><trkpt lat="37.95701399771646" lon="13.412083466806079"><ele>387.0</ele><time>2026-04-26T09:54:50Z</time></trkpt><trkpt lat="37.95694203310157" lon="13.41227945695157"><ele>385.3333333333333</ele><time>2026-04-26T09:54:51Z</time></trkpt><trkpt lat="37.956872845267576" lon="13.412489020596425"><ele>383.66666666666663</ele><time>2026-04-26T09:54:52Z</time></trkpt><trkpt lat="37.9567960360286" lon="13.412694996777713"><ele>382.0</ele><time>2026-04-26T09:54:53Z</time></trkpt><trkpt lat="37.95671547663973" lon="13.41288720271374"><ele>388.0</ele><time>2026-04-26T09:54:54Z</time></trkpt><trkpt lat="37.95664510127873" lon="13.413060377317787"><ele>394.0</ele><time>2026-04-26T09:54:55Z</time></trkpt><trkpt lat="37.95658265166456" lon="13.413221443755376"><ele>400.0</ele><time>2026-04-26T09:54:56Z</time></trkpt><trkpt lat="37.956531082667674" lon="13.413376649249942"><ele>406.0</ele><time>2026-04-26T09:54:57Z</time></trkpt><trkpt lat="37.956500207241184" lon="13.413534201120537"><ele>406.0</ele><time>2026-04-26T09:54:58Z</time></trkpt><trkpt lat="37.956494923359706" lon="13.413691549961118"><ele>406.0</ele><time>2026-04-26T09:54:59Z</time></trkpt><trkpt lat="37.956514366459416" lon="13.413839460150363"><ele>406.0</ele><time>2026-04-26T09:55:00Z</time></trkpt><trkpt lat="37.95655606398498" lon="13.413982226810921"><ele>406.0</ele><time>2026-04-26T09:55:01Z</time></trkpt><trkpt lat="37.95661350530544" lon="13.414101088245811"><ele>406.20000000000005</ele><time>2026-04-26T09:55:02Z</time></trkpt><trkpt lat="37.956665693474605" lon="13.414197833545002"><ele>406.40000000000003</ele><time>2026-04-26T09:55:03Z</time></trkpt><trkpt lat="37.95667520355684" lon="13.414293606342087"><ele>406.6</ele><time>2026-04-26T09:55:04Z</time></trkpt><trkpt lat="37.95665916093468" lon="13.414427948071616"><ele>406.8</ele><time>2026-04-26T09:55:06Z</time></trkpt><trkpt lat="37.956528032262504" lon="13.414425912543194"><ele>407.0</ele><time>2026-04-26T09:55:08Z</time></trkpt><trkpt lat="37.956463382690025" lon="13.41437704148891"><ele>407.0</ele><time>2026-04-26T09:55:09Z</time></trkpt><trkpt lat="37.95641574198981" lon="13.414291785866245"><ele>407.0</ele><time>2026-04-26T09:55:10Z</time></trkpt><trkpt lat="37.9563976005413" lon="13.414164815762653"><ele>407.0</ele><time>2026-04-26T09:55:11Z</time></trkpt><trkpt lat="37.95635656016813" lon="13.414021700842092"><ele>407.0</ele><time>2026-04-26T09:55:12Z</time></trkpt><trkpt lat="37.956308373950996" lon="13.413878534611593"><ele>407.0</ele><time>2026-04-26T09:55:13Z</time></trkpt><trkpt lat="37.956260454166646" lon="13.41371608107464"><ele>406.75</ele><time>2026-04-26T09:55:14Z</time></trkpt><trkpt lat="37.9562234329674" lon="13.413539258229829"><ele>406.5</ele><time>2026-04-26T09:55:15Z</time></trkpt><trkpt lat="37.956205229757344" lon="13.413362454963082"><ele>406.25</ele><time>2026-04-26T09:55:16Z</time></trkpt><trkpt lat="37.956188226533236" lon="13.41317759052504"><ele>406.0</ele><time>2026-04-26T09:55:17Z</time></trkpt><trkpt lat="37.9561724116288" lon="13.41299093399128"><ele>406.25</ele><time>2026-04-26T09:55:18Z</time></trkpt><trkpt lat="37.95613961234222" lon="13.412818056191504"><ele>406.5</ele><time>2026-04-26T09:55:19Z</time></trkpt><trkpt lat="37.95612187035404" lon="13.412662276641187"><ele>406.75</ele><time>2026-04-26T09:55:20Z</time></trkpt><trkpt lat="37.95609512942549" lon="13.412534042487675"><ele>407.0</ele><time>2026-04-26T09:55:21Z</time></trkpt><trkpt lat="37.95604859673089" lon="13.412420750083655"><ele>407.0</ele><time>2026-04-26T09:55:21.999Z</time></trkpt><trkpt lat="37.95597845216336" lon="13.412334532614679"><ele>407.0</ele><time>2026-04-26T09:55:22.999Z</time></trkpt><trkpt lat="37.955879965242374" lon="13.412252519328664"><ele>407.0</ele><time>2026-04-26T09:55:23.999Z</time></trkpt><trkpt lat="37.955769204651155" lon="13.41216048523826"><ele>407.0</ele><time>2026-04-26T09:55:24.999Z</time></trkpt><trkpt lat="37.95566648182065" lon="13.412036805702009"><ele>411.8</ele><time>2026-04-26T09:55:25.999Z</time></trkpt><trkpt lat="37.955595470597316" lon="13.411897946052163"><ele>416.6</ele><time>2026-04-26T09:55:26.999Z</time></trkpt><trkpt lat="37.95553776408604" lon="13.41179624507633"><ele>421.40000000000003</ele><time>2026-04-26T09:55:27.999Z</time></trkpt><trkpt lat="37.95550233805332" lon="13.411694796239841"><ele>426.20000000000005</ele><time>2026-04-26T09:55:29.001Z</time></trkpt><trkpt lat="37.955479873791354" lon="13.411587250027926"><ele>431.0</ele><time>2026-04-26T09:55:30.001Z</time></trkpt><trkpt lat="37.95549528158008" lon="13.411481557439226"><ele>431.0</ele><time>2026-04-26T09:55:31.001Z</time></trkpt><trkpt lat="37.955538260883806" lon="13.411386296345004"><ele>431.0</ele><time>2026-04-26T09:55:32.001Z</time></trkpt><trkpt lat="37.95559382562932" lon="13.411296354785126"><ele>431.0</ele><time>2026-04-26T09:55:33.001Z</time></trkpt><trkpt lat="37.95567558873787" lon="13.411191363940063"><ele>431.0</ele><time>2026-04-26T09:55:34.001Z</time></trkpt><trkpt lat="37.955775206340974" lon="13.41106549810322"><ele>431.0</ele><time>2026-04-26T09:55:35.001Z</time></trkpt><trkpt lat="37.95588168295072" lon="13.410928544267975"><ele>429.8</ele><time>2026-04-26T09:55:36Z</time></trkpt><trkpt lat="37.95596128387969" lon="13.41080772658604"><ele>428.6</ele><time>2026-04-26T09:55:37Z</time></trkpt><trkpt lat="37.95601532461643" lon="13.410704065837956"><ele>427.4</ele><time>2026-04-26T09:55:38Z</time></trkpt><trkpt lat="37.95605536800702" lon="13.41059225798941"><ele>426.2</ele><time>2026-04-26T09:55:39Z</time></trkpt><trkpt lat="37.95609368894977" lon="13.410466179887633"><ele>425.0</ele><time>2026-04-26T09:55:40Z</time></trkpt><trkpt lat="37.956104573288044" lon="13.410337688375837"><ele>424.99999999999994</ele><time>2026-04-26T09:55:41Z</time></trkpt><trkpt lat="37.95612266605982" lon="13.41024870087155"><ele>425.0</ele><time>2026-04-26T09:55:42Z</time></trkpt><trkpt lat="37.95610377557239" lon="13.410120131603406"><ele>425.0</ele><time>2026-04-26T09:55:44Z</time></trkpt><trkpt lat="37.95603761454414" lon="13.410076562341041"><ele>425.0</ele><time>2026-04-26T09:55:45Z</time></trkpt><trkpt lat="37.95595458555688" lon="13.410074219207333"><ele>424.99999999999994</ele><time>2026-04-26T09:55:46Z</time></trkpt><trkpt lat="37.95589975077719" lon="13.41011982197082"><ele>425.0</ele><time>2026-04-26T09:55:47Z</time></trkpt><trkpt lat="37.95586168491199" lon="13.410203183955444"><ele>430.0</ele><time>2026-04-26T09:55:48Z</time></trkpt><trkpt lat="37.95583210987562" lon="13.410329898483683"><ele>435.0</ele><time>2026-04-26T09:55:49Z</time></trkpt><trkpt lat="37.95578859987418" lon="13.410462759586574"><ele>440.0</ele><time>2026-04-26T09:55:50Z</time></trkpt><trkpt lat="37.955722325779654" lon="13.410569466171737"><ele>445.0</ele><time>2026-04-26T09:55:51Z</time></trkpt><trkpt lat="37.95562882725048" lon="13.410685000703788"><ele>445.0</ele><time>2026-04-26T09:55:52Z</time></trkpt><trkpt lat="37.955527646990504" lon="13.410806130037045"><ele>445.0</ele><time>2026-04-26T09:55:53Z</time></trkpt><trkpt lat="37.955418378954754" lon="13.410912653935677"><ele>445.0</ele><time>2026-04-26T09:55:54Z</time></trkpt><trkpt lat="37.955297458986195" lon="13.411012249703383"><ele>445.0</ele><time>2026-04-26T09:55:55Z</time></trkpt><trkpt lat="37.955177759810574" lon="13.411089622601608"><ele>445.0</ele><time>2026-04-26T09:55:55.999Z</time></trkpt><trkpt lat="37.95507262443356" lon="13.411141724409529"><ele>445.0</ele><time>2026-04-26T09:55:56.999Z</time></trkpt><trkpt lat="37.954980505274435" lon="13.411202047871875"><ele>445.0</ele><time>2026-04-26T09:55:57.999Z</time></trkpt><trkpt lat="37.95490311625706" lon="13.411281547868231"><ele>445.0</ele><time>2026-04-26T09:55:58.999Z</time></trkpt><trkpt lat="37.954842283659545" lon="13.411378085044385"><ele>445.0</ele><time>2026-04-26T09:55:59.999Z</time></trkpt><trkpt lat="37.95481510481568" lon="13.411500422793647"><ele>449.75</ele><time>2026-04-26T09:56:00.999Z</time></trkpt><trkpt lat="37.95481003956984" lon="13.41163991886102"><ele>454.5</ele><time>2026-04-26T09:56:01.999Z</time></trkpt><trkpt lat="37.95482588748085" lon="13.411790432860137"><ele>459.25</ele><time>2026-04-26T09:56:02.999Z</time></trkpt><trkpt lat="37.95486944423431" lon="13.411955435141975"><ele>464.0</ele><time>2026-04-26T09:56:03.999Z</time></trkpt><trkpt lat="37.95491356515074" lon="13.412123134686965"><ele>466.75</ele><time>2026-04-26T09:56:04.999Z</time></trkpt><trkpt lat="37.954972721856805" lon="13.41228550400325"><ele>469.5</ele><time>2026-04-26T09:56:05.999Z</time></trkpt><trkpt lat="37.955045306572856" lon="13.412420468414904"><ele>472.25</ele><time>2026-04-26T09:56:06.999Z</time></trkpt><trkpt lat="37.95513056892852" lon="13.412516099894082"><ele>475.0</ele><time>2026-04-26T09:56:07.999Z</time></trkpt><trkpt lat="37.95520765393641" lon="13.412598395312761"><ele>467.0</ele><time>2026-04-26T09:56:08.999Z</time></trkpt><trkpt lat="37.95528019848043" lon="13.412645981067001"><ele>459.0</ele><time>2026-04-26T09:56:09.999Z</time></trkpt><trkpt lat="37.95536634488289" lon="13.412733531614828"><ele>451.0</ele><time>2026-04-26T09:56:11.999Z</time></trkpt><trkpt lat="37.955338929638046" lon="13.41286477004942"><ele>443.0</ele><time>2026-04-26T09:56:13.999Z</time></trkpt><trkpt lat="37.955269438671266" lon="13.412894835774663"><ele>435.0</ele><time>2026-04-26T09:56:14.999Z</time></trkpt><trkpt lat="37.95519390691268" lon="13.412868449758674"><ele>435.0</ele><time>2026-04-26T09:56:15.999Z</time></trkpt><trkpt lat="37.955126440459196" lon="13.412793935022258"><ele>435.0</ele><time>2026-04-26T09:56:16.999Z</time></trkpt><trkpt lat="37.95505258313756" lon="13.4126853446451"><ele>435.0</ele><time>2026-04-26T09:56:17.999Z</time></trkpt><trkpt lat="37.95496784855113" lon="13.412562732558689"><ele>435.0</ele><time>2026-04-26T09:56:18.999Z</time></trkpt><trkpt lat="37.95488628545488" lon="13.412440627792584"><ele>442.25</ele><time>2026-04-26T09:56:19.999Z</time></trkpt><trkpt lat="37.95479819863817" lon="13.412301058636857"><ele>449.5</ele><time>2026-04-26T09:56:20.999Z</time></trkpt><trkpt lat="37.95474487390479" lon="13.41213727295439"><ele>456.75</ele><time>2026-04-26T09:56:21.999Z</time></trkpt><trkpt lat="37.95469017118641" lon="13.41197202507689"><ele>464.0</ele><time>2026-04-26T09:56:22.999Z</time></trkpt><trkpt lat="37.95462837101775" lon="13.411823596487737"><ele>464.0</ele><time>2026-04-26T09:56:23.999Z</time></trkpt><trkpt lat="37.95458840171309" lon="13.411684484573032"><ele>464.0</ele><time>2026-04-26T09:56:24.999Z</time></trkpt><trkpt lat="37.9545390567756" lon="13.411546601077985"><ele>464.0</ele><time>2026-04-26T09:56:25.999Z</time></trkpt><trkpt lat="37.95447024515463" lon="13.411419972751697"><ele>464.0</ele><time>2026-04-26T09:56:26.999Z</time></trkpt><trkpt lat="37.95440499812781" lon="13.411299816133377"><ele>465.8333333333333</ele><time>2026-04-26T09:56:27.999Z</time></trkpt><trkpt lat="37.9543427770156" lon="13.411210421689178"><ele>467.66666666666663</ele><time>2026-04-26T09:56:28.999Z</time></trkpt><trkpt lat="37.954303653765" lon="13.41113828220655"><ele>469.5</ele><time>2026-04-26T09:56:29.999Z</time></trkpt><trkpt lat="37.95432935827996" lon="13.410991890204832"><ele>471.33333333333337</ele><time>2026-04-26T09:56:31.999Z</time></trkpt><trkpt lat="37.95438121939284" lon="13.410922672282123"><ele>473.1666666666667</ele><time>2026-04-26T09:56:32.999Z</time></trkpt><trkpt lat="37.954451641360194" lon="13.410878919376726"><ele>475.0</ele><time>2026-04-26T09:56:33.999Z</time></trkpt><trkpt lat="37.95449645294039" lon="13.41081395096719"><ele>475.0</ele><time>2026-04-26T09:56:34.999Z</time></trkpt><trkpt lat="37.95453241272915" lon="13.41069156168415"><ele>475.0</ele><time>2026-04-26T09:56:36.999Z</time></trkpt><trkpt lat="37.95448289351427" lon="13.4105969184175"><ele>475.0</ele><time>2026-04-26T09:56:37.999Z</time></trkpt><trkpt lat="37.95440864021294" lon="13.41054529207759"><ele>475.0</ele><time>2026-04-26T09:56:38.999Z</time></trkpt><trkpt lat="37.95430111186216" lon="13.410549717891074"><ele>475.0</ele><time>2026-04-26T09:56:39.999Z</time></trkpt><trkpt lat="37.95419929024002" lon="13.41062023523246"><ele>479.2</ele><time>2026-04-26T09:56:40.999Z</time></trkpt><trkpt lat="37.95411805889605" lon="13.410679413608527"><ele>483.4</ele><time>2026-04-26T09:56:41.999Z</time></trkpt><trkpt lat="37.95406905798017" lon="13.410766414650082"><ele>487.6</ele><time>2026-04-26T09:56:42.999Z</time></trkpt><trkpt lat="37.95403787278472" lon="13.410874385677504"><ele>491.8</ele><time>2026-04-26T09:56:43.999Z</time></trkpt><trkpt lat="37.954065451857495" lon="13.411025246766142"><ele>496.0</ele><time>2026-04-26T09:56:44.999Z</time></trkpt><trkpt lat="37.954127367347084" lon="13.411190266142917"><ele>485.33333333333337</ele><time>2026-04-26T09:56:45.999Z</time></trkpt><trkpt lat="37.95421231385327" lon="13.411350833630502"><ele>474.66666666666663</ele><time>2026-04-26T09:56:46.999Z</time></trkpt><trkpt lat="37.95429627607548" lon="13.411525538284847"><ele>464.0</ele><time>2026-04-26T09:56:47.999Z</time></trkpt><trkpt lat="37.95438506250897" lon="13.411725494722472"><ele>464.0</ele><time>2026-04-26T09:56:48.999Z</time></trkpt><trkpt lat="37.954459878477216" lon="13.41194321218684"><ele>464.0</ele><time>2026-04-26T09:56:49.999Z</time></trkpt><trkpt lat="37.95454164326562" lon="13.412153368990921"><ele>464.0</ele><time>2026-04-26T09:56:50.999Z</time></trkpt><trkpt lat="37.95462690968354" lon="13.412335729024168"><ele>466.2</ele><time>2026-04-26T09:56:51.999Z</time></trkpt><trkpt lat="37.954669279974844" lon="13.41248939676268"><ele>468.4</ele><time>2026-04-26T09:56:52.999Z</time></trkpt><trkpt lat="37.95471236129394" lon="13.412603821324382"><ele>470.6</ele><time>2026-04-26T09:56:53.999Z</time></trkpt><trkpt lat="37.95475208017126" lon="13.412710226698684"><ele>472.8</ele><time>2026-04-26T09:56:54.999Z</time></trkpt><trkpt lat="37.95478986386209" lon="13.412812685585244"><ele>475.0</ele><time>2026-04-26T09:56:55.999Z</time></trkpt><trkpt lat="37.95483347887294" lon="13.412883381845917"><ele>477.8</ele><time>2026-04-26T09:56:56.999Z</time></trkpt><trkpt lat="37.95486193356561" lon="13.413023801060156"><ele>480.6</ele><time>2026-04-26T09:56:58.999Z</time></trkpt><trkpt lat="37.95488177157869" lon="13.413126072991087"><ele>483.4</ele><time>2026-04-26T09:56:59.999Z</time></trkpt><trkpt lat="37.954878768023754" lon="13.413246854875489"><ele>486.2</ele><time>2026-04-26T09:57:00.999Z</time></trkpt><trkpt lat="37.95490032936488" lon="13.413363260276311"><ele>489.0</ele><time>2026-04-26T09:57:01.999Z</time></trkpt><trkpt lat="37.95491681605519" lon="13.413461725269665"><ele>489.0</ele><time>2026-04-26T09:57:02.999Z</time></trkpt><trkpt lat="37.95494196394024" lon="13.413545049905935"><ele>489.00000000000006</ele><time>2026-04-26T09:57:03.999Z</time></trkpt><trkpt lat="37.954969242732275" lon="13.41363051251784"><ele>489.0</ele><time>2026-04-26T09:57:04.999Z</time></trkpt><trkpt lat="37.955003319065305" lon="13.41371306884079"><ele>489.0</ele><time>2026-04-26T09:57:05.999Z</time></trkpt><trkpt lat="37.95502237143838" lon="13.413813440567214"><ele>489.00000000000006</ele><time>2026-04-26T09:57:06.999Z</time></trkpt><trkpt lat="37.95504791790181" lon="13.413915680970625"><ele>489.0</ele><time>2026-04-26T09:57:07.999Z</time></trkpt><trkpt lat="37.95505318712276" lon="13.413996800938914"><ele>489.0</ele><time>2026-04-26T09:57:08.999Z</time></trkpt><trkpt lat="37.95500942517152" lon="13.414118377152674"><ele>490.6666666666667</ele><time>2026-04-26T09:57:10.999Z</time></trkpt><trkpt lat="37.9549427991061" lon="13.41417992359874"><ele>492.33333333333337</ele><time>2026-04-26T09:57:11.999Z</time></trkpt><trkpt lat="37.95488437621623" lon="13.414235075900258"><ele>494.0</ele><time>2026-04-26T09:57:15.999Z</time></trkpt><trkpt lat="37.95481929759712" lon="13.414319087774269"><ele>495.6666666666667</ele><time>2026-04-26T09:57:32.998Z</time></trkpt><trkpt lat="37.95476300013375" lon="13.414363573116882"><ele>497.33333333333337</ele><time>2026-04-26T09:57:33.998Z</time></trkpt><trkpt lat="37.9546881148234" lon="13.41442177549274"><ele>499.0</ele><time>2026-04-26T09:57:35Z</time></trkpt><trkpt lat="37.95462465423708" lon="13.414469016091239"><ele>499.0</ele><time>2026-04-26T09:57:36Z</time></trkpt><trkpt lat="37.95454618155774" lon="13.414524555333596"><ele>499.0</ele><time>2026-04-26T09:57:38Z</time></trkpt><trkpt lat="37.95448069612619" lon="13.414567287848417"><ele>499.0</ele><time>2026-04-26T09:57:40Z</time></trkpt><trkpt lat="37.95441857316809" lon="13.414648918705891"><ele>499.0</ele><time>2026-04-26T09:57:44Z</time></trkpt><trkpt lat="37.95431401734519" lon="13.414716240326507"><ele>499.0</ele><time>2026-04-26T09:57:46Z</time></trkpt><trkpt lat="37.95423829340528" lon="13.414784612189601"><ele>497.2</ele><time>2026-04-26T09:57:48Z</time></trkpt><trkpt lat="37.954152715323154" lon="13.414859640647052"><ele>495.4</ele><time>2026-04-26T09:57:50Z</time></trkpt><trkpt lat="37.9540644091511" lon="13.41493783283596"><ele>493.6</ele><time>2026-04-26T09:58:00.999Z</time></trkpt><trkpt lat="37.95400642078759" lon="13.414969444111616"><ele>491.8</ele><time>2026-04-26T09:58:02.999Z</time></trkpt><trkpt lat="37.95402229487854" lon="13.415114918648996"><ele>490.0</ele><time>2026-04-26T09:58:06.999Z</time></trkpt><trkpt lat="37.95406608254024" lon="13.41519159535059"><ele>490.00000000000006</ele><time>2026-04-26T09:58:58.999Z</time></trkpt><trkpt lat="37.95402986653227" lon="13.415123681056143"><ele>490.0</ele><time>2026-04-26T09:59:13.999Z</time></trkpt><trkpt lat="37.954014243103614" lon="13.41500571049495"><ele>490.0</ele><time>2026-04-26T09:59:15.999Z</time></trkpt><trkpt lat="37.95397088338015" lon="13.41492023264894"><ele>490.0</ele><time>2026-04-26T09:59:17.999Z</time></trkpt><trkpt lat="37.95391556982595" lon="13.41480716479559"><ele>490.00000000000006</ele><time>2026-04-26T09:59:19.999Z</time></trkpt><trkpt lat="37.95386039752382" lon="13.414721137417054"><ele>490.0</ele><time>2026-04-26T09:59:21.999Z</time></trkpt><trkpt lat="37.95379490346735" lon="13.41462607307229"><ele>490.0</ele><time>2026-04-26T09:59:23.999Z</time></trkpt><trkpt lat="37.95377466498378" lon="13.414523376216767"><ele>490.0</ele><time>2026-04-26T09:59:25.999Z</time></trkpt><trkpt lat="37.953717285857564" lon="13.414474192717023"><ele>490.0</ele><time>2026-04-26T09:59:28.999Z</time></trkpt><trkpt lat="37.95359389817382" lon="13.41445605521944"><ele>490.0</ele><time>2026-04-26T09:59:31.998Z</time></trkpt><trkpt lat="37.953642003689794" lon="13.414599226712248"><ele>490.0</ele><time>2026-04-26T09:59:32.998Z</time></trkpt><trkpt lat="37.9536718757453" lon="13.414691310346315"><ele>490.0</ele><time>2026-04-26T09:59:54.999Z</time></trkpt><trkpt lat="37.953714560982306" lon="13.414793250493096"><ele>490.0</ele><time>2026-04-26T09:59:58.999Z</time></trkpt><trkpt lat="37.95374985684545" lon="13.414890660974548"><ele>490.0</ele><time>2026-04-26T10:00:00.999Z</time></trkpt><trkpt lat="37.953786552831666" lon="13.415000466046079"><ele>490.0</ele><time>2026-04-26T10:00:02.999Z</time></trkpt><trkpt lat="37.953814407113086" lon="13.415091934263177"><ele>490.0</ele><time>2026-04-26T10:00:04.999Z</time></trkpt><trkpt lat="37.954099677735776" lon="13.414950601896274"><ele>490.00000000000006</ele><time>2026-04-26T10:00:10.999Z</time></trkpt><trkpt lat="37.95415951033451" lon="13.414873231046931"><ele>490.0</ele><time>2026-04-26T10:00:22.999Z</time></trkpt><trkpt lat="37.95423332853676" lon="13.414806476431608"><ele>490.0</ele><time>2026-04-26T10:00:24.999Z</time></trkpt><trkpt lat="37.95431233211459" lon="13.414772152991015"><ele>490.0</ele><time>2026-04-26T10:00:26.999Z</time></trkpt><trkpt lat="37.95436807679432" lon="13.41469896527027"><ele>490.00000000000006</ele><time>2026-04-26T10:00:28.999Z</time></trkpt><trkpt lat="37.954426359792556" lon="13.414660982022822"><ele>490.0</ele><time>2026-04-26T10:00:30.999Z</time></trkpt><trkpt lat="37.95449174034047" lon="13.414599914760647"><ele>491.50000000000006</ele><time>2026-04-26T10:00:33.999Z</time></trkpt><trkpt lat="37.95453634655146" lon="13.414534969039819"><ele>493.0</ele><time>2026-04-26T10:00:35.999Z</time></trkpt><trkpt lat="37.95459930337358" lon="13.414507252207876"><ele>494.5</ele><time>2026-04-26T10:00:41.999Z</time></trkpt><trkpt lat="37.954701708958616" lon="13.414448482627412"><ele>496.0</ele><time>2026-04-26T10:00:43.999Z</time></trkpt><trkpt lat="37.954758253544234" lon="13.414391383078069"><ele>497.50000000000006</ele><time>2026-04-26T10:00:44.999Z</time></trkpt><trkpt lat="37.95481742920494" lon="13.414329802535011"><ele>499.0</ele><time>2026-04-26T10:00:45.999Z</time></trkpt><trkpt lat="37.9548823000019" lon="13.414290538351297"><ele>499.0</ele><time>2026-04-26T10:00:48.999Z</time></trkpt><trkpt lat="37.95480218649729" lon="13.414044891788134"><ele>499.0</ele><time>2026-04-26T10:00:54.999Z</time></trkpt><trkpt lat="37.954729832425585" lon="13.413926005942566"><ele>499.0</ele><time>2026-04-26T10:00:56.999Z</time></trkpt><trkpt lat="37.95465655091315" lon="13.41380814581295"><ele>499.0</ele><time>2026-04-26T10:00:58.999Z</time></trkpt><trkpt lat="37.95458619887358" lon="13.413727903043473"><ele>497.33333333333337</ele><time>2026-04-26T10:01:00.999Z</time></trkpt><trkpt lat="37.954547557716694" lon="13.41363579643511"><ele>495.6666666666667</ele><time>2026-04-26T10:01:01.999Z</time></trkpt><trkpt lat="37.954504180559795" lon="13.413570845115778"><ele>494.0</ele><time>2026-04-26T10:01:02.999Z</time></trkpt><trkpt lat="37.95446302138159" lon="13.413509256101737"><ele>492.33333333333337</ele><time>2026-04-26T10:01:03.999Z</time></trkpt><trkpt lat="37.954414609057956" lon="13.413437208187075"><ele>490.6666666666667</ele><time>2026-04-26T10:01:04.999Z</time></trkpt><trkpt lat="37.95436626237277" lon="13.413367150458164"><ele>489.0</ele><time>2026-04-26T10:01:05.999Z</time></trkpt><trkpt lat="37.95429369402803" lon="13.413261993753538"><ele>489.0</ele><time>2026-04-26T10:01:07.999Z</time></trkpt><trkpt lat="37.95421505319157" lon="13.41314928397967"><ele>489.0</ele><time>2026-04-26T10:01:09.999Z</time></trkpt><trkpt lat="37.95414114808657" lon="13.413045257713453"><ele>489.0</ele><time>2026-04-26T10:01:11.999Z</time></trkpt><trkpt lat="37.95410586893441" lon="13.412957328710744"><ele>489.0</ele><time>2026-04-26T10:01:14.999Z</time></trkpt><trkpt lat="37.95414265346506" lon="13.4128575088754"><ele>489.0</ele><time>2026-04-26T10:01:16.999Z</time></trkpt><trkpt lat="37.95420736167799" lon="13.412751302132127"><ele>486.2</ele><time>2026-04-26T10:01:19.999Z</time></trkpt><trkpt lat="37.9542174585926" lon="13.41263313220259"><ele>483.4</ele><time>2026-04-26T10:01:21.999Z</time></trkpt><trkpt lat="37.95413947995109" lon="13.41251896127451"><ele>480.6</ele><time>2026-04-26T10:01:23.999Z</time></trkpt><trkpt lat="37.95403964071221" lon="13.412439446515581"><ele>477.8</ele><time>2026-04-26T10:01:25.998Z</time></trkpt><trkpt lat="37.95395271926597" lon="13.412428197450643"><ele>475.0</ele><time>2026-04-26T10:01:27.998Z</time></trkpt><trkpt lat="37.95387720673555" lon="13.412482638041336"><ele>482.6</ele><time>2026-04-26T10:01:42.998Z</time></trkpt><trkpt lat="37.95381786829471" lon="13.412541574214993"><ele>490.2</ele><time>2026-04-26T10:01:44.998Z</time></trkpt><trkpt lat="37.953768509910795" lon="13.412596577295455"><ele>497.79999999999995</ele><time>2026-04-26T10:01:46.999Z</time></trkpt><trkpt lat="37.953691613966946" lon="13.412668984388546"><ele>505.4</ele><time>2026-04-26T10:01:48.999Z</time></trkpt><trkpt lat="37.953615053826184" lon="13.412747020475674"><ele>513.0</ele><time>2026-04-26T10:01:50.999Z</time></trkpt><trkpt lat="37.953524261374014" lon="13.412849610412213"><ele>513.0</ele><time>2026-04-26T10:01:52.999Z</time></trkpt><trkpt lat="37.953453040838" lon="13.412904245078694"><ele>513.0</ele><time>2026-04-26T10:01:54.999Z</time></trkpt><trkpt lat="37.9533880957627" lon="13.412946256520527"><ele>513.0</ele><time>2026-04-26T10:01:57.999Z</time></trkpt><trkpt lat="37.95332335873851" lon="13.412918705561856"><ele>513.0</ele><time>2026-04-26T10:01:59.999Z</time></trkpt><trkpt lat="37.953262835550326" lon="13.412973233112623"><ele>513.0</ele><time>2026-04-26T10:02:01.999Z</time></trkpt><trkpt lat="37.95323726619859" lon="13.413094740626246"><ele>513.0</ele><time>2026-04-26T10:02:03.999Z</time></trkpt><trkpt lat="37.95323806775689" lon="13.413218800787027"><ele>513.6666666666666</ele><time>2026-04-26T10:02:19.999Z</time></trkpt><trkpt lat="37.953251749142865" lon="13.41330664911482"><ele>514.3333333333334</ele><time>2026-04-26T10:02:21.999Z</time></trkpt><trkpt lat="37.95320131602347" lon="13.413386590792301"><ele>515.0</ele><time>2026-04-26T10:02:24.999Z</time></trkpt><trkpt lat="37.95314773745647" lon="13.413440307990099"><ele>515.6666666666667</ele><time>2026-04-26T10:02:25.999Z</time></trkpt><trkpt lat="37.95308077300681" lon="13.413491009052969"><ele>516.3333333333334</ele><time>2026-04-26T10:02:27.999Z</time></trkpt><trkpt lat="37.953030281698354" lon="13.413568825509493"><ele>517.0</ele><time>2026-04-26T10:02:29.999Z</time></trkpt><trkpt lat="37.952960036668934" lon="13.413649665888244"><ele>517.0</ele><time>2026-04-26T10:02:31.999Z</time></trkpt><trkpt lat="37.952908731702124" lon="13.4137172938658"><ele>517.0</ele><time>2026-04-26T10:02:34.999Z</time></trkpt><trkpt lat="37.9528381327344" lon="13.413776226342438"><ele>517.0</ele><time>2026-04-26T10:02:36.999Z</time></trkpt><trkpt lat="37.95276772378962" lon="13.413855989206521"><ele>517.0</ele><time>2026-04-26T10:02:38.999Z</time></trkpt><trkpt lat="37.95271130377561" lon="13.413924998330105"><ele>517.0</ele><time>2026-04-26T10:02:40.999Z</time></trkpt><trkpt lat="37.95272634423647" lon="13.414003736294639"><ele>517.0</ele><time>2026-04-26T10:02:44.999Z</time></trkpt><trkpt lat="37.95278200619973" lon="13.41407159396973"><ele>516.0</ele><time>2026-04-26T10:02:46.999Z</time></trkpt><trkpt lat="37.95283329119152" lon="13.414131024120627"><ele>515.0</ele><time>2026-04-26T10:02:48.999Z</time></trkpt><trkpt lat="37.9528908143858" lon="13.414227722707224"><ele>514.0</ele><time>2026-04-26T10:02:52.999Z</time></trkpt><trkpt lat="37.952965419155014" lon="13.41434100527744"><ele>513.0</ele><time>2026-04-26T10:02:54.999Z</time></trkpt><trkpt lat="37.9530032200557" lon="13.414407856417174"><ele>512.0</ele><time>2026-04-26T10:02:55.999Z</time></trkpt><trkpt lat="37.95304912356343" lon="13.414473428084829"><ele>511.0</ele><time>2026-04-26T10:02:56.999Z</time></trkpt><trkpt lat="37.95309549303428" lon="13.414538977600921"><ele>511.00000000000006</ele><time>2026-04-26T10:02:57.999Z</time></trkpt><trkpt lat="37.95314696333576" lon="13.414604795211691"><ele>511.0</ele><time>2026-04-26T10:02:58.999Z</time></trkpt><trkpt lat="37.95319577989666" lon="13.414662463690336"><ele>511.0</ele><time>2026-04-26T10:02:59.999Z</time></trkpt><trkpt lat="37.95324693432543" lon="13.414730457576228"><ele>511.0</ele><time>2026-04-26T10:03:00.999Z</time></trkpt><trkpt lat="37.953287155751525" lon="13.414802799527322"><ele>511.00000000000006</ele><time>2026-04-26T10:03:01.999Z</time></trkpt><trkpt lat="37.95336693243099" lon="13.414902321451263"><ele>511.0</ele><time>2026-04-26T10:03:03.999Z</time></trkpt><trkpt lat="37.953432623633724" lon="13.415024412263863"><ele>510.1666666666667</ele><time>2026-04-26T10:03:05.999Z</time></trkpt><trkpt lat="37.95348064021294" lon="13.415109173533539"><ele>509.33333333333337</ele><time>2026-04-26T10:03:07.999Z</time></trkpt><trkpt lat="37.95344237812457" lon="13.41523303718065"><ele>508.5</ele><time>2026-04-26T10:03:09.999Z</time></trkpt><trkpt lat="37.9533876634377" lon="13.41529193213163"><ele>507.66666666666663</ele><time>2026-04-26T10:03:10.999Z</time></trkpt><trkpt lat="37.95332723271577" lon="13.415336027613371"><ele>506.8333333333333</ele><time>2026-04-26T10:03:11.999Z</time></trkpt><trkpt lat="37.95323502602767" lon="13.415379530808796"><ele>506.0</ele><time>2026-04-26T10:03:13.999Z</time></trkpt><trkpt lat="37.953115194502075" lon="13.415458620277501"><ele>504.8333333333333</ele><time>2026-04-26T10:03:15.999Z</time></trkpt><trkpt lat="37.95305294424806" lon="13.41551020702761"><ele>503.66666666666663</ele><time>2026-04-26T10:03:16.999Z</time></trkpt><trkpt lat="37.95296181464011" lon="13.415566123757152"><ele>502.5</ele><time>2026-04-26T10:03:18.999Z</time></trkpt><trkpt lat="37.95288857669745" lon="13.415614878175145"><ele>501.33333333333337</ele><time>2026-04-26T10:03:20.999Z</time></trkpt><trkpt lat="37.952810406757266" lon="13.415661548250403"><ele>500.1666666666667</ele><time>2026-04-26T10:03:22.999Z</time></trkpt><trkpt lat="37.95273040273996" lon="13.415714835600708"><ele>499.0</ele><time>2026-04-26T10:03:24.999Z</time></trkpt><trkpt lat="37.95265426601204" lon="13.415762564865558"><ele>499.00000000000006</ele><time>2026-04-26T10:03:26.999Z</time></trkpt><trkpt lat="37.95258054141732" lon="13.41581312540386"><ele>499.0</ele><time>2026-04-26T10:03:28.999Z</time></trkpt><trkpt lat="37.9524887179646" lon="13.415874184533381"><ele>499.0</ele><time>2026-04-26T10:03:30.999Z</time></trkpt><trkpt lat="37.952413688601865" lon="13.415914305340849"><ele>499.0</ele><time>2026-04-26T10:03:32.999Z</time></trkpt><trkpt lat="37.952326960883646" lon="13.415954871241054"><ele>499.00000000000006</ele><time>2026-04-26T10:03:35.998Z</time></trkpt><trkpt lat="37.95226642961682" lon="13.415979634312531"><ele>499.0</ele><time>2026-04-26T10:03:43.998Z</time></trkpt><trkpt lat="37.95219159942113" lon="13.41604662652626"><ele>501.6666666666667</ele><time>2026-04-26T10:03:46.998Z</time></trkpt><trkpt lat="37.95213093142022" lon="13.416087634811973"><ele>504.33333333333337</ele><time>2026-04-26T10:03:50.998Z</time></trkpt><trkpt lat="37.952064475092975" lon="13.416095767091052"><ele>507.0</ele><time>2026-04-26T10:03:53.999Z</time></trkpt><trkpt lat="37.952004114196825" lon="13.416132869336439"><ele>509.66666666666663</ele><time>2026-04-26T10:03:55.999Z</time></trkpt><trkpt lat="37.95190340479284" lon="13.416209840514677"><ele>512.3333333333333</ele><time>2026-04-26T10:03:57.999Z</time></trkpt><trkpt lat="37.9518457306718" lon="13.416265026355886"><ele>515.0</ele><time>2026-04-26T10:03:58.999Z</time></trkpt><trkpt lat="37.95176027996127" lon="13.416319865176325"><ele>516.0</ele><time>2026-04-26T10:04:00.999Z</time></trkpt><trkpt lat="37.951661529350936" lon="13.41639862705795"><ele>517.0</ele><time>2026-04-26T10:04:02.999Z</time></trkpt><trkpt lat="37.951585741180246" lon="13.416474222724075"><ele>518.0</ele><time>2026-04-26T10:04:04.999Z</time></trkpt><trkpt lat="37.95153549479281" lon="13.416524683718887"><ele>519.0</ele><time>2026-04-26T10:04:05.999Z</time></trkpt><trkpt lat="37.95146713527689" lon="13.416591517128067"><ele>520.0</ele><time>2026-04-26T10:04:06.999Z</time></trkpt><trkpt lat="37.95140280876338" lon="13.416654406477754"><ele>521.0</ele><time>2026-04-26T10:04:07.999Z</time></trkpt><trkpt lat="37.951331586786125" lon="13.416721020584465"><ele>521.0</ele><time>2026-04-26T10:04:09.999Z</time></trkpt><trkpt lat="37.95144493443352" lon="13.416922323689677"><ele>521.0</ele><time>2026-04-26T10:04:11.999Z</time></trkpt><trkpt lat="37.95150414972468" lon="13.417002497930959"><ele>521.0</ele><time>2026-04-26T10:04:12.999Z</time></trkpt><trkpt lat="37.95154440260407" lon="13.417091763686406"><ele>521.0</ele><time>2026-04-26T10:04:13.999Z</time></trkpt><trkpt lat="37.95160075254909" lon="13.417190499529616"><ele>521.2</ele><time>2026-04-26T10:04:14.999Z</time></trkpt><trkpt lat="37.95165507737861" lon="13.41728512504545"><ele>521.4000000000001</ele><time>2026-04-26T10:04:15.999Z</time></trkpt><trkpt lat="37.951727226790105" lon="13.417396964690031"><ele>521.6</ele><time>2026-04-26T10:04:16.999Z</time></trkpt><trkpt lat="37.95177865539259" lon="13.417501968765102"><ele>521.8000000000001</ele><time>2026-04-26T10:04:17.999Z</time></trkpt><trkpt lat="37.95182761697311" lon="13.417581901211262"><ele>522.0</ele><time>2026-04-26T10:04:18.999Z</time></trkpt><trkpt lat="37.951874169135586" lon="13.417688880073612"><ele>521.1428571428571</ele><time>2026-04-26T10:04:19.999Z</time></trkpt><trkpt lat="37.95191876412363" lon="13.417776095841536"><ele>520.2857142857142</ele><time>2026-04-26T10:04:20.999Z</time></trkpt><trkpt lat="37.951971381592706" lon="13.41784114200825"><ele>519.4285714285713</ele><time>2026-04-26T10:04:21.999Z</time></trkpt><trkpt lat="37.95199093255166" lon="13.417920608640317"><ele>518.5714285714286</ele><time>2026-04-26T10:04:22.999Z</time></trkpt><trkpt lat="37.952027998175964" lon="13.417995111065625"><ele>517.7142857142857</ele><time>2026-04-26T10:04:23.999Z</time></trkpt><trkpt lat="37.95207025428373" lon="13.418080046472252"><ele>516.8571428571428</ele><time>2026-04-26T10:04:24.999Z</time></trkpt><trkpt lat="37.952111104753364" lon="13.418162156583339"><ele>516.0</ele><time>2026-04-26T10:04:25.999Z</time></trkpt><trkpt lat="37.952145086383304" lon="13.418230460304777"><ele>516.0</ele><time>2026-04-26T10:04:26.999Z</time></trkpt><trkpt lat="37.952195746882545" lon="13.418331892516413"><ele>516.0</ele><time>2026-04-26T10:04:28.999Z</time></trkpt><trkpt lat="37.95224380017037" lon="13.418427382185287"><ele>516.0</ele><time>2026-04-26T10:04:30.999Z</time></trkpt><trkpt lat="37.95227826412966" lon="13.418494504865755"><ele>516.0</ele><time>2026-04-26T10:04:32.999Z</time></trkpt><trkpt lat="37.952339797581644" lon="13.418455355713737"><ele>516.0</ele><time>2026-04-26T10:08:31Z</time></trkpt><trkpt lat="37.95224726596167" lon="13.418596000973995"><ele>516.0</ele><time>2026-04-26T10:08:53.999Z</time></trkpt><trkpt lat="37.95218286722472" lon="13.418685030048563"><ele>516.0</ele><time>2026-04-26T10:08:54.999Z</time></trkpt><trkpt lat="37.9521085719868" lon="13.418779765308615"><ele>516.0</ele><time>2026-04-26T10:08:56.999Z</time></trkpt><trkpt lat="37.952029926824025" lon="13.418868376611297"><ele>516.0</ele><time>2026-04-26T10:08:58.999Z</time></trkpt><trkpt lat="37.95161539959801" lon="13.418990494473903"><ele>516.0</ele><time>2026-04-26T10:09:00.999Z</time></trkpt><trkpt lat="37.951475823695986" lon="13.419042414020563"><ele>516.0</ele><time>2026-04-26T10:09:01.999Z</time></trkpt><trkpt lat="37.95133075001864" lon="13.419089116353913"><ele>516.0</ele><time>2026-04-26T10:09:03.065Z</time></trkpt><trkpt lat="37.95224000041248" lon="13.418556556002475"><ele>516.0</ele><time>2026-04-26T10:09:15.471Z</time></trkpt><trkpt lat="37.95233597503998" lon="13.41847009539683"><ele>516.0</ele><time>2026-04-26T10:35:40.999Z</time></trkpt><trkpt lat="37.95230847033155" lon="13.418554325010552"><ele>516.0</ele><time>2026-04-26T10:38:28.433Z</time></trkpt><trkpt lat="37.95227556874161" lon="13.418465663201353"><ele>516.0</ele><time>2026-04-26T10:39:48.999Z</time></trkpt><trkpt lat="37.95231985956856" lon="13.418523963943803"><ele>516.0</ele><time>2026-04-26T10:39:52.999Z</time></trkpt></trkseg></trk></gpx>